<?xml version='1.0' encoding='UTF-8'?><gpx version="1.1" creator="JPX - https://github.com/jenetics/jpx" xmlns="http://www.topografix.com/GPX/1/1"><trk><trkseg><trkpt lat="42.1911765" lon="14.2205769"><ele>568.0</ele><time>2026-05-01T11:53:21.42Z</time></trkpt><trkpt lat="42.1911002" lon="14.220592"><ele>568.0</ele><time>2026-05-01T11:53:24.42Z</time></trkpt><trkpt lat="42.1910341" lon="14.2205935"><ele>568.0</ele><time>2026-05-01T11:53:25.419Z</time></trkpt><trkpt lat="42.1909056" lon="14.2205772"><ele>568.0</ele><time>2026-05-01T11:53:27.42Z</time></trkpt><trkpt lat="42.1908362" lon="14.2205629"><ele>568.0</ele><time>2026-05-01T11:53:28.42Z</time></trkpt><trkpt lat="42.1907705" lon="14.2205652"><ele>568.0</ele><time>2026-05-01T11:53:29.42Z</time></trkpt><trkpt lat="42.1906997" lon="14.2205567"><ele>568.4285714285714</ele><time>2026-05-01T11:53:30.419Z</time></trkpt><trkpt lat="42.1906309" lon="14.2205565"><ele>568.8571428571428</ele><time>2026-05-01T11:53:31.42Z</time></trkpt><trkpt lat="42.1905361" lon="14.2205443"><ele>569.2857142857142</ele><time>2026-05-01T11:53:33.419Z</time></trkpt><trkpt lat="42.1904703" lon="14.2205198"><ele>569.7142857142857</ele><time>2026-05-01T11:53:39.42Z</time></trkpt><trkpt lat="42.1904015" lon="14.2204973"><ele>570.1428571428571</ele><time>2026-05-01T11:53:42.42Z</time></trkpt><trkpt lat="42.1903303" lon="14.2204433"><ele>570.5714285714286</ele><time>2026-05-01T11:53:44.42Z</time></trkpt><trkpt lat="42.1903004" lon="14.2203667"><ele>571.0</ele><time>2026-05-01T11:53:46.42Z</time></trkpt><trkpt lat="42.1902427" lon="14.2202886"><ele>571.0</ele><time>2026-05-01T11:53:49.419Z</time></trkpt><trkpt lat="42.1901463" lon="14.2202435"><ele>571.0</ele><time>2026-05-01T11:53:51.421Z</time></trkpt><trkpt lat="42.1901133" lon="14.220139"><ele>571.0</ele><time>2026-05-01T11:53:53.421Z</time></trkpt><trkpt lat="42.1900575" lon="14.2200225"><ele>571.0</ele><time>2026-05-01T11:53:55.42Z</time></trkpt><trkpt lat="42.1899591" lon="14.2200184"><ele>571.0</ele><time>2026-05-01T11:53:57.419Z</time></trkpt><trkpt lat="42.1898651" lon="14.2200197"><ele>571.0</ele><time>2026-05-01T11:53:59.419Z</time></trkpt><trkpt lat="42.1898354" lon="14.2199412"><ele>571.0</ele><time>2026-05-01T11:54:02.419Z</time></trkpt><trkpt lat="42.1899251" lon="14.2199319"><ele>571.0</ele><time>2026-05-01T11:54:04.419Z</time></trkpt><trkpt lat="42.1900003" lon="14.2199153"><ele>571.0</ele><time>2026-05-01T11:54:05.42Z</time></trkpt><trkpt lat="42.1900804" lon="14.2198878"><ele>571.0</ele><time>2026-05-01T11:54:06.419Z</time></trkpt><trkpt lat="42.1901601" lon="14.2198659"><ele>571.0</ele><time>2026-05-01T11:54:07.419Z</time></trkpt><trkpt lat="42.1902481" lon="14.2198268"><ele>568.4</ele><time>2026-05-01T11:54:08.419Z</time></trkpt><trkpt lat="42.190336" lon="14.2197877"><ele>565.8</ele><time>2026-05-01T11:54:09.419Z</time></trkpt><trkpt lat="42.1904277" lon="14.2197578"><ele>563.1999999999999</ele><time>2026-05-01T11:54:10.418Z</time></trkpt><trkpt lat="42.1905184" lon="14.2197219"><ele>560.6</ele><time>2026-05-01T11:54:11.419Z</time></trkpt><trkpt lat="42.1906152" lon="14.2197144"><ele>558.0</ele><time>2026-05-01T11:54:12.418Z</time></trkpt><trkpt lat="42.1907124" lon="14.2197159"><ele>557.0</ele><time>2026-05-01T11:54:13.418Z</time></trkpt><trkpt lat="42.1908124" lon="14.2197241"><ele>556.0</ele><time>2026-05-01T11:54:14.418Z</time></trkpt><trkpt lat="42.190917" lon="14.21973"><ele>555.0</ele><time>2026-05-01T11:54:15.42Z</time></trkpt><trkpt lat="42.1910218" lon="14.2197354"><ele>554.0</ele><time>2026-05-01T11:54:16.419Z</time></trkpt><trkpt lat="42.1911311" lon="14.2197546"><ele>553.0</ele><time>2026-05-01T11:54:17.419Z</time></trkpt><trkpt lat="42.1912326" lon="14.2197486"><ele>553.0</ele><time>2026-05-01T11:54:18.418Z</time></trkpt><trkpt lat="42.191337" lon="14.2197457"><ele>553.0</ele><time>2026-05-01T11:54:19.42Z</time></trkpt><trkpt lat="42.1914498" lon="14.2197517"><ele>553.0</ele><time>2026-05-01T11:54:20.418Z</time></trkpt><trkpt lat="42.1915651" lon="14.2197696"><ele>553.0</ele><time>2026-05-01T11:54:21.42Z</time></trkpt><trkpt lat="42.1916873" lon="14.2197752"><ele>552.0</ele><time>2026-05-01T11:54:22.419Z</time></trkpt><trkpt lat="42.191808" lon="14.2197821"><ele>551.0</ele><time>2026-05-01T11:54:23.419Z</time></trkpt><trkpt lat="42.1919277" lon="14.219788"><ele>550.0</ele><time>2026-05-01T11:54:24.419Z</time></trkpt><trkpt lat="42.192045" lon="14.2197916"><ele>549.0</ele><time>2026-05-01T11:54:25.42Z</time></trkpt><trkpt lat="42.1921445" lon="14.219806"><ele>551.2</ele><time>2026-05-01T11:54:26.419Z</time></trkpt><trkpt lat="42.1922346" lon="14.2198257"><ele>553.4</ele><time>2026-05-01T11:54:27.418Z</time></trkpt><trkpt lat="42.1923291" lon="14.2198584"><ele>555.6</ele><time>2026-05-01T11:54:28.419Z</time></trkpt><trkpt lat="42.1924312" lon="14.2198929"><ele>557.8</ele><time>2026-05-01T11:54:29.418Z</time></trkpt><trkpt lat="42.1925407" lon="14.2199273"><ele>560.0</ele><time>2026-05-01T11:54:30.419Z</time></trkpt><trkpt lat="42.192651" lon="14.2199812"><ele>560.0</ele><time>2026-05-01T11:54:31.419Z</time></trkpt><trkpt lat="42.1927639" lon="14.2200521"><ele>560.0</ele><time>2026-05-01T11:54:32.419Z</time></trkpt><trkpt lat="42.1928679" lon="14.2201263"><ele>560.0</ele><time>2026-05-01T11:54:33.419Z</time></trkpt><trkpt lat="42.1929563" lon="14.2201952"><ele>560.0</ele><time>2026-05-01T11:54:34.42Z</time></trkpt><trkpt lat="42.1930332" lon="14.2202418"><ele>560.0</ele><time>2026-05-01T11:54:35.42Z</time></trkpt><trkpt lat="42.1930984" lon="14.2202634"><ele>558.0</ele><time>2026-05-01T11:54:36.418Z</time></trkpt><trkpt lat="42.1931753" lon="14.2202918"><ele>556.0</ele><time>2026-05-01T11:54:38.419Z</time></trkpt><trkpt lat="42.1931992" lon="14.22039"><ele>554.0</ele><time>2026-05-01T12:01:17.417Z</time></trkpt><trkpt lat="42.1932531" lon="14.2204434"><ele>552.0</ele><time>2026-05-01T12:01:20.416Z</time></trkpt><trkpt lat="42.1933208" lon="14.2205277"><ele>550.0</ele><time>2026-05-01T12:01:23.415Z</time></trkpt><trkpt lat="42.1934521" lon="14.2205691"><ele>550.0</ele><time>2026-05-01T12:01:25.416Z</time></trkpt><trkpt lat="42.1935649" lon="14.2206108"><ele>550.0</ele><time>2026-05-01T12:01:27.417Z</time></trkpt><trkpt lat="42.1936689" lon="14.2206602"><ele>550.0</ele><time>2026-05-01T12:01:29.416Z</time></trkpt><trkpt lat="42.1931992" lon="14.22039"><ele>550.0</ele><time>2026-05-01T12:01:17.417Z</time></trkpt><trkpt lat="42.1932531" lon="14.2204434"><ele>550.0</ele><time>2026-05-01T12:01:20.416Z</time></trkpt><trkpt lat="42.1933208" lon="14.2205277"><ele>550.0</ele><time>2026-05-01T12:01:23.415Z</time></trkpt><trkpt lat="42.1934521" lon="14.2205691"><ele>550.0</ele><time>2026-05-01T12:01:25.416Z</time></trkpt><trkpt lat="42.1935649" lon="14.2206108"><ele>550.0</ele><time>2026-05-01T12:01:27.417Z</time></trkpt><trkpt lat="42.1936689" lon="14.2206602"><ele>550.0</ele><time>2026-05-01T12:01:29.416Z</time></trkpt><trkpt lat="42.1937568" lon="14.2206724"><ele>550.0</ele><time>2026-05-01T12:01:31.416Z</time></trkpt><trkpt lat="42.1938211" lon="14.220649"><ele>550.0</ele><time>2026-05-01T12:01:47.414Z</time></trkpt><trkpt lat="42.1938621" lon="14.220567"><ele>550.0</ele><time>2026-05-01T12:01:49.415Z</time></trkpt><trkpt lat="42.1938287" lon="14.2204202"><ele>550.0</ele><time>2026-05-01T12:01:51.415Z</time></trkpt><trkpt lat="42.193771" lon="14.2203549"><ele>550.0</ele><time>2026-05-01T12:01:52.415Z</time></trkpt><trkpt lat="42.1936954" lon="14.2202987"><ele>550.0</ele><time>2026-05-01T12:01:53.415Z</time></trkpt><trkpt lat="42.1936063" lon="14.220247"><ele>550.0</ele><time>2026-05-01T12:01:54.415Z</time></trkpt><trkpt lat="42.1935187" lon="14.2201964"><ele>550.0</ele><time>2026-05-01T12:01:55.415Z</time></trkpt><trkpt lat="42.1934177" lon="14.2201373"><ele>550.0</ele><time>2026-05-01T12:01:56.415Z</time></trkpt><trkpt lat="42.1933133" lon="14.2200749"><ele>550.0</ele><time>2026-05-01T12:01:57.415Z</time></trkpt><trkpt lat="42.1932089" lon="14.2200167"><ele>551.6666666666667</ele><time>2026-05-01T12:01:58.416Z</time></trkpt><trkpt lat="42.1931204" lon="14.2199594"><ele>553.3333333333334</ele><time>2026-05-01T12:01:59.416Z</time></trkpt><trkpt lat="42.1930472" lon="14.2198903"><ele>555.0</ele><time>2026-05-01T12:02:00.415Z</time></trkpt><trkpt lat="42.1929965" lon="14.2198125"><ele>556.6666666666666</ele><time>2026-05-01T12:02:01.415Z</time></trkpt><trkpt lat="42.1929572" lon="14.2197325"><ele>558.3333333333333</ele><time>2026-05-01T12:02:02.416Z</time></trkpt><trkpt lat="42.1929214" lon="14.2196478"><ele>560.0</ele><time>2026-05-01T12:02:03.415Z</time></trkpt><trkpt lat="42.1930015" lon="14.2195452"><ele>556.8333333333333</ele><time>2026-05-01T12:02:04.414Z</time></trkpt><trkpt lat="42.1930473" lon="14.2194616"><ele>553.6666666666666</ele><time>2026-05-01T12:02:05.414Z</time></trkpt><trkpt lat="42.1931032" lon="14.2193887"><ele>550.5</ele><time>2026-05-01T12:02:06.416Z</time></trkpt><trkpt lat="42.1931666" lon="14.2193325"><ele>547.3333333333334</ele><time>2026-05-01T12:02:07.415Z</time></trkpt><trkpt lat="42.1932241" lon="14.2192792"><ele>544.1666666666667</ele><time>2026-05-01T12:02:08.414Z</time></trkpt><trkpt lat="42.1933398" lon="14.2192242"><ele>541.0</ele><time>2026-05-01T12:02:10.414Z</time></trkpt><trkpt lat="42.1934294" lon="14.2192455"><ele>541.0</ele><time>2026-05-01T12:02:12.414Z</time></trkpt><trkpt lat="42.1935215" lon="14.2192663"><ele>541.0</ele><time>2026-05-01T12:02:14.414Z</time></trkpt><trkpt lat="42.1936024" lon="14.2193235"><ele>541.0</ele><time>2026-05-01T12:02:16.415Z</time></trkpt><trkpt lat="42.1936741" lon="14.219349"><ele>541.0</ele><time>2026-05-01T12:02:19.416Z</time></trkpt><trkpt lat="42.1936947" lon="14.2192684"><ele>541.0</ele><time>2026-05-01T12:02:23.415Z</time></trkpt><trkpt lat="42.1936025" lon="14.2192669"><ele>541.0</ele><time>2026-05-01T12:02:26.415Z</time></trkpt><trkpt lat="42.1935082" lon="14.2192295"><ele>541.0</ele><time>2026-05-01T12:02:28.415Z</time></trkpt><trkpt lat="42.1934171" lon="14.219222"><ele>541.0</ele><time>2026-05-01T12:02:29.416Z</time></trkpt><trkpt lat="42.1933365" lon="14.2192253"><ele>541.0</ele><time>2026-05-01T12:02:30.414Z</time></trkpt><trkpt lat="42.193247" lon="14.2192371"><ele>541.0</ele><time>2026-05-01T12:02:31.415Z</time></trkpt><trkpt lat="42.1931574" lon="14.2193291"><ele>541.0</ele><time>2026-05-01T12:02:32.415Z</time></trkpt><trkpt lat="42.193071" lon="14.2194023"><ele>540.5</ele><time>2026-05-01T12:02:33.415Z</time></trkpt><trkpt lat="42.1930031" lon="14.219496"><ele>540.0</ele><time>2026-05-01T12:02:34.415Z</time></trkpt><trkpt lat="42.1929647" lon="14.2195977"><ele>539.5</ele><time>2026-05-01T12:02:35.415Z</time></trkpt><trkpt lat="42.1929631" lon="14.2197177"><ele>539.0</ele><time>2026-05-01T12:02:36.415Z</time></trkpt><trkpt lat="42.1929921" lon="14.219827"><ele>538.5</ele><time>2026-05-01T12:02:37.414Z</time></trkpt><trkpt lat="42.1930492" lon="14.2199228"><ele>538.0</ele><time>2026-05-01T12:02:38.415Z</time></trkpt><trkpt lat="42.1931194" lon="14.2200175"><ele>540.0</ele><time>2026-05-01T12:02:39.414Z</time></trkpt><trkpt lat="42.1931906" lon="14.2200354"><ele>542.0</ele><time>2026-05-01T12:02:40.414Z</time></trkpt><trkpt lat="42.1932602" lon="14.2200217"><ele>544.0</ele><time>2026-05-01T12:02:42.415Z</time></trkpt><trkpt lat="42.1933465" lon="14.2200111"><ele>546.0</ele><time>2026-05-01T12:02:44.414Z</time></trkpt><trkpt lat="42.1934202" lon="14.2200401"><ele>548.0</ele><time>2026-05-01T12:02:45.415Z</time></trkpt><trkpt lat="42.193516" lon="14.220101"><ele>550.0</ele><time>2026-05-01T12:02:46.415Z</time></trkpt><trkpt lat="42.1935999" lon="14.2201548"><ele>550.0</ele><time>2026-05-01T12:02:47.415Z</time></trkpt><trkpt lat="42.1936779" lon="14.2201968"><ele>550.0</ele><time>2026-05-01T12:02:48.415Z</time></trkpt><trkpt lat="42.1937465" lon="14.2202321"><ele>550.0</ele><time>2026-05-01T12:02:49.415Z</time></trkpt><trkpt lat="42.1938056" lon="14.2202618"><ele>550.0</ele><time>2026-05-01T12:02:50.414Z</time></trkpt><trkpt lat="42.1938656" lon="14.2202892"><ele>550.0</ele><time>2026-05-01T12:02:51.415Z</time></trkpt><trkpt lat="42.1939508" lon="14.220424"><ele>550.0</ele><time>2026-05-01T12:02:53.416Z</time></trkpt><trkpt lat="42.1939948" lon="14.2205283"><ele>547.2</ele><time>2026-05-01T12:02:54.416Z</time></trkpt><trkpt lat="42.1940267" lon="14.2206474"><ele>544.4</ele><time>2026-05-01T12:02:55.414Z</time></trkpt><trkpt lat="42.1940453" lon="14.220771"><ele>541.6</ele><time>2026-05-01T12:02:56.415Z</time></trkpt><trkpt lat="42.1940534" lon="14.2209102"><ele>538.8</ele><time>2026-05-01T12:02:57.415Z</time></trkpt><trkpt lat="42.1940569" lon="14.2210604"><ele>536.0</ele><time>2026-05-01T12:02:58.416Z</time></trkpt><trkpt lat="42.194057" lon="14.2212187"><ele>535.5</ele><time>2026-05-01T12:02:59.415Z</time></trkpt><trkpt lat="42.1940534" lon="14.2213849"><ele>535.0</ele><time>2026-05-01T12:03:00.414Z</time></trkpt><trkpt lat="42.1940493" lon="14.22157"><ele>534.5</ele><time>2026-05-01T12:03:01.414Z</time></trkpt><trkpt lat="42.1940447" lon="14.2217627"><ele>534.0</ele><time>2026-05-01T12:03:02.414Z</time></trkpt><trkpt lat="42.1940352" lon="14.2219485"><ele>532.75</ele><time>2026-05-01T12:03:03.415Z</time></trkpt><trkpt lat="42.1940279" lon="14.2221325"><ele>531.5</ele><time>2026-05-01T12:03:04.415Z</time></trkpt><trkpt lat="42.1940269" lon="14.2223309"><ele>530.25</ele><time>2026-05-01T12:03:05.415Z</time></trkpt><trkpt lat="42.1940266" lon="14.2225431"><ele>529.0</ele><time>2026-05-01T12:03:06.416Z</time></trkpt><trkpt lat="42.1940392" lon="14.2227566"><ele>527.25</ele><time>2026-05-01T12:03:07.415Z</time></trkpt><trkpt lat="42.1940592" lon="14.2229647"><ele>525.5</ele><time>2026-05-01T12:03:08.415Z</time></trkpt><trkpt lat="42.1940774" lon="14.2231506"><ele>523.75</ele><time>2026-05-01T12:03:09.415Z</time></trkpt><trkpt lat="42.1940929" lon="14.2233212"><ele>522.0</ele><time>2026-05-01T12:03:10.415Z</time></trkpt><trkpt lat="42.194107" lon="14.2234649"><ele>520.8000000000001</ele><time>2026-05-01T12:03:11.414Z</time></trkpt><trkpt lat="42.1941222" lon="14.2235984"><ele>519.6</ele><time>2026-05-01T12:03:12.415Z</time></trkpt><trkpt lat="42.194138" lon="14.2237108"><ele>518.4000000000001</ele><time>2026-05-01T12:03:13.416Z</time></trkpt><trkpt lat="42.194165" lon="14.2237944"><ele>517.2</ele><time>2026-05-01T12:03:14.415Z</time></trkpt><trkpt lat="42.194251" lon="14.2238679"><ele>516.0</ele><time>2026-05-01T12:03:16.415Z</time></trkpt><trkpt lat="42.1943538" lon="14.2238175"><ele>516.0</ele><time>2026-05-01T12:03:19.416Z</time></trkpt><trkpt lat="42.1944639" lon="14.223714"><ele>516.0</ele><time>2026-05-01T12:03:21.415Z</time></trkpt><trkpt lat="42.1945349" lon="14.2236584"><ele>516.0</ele><time>2026-05-01T12:03:22.415Z</time></trkpt><trkpt lat="42.1946121" lon="14.223587"><ele>516.0</ele><time>2026-05-01T12:03:23.415Z</time></trkpt><trkpt lat="42.1946984" lon="14.2235157"><ele>516.0</ele><time>2026-05-01T12:03:24.415Z</time></trkpt><trkpt lat="42.1947869" lon="14.22345"><ele>514.8</ele><time>2026-05-01T12:03:25.415Z</time></trkpt><trkpt lat="42.1948764" lon="14.2233794"><ele>513.6</ele><time>2026-05-01T12:03:26.415Z</time></trkpt><trkpt lat="42.1949621" lon="14.2233047"><ele>512.4</ele><time>2026-05-01T12:03:27.415Z</time></trkpt><trkpt lat="42.1950569" lon="14.2232195"><ele>511.2</ele><time>2026-05-01T12:03:28.416Z</time></trkpt><trkpt lat="42.195154" lon="14.2231237"><ele>510.0</ele><time>2026-05-01T12:03:29.414Z</time></trkpt><trkpt lat="42.1952455" lon="14.2230118"><ele>510.0</ele><time>2026-05-01T12:03:30.416Z</time></trkpt><trkpt lat="42.1953381" lon="14.222889"><ele>510.0</ele><time>2026-05-01T12:03:31.416Z</time></trkpt><trkpt lat="42.1954323" lon="14.2227613"><ele>510.0</ele><time>2026-05-01T12:03:32.415Z</time></trkpt><trkpt lat="42.1955154" lon="14.2226229"><ele>510.0</ele><time>2026-05-01T12:03:33.415Z</time></trkpt><trkpt lat="42.1955856" lon="14.2224731"><ele>510.0</ele><time>2026-05-01T12:03:34.415Z</time></trkpt><trkpt lat="42.1956438" lon="14.2223162"><ele>510.0</ele><time>2026-05-01T12:03:35.416Z</time></trkpt><trkpt lat="42.1956894" lon="14.2221447"><ele>510.0</ele><time>2026-05-01T12:03:36.415Z</time></trkpt><trkpt lat="42.1957342" lon="14.2219705"><ele>510.0</ele><time>2026-05-01T12:03:37.415Z</time></trkpt><trkpt lat="42.1957706" lon="14.2217871"><ele>508.33333333333337</ele><time>2026-05-01T12:03:38.414Z</time></trkpt><trkpt lat="42.1957892" lon="14.2215936"><ele>506.6666666666667</ele><time>2026-05-01T12:03:39.416Z</time></trkpt><trkpt lat="42.1957942" lon="14.2213904"><ele>505.0</ele><time>2026-05-01T12:03:40.416Z</time></trkpt><trkpt lat="42.1957904" lon="14.2211662"><ele>505.0</ele><time>2026-05-01T12:03:41.414Z</time></trkpt><trkpt lat="42.1957886" lon="14.2209693"><ele>505.0</ele><time>2026-05-01T12:03:42.414Z</time></trkpt><trkpt lat="42.1957896" lon="14.2207816"><ele>505.0</ele><time>2026-05-01T12:03:43.414Z</time></trkpt><trkpt lat="42.1957983" lon="14.2205922"><ele>505.0</ele><time>2026-05-01T12:03:44.414Z</time></trkpt><trkpt lat="42.1958247" lon="14.2204059"><ele>505.5</ele><time>2026-05-01T12:03:45.414Z</time></trkpt><trkpt lat="42.1958666" lon="14.220215"><ele>506.0</ele><time>2026-05-01T12:03:46.414Z</time></trkpt><trkpt lat="42.1959128" lon="14.2200466"><ele>506.5</ele><time>2026-05-01T12:03:47.414Z</time></trkpt><trkpt lat="42.1959661" lon="14.2198991"><ele>507.0</ele><time>2026-05-01T12:03:48.414Z</time></trkpt><trkpt lat="42.196035" lon="14.2197717"><ele>507.25</ele><time>2026-05-01T12:03:49.414Z</time></trkpt><trkpt lat="42.1961211" lon="14.2196572"><ele>507.5</ele><time>2026-05-01T12:03:50.414Z</time></trkpt><trkpt lat="42.196217" lon="14.2195505"><ele>507.75</ele><time>2026-05-01T12:03:51.414Z</time></trkpt><trkpt lat="42.1963089" lon="14.2194573"><ele>508.0</ele><time>2026-05-01T12:03:52.414Z</time></trkpt><trkpt lat="42.1963928" lon="14.2193841"><ele>508.00000000000006</ele><time>2026-05-01T12:03:53.415Z</time></trkpt><trkpt lat="42.1964589" lon="14.2193166"><ele>508.0</ele><time>2026-05-01T12:03:54.414Z</time></trkpt><trkpt lat="42.1965233" lon="14.2192692"><ele>508.0</ele><time>2026-05-01T12:03:55.414Z</time></trkpt><trkpt lat="42.1965925" lon="14.2192439"><ele>508.0</ele><time>2026-05-01T12:03:56.414Z</time></trkpt><trkpt lat="42.1966638" lon="14.2192442"><ele>508.00000000000006</ele><time>2026-05-01T12:03:57.414Z</time></trkpt><trkpt lat="42.1967327" lon="14.2192407"><ele>508.0</ele><time>2026-05-01T12:03:58.414Z</time></trkpt><trkpt lat="42.1968408" lon="14.2191844"><ele>506.79999999999995</ele><time>2026-05-01T12:04:00.414Z</time></trkpt><trkpt lat="42.196904" lon="14.2191267"><ele>505.59999999999997</ele><time>2026-05-01T12:04:01.413Z</time></trkpt><trkpt lat="42.1969772" lon="14.2191039"><ele>504.40000000000003</ele><time>2026-05-01T12:04:02.414Z</time></trkpt><trkpt lat="42.1970614" lon="14.2190985"><ele>503.20000000000005</ele><time>2026-05-01T12:04:03.415Z</time></trkpt><trkpt lat="42.1971823" lon="14.219087"><ele>502.0</ele><time>2026-05-01T12:04:04.414Z</time></trkpt><trkpt lat="42.1973266" lon="14.2190673"><ele>501.0</ele><time>2026-05-01T12:04:05.414Z</time></trkpt><trkpt lat="42.1974789" lon="14.2190389"><ele>500.0</ele><time>2026-05-01T12:04:06.414Z</time></trkpt><trkpt lat="42.1976491" lon="14.2190061"><ele>499.0</ele><time>2026-05-01T12:04:07.414Z</time></trkpt><trkpt lat="42.1978148" lon="14.2189732"><ele>497.6666666666667</ele><time>2026-05-01T12:04:08.415Z</time></trkpt><trkpt lat="42.1979672" lon="14.2189403"><ele>496.33333333333337</ele><time>2026-05-01T12:04:09.414Z</time></trkpt><trkpt lat="42.1981362" lon="14.2189005"><ele>495.0</ele><time>2026-05-01T12:04:10.414Z</time></trkpt><trkpt lat="42.1983082" lon="14.2188524"><ele>494.0</ele><time>2026-05-01T12:04:11.415Z</time></trkpt><trkpt lat="42.1984765" lon="14.2187855"><ele>493.0</ele><time>2026-05-01T12:04:12.413Z</time></trkpt><trkpt lat="42.1986574" lon="14.2187111"><ele>492.0</ele><time>2026-05-01T12:04:13.413Z</time></trkpt><trkpt lat="42.1988373" lon="14.2186385"><ele>490.33333333333337</ele><time>2026-05-01T12:04:14.414Z</time></trkpt><trkpt lat="42.1990086" lon="14.2185607"><ele>488.6666666666667</ele><time>2026-05-01T12:04:15.414Z</time></trkpt><trkpt lat="42.1991834" lon="14.218481"><ele>487.0</ele><time>2026-05-01T12:04:16.415Z</time></trkpt><trkpt lat="42.1993555" lon="14.2184038"><ele>487.0</ele><time>2026-05-01T12:04:17.414Z</time></trkpt><trkpt lat="42.1995184" lon="14.2183405"><ele>487.0</ele><time>2026-05-01T12:04:18.414Z</time></trkpt><trkpt lat="42.1996748" lon="14.2182891"><ele>487.0</ele><time>2026-05-01T12:04:19.413Z</time></trkpt><trkpt lat="42.1998246" lon="14.21825"><ele>485.33333333333337</ele><time>2026-05-01T12:04:20.414Z</time></trkpt><trkpt lat="42.1999679" lon="14.2182257"><ele>483.66666666666663</ele><time>2026-05-01T12:04:21.415Z</time></trkpt><trkpt lat="42.2001197" lon="14.2182162"><ele>482.0</ele><time>2026-05-01T12:04:22.414Z</time></trkpt><trkpt lat="42.2002785" lon="14.218219"><ele>482.0</ele><time>2026-05-01T12:04:23.413Z</time></trkpt><trkpt lat="42.2004435" lon="14.2182286"><ele>482.0</ele><time>2026-05-01T12:04:24.414Z</time></trkpt><trkpt lat="42.2006062" lon="14.2182398"><ele>482.0</ele><time>2026-05-01T12:04:25.415Z</time></trkpt><trkpt lat="42.2007616" lon="14.2182597"><ele>480.66666666666663</ele><time>2026-05-01T12:04:26.414Z</time></trkpt><trkpt lat="42.2009186" lon="14.2182816"><ele>479.33333333333337</ele><time>2026-05-01T12:04:27.414Z</time></trkpt><trkpt lat="42.2010855" lon="14.2183559"><ele>478.0</ele><time>2026-05-01T12:04:28.414Z</time></trkpt><trkpt lat="42.2012644" lon="14.2184191"><ele>478.0</ele><time>2026-05-01T12:04:29.414Z</time></trkpt><trkpt lat="42.2014374" lon="14.2185066"><ele>478.0</ele><time>2026-05-01T12:04:30.414Z</time></trkpt><trkpt lat="42.2015821" lon="14.2185867"><ele>478.0</ele><time>2026-05-01T12:04:31.414Z</time></trkpt><trkpt lat="42.2017043" lon="14.2186615"><ele>477.59999999999997</ele><time>2026-05-01T12:04:32.414Z</time></trkpt><trkpt lat="42.2017994" lon="14.2187259"><ele>477.19999999999993</ele><time>2026-05-01T12:04:33.414Z</time></trkpt><trkpt lat="42.201884" lon="14.2187936"><ele>476.8</ele><time>2026-05-01T12:04:34.414Z</time></trkpt><trkpt lat="42.2019722" lon="14.2188704"><ele>476.4</ele><time>2026-05-01T12:04:35.413Z</time></trkpt><trkpt lat="42.2020594" lon="14.2189611"><ele>476.0</ele><time>2026-05-01T12:04:36.413Z</time></trkpt><trkpt lat="42.2021357" lon="14.219059"><ele>476.0</ele><time>2026-05-01T12:04:37.414Z</time></trkpt><trkpt lat="42.202201" lon="14.2191536"><ele>476.0</ele><time>2026-05-01T12:04:38.415Z</time></trkpt><trkpt lat="42.2022703" lon="14.2192675"><ele>476.0</ele><time>2026-05-01T12:04:39.414Z</time></trkpt><trkpt lat="42.2023344" lon="14.2194022"><ele>476.0</ele><time>2026-05-01T12:04:40.413Z</time></trkpt><trkpt lat="42.2023868" lon="14.2195269"><ele>476.0</ele><time>2026-05-01T12:04:41.414Z</time></trkpt><trkpt lat="42.2024318" lon="14.2196162"><ele>473.20000000000005</ele><time>2026-05-01T12:04:42.413Z</time></trkpt><trkpt lat="42.2025298" lon="14.219674"><ele>470.40000000000003</ele><time>2026-05-01T12:04:44.414Z</time></trkpt><trkpt lat="42.2025833" lon="14.2195937"><ele>467.6</ele><time>2026-05-01T12:04:46.413Z</time></trkpt><trkpt lat="42.2025389" lon="14.2194429"><ele>464.8</ele><time>2026-05-01T12:04:48.414Z</time></trkpt><trkpt lat="42.2024735" lon="14.2193614"><ele>462.0</ele><time>2026-05-01T12:04:49.414Z</time></trkpt><trkpt lat="42.2023882" lon="14.2192683"><ele>463.25</ele><time>2026-05-01T12:04:50.414Z</time></trkpt><trkpt lat="42.2022955" lon="14.2191617"><ele>464.5</ele><time>2026-05-01T12:04:51.413Z</time></trkpt><trkpt lat="42.2021982" lon="14.2190505"><ele>465.75</ele><time>2026-05-01T12:04:52.413Z</time></trkpt><trkpt lat="42.2020855" lon="14.2189352"><ele>467.0</ele><time>2026-05-01T12:04:53.414Z</time></trkpt><trkpt lat="42.2019635" lon="14.2188255"><ele>467.0</ele><time>2026-05-01T12:04:54.414Z</time></trkpt><trkpt lat="42.2018326" lon="14.218715"><ele>467.0</ele><time>2026-05-01T12:04:55.414Z</time></trkpt><trkpt lat="42.2016928" lon="14.2186151"><ele>467.0</ele><time>2026-05-01T12:04:56.414Z</time></trkpt><trkpt lat="42.2015453" lon="14.2185237"><ele>470.66666666666663</ele><time>2026-05-01T12:04:57.413Z</time></trkpt><trkpt lat="42.2013981" lon="14.218444"><ele>474.33333333333337</ele><time>2026-05-01T12:04:58.414Z</time></trkpt><trkpt lat="42.2012437" lon="14.2183681"><ele>478.0</ele><time>2026-05-01T12:04:59.413Z</time></trkpt><trkpt lat="42.201106" lon="14.218307"><ele>478.0</ele><time>2026-05-01T12:05:00.414Z</time></trkpt><trkpt lat="42.2009713" lon="14.2182661"><ele>478.0</ele><time>2026-05-01T12:05:01.414Z</time></trkpt><trkpt lat="42.200838" lon="14.2182301"><ele>478.0</ele><time>2026-05-01T12:05:02.413Z</time></trkpt><trkpt lat="42.2007194" lon="14.2182032"><ele>478.0</ele><time>2026-05-01T12:05:03.414Z</time></trkpt><trkpt lat="42.2006352" lon="14.2181768"><ele>478.0</ele><time>2026-05-01T12:05:04.414Z</time></trkpt><trkpt lat="42.2005951" lon="14.2181038"><ele>477.99999999999994</ele><time>2026-05-01T12:05:06.414Z</time></trkpt><trkpt lat="42.2006543" lon="14.2180417"><ele>477.99999999999994</ele><time>2026-05-01T12:05:08.413Z</time></trkpt><trkpt lat="42.200743" lon="14.2180318"><ele>478.0</ele><time>2026-05-01T12:05:09.415Z</time></trkpt><trkpt lat="42.2008985" lon="14.2180179"><ele>478.0</ele><time>2026-05-01T12:05:10.414Z</time></trkpt><trkpt lat="42.2010822" lon="14.2179953"><ele>477.0</ele><time>2026-05-01T12:05:11.414Z</time></trkpt><trkpt lat="42.2012956" lon="14.2179628"><ele>476.0</ele><time>2026-05-01T12:05:12.413Z</time></trkpt><trkpt lat="42.2014909" lon="14.2179383"><ele>475.0</ele><time>2026-05-01T12:05:13.414Z</time></trkpt><trkpt lat="42.2016858" lon="14.217914"><ele>474.0</ele><time>2026-05-01T12:05:14.413Z</time></trkpt><trkpt lat="42.2018719" lon="14.2179574"><ele>473.0</ele><time>2026-05-01T12:05:15.414Z</time></trkpt><trkpt lat="42.2020505" lon="14.2180226"><ele>472.0</ele><time>2026-05-01T12:05:16.415Z</time></trkpt><trkpt lat="42.2022079" lon="14.2180488"><ele>471.25</ele><time>2026-05-01T12:05:17.413Z</time></trkpt><trkpt lat="42.202349" lon="14.2180627"><ele>470.5</ele><time>2026-05-01T12:05:18.414Z</time></trkpt><trkpt lat="42.2025014" lon="14.2180678"><ele>469.75</ele><time>2026-05-01T12:05:19.414Z</time></trkpt><trkpt lat="42.2026435" lon="14.2180561"><ele>469.0</ele><time>2026-05-01T12:05:20.415Z</time></trkpt><trkpt lat="42.2027604" lon="14.2180414"><ele>469.0</ele><time>2026-05-01T12:05:21.413Z</time></trkpt><trkpt lat="42.2028626" lon="14.2180249"><ele>469.0</ele><time>2026-05-01T12:05:22.414Z</time></trkpt><trkpt lat="42.2029507" lon="14.2180115"><ele>469.0</ele><time>2026-05-01T12:05:23.414Z</time></trkpt><trkpt lat="42.2030365" lon="14.2179958"><ele>469.0</ele><time>2026-05-01T12:05:24.414Z</time></trkpt><trkpt lat="42.2031189" lon="14.2179514"><ele>469.0</ele><time>2026-05-01T12:05:25.413Z</time></trkpt><trkpt lat="42.2032119" lon="14.2178769"><ele>467.2</ele><time>2026-05-01T12:05:26.414Z</time></trkpt><trkpt lat="42.2032933" lon="14.2178023"><ele>465.4</ele><time>2026-05-01T12:05:27.413Z</time></trkpt><trkpt lat="42.2033799" lon="14.2177294"><ele>463.6</ele><time>2026-05-01T12:05:28.413Z</time></trkpt><trkpt lat="42.2034612" lon="14.2176635"><ele>461.8</ele><time>2026-05-01T12:05:29.414Z</time></trkpt><trkpt lat="42.2035486" lon="14.2175899"><ele>460.0</ele><time>2026-05-01T12:05:30.414Z</time></trkpt><trkpt lat="42.203634" lon="14.2175159"><ele>460.00000000000006</ele><time>2026-05-01T12:05:31.413Z</time></trkpt><trkpt lat="42.2037096" lon="14.2174565"><ele>460.0</ele><time>2026-05-01T12:05:32.414Z</time></trkpt><trkpt lat="42.2037805" lon="14.2174007"><ele>460.0</ele><time>2026-05-01T12:05:33.414Z</time></trkpt><trkpt lat="42.203855" lon="14.21735"><ele>460.0</ele><time>2026-05-01T12:05:34.414Z</time></trkpt><trkpt lat="42.2039207" lon="14.2173175"><ele>460.00000000000006</ele><time>2026-05-01T12:05:35.413Z</time></trkpt><trkpt lat="42.2040237" lon="14.2172958"><ele>460.0</ele><time>2026-05-01T12:05:37.414Z</time></trkpt><trkpt lat="42.2041614" lon="14.2173244"><ele>460.6</ele><time>2026-05-01T12:05:39.414Z</time></trkpt><trkpt lat="42.2042461" lon="14.2173226"><ele>461.2</ele><time>2026-05-01T12:05:40.415Z</time></trkpt><trkpt lat="42.2043418" lon="14.2173127"><ele>461.79999999999995</ele><time>2026-05-01T12:05:41.414Z</time></trkpt><trkpt lat="42.2044564" lon="14.2172808"><ele>462.4</ele><time>2026-05-01T12:05:42.414Z</time></trkpt><trkpt lat="42.204586" lon="14.2172349"><ele>463.0</ele><time>2026-05-01T12:05:43.414Z</time></trkpt><trkpt lat="42.2046857" lon="14.2172007"><ele>463.0</ele><time>2026-05-01T12:05:44.414Z</time></trkpt><trkpt lat="42.2047781" lon="14.2171612"><ele>462.99999999999994</ele><time>2026-05-01T12:05:45.414Z</time></trkpt><trkpt lat="42.2048733" lon="14.2171262"><ele>462.99999999999994</ele><time>2026-05-01T12:05:46.413Z</time></trkpt><trkpt lat="42.2049639" lon="14.2170868"><ele>463.0</ele><time>2026-05-01T12:05:47.413Z</time></trkpt><trkpt lat="42.2050612" lon="14.217045"><ele>463.0</ele><time>2026-05-01T12:05:48.414Z</time></trkpt><trkpt lat="42.2051582" lon="14.2169993"><ele>462.2</ele><time>2026-05-01T12:05:49.414Z</time></trkpt><trkpt lat="42.2052548" lon="14.2169604"><ele>461.4</ele><time>2026-05-01T12:05:50.413Z</time></trkpt><trkpt lat="42.2053494" lon="14.2169377"><ele>460.59999999999997</ele><time>2026-05-01T12:05:51.414Z</time></trkpt><trkpt lat="42.2054277" lon="14.2169328"><ele>459.79999999999995</ele><time>2026-05-01T12:05:52.413Z</time></trkpt><trkpt lat="42.2055497" lon="14.2169754"><ele>459.0</ele><time>2026-05-01T12:05:54.414Z</time></trkpt><trkpt lat="42.2055926" lon="14.2170445"><ele>459.0</ele><time>2026-05-01T12:05:55.414Z</time></trkpt><trkpt lat="42.2056318" lon="14.2171475"><ele>459.0</ele><time>2026-05-01T12:05:56.413Z</time></trkpt><trkpt lat="42.2056876" lon="14.2172777"><ele>459.0</ele><time>2026-05-01T12:05:57.414Z</time></trkpt><trkpt lat="42.2057437" lon="14.2173954"><ele>459.0</ele><time>2026-05-01T12:05:58.412Z</time></trkpt><trkpt lat="42.2058088" lon="14.2175275"><ele>459.0</ele><time>2026-05-01T12:05:59.413Z</time></trkpt><trkpt lat="42.2058699" lon="14.2176873"><ele>455.25</ele><time>2026-05-01T12:06:00.413Z</time></trkpt><trkpt lat="42.2059476" lon="14.2178525"><ele>451.5</ele><time>2026-05-01T12:06:01.414Z</time></trkpt><trkpt lat="42.2060261" lon="14.2180023"><ele>447.75</ele><time>2026-05-01T12:06:02.412Z</time></trkpt><trkpt lat="42.2061124" lon="14.2181309"><ele>444.0</ele><time>2026-05-01T12:06:03.414Z</time></trkpt><trkpt lat="42.2062138" lon="14.2182574"><ele>442.5</ele><time>2026-05-01T12:06:04.413Z</time></trkpt><trkpt lat="42.2063356" lon="14.2183656"><ele>441.0</ele><time>2026-05-01T12:06:05.412Z</time></trkpt><trkpt lat="42.2064527" lon="14.2184505"><ele>439.5</ele><time>2026-05-01T12:06:06.413Z</time></trkpt><trkpt lat="42.2065565" lon="14.2185277"><ele>438.0</ele><time>2026-05-01T12:06:07.412Z</time></trkpt><trkpt lat="42.2066366" lon="14.2186074"><ele>436.25</ele><time>2026-05-01T12:06:08.413Z</time></trkpt><trkpt lat="42.2067092" lon="14.2187052"><ele>434.5</ele><time>2026-05-01T12:06:09.412Z</time></trkpt><trkpt lat="42.2067834" lon="14.2188325"><ele>432.75</ele><time>2026-05-01T12:06:10.413Z</time></trkpt><trkpt lat="42.2068565" lon="14.2189821"><ele>431.0</ele><time>2026-05-01T12:06:11.413Z</time></trkpt><trkpt lat="42.2069281" lon="14.2191297"><ele>430.25</ele><time>2026-05-01T12:06:12.412Z</time></trkpt><trkpt lat="42.2069877" lon="14.2192733"><ele>429.5</ele><time>2026-05-01T12:06:13.413Z</time></trkpt><trkpt lat="42.2070469" lon="14.2194102"><ele>428.75</ele><time>2026-05-01T12:06:14.413Z</time></trkpt><trkpt lat="42.2071079" lon="14.2195494"><ele>428.0</ele><time>2026-05-01T12:06:15.413Z</time></trkpt><trkpt lat="42.207159" lon="14.2196834"><ele>428.0</ele><time>2026-05-01T12:06:16.413Z</time></trkpt><trkpt lat="42.2072183" lon="14.2197965"><ele>427.99999999999994</ele><time>2026-05-01T12:06:17.413Z</time></trkpt><trkpt lat="42.2072908" lon="14.2198886"><ele>427.99999999999994</ele><time>2026-05-01T12:06:18.413Z</time></trkpt><trkpt lat="42.2073706" lon="14.2199453"><ele>428.0</ele><time>2026-05-01T12:06:19.413Z</time></trkpt><trkpt lat="42.2074662" lon="14.2199771"><ele>428.0</ele><time>2026-05-01T12:06:20.413Z</time></trkpt><trkpt lat="42.2075544" lon="14.2199867"><ele>426.3333333333333</ele><time>2026-05-01T12:06:21.412Z</time></trkpt><trkpt lat="42.2076365" lon="14.2199891"><ele>424.66666666666663</ele><time>2026-05-01T12:06:22.413Z</time></trkpt><trkpt lat="42.2077037" lon="14.2199931"><ele>423.0</ele><time>2026-05-01T12:06:23.412Z</time></trkpt><trkpt lat="42.2077742" lon="14.2199867"><ele>421.33333333333337</ele><time>2026-05-01T12:06:30.413Z</time></trkpt><trkpt lat="42.207813" lon="14.2201196"><ele>419.6666666666667</ele><time>2026-05-01T12:06:54.412Z</time></trkpt><trkpt lat="42.2078694" lon="14.2201837"><ele>418.0</ele><time>2026-05-01T12:06:56.413Z</time></trkpt><trkpt lat="42.2079623" lon="14.2201793"><ele>418.00000000000006</ele><time>2026-05-01T12:06:58.413Z</time></trkpt><trkpt lat="42.208058" lon="14.2202095"><ele>418.0</ele><time>2026-05-01T12:07:00.413Z</time></trkpt><trkpt lat="42.2081174" lon="14.2202949"><ele>418.0</ele><time>2026-05-01T12:07:02.412Z</time></trkpt><trkpt lat="42.2081625" lon="14.220382"><ele>418.0</ele><time>2026-05-01T12:07:04.412Z</time></trkpt><trkpt lat="42.2082359" lon="14.2203787"><ele>418.00000000000006</ele><time>2026-05-01T12:07:06.414Z</time></trkpt><trkpt lat="42.2083342" lon="14.2203424"><ele>418.0</ele><time>2026-05-01T12:07:08.414Z</time></trkpt><trkpt lat="42.2084024" lon="14.2202959"><ele>416.57142857142856</ele><time>2026-05-01T12:07:09.413Z</time></trkpt><trkpt lat="42.2084715" lon="14.2202414"><ele>415.1428571428571</ele><time>2026-05-01T12:07:10.413Z</time></trkpt><trkpt lat="42.2085362" lon="14.2201814"><ele>413.7142857142857</ele><time>2026-05-01T12:07:11.413Z</time></trkpt><trkpt lat="42.2085975" lon="14.2201115"><ele>412.2857142857143</ele><time>2026-05-01T12:07:12.413Z</time></trkpt><trkpt lat="42.2086586" lon="14.2200533"><ele>410.8571428571429</ele><time>2026-05-01T12:07:13.412Z</time></trkpt><trkpt lat="42.2087109" lon="14.2200052"><ele>409.42857142857144</ele><time>2026-05-01T12:07:14.413Z</time></trkpt><trkpt lat="42.2087694" lon="14.2199553"><ele>408.0</ele><time>2026-05-01T12:07:15.414Z</time></trkpt><trkpt lat="42.2088552" lon="14.2198999"><ele>408.0</ele><time>2026-05-01T12:07:17.413Z</time></trkpt><trkpt lat="42.2089439" lon="14.2199181"><ele>408.0</ele><time>2026-05-01T12:07:19.413Z</time></trkpt><trkpt lat="42.2090657" lon="14.2199497"><ele>408.0</ele><time>2026-05-01T12:07:21.413Z</time></trkpt><trkpt lat="42.2091377" lon="14.2199823"><ele>408.0</ele><time>2026-05-01T12:07:22.412Z</time></trkpt><trkpt lat="42.2092081" lon="14.2200113"><ele>408.0</ele><time>2026-05-01T12:07:23.413Z</time></trkpt><trkpt lat="42.2092761" lon="14.2200377"><ele>408.0</ele><time>2026-05-01T12:07:24.413Z</time></trkpt><trkpt lat="42.2093776" lon="14.2200549"><ele>406.1666666666667</ele><time>2026-05-01T12:07:26.414Z</time></trkpt><trkpt lat="42.2094573" lon="14.2200646"><ele>404.33333333333337</ele><time>2026-05-01T12:07:28.412Z</time></trkpt><trkpt lat="42.2095394" lon="14.2200279"><ele>402.5</ele><time>2026-05-01T12:07:30.414Z</time></trkpt><trkpt lat="42.2095851" lon="14.2199594"><ele>400.6666666666667</ele><time>2026-05-01T12:07:31.414Z</time></trkpt><trkpt lat="42.2096421" lon="14.2198644"><ele>398.83333333333337</ele><time>2026-05-01T12:07:32.413Z</time></trkpt><trkpt lat="42.2096892" lon="14.2197681"><ele>397.0</ele><time>2026-05-01T12:07:33.413Z</time></trkpt><trkpt lat="42.2097247" lon="14.21966"><ele>397.00000000000006</ele><time>2026-05-01T12:07:34.414Z</time></trkpt><trkpt lat="42.2097412" lon="14.219558"><ele>397.0</ele><time>2026-05-01T12:07:35.413Z</time></trkpt><trkpt lat="42.2097526" lon="14.2194578"><ele>397.0</ele><time>2026-05-01T12:07:36.413Z</time></trkpt><trkpt lat="42.2097634" lon="14.2193507"><ele>397.0</ele><time>2026-05-01T12:07:38.413Z</time></trkpt><trkpt lat="42.2098324" lon="14.2193367"><ele>397.00000000000006</ele><time>2026-05-01T12:07:42.412Z</time></trkpt><trkpt lat="42.209843" lon="14.2194473"><ele>397.0</ele><time>2026-05-01T12:07:44.412Z</time></trkpt><trkpt lat="42.2098442" lon="14.2195462"><ele>397.0</ele><time>2026-05-01T12:07:45.413Z</time></trkpt><trkpt lat="42.2098399" lon="14.219665"><ele>397.0</ele><time>2026-05-01T12:07:46.413Z</time></trkpt><trkpt lat="42.2098359" lon="14.2197937"><ele>397.0</ele><time>2026-05-01T12:07:47.413Z</time></trkpt><trkpt lat="42.2098294" lon="14.2199628"><ele>397.0</ele><time>2026-05-01T12:07:48.414Z</time></trkpt><trkpt lat="42.2098226" lon="14.2201495"><ele>397.0</ele><time>2026-05-01T12:07:49.412Z</time></trkpt><trkpt lat="42.2098222" lon="14.2203526"><ele>395.75</ele><time>2026-05-01T12:07:50.413Z</time></trkpt><trkpt lat="42.2098293" lon="14.2205555"><ele>394.5</ele><time>2026-05-01T12:07:51.414Z</time></trkpt><trkpt lat="42.2098401" lon="14.2207496"><ele>393.25</ele><time>2026-05-01T12:07:52.413Z</time></trkpt><trkpt lat="42.2098345" lon="14.2209436"><ele>392.0</ele><time>2026-05-01T12:07:53.413Z</time></trkpt><trkpt lat="42.2098156" lon="14.2211324"><ele>392.0</ele><time>2026-05-01T12:07:54.414Z</time></trkpt><trkpt lat="42.2097782" lon="14.2213033"><ele>392.0</ele><time>2026-05-01T12:07:55.413Z</time></trkpt><trkpt lat="42.2097439" lon="14.2214435"><ele>392.0</ele><time>2026-05-01T12:07:56.412Z</time></trkpt><trkpt lat="42.2097162" lon="14.2215319"><ele>392.0</ele><time>2026-05-01T12:07:57.413Z</time></trkpt><trkpt lat="42.2096885" lon="14.2216227"><ele>392.0</ele><time>2026-05-01T12:07:59.413Z</time></trkpt><trkpt lat="42.2097553" lon="14.2214795"><ele>391.99999999999994</ele><time>2026-05-01T12:08:07.414Z</time></trkpt><trkpt lat="42.2097932" lon="14.2213237"><ele>392.0</ele><time>2026-05-01T12:08:08.413Z</time></trkpt><trkpt lat="42.2098193" lon="14.2212096"><ele>392.0</ele><time>2026-05-01T12:08:09.412Z</time></trkpt><trkpt lat="42.2098366" lon="14.221119"><ele>392.0</ele><time>2026-05-01T12:08:10.412Z</time></trkpt><trkpt lat="42.2098969" lon="14.2210578"><ele>391.99999999999994</ele><time>2026-05-01T12:08:13.413Z</time></trkpt><trkpt lat="42.2099817" lon="14.2210606"><ele>392.0</ele><time>2026-05-01T12:08:15.413Z</time></trkpt><trkpt lat="42.2100318" lon="14.2211351"><ele>391.66666666666663</ele><time>2026-05-01T12:08:24.411Z</time></trkpt><trkpt lat="42.2100281" lon="14.221248"><ele>391.3333333333333</ele><time>2026-05-01T12:08:27.411Z</time></trkpt><trkpt lat="42.210093" lon="14.2212233"><ele>391.0</ele><time>2026-05-01T12:08:31.413Z</time></trkpt><trkpt lat="42.2100408" lon="14.2211473"><ele>390.66666666666663</ele><time>2026-05-01T12:08:34.412Z</time></trkpt><trkpt lat="42.2099937" lon="14.2210583"><ele>390.3333333333333</ele><time>2026-05-01T12:08:37.413Z</time></trkpt><trkpt lat="42.2099225" lon="14.2210596"><ele>390.0</ele><time>2026-05-01T12:08:40.412Z</time></trkpt><trkpt lat="42.209864" lon="14.2210029"><ele>390.0</ele><time>2026-05-01T12:08:44.413Z</time></trkpt><trkpt lat="42.2098752" lon="14.2208936"><ele>390.0</ele><time>2026-05-01T12:08:47.412Z</time></trkpt><trkpt lat="42.209865" lon="14.2208008"><ele>390.0</ele><time>2026-05-01T12:08:50.412Z</time></trkpt><trkpt lat="42.2099657" lon="14.2207894"><ele>390.0</ele><time>2026-05-01T12:09:03.412Z</time></trkpt><trkpt lat="42.2100715" lon="14.2207532"><ele>390.0</ele><time>2026-05-01T12:09:05.412Z</time></trkpt><trkpt lat="42.2101785" lon="14.220734"><ele>390.0</ele><time>2026-05-01T12:09:07.412Z</time></trkpt><trkpt lat="42.2102696" lon="14.2207263"><ele>390.0</ele><time>2026-05-01T12:09:09.412Z</time></trkpt><trkpt lat="42.2103374" lon="14.2207561"><ele>390.0</ele><time>2026-05-01T12:09:11.412Z</time></trkpt><trkpt lat="42.2104064" lon="14.2208753"><ele>390.0</ele><time>2026-05-01T12:09:13.412Z</time></trkpt><trkpt lat="42.2105207" lon="14.2208764"><ele>390.0</ele><time>2026-05-01T12:09:15.412Z</time></trkpt><trkpt lat="42.210592" lon="14.2208566"><ele>390.0</ele><time>2026-05-01T12:09:16.412Z</time></trkpt><trkpt lat="42.2106571" lon="14.2208367"><ele>390.0</ele><time>2026-05-01T12:09:17.412Z</time></trkpt><trkpt lat="42.2107245" lon="14.2208209"><ele>390.0</ele><time>2026-05-01T12:09:18.412Z</time></trkpt><trkpt lat="42.2107991" lon="14.2207983"><ele>390.0</ele><time>2026-05-01T12:09:19.412Z</time></trkpt><trkpt lat="42.2108679" lon="14.2207834"><ele>390.0</ele><time>2026-05-01T12:09:20.412Z</time></trkpt><trkpt lat="42.2109434" lon="14.2207735"><ele>390.0</ele><time>2026-05-01T12:09:21.412Z</time></trkpt><trkpt lat="42.2110165" lon="14.2207596"><ele>390.0</ele><time>2026-05-01T12:09:22.412Z</time></trkpt><trkpt lat="42.2110924" lon="14.2207471"><ele>389.0</ele><time>2026-05-01T12:09:23.412Z</time></trkpt><trkpt lat="42.2111779" lon="14.220727"><ele>388.0</ele><time>2026-05-01T12:09:24.412Z</time></trkpt><trkpt lat="42.2112578" lon="14.220707"><ele>387.0</ele><time>2026-05-01T12:09:25.412Z</time></trkpt><trkpt lat="42.2113314" lon="14.2206949"><ele>386.0</ele><time>2026-05-01T12:09:26.413Z</time></trkpt><trkpt lat="42.2114037" lon="14.2206772"><ele>385.0</ele><time>2026-05-01T12:09:27.412Z</time></trkpt><trkpt lat="42.2114702" lon="14.2206446"><ele>384.0</ele><time>2026-05-01T12:09:28.413Z</time></trkpt><trkpt lat="42.2115387" lon="14.2206222"><ele>381.6666666666667</ele><time>2026-05-01T12:09:29.412Z</time></trkpt><trkpt lat="42.211605" lon="14.2206062"><ele>379.3333333333333</ele><time>2026-05-01T12:09:30.412Z</time></trkpt><trkpt lat="42.2116716" lon="14.2205988"><ele>377.0</ele><time>2026-05-01T12:09:31.412Z</time></trkpt><trkpt lat="42.2117381" lon="14.2205863"><ele>374.66666666666663</ele><time>2026-05-01T12:09:32.412Z</time></trkpt><trkpt lat="42.2118082" lon="14.2205622"><ele>372.3333333333333</ele><time>2026-05-01T12:09:33.411Z</time></trkpt><trkpt lat="42.2119177" lon="14.2204897"><ele>370.0</ele><time>2026-05-01T12:09:35.411Z</time></trkpt><trkpt lat="42.2119793" lon="14.2204194"><ele>370.0</ele><time>2026-05-01T12:09:44.412Z</time></trkpt><trkpt lat="42.2120119" lon="14.2203408"><ele>370.0</ele><time>2026-05-01T12:09:47.412Z</time></trkpt><trkpt lat="42.2120523" lon="14.2202707"><ele>370.0</ele><time>2026-05-01T12:09:50.411Z</time></trkpt><trkpt lat="42.2121122" lon="14.2202084"><ele>370.0</ele><time>2026-05-01T12:09:58.412Z</time></trkpt><trkpt lat="42.2121934" lon="14.2201746"><ele>370.0</ele><time>2026-05-01T12:10:01.411Z</time></trkpt><trkpt lat="42.2122591" lon="14.2202031"><ele>370.0</ele><time>2026-05-01T12:10:03.412Z</time></trkpt><trkpt lat="42.2122872" lon="14.2203236"><ele>370.0</ele><time>2026-05-01T12:10:05.412Z</time></trkpt><trkpt lat="42.2122873" lon="14.2204181"><ele>370.0</ele><time>2026-05-01T12:10:06.412Z</time></trkpt><trkpt lat="42.2122958" lon="14.2205109"><ele>370.0</ele><time>2026-05-01T12:10:07.413Z</time></trkpt><trkpt lat="42.2123112" lon="14.2206053"><ele>370.0</ele><time>2026-05-01T12:10:08.411Z</time></trkpt><trkpt lat="42.2123352" lon="14.2207181"><ele>370.0</ele><time>2026-05-01T12:10:09.411Z</time></trkpt><trkpt lat="42.2124015" lon="14.2207923"><ele>370.0</ele><time>2026-05-01T12:10:11.412Z</time></trkpt><trkpt lat="42.2124753" lon="14.2207686"><ele>370.3333333333333</ele><time>2026-05-01T12:10:12.411Z</time></trkpt><trkpt lat="42.2125526" lon="14.2207363"><ele>370.66666666666663</ele><time>2026-05-01T12:10:13.412Z</time></trkpt><trkpt lat="42.2126394" lon="14.2206903"><ele>371.0</ele><time>2026-05-01T12:10:14.412Z</time></trkpt><trkpt lat="42.2126993" lon="14.2206506"><ele>371.3333333333333</ele><time>2026-05-01T12:10:15.412Z</time></trkpt><trkpt lat="42.2127827" lon="14.2206071"><ele>371.6666666666667</ele><time>2026-05-01T12:10:17.412Z</time></trkpt><trkpt lat="42.2128428" lon="14.2205815"><ele>372.0</ele><time>2026-05-01T12:10:19.411Z</time></trkpt><trkpt lat="42.2129343" lon="14.220511"><ele>372.0</ele><time>2026-05-01T12:10:22.412Z</time></trkpt><trkpt lat="42.2130018" lon="14.2204578"><ele>372.0</ele><time>2026-05-01T12:10:24.412Z</time></trkpt><trkpt lat="42.2130728" lon="14.2204138"><ele>372.0</ele><time>2026-05-01T12:10:26.412Z</time></trkpt><trkpt lat="42.2131361" lon="14.2203477"><ele>372.0</ele><time>2026-05-01T12:10:28.411Z</time></trkpt><trkpt lat="42.2132022" lon="14.2202677"><ele>372.0</ele><time>2026-05-01T12:10:30.411Z</time></trkpt><trkpt lat="42.2132591" lon="14.2202241"><ele>372.0</ele><time>2026-05-01T12:10:31.411Z</time></trkpt><trkpt lat="42.2133368" lon="14.2201754"><ele>372.6666666666667</ele><time>2026-05-01T12:10:32.412Z</time></trkpt><trkpt lat="42.2134049" lon="14.220122"><ele>373.3333333333333</ele><time>2026-05-01T12:10:33.412Z</time></trkpt><trkpt lat="42.2134738" lon="14.2200361"><ele>374.0</ele><time>2026-05-01T12:10:34.412Z</time></trkpt><trkpt lat="42.2135343" lon="14.2199608"><ele>374.66666666666663</ele><time>2026-05-01T12:10:35.411Z</time></trkpt><trkpt lat="42.2136006" lon="14.2199101"><ele>375.3333333333333</ele><time>2026-05-01T12:10:36.411Z</time></trkpt><trkpt lat="42.2136682" lon="14.2198553"><ele>376.0</ele><time>2026-05-01T12:10:37.411Z</time></trkpt><trkpt lat="42.2137294" lon="14.2197865"><ele>374.5</ele><time>2026-05-01T12:10:38.411Z</time></trkpt><trkpt lat="42.2137908" lon="14.2197231"><ele>373.0</ele><time>2026-05-01T12:10:39.411Z</time></trkpt><trkpt lat="42.213845" lon="14.219665"><ele>371.5</ele><time>2026-05-01T12:10:40.41Z</time></trkpt><trkpt lat="42.2138965" lon="14.2196155"><ele>370.0</ele><time>2026-05-01T12:10:41.41Z</time></trkpt><trkpt lat="42.2139868" lon="14.2194992"><ele>368.5</ele><time>2026-05-01T12:10:43.411Z</time></trkpt><trkpt lat="42.21403" lon="14.2194261"><ele>367.0</ele><time>2026-05-01T12:10:44.412Z</time></trkpt><trkpt lat="42.2140684" lon="14.2193396"><ele>367.0</ele><time>2026-05-01T12:10:45.41Z</time></trkpt><trkpt lat="42.2141178" lon="14.2192554"><ele>367.0</ele><time>2026-05-01T12:10:46.412Z</time></trkpt><trkpt lat="42.2141554" lon="14.2191687"><ele>367.0</ele><time>2026-05-01T12:10:47.411Z</time></trkpt><trkpt lat="42.2141979" lon="14.2190752"><ele>367.0</ele><time>2026-05-01T12:10:48.411Z</time></trkpt><trkpt lat="42.2142382" lon="14.2189904"><ele>367.0</ele><time>2026-05-01T12:10:49.411Z</time></trkpt><trkpt lat="42.2142801" lon="14.2189169"><ele>367.0</ele><time>2026-05-01T12:10:50.412Z</time></trkpt><trkpt lat="42.2143216" lon="14.2188438"><ele>367.0</ele><time>2026-05-01T12:10:51.412Z</time></trkpt><trkpt lat="42.2143665" lon="14.2187689"><ele>364.0</ele><time>2026-05-01T12:10:52.411Z</time></trkpt><trkpt lat="42.2144234" lon="14.2186996"><ele>361.0</ele><time>2026-05-01T12:10:53.412Z</time></trkpt><trkpt lat="42.2145" lon="14.2186315"><ele>358.0</ele><time>2026-05-01T12:10:54.411Z</time></trkpt><trkpt lat="42.2146033" lon="14.2185574"><ele>355.0</ele><time>2026-05-01T12:10:55.411Z</time></trkpt><trkpt lat="42.2146811" lon="14.2184789"><ele>352.0</ele><time>2026-05-01T12:10:56.412Z</time></trkpt><trkpt lat="42.2147529" lon="14.2183925"><ele>351.20000000000005</ele><time>2026-05-01T12:10:57.411Z</time></trkpt><trkpt lat="42.2148311" lon="14.2183049"><ele>350.4</ele><time>2026-05-01T12:10:58.411Z</time></trkpt><trkpt lat="42.2149077" lon="14.2182204"><ele>349.6</ele><time>2026-05-01T12:10:59.412Z</time></trkpt><trkpt lat="42.2149844" lon="14.2181317"><ele>348.79999999999995</ele><time>2026-05-01T12:11:00.411Z</time></trkpt><trkpt lat="42.2150684" lon="14.2180461"><ele>348.0</ele><time>2026-05-01T12:11:01.411Z</time></trkpt><trkpt lat="42.2151586" lon="14.2179847"><ele>348.0</ele><time>2026-05-01T12:11:02.411Z</time></trkpt><trkpt lat="42.21526" lon="14.2179289"><ele>348.0</ele><time>2026-05-01T12:11:03.412Z</time></trkpt><trkpt lat="42.2153559" lon="14.2178639"><ele>348.0</ele><time>2026-05-01T12:11:04.412Z</time></trkpt><trkpt lat="42.2154491" lon="14.2177871"><ele>348.0</ele><time>2026-05-01T12:11:05.41Z</time></trkpt><trkpt lat="42.2155508" lon="14.2177074"><ele>348.0</ele><time>2026-05-01T12:11:06.411Z</time></trkpt><trkpt lat="42.2156464" lon="14.217616"><ele>348.79999999999995</ele><time>2026-05-01T12:11:07.411Z</time></trkpt><trkpt lat="42.2157426" lon="14.2175359"><ele>349.6</ele><time>2026-05-01T12:11:08.411Z</time></trkpt><trkpt lat="42.2158325" lon="14.2174406"><ele>350.4</ele><time>2026-05-01T12:11:09.411Z</time></trkpt><trkpt lat="42.2159248" lon="14.2173465"><ele>351.20000000000005</ele><time>2026-05-01T12:11:10.41Z</time></trkpt><trkpt lat="42.216012" lon="14.2172668"><ele>352.0</ele><time>2026-05-01T12:11:11.411Z</time></trkpt><trkpt lat="42.2160932" lon="14.2171834"><ele>349.8</ele><time>2026-05-01T12:11:12.411Z</time></trkpt><trkpt lat="42.2161728" lon="14.2171059"><ele>347.6</ele><time>2026-05-01T12:11:13.412Z</time></trkpt><trkpt lat="42.2162574" lon="14.2170418"><ele>345.40000000000003</ele><time>2026-05-01T12:11:14.411Z</time></trkpt><trkpt lat="42.2163325" lon="14.2169889"><ele>343.20000000000005</ele><time>2026-05-01T12:11:15.411Z</time></trkpt><trkpt lat="42.2163968" lon="14.2169255"><ele>341.0</ele><time>2026-05-01T12:11:16.411Z</time></trkpt><trkpt lat="42.2164802" lon="14.2168693"><ele>341.1666666666667</ele><time>2026-05-01T12:11:17.41Z</time></trkpt><trkpt lat="42.2165617" lon="14.2168275"><ele>341.33333333333337</ele><time>2026-05-01T12:11:18.412Z</time></trkpt><trkpt lat="42.2166367" lon="14.2167988"><ele>341.5</ele><time>2026-05-01T12:11:19.411Z</time></trkpt><trkpt lat="42.2167146" lon="14.2167477"><ele>341.6666666666667</ele><time>2026-05-01T12:11:20.411Z</time></trkpt><trkpt lat="42.2167978" lon="14.2166837"><ele>341.8333333333333</ele><time>2026-05-01T12:11:21.41Z</time></trkpt><trkpt lat="42.2168838" lon="14.2166266"><ele>342.0</ele><time>2026-05-01T12:11:22.411Z</time></trkpt><trkpt lat="42.2169463" lon="14.2165403"><ele>341.20000000000005</ele><time>2026-05-01T12:11:23.41Z</time></trkpt><trkpt lat="42.2170435" lon="14.2164818"><ele>340.4</ele><time>2026-05-01T12:11:24.411Z</time></trkpt><trkpt lat="42.2171401" lon="14.2164303"><ele>339.6</ele><time>2026-05-01T12:11:25.411Z</time></trkpt><trkpt lat="42.2172303" lon="14.2163743"><ele>338.79999999999995</ele><time>2026-05-01T12:11:26.411Z</time></trkpt><trkpt lat="42.2173153" lon="14.2163292"><ele>338.0</ele><time>2026-05-01T12:11:27.411Z</time></trkpt><trkpt lat="42.2173999" lon="14.2162761"><ele>337.79999999999995</ele><time>2026-05-01T12:11:28.411Z</time></trkpt><trkpt lat="42.2174658" lon="14.2162491"><ele>337.6</ele><time>2026-05-01T12:11:29.411Z</time></trkpt><trkpt lat="42.2175554" lon="14.2162797"><ele>337.4</ele><time>2026-05-01T12:11:31.41Z</time></trkpt><trkpt lat="42.2176351" lon="14.2164054"><ele>337.20000000000005</ele><time>2026-05-01T12:11:33.411Z</time></trkpt><trkpt lat="42.2176884" lon="14.216546"><ele>337.0</ele><time>2026-05-01T12:11:35.412Z</time></trkpt><trkpt lat="42.2177158" lon="14.2166251"><ele>338.40000000000003</ele><time>2026-05-01T12:11:36.411Z</time></trkpt><trkpt lat="42.2177249" lon="14.2167686"><ele>339.8</ele><time>2026-05-01T12:11:38.411Z</time></trkpt><trkpt lat="42.2176426" lon="14.2167808"><ele>341.2</ele><time>2026-05-01T12:11:39.411Z</time></trkpt><trkpt lat="42.2175303" lon="14.2167899"><ele>342.6</ele><time>2026-05-01T12:11:40.411Z</time></trkpt><trkpt lat="42.2174533" lon="14.2168674"><ele>344.0</ele><time>2026-05-01T12:11:42.41Z</time></trkpt><trkpt lat="42.2174989" lon="14.2169293"><ele>344.0</ele><time>2026-05-01T12:11:43.412Z</time></trkpt><trkpt lat="42.2176119" lon="14.2169448"><ele>344.0</ele><time>2026-05-01T12:11:45.41Z</time></trkpt><trkpt lat="42.2177037" lon="14.2169325"><ele>344.0</ele><time>2026-05-01T12:11:46.411Z</time></trkpt><trkpt lat="42.2178019" lon="14.2169211"><ele>344.0</ele><time>2026-05-01T12:11:47.411Z</time></trkpt><trkpt lat="42.2178838" lon="14.2169026"><ele>344.0</ele><time>2026-05-01T12:11:48.411Z</time></trkpt><trkpt lat="42.2179647" lon="14.216894"><ele>344.0</ele><time>2026-05-01T12:11:49.411Z</time></trkpt><trkpt lat="42.2180354" lon="14.2168906"><ele>344.0</ele><time>2026-05-01T12:11:50.411Z</time></trkpt><trkpt lat="42.2180904" lon="14.2170037"><ele>344.0</ele><time>2026-05-01T12:11:51.412Z</time></trkpt><trkpt lat="42.2181725" lon="14.2170651"><ele>344.0</ele><time>2026-05-01T12:11:52.411Z</time></trkpt><trkpt lat="42.2182453" lon="14.2171338"><ele>344.0</ele><time>2026-05-01T12:11:53.411Z</time></trkpt><trkpt lat="42.2183145" lon="14.2171468"><ele>344.0</ele><time>2026-05-01T12:11:55.411Z</time></trkpt><trkpt lat="42.2184208" lon="14.2170009"><ele>344.75</ele><time>2026-05-01T12:11:57.411Z</time></trkpt><trkpt lat="42.2185031" lon="14.2168771"><ele>345.5</ele><time>2026-05-01T12:11:58.411Z</time></trkpt><trkpt lat="42.2186115" lon="14.2167664"><ele>346.25</ele><time>2026-05-01T12:11:59.412Z</time></trkpt><trkpt lat="42.2187246" lon="14.216656"><ele>347.0</ele><time>2026-05-01T12:12:00.411Z</time></trkpt><trkpt lat="42.2188278" lon="14.216547"><ele>345.5</ele><time>2026-05-01T12:12:01.411Z</time></trkpt><trkpt lat="42.2189296" lon="14.2164426"><ele>344.0</ele><time>2026-05-01T12:12:02.412Z</time></trkpt><trkpt lat="42.2190239" lon="14.2163341"><ele>342.5</ele><time>2026-05-01T12:12:03.411Z</time></trkpt><trkpt lat="42.2191101" lon="14.2162222"><ele>341.0</ele><time>2026-05-01T12:12:04.411Z</time></trkpt><trkpt lat="42.2191903" lon="14.2161087"><ele>341.0</ele><time>2026-05-01T12:12:05.41Z</time></trkpt><trkpt lat="42.2192587" lon="14.2159907"><ele>341.0</ele><time>2026-05-01T12:12:06.41Z</time></trkpt><trkpt lat="42.219323" lon="14.2158534"><ele>341.0</ele><time>2026-05-01T12:12:07.411Z</time></trkpt><trkpt lat="42.2193868" lon="14.2157016"><ele>341.0</ele><time>2026-05-01T12:12:08.411Z</time></trkpt><trkpt lat="42.2194424" lon="14.2155515"><ele>338.5</ele><time>2026-05-01T12:12:09.412Z</time></trkpt><trkpt lat="42.2195007" lon="14.2153985"><ele>336.0</ele><time>2026-05-01T12:12:10.412Z</time></trkpt><trkpt lat="42.2195691" lon="14.2152337"><ele>333.5</ele><time>2026-05-01T12:12:11.41Z</time></trkpt><trkpt lat="42.2196379" lon="14.2150748"><ele>331.0</ele><time>2026-05-01T12:12:12.41Z</time></trkpt><trkpt lat="42.2197066" lon="14.2149242"><ele>330.0</ele><time>2026-05-01T12:12:13.411Z</time></trkpt><trkpt lat="42.2197756" lon="14.2147837"><ele>329.0</ele><time>2026-05-01T12:12:14.411Z</time></trkpt><trkpt lat="42.2198363" lon="14.2146415"><ele>328.0</ele><time>2026-05-01T12:12:15.411Z</time></trkpt><trkpt lat="42.219889" lon="14.2145085"><ele>327.0</ele><time>2026-05-01T12:12:16.411Z</time></trkpt><trkpt lat="42.2199356" lon="14.2143881"><ele>327.0</ele><time>2026-05-01T12:12:17.41Z</time></trkpt><trkpt lat="42.2199764" lon="14.2142876"><ele>327.0</ele><time>2026-05-01T12:12:18.41Z</time></trkpt><trkpt lat="42.2200076" lon="14.2141982"><ele>327.0</ele><time>2026-05-01T12:12:19.411Z</time></trkpt><trkpt lat="42.2200354" lon="14.2141175"><ele>327.0</ele><time>2026-05-01T12:12:20.411Z</time></trkpt><trkpt lat="42.2200858" lon="14.2139767"><ele>327.0</ele><time>2026-05-01T12:12:22.411Z</time></trkpt><trkpt lat="42.2201209" lon="14.2138455"><ele>327.0</ele><time>2026-05-01T12:12:24.412Z</time></trkpt><trkpt lat="42.2200938" lon="14.2137132"><ele>325.8</ele><time>2026-05-01T12:12:26.411Z</time></trkpt><trkpt lat="42.2199818" lon="14.2136377"><ele>324.6</ele><time>2026-05-01T12:12:28.411Z</time></trkpt><trkpt lat="42.2198975" lon="14.2135449"><ele>323.40000000000003</ele><time>2026-05-01T12:12:30.412Z</time></trkpt><trkpt lat="42.2199103" lon="14.2133921"><ele>322.20000000000005</ele><time>2026-05-01T12:12:32.412Z</time></trkpt><trkpt lat="42.2199535" lon="14.2132958"><ele>321.0</ele><time>2026-05-01T12:12:33.41Z</time></trkpt><trkpt lat="42.2199976" lon="14.2131904"><ele>321.25</ele><time>2026-05-01T12:12:34.41Z</time></trkpt><trkpt lat="42.220086" lon="14.2130675"><ele>321.5</ele><time>2026-05-01T12:12:35.412Z</time></trkpt><trkpt lat="42.2201667" lon="14.2129403"><ele>321.75</ele><time>2026-05-01T12:12:36.411Z</time></trkpt><trkpt lat="42.2202676" lon="14.2128193"><ele>322.0</ele><time>2026-05-01T12:12:37.411Z</time></trkpt><trkpt lat="42.2203645" lon="14.212696"><ele>322.0</ele><time>2026-05-01T12:12:38.412Z</time></trkpt><trkpt lat="42.2204584" lon="14.2125703"><ele>322.0</ele><time>2026-05-01T12:12:39.41Z</time></trkpt><trkpt lat="42.2205604" lon="14.212456"><ele>322.0</ele><time>2026-05-01T12:12:40.41Z</time></trkpt><trkpt lat="42.2206566" lon="14.2123487"><ele>322.0</ele><time>2026-05-01T12:12:41.411Z</time></trkpt><trkpt lat="42.2207622" lon="14.2122201"><ele>321.6</ele><time>2026-05-01T12:12:42.41Z</time></trkpt><trkpt lat="42.2208538" lon="14.2121095"><ele>321.20000000000005</ele><time>2026-05-01T12:12:43.412Z</time></trkpt><trkpt lat="42.2209264" lon="14.2120038"><ele>320.8</ele><time>2026-05-01T12:12:44.411Z</time></trkpt><trkpt lat="42.2210044" lon="14.2119134"><ele>320.4</ele><time>2026-05-01T12:12:45.411Z</time></trkpt><trkpt lat="42.2210936" lon="14.2118249"><ele>320.0</ele><time>2026-05-01T12:12:46.411Z</time></trkpt><trkpt lat="42.2211932" lon="14.2117598"><ele>320.0</ele><time>2026-05-01T12:12:47.412Z</time></trkpt><trkpt lat="42.2212933" lon="14.2116754"><ele>320.0</ele><time>2026-05-01T12:12:48.411Z</time></trkpt><trkpt lat="42.221403" lon="14.2116063"><ele>320.0</ele><time>2026-05-01T12:12:49.41Z</time></trkpt><trkpt lat="42.2215104" lon="14.2115418"><ele>320.0</ele><time>2026-05-01T12:12:50.412Z</time></trkpt><trkpt lat="42.2216327" lon="14.2114818"><ele>318.5</ele><time>2026-05-01T12:12:51.41Z</time></trkpt><trkpt lat="42.2217462" lon="14.2114042"><ele>317.0</ele><time>2026-05-01T12:12:52.411Z</time></trkpt><trkpt lat="42.2218577" lon="14.2113356"><ele>315.5</ele><time>2026-05-01T12:12:53.409Z</time></trkpt><trkpt lat="42.2219625" lon="14.2112849"><ele>314.0</ele><time>2026-05-01T12:12:54.409Z</time></trkpt><trkpt lat="42.2220661" lon="14.2112359"><ele>314.0</ele><time>2026-05-01T12:12:55.41Z</time></trkpt><trkpt lat="42.2221899" lon="14.2111985"><ele>314.0</ele><time>2026-05-01T12:12:56.41Z</time></trkpt><trkpt lat="42.2223065" lon="14.2111554"><ele>314.0</ele><time>2026-05-01T12:12:57.41Z</time></trkpt><trkpt lat="42.2224232" lon="14.2111066"><ele>314.0</ele><time>2026-05-01T12:12:58.41Z</time></trkpt><trkpt lat="42.222542" lon="14.2110434"><ele>313.0</ele><time>2026-05-01T12:12:59.41Z</time></trkpt><trkpt lat="42.2226593" lon="14.210966"><ele>312.0</ele><time>2026-05-01T12:13:00.409Z</time></trkpt><trkpt lat="42.2227709" lon="14.2108835"><ele>311.0</ele><time>2026-05-01T12:13:01.41Z</time></trkpt><trkpt lat="42.2228776" lon="14.2107988"><ele>310.0</ele><time>2026-05-01T12:13:02.409Z</time></trkpt><trkpt lat="42.222976" lon="14.2107125"><ele>310.25</ele><time>2026-05-01T12:13:03.409Z</time></trkpt><trkpt lat="42.2230678" lon="14.2106242"><ele>310.5</ele><time>2026-05-01T12:13:04.409Z</time></trkpt><trkpt lat="42.2231608" lon="14.210536"><ele>310.75</ele><time>2026-05-01T12:13:05.409Z</time></trkpt><trkpt lat="42.223253" lon="14.2104463"><ele>311.0</ele><time>2026-05-01T12:13:06.41Z</time></trkpt><trkpt lat="42.2233298" lon="14.2103375"><ele>310.6</ele><time>2026-05-01T12:13:07.41Z</time></trkpt><trkpt lat="42.223408" lon="14.2102264"><ele>310.20000000000005</ele><time>2026-05-01T12:13:08.41Z</time></trkpt><trkpt lat="42.2234885" lon="14.2101249"><ele>309.79999999999995</ele><time>2026-05-01T12:13:09.41Z</time></trkpt><trkpt lat="42.2235704" lon="14.2100317"><ele>309.4</ele><time>2026-05-01T12:13:10.409Z</time></trkpt><trkpt lat="42.2236495" lon="14.2099591"><ele>309.0</ele><time>2026-05-01T12:13:11.409Z</time></trkpt><trkpt lat="42.2237275" lon="14.209902"><ele>309.0</ele><time>2026-05-01T12:13:12.409Z</time></trkpt><trkpt lat="42.2238051" lon="14.2098623"><ele>309.0</ele><time>2026-05-01T12:13:13.409Z</time></trkpt><trkpt lat="42.2238897" lon="14.2098399"><ele>309.0</ele><time>2026-05-01T12:13:14.41Z</time></trkpt><trkpt lat="42.2240036" lon="14.2098381"><ele>309.0</ele><time>2026-05-01T12:13:15.41Z</time></trkpt><trkpt lat="42.224122" lon="14.2098844"><ele>309.0</ele><time>2026-05-01T12:13:16.409Z</time></trkpt><trkpt lat="42.2242227" lon="14.2098817"><ele>309.0</ele><time>2026-05-01T12:13:17.409Z</time></trkpt><trkpt lat="42.2243063" lon="14.2098292"><ele>309.0</ele><time>2026-05-01T12:13:18.409Z</time></trkpt><trkpt lat="42.2243858" lon="14.2097456"><ele>309.0</ele><time>2026-05-01T12:13:19.409Z</time></trkpt><trkpt lat="42.2244621" lon="14.2096577"><ele>309.0</ele><time>2026-05-01T12:13:20.41Z</time></trkpt><trkpt lat="42.224538" lon="14.2095601"><ele>309.0</ele><time>2026-05-01T12:13:21.411Z</time></trkpt><trkpt lat="42.2246177" lon="14.2094756"><ele>309.4</ele><time>2026-05-01T12:13:22.41Z</time></trkpt><trkpt lat="42.2246858" lon="14.2093815"><ele>309.79999999999995</ele><time>2026-05-01T12:13:23.41Z</time></trkpt><trkpt lat="42.2247687" lon="14.2093107"><ele>310.20000000000005</ele><time>2026-05-01T12:13:24.411Z</time></trkpt><trkpt lat="42.2248561" lon="14.2092497"><ele>310.6</ele><time>2026-05-01T12:13:25.41Z</time></trkpt><trkpt lat="42.2249575" lon="14.2092049"><ele>311.0</ele><time>2026-05-01T12:13:26.41Z</time></trkpt><trkpt lat="42.2250508" lon="14.2091558"><ele>310.0</ele><time>2026-05-01T12:13:27.41Z</time></trkpt><trkpt lat="42.225147" lon="14.2091138"><ele>309.0</ele><time>2026-05-01T12:13:28.41Z</time></trkpt><trkpt lat="42.2252847" lon="14.2090642"><ele>308.0</ele><time>2026-05-01T12:13:29.41Z</time></trkpt><trkpt lat="42.2254527" lon="14.2089386"><ele>307.0</ele><time>2026-05-01T12:13:30.411Z</time></trkpt><trkpt lat="42.2255997" lon="14.2088753"><ele>306.0</ele><time>2026-05-01T12:13:31.411Z</time></trkpt><trkpt lat="42.2257219" lon="14.2088131"><ele>305.0</ele><time>2026-05-01T12:13:32.409Z</time></trkpt><trkpt lat="42.2258447" lon="14.2087927"><ele>304.0</ele><time>2026-05-01T12:13:33.41Z</time></trkpt><trkpt lat="42.2259462" lon="14.2087564"><ele>303.0</ele><time>2026-05-01T12:13:34.41Z</time></trkpt><trkpt lat="42.2260407" lon="14.2087214"><ele>303.0</ele><time>2026-05-01T12:13:35.41Z</time></trkpt><trkpt lat="42.2261125" lon="14.2086636"><ele>303.0</ele><time>2026-05-01T12:13:36.41Z</time></trkpt><trkpt lat="42.2261787" lon="14.2085823"><ele>303.0</ele><time>2026-05-01T12:13:37.409Z</time></trkpt><trkpt lat="42.2262513" lon="14.208502"><ele>303.0</ele><time>2026-05-01T12:13:38.41Z</time></trkpt><trkpt lat="42.2263118" lon="14.2083609"><ele>303.0</ele><time>2026-05-01T12:13:39.41Z</time></trkpt><trkpt lat="42.226373" lon="14.20822"><ele>302.6</ele><time>2026-05-01T12:13:40.41Z</time></trkpt><trkpt lat="42.22642" lon="14.2080873"><ele>302.20000000000005</ele><time>2026-05-01T12:13:41.411Z</time></trkpt><trkpt lat="42.2264636" lon="14.2079381"><ele>301.8</ele><time>2026-05-01T12:13:42.41Z</time></trkpt><trkpt lat="42.226493" lon="14.2078218"><ele>301.40000000000003</ele><time>2026-05-01T12:13:43.41Z</time></trkpt><trkpt lat="42.2265514" lon="14.207711"><ele>301.0</ele><time>2026-05-01T12:13:44.411Z</time></trkpt><trkpt lat="42.22661" lon="14.2075797"><ele>300.5</ele><time>2026-05-01T12:13:45.409Z</time></trkpt><trkpt lat="42.2266845" lon="14.2074743"><ele>300.0</ele><time>2026-05-01T12:13:46.41Z</time></trkpt><trkpt lat="42.2267652" lon="14.2074115"><ele>299.5</ele><time>2026-05-01T12:13:47.411Z</time></trkpt><trkpt lat="42.226856" lon="14.2073272"><ele>299.0</ele><time>2026-05-01T12:13:48.41Z</time></trkpt><trkpt lat="42.227085" lon="14.2072332"><ele>298.75</ele><time>2026-05-01T12:13:49.411Z</time></trkpt><trkpt lat="42.2272064" lon="14.2071452"><ele>298.5</ele><time>2026-05-01T12:13:50.409Z</time></trkpt><trkpt lat="42.2273095" lon="14.2070639"><ele>298.25</ele><time>2026-05-01T12:13:51.41Z</time></trkpt><trkpt lat="42.2273946" lon="14.2069953"><ele>298.0</ele><time>2026-05-01T12:13:52.41Z</time></trkpt><trkpt lat="42.2274887" lon="14.2069118"><ele>297.0</ele><time>2026-05-01T12:13:53.41Z</time></trkpt><trkpt lat="42.2275371" lon="14.2067771"><ele>296.0</ele><time>2026-05-01T12:13:54.409Z</time></trkpt><trkpt lat="42.2275891" lon="14.2066389"><ele>295.0</ele><time>2026-05-01T12:13:55.41Z</time></trkpt><trkpt lat="42.2276313" lon="14.2064748"><ele>294.0</ele><time>2026-05-01T12:13:56.41Z</time></trkpt><trkpt lat="42.2276814" lon="14.2063309"><ele>293.4</ele><time>2026-05-01T12:13:57.41Z</time></trkpt><trkpt lat="42.2277228" lon="14.2061776"><ele>292.79999999999995</ele><time>2026-05-01T12:13:58.411Z</time></trkpt><trkpt lat="42.2277773" lon="14.2060534"><ele>292.20000000000005</ele><time>2026-05-01T12:13:59.41Z</time></trkpt><trkpt lat="42.227784" lon="14.2059457"><ele>291.6</ele><time>2026-05-01T12:14:00.41Z</time></trkpt><trkpt lat="42.2277832" lon="14.2058202"><ele>291.0</ele><time>2026-05-01T12:14:01.409Z</time></trkpt><trkpt lat="42.2277454" lon="14.2056869"><ele>290.8333333333333</ele><time>2026-05-01T12:14:02.41Z</time></trkpt><trkpt lat="42.2277001" lon="14.2055648"><ele>290.6666666666667</ele><time>2026-05-01T12:14:03.411Z</time></trkpt><trkpt lat="42.2276774" lon="14.2054422"><ele>290.5</ele><time>2026-05-01T12:14:04.41Z</time></trkpt><trkpt lat="42.2276832" lon="14.2053282"><ele>290.33333333333337</ele><time>2026-05-01T12:14:05.41Z</time></trkpt><trkpt lat="42.2277071" lon="14.2052203"><ele>290.1666666666667</ele><time>2026-05-01T12:14:06.409Z</time></trkpt><trkpt lat="42.2277497" lon="14.2051275"><ele>290.0</ele><time>2026-05-01T12:14:07.41Z</time></trkpt><trkpt lat="42.2277908" lon="14.2050381"><ele>290.0</ele><time>2026-05-01T12:14:08.41Z</time></trkpt><trkpt lat="42.2278245" lon="14.2049606"><ele>290.0</ele><time>2026-05-01T12:14:09.41Z</time></trkpt><trkpt lat="42.2279399" lon="14.2049224"><ele>290.0</ele><time>2026-05-01T12:14:10.409Z</time></trkpt><trkpt lat="42.2280769" lon="14.2048733"><ele>290.0</ele><time>2026-05-01T12:14:11.41Z</time></trkpt><trkpt lat="42.2281727" lon="14.2047933"><ele>290.0</ele><time>2026-05-01T12:14:12.41Z</time></trkpt><trkpt lat="42.228259" lon="14.2046927"><ele>290.0</ele><time>2026-05-01T12:14:13.41Z</time></trkpt><trkpt lat="42.2283266" lon="14.2045718"><ele>290.0</ele><time>2026-05-01T12:14:14.411Z</time></trkpt><trkpt lat="42.2283846" lon="14.2044395"><ele>290.0</ele><time>2026-05-01T12:14:15.409Z</time></trkpt><trkpt lat="42.2284434" lon="14.2043196"><ele>290.0</ele><time>2026-05-01T12:14:16.41Z</time></trkpt><trkpt lat="42.2284885" lon="14.2042257"><ele>290.0</ele><time>2026-05-01T12:14:17.41Z</time></trkpt><trkpt lat="42.228552" lon="14.2041359"><ele>290.0</ele><time>2026-05-01T12:14:18.411Z</time></trkpt><trkpt lat="42.2286282" lon="14.2040625"><ele>290.0</ele><time>2026-05-01T12:14:19.41Z</time></trkpt><trkpt lat="42.2287177" lon="14.2039906"><ele>290.0</ele><time>2026-05-01T12:14:20.41Z</time></trkpt><trkpt lat="42.2288144" lon="14.2039294"><ele>290.0</ele><time>2026-05-01T12:14:21.409Z</time></trkpt><trkpt lat="42.2289089" lon="14.2038716"><ele>290.0</ele><time>2026-05-01T12:14:22.41Z</time></trkpt><trkpt lat="42.2290025" lon="14.2038206"><ele>289.6</ele><time>2026-05-01T12:14:23.409Z</time></trkpt><trkpt lat="42.2291051" lon="14.2037579"><ele>289.2</ele><time>2026-05-01T12:14:24.41Z</time></trkpt><trkpt lat="42.2292042" lon="14.203694"><ele>288.8</ele><time>2026-05-01T12:14:25.41Z</time></trkpt><trkpt lat="42.2292988" lon="14.2036137"><ele>288.4</ele><time>2026-05-01T12:14:26.41Z</time></trkpt><trkpt lat="42.2293892" lon="14.2035327"><ele>288.0</ele><time>2026-05-01T12:14:27.41Z</time></trkpt><trkpt lat="42.2294681" lon="14.2034389"><ele>288.0</ele><time>2026-05-01T12:14:28.409Z</time></trkpt><trkpt lat="42.2295293" lon="14.2033359"><ele>288.0</ele><time>2026-05-01T12:14:29.409Z</time></trkpt><trkpt lat="42.2295665" lon="14.2032172"><ele>288.0</ele><time>2026-05-01T12:14:30.41Z</time></trkpt><trkpt lat="42.2295793" lon="14.2030623"><ele>288.0</ele><time>2026-05-01T12:14:31.409Z</time></trkpt><trkpt lat="42.2295904" lon="14.2028977"><ele>288.0</ele><time>2026-05-01T12:14:32.41Z</time></trkpt><trkpt lat="42.2296075" lon="14.2027416"><ele>287.0</ele><time>2026-05-01T12:14:33.41Z</time></trkpt><trkpt lat="42.2296357" lon="14.2025944"><ele>286.0</ele><time>2026-05-01T12:14:34.41Z</time></trkpt><trkpt lat="42.2296804" lon="14.2024518"><ele>285.0</ele><time>2026-05-01T12:14:35.409Z</time></trkpt><trkpt lat="42.2297449" lon="14.2023085"><ele>284.0</ele><time>2026-05-01T12:14:36.409Z</time></trkpt><trkpt lat="42.2298183" lon="14.2021756"><ele>283.75</ele><time>2026-05-01T12:14:37.411Z</time></trkpt><trkpt lat="42.2298946" lon="14.2020536"><ele>283.5</ele><time>2026-05-01T12:14:38.411Z</time></trkpt><trkpt lat="42.2299832" lon="14.2019445"><ele>283.25</ele><time>2026-05-01T12:14:39.41Z</time></trkpt><trkpt lat="42.2300846" lon="14.2018492"><ele>283.0</ele><time>2026-05-01T12:14:40.41Z</time></trkpt><trkpt lat="42.2302034" lon="14.2017578"><ele>283.0</ele><time>2026-05-01T12:14:41.41Z</time></trkpt><trkpt lat="42.2303262" lon="14.201674"><ele>283.0</ele><time>2026-05-01T12:14:42.409Z</time></trkpt><trkpt lat="42.2304387" lon="14.2015895"><ele>283.0</ele><time>2026-05-01T12:14:43.409Z</time></trkpt><trkpt lat="42.2305508" lon="14.2014781"><ele>283.0</ele><time>2026-05-01T12:14:44.41Z</time></trkpt><trkpt lat="42.2306563" lon="14.2013399"><ele>282.75</ele><time>2026-05-01T12:14:45.409Z</time></trkpt><trkpt lat="42.2307522" lon="14.2011914"><ele>282.5</ele><time>2026-05-01T12:14:46.409Z</time></trkpt><trkpt lat="42.230827" lon="14.2010496"><ele>282.25</ele><time>2026-05-01T12:14:47.41Z</time></trkpt><trkpt lat="42.2308909" lon="14.2009048"><ele>282.0</ele><time>2026-05-01T12:14:48.411Z</time></trkpt><trkpt lat="42.2309534" lon="14.2007764"><ele>280.75</ele><time>2026-05-01T12:14:49.409Z</time></trkpt><trkpt lat="42.2310353" lon="14.2006526"><ele>279.5</ele><time>2026-05-01T12:14:50.41Z</time></trkpt><trkpt lat="42.2311271" lon="14.2005445"><ele>278.25</ele><time>2026-05-01T12:14:51.41Z</time></trkpt><trkpt lat="42.2312285" lon="14.20044"><ele>277.0</ele><time>2026-05-01T12:14:52.41Z</time></trkpt><trkpt lat="42.2313232" lon="14.2003168"><ele>277.0</ele><time>2026-05-01T12:14:53.409Z</time></trkpt><trkpt lat="42.23142" lon="14.200186"><ele>277.0</ele><time>2026-05-01T12:14:54.41Z</time></trkpt><trkpt lat="42.2315108" lon="14.2000563"><ele>277.0</ele><time>2026-05-01T12:14:55.411Z</time></trkpt><trkpt lat="42.2316033" lon="14.1999348"><ele>277.0</ele><time>2026-05-01T12:14:56.41Z</time></trkpt><trkpt lat="42.2316891" lon="14.1998192"><ele>276.8</ele><time>2026-05-01T12:14:57.41Z</time></trkpt><trkpt lat="42.2317682" lon="14.1997246"><ele>276.6</ele><time>2026-05-01T12:14:58.411Z</time></trkpt><trkpt lat="42.2318343" lon="14.1996523"><ele>276.40000000000003</ele><time>2026-05-01T12:14:59.41Z</time></trkpt><trkpt lat="42.2318918" lon="14.1995809"><ele>276.2</ele><time>2026-05-01T12:15:00.41Z</time></trkpt><trkpt lat="42.2319454" lon="14.1994892"><ele>276.0</ele><time>2026-05-01T12:15:01.41Z</time></trkpt><trkpt lat="42.2320028" lon="14.199373"><ele>276.0</ele><time>2026-05-01T12:15:02.409Z</time></trkpt><trkpt lat="42.2320666" lon="14.199252"><ele>276.0</ele><time>2026-05-01T12:15:03.41Z</time></trkpt><trkpt lat="42.2321409" lon="14.1991294"><ele>276.0</ele><time>2026-05-01T12:15:04.409Z</time></trkpt><trkpt lat="42.2322201" lon="14.1990011"><ele>276.0</ele><time>2026-05-01T12:15:05.41Z</time></trkpt><trkpt lat="42.2323066" lon="14.1988676"><ele>275.0</ele><time>2026-05-01T12:15:06.41Z</time></trkpt><trkpt lat="42.2323959" lon="14.1987258"><ele>274.0</ele><time>2026-05-01T12:15:07.41Z</time></trkpt><trkpt lat="42.2324824" lon="14.1986036"><ele>273.0</ele><time>2026-05-01T12:15:08.41Z</time></trkpt><trkpt lat="42.2325612" lon="14.1984955"><ele>272.0</ele><time>2026-05-01T12:15:09.411Z</time></trkpt><trkpt lat="42.2326476" lon="14.1983723"><ele>272.0</ele><time>2026-05-01T12:15:10.409Z</time></trkpt><trkpt lat="42.2327218" lon="14.1982614"><ele>272.0</ele><time>2026-05-01T12:15:11.409Z</time></trkpt><trkpt lat="42.2327887" lon="14.1981457"><ele>272.0</ele><time>2026-05-01T12:15:12.41Z</time></trkpt><trkpt lat="42.2328433" lon="14.1980372"><ele>272.0</ele><time>2026-05-01T12:15:13.409Z</time></trkpt><trkpt lat="42.2328827" lon="14.1979407"><ele>272.0</ele><time>2026-05-01T12:15:14.411Z</time></trkpt><trkpt lat="42.2329065" lon="14.1978471"><ele>271.1666666666667</ele><time>2026-05-01T12:15:16.409Z</time></trkpt><trkpt lat="42.2329501" lon="14.1977701"><ele>270.33333333333337</ele><time>2026-05-01T12:15:20.409Z</time></trkpt><trkpt lat="42.2330303" lon="14.1977731"><ele>269.5</ele><time>2026-05-01T12:15:23.41Z</time></trkpt><trkpt lat="42.2331168" lon="14.1977762"><ele>268.6666666666667</ele><time>2026-05-01T12:15:27.409Z</time></trkpt><trkpt lat="42.2331767" lon="14.1977265"><ele>267.8333333333333</ele><time>2026-05-01T12:15:29.409Z</time></trkpt><trkpt lat="42.2332721" lon="14.1976424"><ele>267.0</ele><time>2026-05-01T12:15:31.409Z</time></trkpt><trkpt lat="42.2333369" lon="14.197588"><ele>267.0</ele><time>2026-05-01T12:15:32.408Z</time></trkpt><trkpt lat="42.2334213" lon="14.1975277"><ele>267.0</ele><time>2026-05-01T12:15:33.409Z</time></trkpt><trkpt lat="42.2335164" lon="14.1974649"><ele>267.0</ele><time>2026-05-01T12:15:34.41Z</time></trkpt><trkpt lat="42.2336151" lon="14.1974093"><ele>267.0</ele><time>2026-05-01T12:15:35.409Z</time></trkpt><trkpt lat="42.2336444" lon="14.1972981"><ele>267.0</ele><time>2026-05-01T12:15:36.408Z</time></trkpt><trkpt lat="42.2337001" lon="14.1971654"><ele>267.0</ele><time>2026-05-01T12:15:37.408Z</time></trkpt><trkpt lat="42.233746" lon="14.1970655"><ele>267.0</ele><time>2026-05-01T12:15:38.408Z</time></trkpt><trkpt lat="42.2338041" lon="14.1969561"><ele>267.0</ele><time>2026-05-01T12:15:39.408Z</time></trkpt><trkpt lat="42.2338572" lon="14.1968472"><ele>267.0</ele><time>2026-05-01T12:15:40.409Z</time></trkpt><trkpt lat="42.2339051" lon="14.1967378"><ele>267.0</ele><time>2026-05-01T12:15:41.408Z</time></trkpt><trkpt lat="42.2339526" lon="14.1966289"><ele>266.75</ele><time>2026-05-01T12:15:42.408Z</time></trkpt><trkpt lat="42.2339873" lon="14.1965095"><ele>266.5</ele><time>2026-05-01T12:15:43.409Z</time></trkpt><trkpt lat="42.23404" lon="14.1963897"><ele>266.25</ele><time>2026-05-01T12:15:44.409Z</time></trkpt><trkpt lat="42.2341052" lon="14.1962526"><ele>266.0</ele><time>2026-05-01T12:15:45.41Z</time></trkpt><trkpt lat="42.2341785" lon="14.1960951"><ele>266.0</ele><time>2026-05-01T12:15:46.409Z</time></trkpt><trkpt lat="42.2342386" lon="14.1959621"><ele>266.0</ele><time>2026-05-01T12:15:47.409Z</time></trkpt><trkpt lat="42.2342931" lon="14.1958407"><ele>266.0</ele><time>2026-05-01T12:15:48.408Z</time></trkpt><trkpt lat="42.2343596" lon="14.1957273"><ele>266.0</ele><time>2026-05-01T12:15:49.408Z</time></trkpt><trkpt lat="42.2344447" lon="14.1956208"><ele>266.0</ele><time>2026-05-01T12:15:50.409Z</time></trkpt><trkpt lat="42.2345322" lon="14.195505"><ele>266.0</ele><time>2026-05-01T12:15:51.409Z</time></trkpt><trkpt lat="42.2346082" lon="14.1953851"><ele>266.0</ele><time>2026-05-01T12:15:52.409Z</time></trkpt><trkpt lat="42.2346798" lon="14.1952783"><ele>266.0</ele><time>2026-05-01T12:15:53.409Z</time></trkpt><trkpt lat="42.2347708" lon="14.1951881"><ele>266.0</ele><time>2026-05-01T12:15:54.408Z</time></trkpt><trkpt lat="42.2348758" lon="14.1950841"><ele>266.0</ele><time>2026-05-01T12:15:55.409Z</time></trkpt><trkpt lat="42.2349929" lon="14.1949494"><ele>266.0</ele><time>2026-05-01T12:15:56.409Z</time></trkpt><trkpt lat="42.2350988" lon="14.1948363"><ele>266.0</ele><time>2026-05-01T12:15:57.408Z</time></trkpt><trkpt lat="42.2351903" lon="14.1947349"><ele>266.0</ele><time>2026-05-01T12:15:58.408Z</time></trkpt><trkpt lat="42.2352814" lon="14.1946451"><ele>265.8</ele><time>2026-05-01T12:15:59.409Z</time></trkpt><trkpt lat="42.2353769" lon="14.1945567"><ele>265.6</ele><time>2026-05-01T12:16:00.409Z</time></trkpt><trkpt lat="42.2354353" lon="14.1945022"><ele>265.4</ele><time>2026-05-01T12:16:01.409Z</time></trkpt><trkpt lat="42.2355198" lon="14.1944248"><ele>265.2</ele><time>2026-05-01T12:16:02.409Z</time></trkpt><trkpt lat="42.2356188" lon="14.1943596"><ele>265.0</ele><time>2026-05-01T12:16:03.408Z</time></trkpt><trkpt lat="42.2357232" lon="14.1942817"><ele>265.0</ele><time>2026-05-01T12:16:04.408Z</time></trkpt><trkpt lat="42.2358306" lon="14.194255"><ele>265.0</ele><time>2026-05-01T12:16:05.409Z</time></trkpt><trkpt lat="42.2359086" lon="14.1942005"><ele>265.0</ele><time>2026-05-01T12:16:06.41Z</time></trkpt><trkpt lat="42.2359764" lon="14.1940634"><ele>265.0</ele><time>2026-05-01T12:16:07.41Z</time></trkpt><trkpt lat="42.2360648" lon="14.1939431"><ele>265.0</ele><time>2026-05-01T12:16:08.409Z</time></trkpt><trkpt lat="42.2361239" lon="14.1937731"><ele>264.25</ele><time>2026-05-01T12:16:09.41Z</time></trkpt><trkpt lat="42.2361842" lon="14.1936132"><ele>263.5</ele><time>2026-05-01T12:16:10.408Z</time></trkpt><trkpt lat="42.2362443" lon="14.1934451"><ele>262.75</ele><time>2026-05-01T12:16:11.408Z</time></trkpt><trkpt lat="42.2362913" lon="14.1932847"><ele>262.0</ele><time>2026-05-01T12:16:12.409Z</time></trkpt><trkpt lat="42.2363321" lon="14.1931297"><ele>262.25</ele><time>2026-05-01T12:16:13.409Z</time></trkpt><trkpt lat="42.2363639" lon="14.192973"><ele>262.5</ele><time>2026-05-01T12:16:14.409Z</time></trkpt><trkpt lat="42.2363912" lon="14.192819"><ele>262.75</ele><time>2026-05-01T12:16:15.408Z</time></trkpt><trkpt lat="42.2364291" lon="14.1926711"><ele>263.0</ele><time>2026-05-01T12:16:16.408Z</time></trkpt><trkpt lat="42.2364708" lon="14.1925232"><ele>261.5</ele><time>2026-05-01T12:16:17.408Z</time></trkpt><trkpt lat="42.2365407" lon="14.1923384"><ele>260.0</ele><time>2026-05-01T12:16:18.409Z</time></trkpt><trkpt lat="42.2365835" lon="14.1921782"><ele>258.5</ele><time>2026-05-01T12:16:19.41Z</time></trkpt><trkpt lat="42.236645" lon="14.1920013"><ele>257.0</ele><time>2026-05-01T12:16:20.409Z</time></trkpt><trkpt lat="42.2367148" lon="14.191834"><ele>257.0</ele><time>2026-05-01T12:16:21.409Z</time></trkpt><trkpt lat="42.2367952" lon="14.1916731"><ele>257.0</ele><time>2026-05-01T12:16:22.409Z</time></trkpt><trkpt lat="42.2369013" lon="14.1914966"><ele>257.0</ele><time>2026-05-01T12:16:23.41Z</time></trkpt><trkpt lat="42.2369996" lon="14.1913553"><ele>255.75</ele><time>2026-05-01T12:16:24.409Z</time></trkpt><trkpt lat="42.237082" lon="14.1912155"><ele>254.5</ele><time>2026-05-01T12:16:25.409Z</time></trkpt><trkpt lat="42.2371409" lon="14.1910646"><ele>253.25</ele><time>2026-05-01T12:16:26.409Z</time></trkpt><trkpt lat="42.2371883" lon="14.190909"><ele>252.0</ele><time>2026-05-01T12:16:27.409Z</time></trkpt><trkpt lat="42.2372394" lon="14.1907549"><ele>252.25</ele><time>2026-05-01T12:16:28.409Z</time></trkpt><trkpt lat="42.2372991" lon="14.1906016"><ele>252.5</ele><time>2026-05-01T12:16:29.409Z</time></trkpt><trkpt lat="42.2373619" lon="14.1904735"><ele>252.75</ele><time>2026-05-01T12:16:30.409Z</time></trkpt><trkpt lat="42.2374429" lon="14.1903612"><ele>253.0</ele><time>2026-05-01T12:16:31.409Z</time></trkpt><trkpt lat="42.2375485" lon="14.1902423"><ele>253.0</ele><time>2026-05-01T12:16:32.409Z</time></trkpt><trkpt lat="42.2376593" lon="14.1901334"><ele>253.0</ele><time>2026-05-01T12:16:33.41Z</time></trkpt><trkpt lat="42.2377428" lon="14.1899813"><ele>253.0</ele><time>2026-05-01T12:16:34.41Z</time></trkpt><trkpt lat="42.2378288" lon="14.1898092"><ele>253.0</ele><time>2026-05-01T12:16:35.41Z</time></trkpt><trkpt lat="42.2378841" lon="14.1896116"><ele>251.75</ele><time>2026-05-01T12:16:36.409Z</time></trkpt><trkpt lat="42.2379206" lon="14.1894157"><ele>250.5</ele><time>2026-05-01T12:16:37.41Z</time></trkpt><trkpt lat="42.2379405" lon="14.1892325"><ele>249.25</ele><time>2026-05-01T12:16:38.409Z</time></trkpt><trkpt lat="42.2379536" lon="14.1890491"><ele>248.0</ele><time>2026-05-01T12:16:39.409Z</time></trkpt><trkpt lat="42.2379569" lon="14.1888747"><ele>247.25</ele><time>2026-05-01T12:16:40.41Z</time></trkpt><trkpt lat="42.2379617" lon="14.188721"><ele>246.5</ele><time>2026-05-01T12:16:41.409Z</time></trkpt><trkpt lat="42.2379978" lon="14.1885706"><ele>245.75</ele><time>2026-05-01T12:16:42.409Z</time></trkpt><trkpt lat="42.2380606" lon="14.1884092"><ele>245.0</ele><time>2026-05-01T12:16:43.41Z</time></trkpt><trkpt lat="42.2381393" lon="14.1882789"><ele>244.6</ele><time>2026-05-01T12:16:44.409Z</time></trkpt><trkpt lat="42.2382246" lon="14.1881618"><ele>244.2</ele><time>2026-05-01T12:16:45.41Z</time></trkpt><trkpt lat="42.2382961" lon="14.1880473"><ele>243.8</ele><time>2026-05-01T12:16:46.409Z</time></trkpt><trkpt lat="42.2383557" lon="14.1879367"><ele>243.4</ele><time>2026-05-01T12:16:47.409Z</time></trkpt><trkpt lat="42.2383778" lon="14.1878103"><ele>243.0</ele><time>2026-05-01T12:16:48.41Z</time></trkpt><trkpt lat="42.2383835" lon="14.1876718"><ele>243.0</ele><time>2026-05-01T12:16:49.409Z</time></trkpt><trkpt lat="42.2383888" lon="14.1875537"><ele>243.0</ele><time>2026-05-01T12:16:50.409Z</time></trkpt><trkpt lat="42.2384117" lon="14.187468"><ele>243.0</ele><time>2026-05-01T12:16:51.408Z</time></trkpt><trkpt lat="42.2384683" lon="14.1873911"><ele>243.0</ele><time>2026-05-01T12:16:52.408Z</time></trkpt><trkpt lat="42.238549" lon="14.1873279"><ele>243.0</ele><time>2026-05-01T12:16:53.409Z</time></trkpt><trkpt lat="42.2386358" lon="14.1872695"><ele>243.0</ele><time>2026-05-01T12:16:54.409Z</time></trkpt><trkpt lat="42.2387947" lon="14.1872477"><ele>244.0</ele><time>2026-05-01T12:16:55.409Z</time></trkpt><trkpt lat="42.2388871" lon="14.1872216"><ele>245.0</ele><time>2026-05-01T12:16:56.408Z</time></trkpt><trkpt lat="42.2389692" lon="14.1871196"><ele>246.0</ele><time>2026-05-01T12:16:57.409Z</time></trkpt><trkpt lat="42.239059" lon="14.1870087"><ele>247.0</ele><time>2026-05-01T12:16:58.409Z</time></trkpt><trkpt lat="42.2391286" lon="14.1868555"><ele>247.39999999999998</ele><time>2026-05-01T12:16:59.409Z</time></trkpt><trkpt lat="42.2391731" lon="14.1867017"><ele>247.79999999999998</ele><time>2026-05-01T12:17:00.41Z</time></trkpt><trkpt lat="42.2392321" lon="14.1865818"><ele>248.2</ele><time>2026-05-01T12:17:01.409Z</time></trkpt><trkpt lat="42.2392904" lon="14.1864561"><ele>248.6</ele><time>2026-05-01T12:17:02.408Z</time></trkpt><trkpt lat="42.2393301" lon="14.1863548"><ele>249.0</ele><time>2026-05-01T12:17:03.408Z</time></trkpt><trkpt lat="42.2394022" lon="14.1862741"><ele>250.2</ele><time>2026-05-01T12:17:04.409Z</time></trkpt><trkpt lat="42.2394876" lon="14.1861572"><ele>251.39999999999998</ele><time>2026-05-01T12:17:05.408Z</time></trkpt><trkpt lat="42.2395945" lon="14.1860792"><ele>252.6</ele><time>2026-05-01T12:17:06.408Z</time></trkpt><trkpt lat="42.2396634" lon="14.1859747"><ele>253.8</ele><time>2026-05-01T12:17:07.409Z</time></trkpt><trkpt lat="42.2397306" lon="14.1858766"><ele>255.0</ele><time>2026-05-01T12:17:08.41Z</time></trkpt><trkpt lat="42.2397776" lon="14.1857785"><ele>254.6</ele><time>2026-05-01T12:17:09.41Z</time></trkpt><trkpt lat="42.239825" lon="14.1856811"><ele>254.2</ele><time>2026-05-01T12:17:10.409Z</time></trkpt><trkpt lat="42.2398718" lon="14.1855715"><ele>253.8</ele><time>2026-05-01T12:17:11.409Z</time></trkpt><trkpt lat="42.2399281" lon="14.1854514"><ele>253.4</ele><time>2026-05-01T12:17:12.408Z</time></trkpt><trkpt lat="42.2399895" lon="14.1853261"><ele>253.0</ele><time>2026-05-01T12:17:13.409Z</time></trkpt><trkpt lat="42.2400687" lon="14.1852237"><ele>253.0</ele><time>2026-05-01T12:17:14.409Z</time></trkpt><trkpt lat="42.2401613" lon="14.1851313"><ele>253.0</ele><time>2026-05-01T12:17:15.409Z</time></trkpt><trkpt lat="42.2402565" lon="14.1850301"><ele>253.0</ele><time>2026-05-01T12:17:16.408Z</time></trkpt><trkpt lat="42.2403388" lon="14.184925"><ele>253.0</ele><time>2026-05-01T12:17:17.409Z</time></trkpt><trkpt lat="42.2404097" lon="14.1848412"><ele>253.0</ele><time>2026-05-01T12:17:18.409Z</time></trkpt><trkpt lat="42.240463" lon="14.1847822"><ele>253.0</ele><time>2026-05-01T12:17:19.409Z</time></trkpt><trkpt lat="42.2405381" lon="14.1847142"><ele>253.0</ele><time>2026-05-01T12:17:21.409Z</time></trkpt><trkpt lat="42.2406128" lon="14.1846687"><ele>253.0</ele><time>2026-05-01T12:17:24.41Z</time></trkpt><trkpt lat="42.2407168" lon="14.1847444"><ele>253.0</ele><time>2026-05-01T12:17:31.409Z</time></trkpt><trkpt lat="42.2407939" lon="14.1847984"><ele>253.0</ele><time>2026-05-01T12:17:32.41Z</time></trkpt><trkpt lat="42.2408845" lon="14.1848557"><ele>252.2</ele><time>2026-05-01T12:17:33.409Z</time></trkpt><trkpt lat="42.24097" lon="14.1849093"><ele>251.4</ele><time>2026-05-01T12:17:34.409Z</time></trkpt><trkpt lat="42.2410689" lon="14.1849713"><ele>250.59999999999997</ele><time>2026-05-01T12:17:35.41Z</time></trkpt><trkpt lat="42.2411653" lon="14.1850381"><ele>249.79999999999998</ele><time>2026-05-01T12:17:36.41Z</time></trkpt><trkpt lat="42.2412565" lon="14.1850997"><ele>249.0</ele><time>2026-05-01T12:17:37.41Z</time></trkpt><trkpt lat="42.241343" lon="14.185141"><ele>249.0</ele><time>2026-05-01T12:17:38.41Z</time></trkpt><trkpt lat="42.2414273" lon="14.1851617"><ele>248.99999999999997</ele><time>2026-05-01T12:17:39.409Z</time></trkpt><trkpt lat="42.2415038" lon="14.1851529"><ele>248.99999999999997</ele><time>2026-05-01T12:17:40.409Z</time></trkpt><trkpt lat="42.2415909" lon="14.1851121"><ele>249.0</ele><time>2026-05-01T12:17:41.409Z</time></trkpt><trkpt lat="42.2416767" lon="14.1850262"><ele>249.0</ele><time>2026-05-01T12:17:42.408Z</time></trkpt><trkpt lat="42.2417614" lon="14.1849088"><ele>248.25</ele><time>2026-05-01T12:17:43.408Z</time></trkpt><trkpt lat="42.2418473" lon="14.1847975"><ele>247.5</ele><time>2026-05-01T12:17:44.408Z</time></trkpt><trkpt lat="42.2419164" lon="14.1846851"><ele>246.75</ele><time>2026-05-01T12:17:45.409Z</time></trkpt><trkpt lat="42.2419712" lon="14.1845496"><ele>246.0</ele><time>2026-05-01T12:17:46.408Z</time></trkpt><trkpt lat="42.2420016" lon="14.1843977"><ele>246.0</ele><time>2026-05-01T12:17:47.408Z</time></trkpt><trkpt lat="42.2420141" lon="14.1842531"><ele>246.00000000000003</ele><time>2026-05-01T12:17:48.409Z</time></trkpt><trkpt lat="42.2420283" lon="14.184123"><ele>246.00000000000003</ele><time>2026-05-01T12:17:49.408Z</time></trkpt><trkpt lat="42.2420491" lon="14.1839984"><ele>246.0</ele><time>2026-05-01T12:17:50.408Z</time></trkpt><trkpt lat="42.2420941" lon="14.1838693"><ele>246.0</ele><time>2026-05-01T12:17:51.408Z</time></trkpt><trkpt lat="42.2421526" lon="14.1837361"><ele>246.0</ele><time>2026-05-01T12:17:52.409Z</time></trkpt><trkpt lat="42.2422181" lon="14.1836079"><ele>246.00000000000003</ele><time>2026-05-01T12:17:53.408Z</time></trkpt><trkpt lat="42.2422817" lon="14.1834915"><ele>246.00000000000003</ele><time>2026-05-01T12:17:54.409Z</time></trkpt><trkpt lat="42.2423561" lon="14.1834182"><ele>246.0</ele><time>2026-05-01T12:17:55.409Z</time></trkpt><trkpt lat="42.242431" lon="14.1833677"><ele>246.0</ele><time>2026-05-01T12:17:56.409Z</time></trkpt><trkpt lat="42.2425237" lon="14.1833385"><ele>246.20000000000002</ele><time>2026-05-01T12:17:57.409Z</time></trkpt><trkpt lat="42.2426274" lon="14.1833297"><ele>246.40000000000003</ele><time>2026-05-01T12:17:58.408Z</time></trkpt><trkpt lat="42.2427328" lon="14.1833373"><ele>246.6</ele><time>2026-05-01T12:17:59.408Z</time></trkpt><trkpt lat="42.2428407" lon="14.1833518"><ele>246.8</ele><time>2026-05-01T12:18:00.409Z</time></trkpt><trkpt lat="42.2429345" lon="14.1833716"><ele>247.0</ele><time>2026-05-01T12:18:01.408Z</time></trkpt><trkpt lat="42.2430119" lon="14.1833952"><ele>246.99999999999997</ele><time>2026-05-01T12:18:02.408Z</time></trkpt><trkpt lat="42.2430916" lon="14.1834068"><ele>247.0</ele><time>2026-05-01T12:18:03.408Z</time></trkpt><trkpt lat="42.2431658" lon="14.1834246"><ele>247.0</ele><time>2026-05-01T12:18:04.408Z</time></trkpt><trkpt lat="42.2432773" lon="14.1833812"><ele>247.0</ele><time>2026-05-01T12:18:06.408Z</time></trkpt><trkpt lat="42.2433132" lon="14.183287"><ele>246.99999999999997</ele><time>2026-05-01T12:18:08.409Z</time></trkpt><trkpt lat="42.2432803" lon="14.1831715"><ele>247.0</ele><time>2026-05-01T12:18:11.408Z</time></trkpt><trkpt lat="42.2432191" lon="14.1831269"><ele>247.5</ele><time>2026-05-01T12:18:12.408Z</time></trkpt><trkpt lat="42.2431273" lon="14.1830767"><ele>248.0</ele><time>2026-05-01T12:18:13.408Z</time></trkpt><trkpt lat="42.2430144" lon="14.1830216"><ele>248.5</ele><time>2026-05-01T12:18:14.407Z</time></trkpt><trkpt lat="42.2428869" lon="14.1829613"><ele>249.0</ele><time>2026-05-01T12:18:15.409Z</time></trkpt><trkpt lat="42.2427623" lon="14.1828949"><ele>249.0</ele><time>2026-05-01T12:18:16.407Z</time></trkpt><trkpt lat="42.2426584" lon="14.1828192"><ele>248.99999999999997</ele><time>2026-05-01T12:18:17.408Z</time></trkpt><trkpt lat="42.242575" lon="14.1827403"><ele>248.99999999999997</ele><time>2026-05-01T12:18:18.408Z</time></trkpt><trkpt lat="42.242493" lon="14.182656"><ele>249.0</ele><time>2026-05-01T12:18:19.409Z</time></trkpt><trkpt lat="42.2424235" lon="14.1825826"><ele>249.0</ele><time>2026-05-01T12:18:20.409Z</time></trkpt><trkpt lat="42.2423725" lon="14.1825233"><ele>249.0</ele><time>2026-05-01T12:18:21.409Z</time></trkpt><trkpt lat="42.2423499" lon="14.1824067"><ele>249.0</ele><time>2026-05-01T12:18:23.409Z</time></trkpt><trkpt lat="42.2423855" lon="14.1823357"><ele>249.0</ele><time>2026-05-01T12:18:24.407Z</time></trkpt><trkpt lat="42.2424456" lon="14.1822882"><ele>249.0</ele><time>2026-05-01T12:18:25.408Z</time></trkpt><trkpt lat="42.2425229" lon="14.1822619"><ele>249.0</ele><time>2026-05-01T12:18:26.407Z</time></trkpt><trkpt lat="42.2426157" lon="14.1822325"><ele>249.0</ele><time>2026-05-01T12:18:27.408Z</time></trkpt><trkpt lat="42.2427064" lon="14.1821796"><ele>249.5</ele><time>2026-05-01T12:18:28.409Z</time></trkpt><trkpt lat="42.242815" lon="14.182127"><ele>250.0</ele><time>2026-05-01T12:18:29.407Z</time></trkpt><trkpt lat="42.2429268" lon="14.1820539"><ele>250.5</ele><time>2026-05-01T12:18:30.407Z</time></trkpt><trkpt lat="42.2430382" lon="14.1820003"><ele>251.0</ele><time>2026-05-01T12:18:31.408Z</time></trkpt><trkpt lat="42.2431476" lon="14.1819515"><ele>249.75</ele><time>2026-05-01T12:18:32.408Z</time></trkpt><trkpt lat="42.2432599" lon="14.1818949"><ele>248.5</ele><time>2026-05-01T12:18:33.407Z</time></trkpt><trkpt lat="42.2433807" lon="14.1818256"><ele>247.25</ele><time>2026-05-01T12:18:34.408Z</time></trkpt><trkpt lat="42.2435086" lon="14.1817493"><ele>246.0</ele><time>2026-05-01T12:18:35.408Z</time></trkpt><trkpt lat="42.2436462" lon="14.1816759"><ele>246.0</ele><time>2026-05-01T12:18:36.408Z</time></trkpt><trkpt lat="42.243773" lon="14.1816103"><ele>246.0</ele><time>2026-05-01T12:18:37.409Z</time></trkpt><trkpt lat="42.243898" lon="14.1815407"><ele>246.0</ele><time>2026-05-01T12:18:38.409Z</time></trkpt><trkpt lat="42.2440191" lon="14.181474"><ele>246.0</ele><time>2026-05-01T12:18:39.408Z</time></trkpt><trkpt lat="42.2441358" lon="14.1814034"><ele>244.75</ele><time>2026-05-01T12:18:40.409Z</time></trkpt><trkpt lat="42.2442555" lon="14.1813361"><ele>243.5</ele><time>2026-05-01T12:18:41.408Z</time></trkpt><trkpt lat="42.2443606" lon="14.1812656"><ele>242.25</ele><time>2026-05-01T12:18:42.407Z</time></trkpt><trkpt lat="42.2444642" lon="14.1812014"><ele>241.0</ele><time>2026-05-01T12:18:43.408Z</time></trkpt><trkpt lat="42.2445648" lon="14.1811446"><ele>240.99999999999997</ele><time>2026-05-01T12:18:44.407Z</time></trkpt><trkpt lat="42.2446543" lon="14.1810846"><ele>241.0</ele><time>2026-05-01T12:18:45.407Z</time></trkpt><trkpt lat="42.2447361" lon="14.1810475"><ele>241.0</ele><time>2026-05-01T12:18:46.408Z</time></trkpt><trkpt lat="42.2448142" lon="14.1810338"><ele>241.0</ele><time>2026-05-01T12:18:47.408Z</time></trkpt><trkpt lat="42.2448869" lon="14.1810406"><ele>240.99999999999997</ele><time>2026-05-01T12:18:48.408Z</time></trkpt><trkpt lat="42.2449502" lon="14.1810637"><ele>241.0</ele><time>2026-05-01T12:18:49.408Z</time></trkpt><trkpt lat="42.2450216" lon="14.1811075"><ele>240.25</ele><time>2026-05-01T12:18:50.408Z</time></trkpt><trkpt lat="42.2451059" lon="14.1811677"><ele>239.5</ele><time>2026-05-01T12:18:51.408Z</time></trkpt><trkpt lat="42.245204" lon="14.1812556"><ele>238.75</ele><time>2026-05-01T12:18:52.409Z</time></trkpt><trkpt lat="42.2453138" lon="14.1813453"><ele>238.0</ele><time>2026-05-01T12:18:53.408Z</time></trkpt><trkpt lat="42.2454341" lon="14.1814267"><ele>238.0</ele><time>2026-05-01T12:18:54.408Z</time></trkpt><trkpt lat="42.2455616" lon="14.1814888"><ele>238.0</ele><time>2026-05-01T12:18:55.408Z</time></trkpt><trkpt lat="42.2456857" lon="14.1815416"><ele>238.0</ele><time>2026-05-01T12:18:56.408Z</time></trkpt><trkpt lat="42.2458092" lon="14.1816227"><ele>238.0</ele><time>2026-05-01T12:18:57.408Z</time></trkpt><trkpt lat="42.2459149" lon="14.1817158"><ele>237.75</ele><time>2026-05-01T12:18:58.408Z</time></trkpt><trkpt lat="42.2460139" lon="14.1817991"><ele>237.5</ele><time>2026-05-01T12:18:59.408Z</time></trkpt><trkpt lat="42.2461239" lon="14.1818616"><ele>237.25</ele><time>2026-05-01T12:19:00.408Z</time></trkpt><trkpt lat="42.24625" lon="14.1818912"><ele>237.0</ele><time>2026-05-01T12:19:01.408Z</time></trkpt><trkpt lat="42.2463864" lon="14.1818953"><ele>235.75</ele><time>2026-05-01T12:19:02.408Z</time></trkpt><trkpt lat="42.2465175" lon="14.1819023"><ele>234.5</ele><time>2026-05-01T12:19:03.408Z</time></trkpt><trkpt lat="42.2466348" lon="14.1819123"><ele>233.25</ele><time>2026-05-01T12:19:04.409Z</time></trkpt><trkpt lat="42.2467478" lon="14.1819343"><ele>232.0</ele><time>2026-05-01T12:19:05.408Z</time></trkpt><trkpt lat="42.2468637" lon="14.1819692"><ele>232.0</ele><time>2026-05-01T12:19:06.408Z</time></trkpt><trkpt lat="42.2469789" lon="14.1820269"><ele>232.0</ele><time>2026-05-01T12:19:07.408Z</time></trkpt><trkpt lat="42.2470873" lon="14.1820948"><ele>232.0</ele><time>2026-05-01T12:19:08.408Z</time></trkpt><trkpt lat="42.2471814" lon="14.1821779"><ele>232.0</ele><time>2026-05-01T12:19:09.409Z</time></trkpt><trkpt lat="42.2472651" lon="14.1822803"><ele>231.99999999999997</ele><time>2026-05-01T12:19:10.408Z</time></trkpt><trkpt lat="42.2473254" lon="14.1823886"><ele>232.0</ele><time>2026-05-01T12:19:11.408Z</time></trkpt><trkpt lat="42.2473738" lon="14.1824977"><ele>232.0</ele><time>2026-05-01T12:19:12.408Z</time></trkpt><trkpt lat="42.2474058" lon="14.1826034"><ele>232.0</ele><time>2026-05-01T12:19:13.408Z</time></trkpt><trkpt lat="42.247437" lon="14.1826958"><ele>231.99999999999997</ele><time>2026-05-01T12:19:14.408Z</time></trkpt><trkpt lat="42.247486" lon="14.1827742"><ele>232.0</ele><time>2026-05-01T12:19:15.408Z</time></trkpt><trkpt lat="42.2475608" lon="14.1828503"><ele>232.0</ele><time>2026-05-01T12:19:16.407Z</time></trkpt><trkpt lat="42.2476396" lon="14.182918"><ele>232.0</ele><time>2026-05-01T12:19:17.407Z</time></trkpt><trkpt lat="42.2477239" lon="14.182981"><ele>232.0</ele><time>2026-05-01T12:19:18.409Z</time></trkpt><trkpt lat="42.2478041" lon="14.1830481"><ele>232.0</ele><time>2026-05-01T12:19:19.407Z</time></trkpt><trkpt lat="42.2478764" lon="14.1831243"><ele>232.0</ele><time>2026-05-01T12:19:20.408Z</time></trkpt><trkpt lat="42.2479365" lon="14.1832154"><ele>232.33333333333331</ele><time>2026-05-01T12:19:21.408Z</time></trkpt><trkpt lat="42.2479845" lon="14.1833075"><ele>232.66666666666666</ele><time>2026-05-01T12:19:22.409Z</time></trkpt><trkpt lat="42.2480176" lon="14.1833919"><ele>233.0</ele><time>2026-05-01T12:19:23.408Z</time></trkpt><trkpt lat="42.2480384" lon="14.183479"><ele>233.33333333333331</ele><time>2026-05-01T12:19:24.408Z</time></trkpt><trkpt lat="42.2480518" lon="14.1835662"><ele>233.66666666666666</ele><time>2026-05-01T12:19:25.407Z</time></trkpt><trkpt lat="42.2480627" lon="14.18365"><ele>234.0</ele><time>2026-05-01T12:19:26.408Z</time></trkpt><trkpt lat="42.2480638" lon="14.1838005"><ele>234.0</ele><time>2026-05-01T12:19:28.408Z</time></trkpt><trkpt lat="42.2480614" lon="14.183896"><ele>234.0</ele><time>2026-05-01T12:19:30.408Z</time></trkpt><trkpt lat="42.2481245" lon="14.1838996"><ele>234.0</ele><time>2026-05-01T12:19:33.408Z</time></trkpt><trkpt lat="42.2481874" lon="14.1837376"><ele>234.0</ele><time>2026-05-01T12:19:35.408Z</time></trkpt><trkpt lat="42.2482389" lon="14.1836297"><ele>234.0</ele><time>2026-05-01T12:19:36.407Z</time></trkpt><trkpt lat="42.2482798" lon="14.1835558"><ele>234.0</ele><time>2026-05-01T12:19:37.409Z</time></trkpt><trkpt lat="42.2483252" lon="14.183471"><ele>232.66666666666666</ele><time>2026-05-01T12:19:39.408Z</time></trkpt><trkpt lat="42.2483627" lon="14.1833951"><ele>231.33333333333331</ele><time>2026-05-01T12:19:42.408Z</time></trkpt><trkpt lat="42.2483175" lon="14.1833219"><ele>230.0</ele><time>2026-05-01T12:19:47.408Z</time></trkpt><trkpt lat="42.2482764" lon="14.1834459"><ele>228.66666666666666</ele><time>2026-05-01T12:19:49.408Z</time></trkpt><trkpt lat="42.2482411" lon="14.1835318"><ele>227.33333333333331</ele><time>2026-05-01T12:19:50.408Z</time></trkpt><trkpt lat="42.2482039" lon="14.1836387"><ele>226.0</ele><time>2026-05-01T12:19:51.409Z</time></trkpt><trkpt lat="42.248159" lon="14.1837481"><ele>226.4</ele><time>2026-05-01T12:19:52.408Z</time></trkpt><trkpt lat="42.2481138" lon="14.1838609"><ele>226.8</ele><time>2026-05-01T12:19:53.407Z</time></trkpt><trkpt lat="42.2480697" lon="14.1839673"><ele>227.20000000000002</ele><time>2026-05-01T12:19:54.407Z</time></trkpt><trkpt lat="42.2480202" lon="14.1840719"><ele>227.60000000000002</ele><time>2026-05-01T12:19:55.408Z</time></trkpt><trkpt lat="42.2479634" lon="14.1841736"><ele>228.0</ele><time>2026-05-01T12:19:56.409Z</time></trkpt><trkpt lat="42.2478999" lon="14.184255"><ele>228.0</ele><time>2026-05-01T12:19:57.408Z</time></trkpt><trkpt lat="42.2478149" lon="14.1843209"><ele>228.0</ele><time>2026-05-01T12:19:58.408Z</time></trkpt><trkpt lat="42.2477425" lon="14.1843462"><ele>228.0</ele><time>2026-05-01T12:19:59.407Z</time></trkpt><trkpt lat="42.2476724" lon="14.1843593"><ele>228.0</ele><time>2026-05-01T12:20:00.408Z</time></trkpt><trkpt lat="42.2475993" lon="14.1843686"><ele>228.0</ele><time>2026-05-01T12:20:01.407Z</time></trkpt><trkpt lat="42.2474918" lon="14.1843505"><ele>228.0</ele><time>2026-05-01T12:20:03.408Z</time></trkpt><trkpt lat="42.247483" lon="14.1844486"><ele>228.0</ele><time>2026-05-01T12:20:17.408Z</time></trkpt><trkpt lat="42.2475761" lon="14.1845371"><ele>228.0</ele><time>2026-05-01T12:20:19.408Z</time></trkpt><trkpt lat="42.2476421" lon="14.1845673"><ele>228.0</ele><time>2026-05-01T12:20:20.407Z</time></trkpt><trkpt lat="42.2477102" lon="14.1845596"><ele>228.0</ele><time>2026-05-01T12:20:21.408Z</time></trkpt><trkpt lat="42.2477867" lon="14.1845007"><ele>228.0</ele><time>2026-05-01T12:20:23.408Z</time></trkpt><trkpt lat="42.2478454" lon="14.184403"><ele>228.0</ele><time>2026-05-01T12:20:25.408Z</time></trkpt><trkpt lat="42.2478938" lon="14.1843349"><ele>228.0</ele><time>2026-05-01T12:20:26.407Z</time></trkpt><trkpt lat="42.2479515" lon="14.1842641"><ele>228.0</ele><time>2026-05-01T12:20:27.408Z</time></trkpt><trkpt lat="42.2479993" lon="14.1841988"><ele>228.0</ele><time>2026-05-01T12:20:28.408Z</time></trkpt><trkpt lat="42.2480595" lon="14.1840944"><ele>228.0</ele><time>2026-05-01T12:20:30.407Z</time></trkpt><trkpt lat="42.2480979" lon="14.1840197"><ele>228.0</ele><time>2026-05-01T12:20:33.407Z</time></trkpt><trkpt lat="42.2479917" lon="14.1841389"><ele>228.0</ele><time>2026-05-01T12:20:46.407Z</time></trkpt><trkpt lat="42.2479371" lon="14.1842226"><ele>228.0</ele><time>2026-05-01T12:20:47.406Z</time></trkpt><trkpt lat="42.2478641" lon="14.1842924"><ele>228.0</ele><time>2026-05-01T12:20:48.408Z</time></trkpt><trkpt lat="42.2477793" lon="14.1843416"><ele>228.0</ele><time>2026-05-01T12:20:49.407Z</time></trkpt><trkpt lat="42.2477012" lon="14.1843622"><ele>228.0</ele><time>2026-05-01T12:20:50.407Z</time></trkpt><trkpt lat="42.2476286" lon="14.1843745"><ele>228.0</ele><time>2026-05-01T12:20:51.407Z</time></trkpt><trkpt lat="42.2475657" lon="14.184381"><ele>228.0</ele><time>2026-05-01T12:20:52.407Z</time></trkpt><trkpt lat="42.2474696" lon="14.1843833"><ele>228.0</ele><time>2026-05-01T12:20:54.408Z</time></trkpt><trkpt lat="42.247429" lon="14.184471"><ele>228.0</ele><time>2026-05-01T12:20:57.408Z</time></trkpt><trkpt lat="42.2474757" lon="14.1845583"><ele>228.0</ele><time>2026-05-01T12:20:59.407Z</time></trkpt><trkpt lat="42.2475318" lon="14.1846386"><ele>228.0</ele><time>2026-05-01T12:21:01.407Z</time></trkpt><trkpt lat="42.2475729" lon="14.1847185"><ele>228.0</ele><time>2026-05-01T12:21:03.406Z</time></trkpt><trkpt lat="42.2476244" lon="14.1847913"><ele>228.0</ele><time>2026-05-01T12:21:05.407Z</time></trkpt><trkpt lat="42.2476767" lon="14.1848904"><ele>226.83333333333334</ele><time>2026-05-01T12:21:07.407Z</time></trkpt><trkpt lat="42.247706" lon="14.1850108"><ele>225.66666666666669</ele><time>2026-05-01T12:21:09.408Z</time></trkpt><trkpt lat="42.2477233" lon="14.1851444"><ele>224.5</ele><time>2026-05-01T12:21:11.407Z</time></trkpt><trkpt lat="42.2477373" lon="14.1852283"><ele>223.33333333333334</ele><time>2026-05-01T12:21:12.407Z</time></trkpt><trkpt lat="42.247758" lon="14.1853272"><ele>222.16666666666669</ele><time>2026-05-01T12:21:13.407Z</time></trkpt><trkpt lat="42.2477949" lon="14.1854482"><ele>221.0</ele><time>2026-05-01T12:21:14.408Z</time></trkpt><trkpt lat="42.2478522" lon="14.1855909"><ele>221.0</ele><time>2026-05-01T12:21:15.407Z</time></trkpt><trkpt lat="42.2479375" lon="14.1857719"><ele>221.0</ele><time>2026-05-01T12:21:16.407Z</time></trkpt><trkpt lat="42.2480195" lon="14.1859363"><ele>221.0</ele><time>2026-05-01T12:21:17.408Z</time></trkpt><trkpt lat="42.2480931" lon="14.1860771"><ele>221.0</ele><time>2026-05-01T12:21:18.407Z</time></trkpt><trkpt lat="42.2481674" lon="14.186185"><ele>222.25</ele><time>2026-05-01T12:21:19.408Z</time></trkpt><trkpt lat="42.2482545" lon="14.1862675"><ele>223.5</ele><time>2026-05-01T12:21:20.406Z</time></trkpt><trkpt lat="42.2483694" lon="14.1863305"><ele>224.75</ele><time>2026-05-01T12:21:21.407Z</time></trkpt><trkpt lat="42.248515" lon="14.1864063"><ele>226.0</ele><time>2026-05-01T12:21:22.407Z</time></trkpt><trkpt lat="42.2486539" lon="14.1864811"><ele>225.0</ele><time>2026-05-01T12:21:23.407Z</time></trkpt><trkpt lat="42.2487754" lon="14.1865336"><ele>224.00000000000003</ele><time>2026-05-01T12:21:24.406Z</time></trkpt><trkpt lat="42.2488762" lon="14.1865603"><ele>223.00000000000003</ele><time>2026-05-01T12:21:25.407Z</time></trkpt><trkpt lat="42.248963" lon="14.1865585"><ele>222.0</ele><time>2026-05-01T12:21:26.408Z</time></trkpt><trkpt lat="42.2490383" lon="14.186552"><ele>221.0</ele><time>2026-05-01T12:21:27.407Z</time></trkpt><trkpt lat="42.2491021" lon="14.1865524"><ele>221.0</ele><time>2026-05-01T12:21:28.407Z</time></trkpt><trkpt lat="42.2491886" lon="14.1866117"><ele>221.0</ele><time>2026-05-01T12:21:30.407Z</time></trkpt><trkpt lat="42.2491981" lon="14.1867694"><ele>221.0</ele><time>2026-05-01T12:21:32.408Z</time></trkpt><trkpt lat="42.2491867" lon="14.1869156"><ele>221.0</ele><time>2026-05-01T12:21:33.407Z</time></trkpt><trkpt lat="42.2491748" lon="14.1871071"><ele>220.33333333333334</ele><time>2026-05-01T12:21:34.407Z</time></trkpt><trkpt lat="42.2491554" lon="14.1873479"><ele>219.66666666666669</ele><time>2026-05-01T12:21:35.407Z</time></trkpt><trkpt lat="42.2491307" lon="14.1875635"><ele>219.0</ele><time>2026-05-01T12:21:36.407Z</time></trkpt><trkpt lat="42.2490997" lon="14.1877695"><ele>219.0</ele><time>2026-05-01T12:21:37.407Z</time></trkpt><trkpt lat="42.2490653" lon="14.187954"><ele>219.0</ele><time>2026-05-01T12:21:38.407Z</time></trkpt><trkpt lat="42.2490206" lon="14.1881071"><ele>219.0</ele><time>2026-05-01T12:21:39.407Z</time></trkpt><trkpt lat="42.2489879" lon="14.1882338"><ele>219.0</ele><time>2026-05-01T12:21:40.407Z</time></trkpt><trkpt lat="42.2489835" lon="14.1883657"><ele>219.6</ele><time>2026-05-01T12:21:41.406Z</time></trkpt><trkpt lat="42.2490138" lon="14.1884619"><ele>220.2</ele><time>2026-05-01T12:21:42.407Z</time></trkpt><trkpt lat="42.2490758" lon="14.1885364"><ele>220.79999999999998</ele><time>2026-05-01T12:21:43.406Z</time></trkpt><trkpt lat="42.249172" lon="14.1885769"><ele>221.39999999999998</ele><time>2026-05-01T12:21:44.408Z</time></trkpt><trkpt lat="42.2493115" lon="14.1886016"><ele>222.0</ele><time>2026-05-01T12:21:45.406Z</time></trkpt><trkpt lat="42.2494585" lon="14.1886398"><ele>222.0</ele><time>2026-05-01T12:21:46.407Z</time></trkpt><trkpt lat="42.2496888" lon="14.1887237"><ele>222.0</ele><time>2026-05-01T12:21:47.407Z</time></trkpt><trkpt lat="42.2498877" lon="14.1888376"><ele>221.33333333333331</ele><time>2026-05-01T12:21:48.406Z</time></trkpt><trkpt lat="42.2500632" lon="14.1889601"><ele>220.66666666666666</ele><time>2026-05-01T12:21:49.407Z</time></trkpt><trkpt lat="42.2502264" lon="14.1890746"><ele>220.0</ele><time>2026-05-01T12:21:50.407Z</time></trkpt><trkpt lat="42.2503827" lon="14.1891778"><ele>221.66666666666666</ele><time>2026-05-01T12:21:51.407Z</time></trkpt><trkpt lat="42.2505437" lon="14.1892421"><ele>223.33333333333331</ele><time>2026-05-01T12:21:52.407Z</time></trkpt><trkpt lat="42.2507041" lon="14.1892553"><ele>225.0</ele><time>2026-05-01T12:21:53.406Z</time></trkpt><trkpt lat="42.2508597" lon="14.1892124"><ele>225.0</ele><time>2026-05-01T12:21:54.407Z</time></trkpt><trkpt lat="42.25102" lon="14.1891141"><ele>225.0</ele><time>2026-05-01T12:21:55.407Z</time></trkpt><trkpt lat="42.2511879" lon="14.1889899"><ele>225.0</ele><time>2026-05-01T12:21:56.406Z</time></trkpt><trkpt lat="42.2513353" lon="14.188875"><ele>224.75</ele><time>2026-05-01T12:21:57.406Z</time></trkpt><trkpt lat="42.251475" lon="14.1887754"><ele>224.5</ele><time>2026-05-01T12:21:58.407Z</time></trkpt><trkpt lat="42.251605" lon="14.1886891"><ele>224.25</ele><time>2026-05-01T12:21:59.407Z</time></trkpt><trkpt lat="42.2517286" lon="14.1886132"><ele>224.0</ele><time>2026-05-01T12:22:00.407Z</time></trkpt><trkpt lat="42.2518647" lon="14.1885554"><ele>224.0</ele><time>2026-05-01T12:22:01.406Z</time></trkpt><trkpt lat="42.2520051" lon="14.1885186"><ele>224.0</ele><time>2026-05-01T12:22:02.407Z</time></trkpt><trkpt lat="42.252154" lon="14.1885033"><ele>224.0</ele><time>2026-05-01T12:22:03.406Z</time></trkpt><trkpt lat="42.2523113" lon="14.1885133"><ele>223.66666666666669</ele><time>2026-05-01T12:22:04.408Z</time></trkpt><trkpt lat="42.2524833" lon="14.1885348"><ele>223.33333333333331</ele><time>2026-05-01T12:22:05.407Z</time></trkpt><trkpt lat="42.2526352" lon="14.1885648"><ele>223.0</ele><time>2026-05-01T12:22:06.407Z</time></trkpt><trkpt lat="42.252765" lon="14.1885905"><ele>223.0</ele><time>2026-05-01T12:22:07.407Z</time></trkpt><trkpt lat="42.25287" lon="14.1886097"><ele>223.0</ele><time>2026-05-01T12:22:08.406Z</time></trkpt><trkpt lat="42.2529526" lon="14.1886306"><ele>223.0</ele><time>2026-05-01T12:22:09.407Z</time></trkpt><trkpt lat="42.253017" lon="14.1886462"><ele>223.0</ele><time>2026-05-01T12:22:10.407Z</time></trkpt><trkpt lat="42.2531085" lon="14.188654"><ele>223.0</ele><time>2026-05-01T12:22:12.408Z</time></trkpt><trkpt lat="42.2530194" lon="14.1885797"><ele>223.0</ele><time>2026-05-01T12:22:16.408Z</time></trkpt><trkpt lat="42.2529158" lon="14.1885756"><ele>223.0</ele><time>2026-05-01T12:22:17.407Z</time></trkpt><trkpt lat="42.252788" lon="14.1885653"><ele>223.0</ele><time>2026-05-01T12:22:18.406Z</time></trkpt><trkpt lat="42.252641" lon="14.1885384"><ele>223.0</ele><time>2026-05-01T12:22:19.406Z</time></trkpt><trkpt lat="42.2525081" lon="14.1885146"><ele>223.0</ele><time>2026-05-01T12:22:20.408Z</time></trkpt><trkpt lat="42.2523852" lon="14.1884942"><ele>223.0</ele><time>2026-05-01T12:22:21.408Z</time></trkpt><trkpt lat="42.2522488" lon="14.1884742"><ele>223.0</ele><time>2026-05-01T12:22:22.406Z</time></trkpt><trkpt lat="42.2521257" lon="14.1884658"><ele>223.0</ele><time>2026-05-01T12:22:23.406Z</time></trkpt><trkpt lat="42.2520246" lon="14.1884709"><ele>223.16666666666666</ele><time>2026-05-01T12:22:24.408Z</time></trkpt><trkpt lat="42.2519411" lon="14.1884866"><ele>223.33333333333331</ele><time>2026-05-01T12:22:25.407Z</time></trkpt><trkpt lat="42.2518717" lon="14.1884957"><ele>223.5</ele><time>2026-05-01T12:22:26.407Z</time></trkpt><trkpt lat="42.2517727" lon="14.188462"><ele>223.66666666666669</ele><time>2026-05-01T12:22:28.408Z</time></trkpt><trkpt lat="42.2517228" lon="14.1883533"><ele>223.83333333333334</ele><time>2026-05-01T12:22:30.408Z</time></trkpt><trkpt lat="42.251723" lon="14.1882514"><ele>224.0</ele><time>2026-05-01T12:22:31.407Z</time></trkpt><trkpt lat="42.2517479" lon="14.1881409"><ele>223.39999999999998</ele><time>2026-05-01T12:22:32.406Z</time></trkpt><trkpt lat="42.251794" lon="14.1880315"><ele>222.79999999999998</ele><time>2026-05-01T12:22:33.406Z</time></trkpt><trkpt lat="42.2518564" lon="14.187925"><ele>222.20000000000002</ele><time>2026-05-01T12:22:34.408Z</time></trkpt><trkpt lat="42.251934" lon="14.187823"><ele>221.60000000000002</ele><time>2026-05-01T12:22:35.406Z</time></trkpt><trkpt lat="42.2520175" lon="14.1877243"><ele>221.0</ele><time>2026-05-01T12:22:36.407Z</time></trkpt><trkpt lat="42.2520936" lon="14.1876285"><ele>221.0</ele><time>2026-05-01T12:22:37.407Z</time></trkpt><trkpt lat="42.2521546" lon="14.1875112"><ele>221.00000000000003</ele><time>2026-05-01T12:22:38.406Z</time></trkpt><trkpt lat="42.2522059" lon="14.1873808"><ele>221.00000000000003</ele><time>2026-05-01T12:22:39.406Z</time></trkpt><trkpt lat="42.2522249" lon="14.1872459"><ele>221.0</ele><time>2026-05-01T12:22:40.406Z</time></trkpt><trkpt lat="42.2522384" lon="14.1871513"><ele>221.0</ele><time>2026-05-01T12:22:41.406Z</time></trkpt><trkpt lat="42.2522922" lon="14.1870419"><ele>220.33333333333334</ele><time>2026-05-01T12:22:43.407Z</time></trkpt><trkpt lat="42.252253" lon="14.1869733"><ele>219.66666666666669</ele><time>2026-05-01T12:26:09.405Z</time></trkpt><trkpt lat="42.2521523" lon="14.1869253"><ele>219.0</ele><time>2026-05-01T12:26:11.405Z</time></trkpt><trkpt lat="42.2521008" lon="14.1868548"><ele>218.33333333333331</ele><time>2026-05-01T12:26:13.405Z</time></trkpt><trkpt lat="42.2520861" lon="14.1867622"><ele>217.66666666666666</ele><time>2026-05-01T12:26:16.406Z</time></trkpt><trkpt lat="42.2521037" lon="14.186652"><ele>217.0</ele><time>2026-05-01T12:26:31.404Z</time></trkpt><trkpt lat="42.2520946" lon="14.1867774"><ele>217.0</ele><time>2026-05-01T12:26:48.404Z</time></trkpt><trkpt lat="42.2521591" lon="14.1868999"><ele>217.0</ele><time>2026-05-01T12:26:50.404Z</time></trkpt><trkpt lat="42.2522247" lon="14.1869546"><ele>217.0</ele><time>2026-05-01T12:26:51.406Z</time></trkpt><trkpt lat="42.2523301" lon="14.1870035"><ele>217.0</ele><time>2026-05-01T12:26:52.406Z</time></trkpt><trkpt lat="42.2524412" lon="14.187071"><ele>217.0</ele><time>2026-05-01T12:26:53.404Z</time></trkpt><trkpt lat="42.2525259" lon="14.1871387"><ele>217.49999999999997</ele><time>2026-05-01T12:26:54.405Z</time></trkpt><trkpt lat="42.2526168" lon="14.187228"><ele>218.0</ele><time>2026-05-01T12:26:55.405Z</time></trkpt><trkpt lat="42.2526907" lon="14.1873243"><ele>218.5</ele><time>2026-05-01T12:26:56.405Z</time></trkpt><trkpt lat="42.2527351" lon="14.1873866"><ele>219.0</ele><time>2026-05-01T12:26:57.405Z</time></trkpt><trkpt lat="42.2527716" lon="14.1874592"><ele>219.49999999999997</ele><time>2026-05-01T12:26:59.405Z</time></trkpt><trkpt lat="42.2527308" lon="14.1873706"><ele>220.0</ele><time>2026-05-01T12:27:22.404Z</time></trkpt><trkpt lat="42.2526664" lon="14.1872965"><ele>219.99999999999997</ele><time>2026-05-01T12:27:25.403Z</time></trkpt><trkpt lat="42.2526284" lon="14.1872227"><ele>220.0</ele><time>2026-05-01T12:27:35.403Z</time></trkpt><trkpt lat="42.2525577" lon="14.1871576"><ele>220.0</ele><time>2026-05-01T12:27:37.403Z</time></trkpt><trkpt lat="42.2524926" lon="14.187101"><ele>220.0</ele><time>2026-05-01T12:27:39.403Z</time></trkpt><trkpt lat="42.2524075" lon="14.1870435"><ele>219.99999999999997</ele><time>2026-05-01T12:27:41.404Z</time></trkpt><trkpt lat="42.2523408" lon="14.1870232"><ele>220.0</ele><time>2026-05-01T12:27:44.404Z</time></trkpt><trkpt lat="42.2522799" lon="14.1869951"><ele>219.99999999999997</ele><time>2026-05-01T12:27:53.404Z</time></trkpt><trkpt lat="42.2523452" lon="14.1869963"><ele>220.0</ele><time>2026-05-01T12:29:41.402Z</time></trkpt><trkpt lat="42.2523987" lon="14.1869512"><ele>220.0</ele><time>2026-05-01T12:29:47.404Z</time></trkpt><trkpt lat="42.2524453" lon="14.1868364"><ele>220.0</ele><time>2026-05-01T12:29:49.403Z</time></trkpt><trkpt lat="42.2525181" lon="14.1866958"><ele>219.99999999999997</ele><time>2026-05-01T12:29:51.403Z</time></trkpt><trkpt lat="42.2525638" lon="14.1866063"><ele>220.0</ele><time>2026-05-01T12:29:52.402Z</time></trkpt><trkpt lat="42.2526018" lon="14.186519"><ele>218.99999999999997</ele><time>2026-05-01T12:29:53.403Z</time></trkpt><trkpt lat="42.2526452" lon="14.1864247"><ele>218.0</ele><time>2026-05-01T12:29:54.403Z</time></trkpt><trkpt lat="42.2526858" lon="14.1863316"><ele>217.0</ele><time>2026-05-01T12:29:55.403Z</time></trkpt><trkpt lat="42.2527259" lon="14.1862412"><ele>216.0</ele><time>2026-05-01T12:29:56.403Z</time></trkpt><trkpt lat="42.2527994" lon="14.1860853"><ele>214.99999999999997</ele><time>2026-05-01T12:29:58.404Z</time></trkpt><trkpt lat="42.2528376" lon="14.1860141"><ele>214.0</ele><time>2026-05-01T12:29:59.403Z</time></trkpt><trkpt lat="42.252877" lon="14.1859324"><ele>213.99999999999997</ele><time>2026-05-01T12:30:00.403Z</time></trkpt><trkpt lat="42.2529152" lon="14.1858502"><ele>214.0</ele><time>2026-05-01T12:30:01.403Z</time></trkpt><trkpt lat="42.2529518" lon="14.1857687"><ele>214.0</ele><time>2026-05-01T12:30:02.403Z</time></trkpt><trkpt lat="42.2530139" lon="14.1856285"><ele>214.0</ele><time>2026-05-01T12:30:04.404Z</time></trkpt><trkpt lat="42.2530528" lon="14.1855"><ele>213.99999999999997</ele><time>2026-05-01T12:30:06.404Z</time></trkpt><trkpt lat="42.2531085" lon="14.1854361"><ele>214.0</ele><time>2026-05-01T12:30:08.403Z</time></trkpt><trkpt lat="42.253182" lon="14.1854516"><ele>214.16666666666666</ele><time>2026-05-01T12:30:10.403Z</time></trkpt><trkpt lat="42.2532798" lon="14.1855224"><ele>214.33333333333331</ele><time>2026-05-01T12:30:12.403Z</time></trkpt><trkpt lat="42.2533395" lon="14.1855837"><ele>214.5</ele><time>2026-05-01T12:30:13.402Z</time></trkpt><trkpt lat="42.2534059" lon="14.1856058"><ele>214.66666666666669</ele><time>2026-05-01T12:30:14.403Z</time></trkpt><trkpt lat="42.2534636" lon="14.1856494"><ele>214.83333333333334</ele><time>2026-05-01T12:30:15.403Z</time></trkpt><trkpt lat="42.2535401" lon="14.1856924"><ele>215.0</ele><time>2026-05-01T12:30:55.403Z</time></trkpt><trkpt lat="42.2536274" lon="14.1857382"><ele>215.0</ele><time>2026-05-01T12:30:57.403Z</time></trkpt><trkpt lat="42.2536923" lon="14.1857721"><ele>215.0</ele><time>2026-05-01T12:30:59.402Z</time></trkpt><trkpt lat="42.2536911" lon="14.1858585"><ele>215.0</ele><time>2026-05-01T12:31:08.403Z</time></trkpt><trkpt lat="42.2536172" lon="14.185806"><ele>215.0</ele><time>2026-05-01T12:31:46.403Z</time></trkpt><trkpt lat="42.253568" lon="14.1857196"><ele>215.0</ele><time>2026-05-01T12:31:49.402Z</time></trkpt><trkpt lat="42.253609" lon="14.18579"><ele>215.0</ele><time>2026-05-01T12:33:30.402Z</time></trkpt><trkpt lat="42.2536808" lon="14.1858042"><ele>215.0</ele><time>2026-05-01T12:33:32.402Z</time></trkpt><trkpt lat="42.2537067" lon="14.1859251"><ele>215.0</ele><time>2026-05-01T12:33:35.4Z</time></trkpt><trkpt lat="42.253702" lon="14.1861221"><ele>215.0</ele><time>2026-05-01T12:33:37.401Z</time></trkpt><trkpt lat="42.2536994" lon="14.1862728"><ele>215.0</ele><time>2026-05-01T12:33:38.401Z</time></trkpt><trkpt lat="42.2536894" lon="14.1863907"><ele>215.0</ele><time>2026-05-01T12:33:39.401Z</time></trkpt><trkpt lat="42.2536676" lon="14.1865004"><ele>215.0</ele><time>2026-05-01T12:33:40.401Z</time></trkpt><trkpt lat="42.2536399" lon="14.1865907"><ele>215.33333333333334</ele><time>2026-05-01T12:33:41.401Z</time></trkpt><trkpt lat="42.2535678" lon="14.1867042"><ele>215.66666666666669</ele><time>2026-05-01T12:33:43.401Z</time></trkpt><trkpt lat="42.2534889" lon="14.1866871"><ele>216.0</ele><time>2026-05-01T12:33:46.402Z</time></trkpt><trkpt lat="42.2534469" lon="14.1866226"><ele>216.33333333333331</ele><time>2026-05-01T12:34:30.401Z</time></trkpt><trkpt lat="42.253505" lon="14.1866841"><ele>216.66666666666666</ele><time>2026-05-01T12:34:34.401Z</time></trkpt><trkpt lat="42.2535622" lon="14.1867278"><ele>217.0</ele><time>2026-05-01T12:34:49.4Z</time></trkpt><trkpt lat="42.2536142" lon="14.1866525"><ele>216.99999999999997</ele><time>2026-05-01T12:34:53.402Z</time></trkpt><trkpt lat="42.2536727" lon="14.1865548"><ele>217.0</ele><time>2026-05-01T12:34:55.402Z</time></trkpt><trkpt lat="42.2536989" lon="14.1864212"><ele>217.0</ele><time>2026-05-01T12:34:57.4Z</time></trkpt><trkpt lat="42.253703" lon="14.1863041"><ele>217.0</ele><time>2026-05-01T12:34:59.4Z</time></trkpt><trkpt lat="42.2537188" lon="14.186214"><ele>216.99999999999997</ele><time>2026-05-01T12:35:03.4Z</time></trkpt><trkpt lat="42.2537863" lon="14.1861732"><ele>217.0</ele><time>2026-05-01T12:35:06.402Z</time></trkpt><trkpt lat="42.2538744" lon="14.1861728"><ele>216.66666666666666</ele><time>2026-05-01T12:35:08.401Z</time></trkpt><trkpt lat="42.25395" lon="14.1862047"><ele>216.33333333333331</ele><time>2026-05-01T12:35:10.402Z</time></trkpt><trkpt lat="42.2540275" lon="14.1862735"><ele>216.0</ele><time>2026-05-01T12:35:12.4Z</time></trkpt><trkpt lat="42.2541096" lon="14.1863323"><ele>215.66666666666669</ele><time>2026-05-01T12:35:14.4Z</time></trkpt><trkpt lat="42.2541778" lon="14.1863106"><ele>215.33333333333334</ele><time>2026-05-01T12:35:17.4Z</time></trkpt><trkpt lat="42.2541509" lon="14.1862265"><ele>215.0</ele><time>2026-05-01T12:35:20.4Z</time></trkpt><trkpt lat="42.2541787" lon="14.1860946"><ele>213.2</ele><time>2026-05-01T12:35:23.4Z</time></trkpt><trkpt lat="42.2542574" lon="14.1860035"><ele>211.4</ele><time>2026-05-01T12:35:25.401Z</time></trkpt><trkpt lat="42.2543359" lon="14.1859946"><ele>209.60000000000002</ele><time>2026-05-01T12:35:27.401Z</time></trkpt><trkpt lat="42.2544218" lon="14.1860388"><ele>207.8</ele><time>2026-05-01T12:35:29.401Z</time></trkpt><trkpt lat="42.2545077" lon="14.1860958"><ele>206.0</ele><time>2026-05-01T12:35:31.399Z</time></trkpt><trkpt lat="42.2545975" lon="14.1861506"><ele>206.00000000000003</ele><time>2026-05-01T12:35:33.4Z</time></trkpt><trkpt lat="42.2547098" lon="14.1862278"><ele>206.0</ele><time>2026-05-01T12:35:35.401Z</time></trkpt><trkpt lat="42.254807" lon="14.1863061"><ele>206.0</ele><time>2026-05-01T12:35:37.4Z</time></trkpt><trkpt lat="42.2548572" lon="14.186358"><ele>206.0</ele><time>2026-05-01T12:35:38.4Z</time></trkpt><trkpt lat="42.2549238" lon="14.1863992"><ele>206.00000000000003</ele><time>2026-05-01T12:35:41.399Z</time></trkpt><trkpt lat="42.254987" lon="14.186427"><ele>206.0</ele><time>2026-05-01T12:36:31.4Z</time></trkpt><trkpt lat="42.2550998" lon="14.1864637"><ele>205.66666666666669</ele><time>2026-05-01T12:36:37.4Z</time></trkpt><trkpt lat="42.255202" lon="14.1864881"><ele>205.33333333333334</ele><time>2026-05-01T12:36:39.401Z</time></trkpt><trkpt lat="42.2552642" lon="14.1865488"><ele>205.0</ele><time>2026-05-01T12:36:41.4Z</time></trkpt><trkpt lat="42.255331" lon="14.1865705"><ele>204.66666666666669</ele><time>2026-05-01T12:37:33.4Z</time></trkpt><trkpt lat="42.2554015" lon="14.186484"><ele>204.33333333333334</ele><time>2026-05-01T12:37:36.4Z</time></trkpt><trkpt lat="42.2554737" lon="14.1864617"><ele>204.0</ele><time>2026-05-01T12:38:22.399Z</time></trkpt><trkpt lat="42.2555514" lon="14.1864288"><ele>204.2</ele><time>2026-05-01T12:38:24.399Z</time></trkpt><trkpt lat="42.2556661" lon="14.186359"><ele>204.39999999999998</ele><time>2026-05-01T12:38:26.399Z</time></trkpt><trkpt lat="42.2557584" lon="14.1862838"><ele>204.6</ele><time>2026-05-01T12:38:28.399Z</time></trkpt><trkpt lat="42.2557953" lon="14.1861853"><ele>204.8</ele><time>2026-05-01T12:38:30.399Z</time></trkpt><trkpt lat="42.255825" lon="14.1860775"><ele>205.0</ele><time>2026-05-01T12:38:33.399Z</time></trkpt><trkpt lat="42.2558403" lon="14.1859921"><ele>205.0</ele><time>2026-05-01T12:38:36.399Z</time></trkpt><trkpt lat="42.2559194" lon="14.1859151"><ele>205.0</ele><time>2026-05-01T12:39:02.398Z</time></trkpt><trkpt lat="42.2559356" lon="14.18582"><ele>205.0</ele><time>2026-05-01T12:39:21.4Z</time></trkpt><trkpt lat="42.2560152" lon="14.1856701"><ele>205.0</ele><time>2026-05-01T12:39:24.398Z</time></trkpt><trkpt lat="42.2560953" lon="14.1855437"><ele>205.0</ele><time>2026-05-01T12:39:25.399Z</time></trkpt><trkpt lat="42.2561868" lon="14.1853865"><ele>205.99999999999997</ele><time>2026-05-01T12:39:26.399Z</time></trkpt><trkpt lat="42.256257" lon="14.1852794"><ele>207.0</ele><time>2026-05-01T12:39:27.398Z</time></trkpt><trkpt lat="42.2563137" lon="14.1852028"><ele>208.0</ele><time>2026-05-01T12:39:28.398Z</time></trkpt><trkpt lat="42.2563775" lon="14.1851539"><ele>209.0</ele><time>2026-05-01T12:39:29.398Z</time></trkpt><trkpt lat="42.2564457" lon="14.1851278"><ele>209.99999999999997</ele><time>2026-05-01T12:39:30.398Z</time></trkpt><trkpt lat="42.2565082" lon="14.1851113"><ele>211.0</ele><time>2026-05-01T12:39:31.397Z</time></trkpt><trkpt lat="42.2565699" lon="14.1851513"><ele>213.0</ele><time>2026-05-01T12:39:32.399Z</time></trkpt><trkpt lat="42.2566292" lon="14.185181"><ele>215.0</ele><time>2026-05-01T12:39:33.398Z</time></trkpt><trkpt lat="42.2566876" lon="14.185134"><ele>217.00000000000003</ele><time>2026-05-01T12:39:34.398Z</time></trkpt><trkpt lat="42.2567218" lon="14.1850263"><ele>219.0</ele><time>2026-05-01T12:39:51.397Z</time></trkpt><trkpt lat="42.2568305" lon="14.1848266"><ele>221.0</ele><time>2026-05-01T12:39:53.398Z</time></trkpt><trkpt lat="42.2569013" lon="14.1847375"><ele>222.5</ele><time>2026-05-01T12:39:54.398Z</time></trkpt><trkpt lat="42.2569927" lon="14.1846435"><ele>224.0</ele><time>2026-05-01T12:39:55.397Z</time></trkpt><trkpt lat="42.2571026" lon="14.1845656"><ele>225.5</ele><time>2026-05-01T12:39:56.397Z</time></trkpt><trkpt lat="42.2572061" lon="14.1844853"><ele>227.0</ele><time>2026-05-01T12:39:57.398Z</time></trkpt><trkpt lat="42.2573031" lon="14.1843887"><ele>227.39999999999998</ele><time>2026-05-01T12:39:58.398Z</time></trkpt><trkpt lat="42.2574029" lon="14.1843"><ele>227.79999999999998</ele><time>2026-05-01T12:39:59.398Z</time></trkpt><trkpt lat="42.2574867" lon="14.1842125"><ele>228.2</ele><time>2026-05-01T12:40:00.398Z</time></trkpt><trkpt lat="42.2575299" lon="14.1841369"><ele>228.6</ele><time>2026-05-01T12:40:01.398Z</time></trkpt><trkpt lat="42.2575625" lon="14.1840245"><ele>229.0</ele><time>2026-05-01T12:40:02.399Z</time></trkpt><trkpt lat="42.2575943" lon="14.1839107"><ele>230.2</ele><time>2026-05-01T12:40:03.398Z</time></trkpt><trkpt lat="42.2576096" lon="14.1838063"><ele>231.39999999999998</ele><time>2026-05-01T12:40:04.399Z</time></trkpt><trkpt lat="42.2575955" lon="14.183681"><ele>232.6</ele><time>2026-05-01T12:40:05.399Z</time></trkpt><trkpt lat="42.2575655" lon="14.1835588"><ele>233.8</ele><time>2026-05-01T12:40:06.398Z</time></trkpt><trkpt lat="42.257545" lon="14.1834414"><ele>235.0</ele><time>2026-05-01T12:40:07.398Z</time></trkpt><trkpt lat="42.2575246" lon="14.1833131"><ele>234.99999999999997</ele><time>2026-05-01T12:40:08.399Z</time></trkpt><trkpt lat="42.2574951" lon="14.1831905"><ele>235.0</ele><time>2026-05-01T12:40:09.398Z</time></trkpt><trkpt lat="42.257474" lon="14.1830701"><ele>235.0</ele><time>2026-05-01T12:40:10.398Z</time></trkpt><trkpt lat="42.2574512" lon="14.1829735"><ele>235.0</ele><time>2026-05-01T12:40:11.397Z</time></trkpt><trkpt lat="42.2574188" lon="14.1828833"><ele>234.99999999999997</ele><time>2026-05-01T12:40:12.399Z</time></trkpt><trkpt lat="42.2573625" lon="14.1828293"><ele>235.0</ele><time>2026-05-01T12:40:13.398Z</time></trkpt><trkpt lat="42.2572946" lon="14.182779"><ele>237.16666666666666</ele><time>2026-05-01T12:40:14.398Z</time></trkpt><trkpt lat="42.2572274" lon="14.1827225"><ele>239.33333333333331</ele><time>2026-05-01T12:40:15.398Z</time></trkpt><trkpt lat="42.2571489" lon="14.1826975"><ele>241.5</ele><time>2026-05-01T12:40:16.398Z</time></trkpt><trkpt lat="42.2570852" lon="14.1826654"><ele>243.66666666666669</ele><time>2026-05-01T12:40:17.399Z</time></trkpt><trkpt lat="42.2570242" lon="14.1826017"><ele>245.83333333333334</ele><time>2026-05-01T12:40:19.398Z</time></trkpt><trkpt lat="42.2570665" lon="14.1825001"><ele>248.0</ele><time>2026-05-01T12:40:20.398Z</time></trkpt><trkpt lat="42.2570767" lon="14.1824051"><ele>249.16666666666669</ele><time>2026-05-01T12:40:21.399Z</time></trkpt><trkpt lat="42.2570818" lon="14.1822985"><ele>250.33333333333334</ele><time>2026-05-01T12:40:22.399Z</time></trkpt><trkpt lat="42.2571228" lon="14.1821957"><ele>251.5</ele><time>2026-05-01T12:40:24.398Z</time></trkpt><trkpt lat="42.2571708" lon="14.1821343"><ele>252.66666666666669</ele><time>2026-05-01T12:40:25.397Z</time></trkpt><trkpt lat="42.2572483" lon="14.1820534"><ele>253.83333333333334</ele><time>2026-05-01T12:40:26.397Z</time></trkpt><trkpt lat="42.257313" lon="14.1819513"><ele>255.0</ele><time>2026-05-01T12:40:27.398Z</time></trkpt><trkpt lat="42.2573418" lon="14.1817831"><ele>255.0</ele><time>2026-05-01T12:40:28.398Z</time></trkpt><trkpt lat="42.2573878" lon="14.18163"><ele>255.0</ele><time>2026-05-01T12:40:29.397Z</time></trkpt><trkpt lat="42.2574257" lon="14.1814894"><ele>255.0</ele><time>2026-05-01T12:40:30.398Z</time></trkpt><trkpt lat="42.257469" lon="14.1813572"><ele>255.0</ele><time>2026-05-01T12:40:31.399Z</time></trkpt><trkpt lat="42.2575098" lon="14.1812252"><ele>255.0</ele><time>2026-05-01T12:40:32.398Z</time></trkpt><trkpt lat="42.2575731" lon="14.1811739"><ele>256.5</ele><time>2026-05-01T12:40:33.398Z</time></trkpt><trkpt lat="42.2576202" lon="14.1810629"><ele>258.0</ele><time>2026-05-01T12:40:34.398Z</time></trkpt><trkpt lat="42.2576648" lon="14.180979"><ele>259.5</ele><time>2026-05-01T12:40:35.398Z</time></trkpt><trkpt lat="42.2577057" lon="14.1808984"><ele>261.0</ele><time>2026-05-01T12:40:36.398Z</time></trkpt><trkpt lat="42.2577503" lon="14.180809"><ele>262.5</ele><time>2026-05-01T12:40:37.398Z</time></trkpt><trkpt lat="42.2577888" lon="14.1807285"><ele>264.0</ele><time>2026-05-01T12:40:38.399Z</time></trkpt><trkpt lat="42.2578204" lon="14.1806289"><ele>266.59999999999997</ele><time>2026-05-01T12:40:39.397Z</time></trkpt><trkpt lat="42.2578446" lon="14.1805134"><ele>269.2</ele><time>2026-05-01T12:40:40.399Z</time></trkpt><trkpt lat="42.2578572" lon="14.1803866"><ele>271.79999999999995</ele><time>2026-05-01T12:40:41.398Z</time></trkpt><trkpt lat="42.2578763" lon="14.1802499"><ele>274.4</ele><time>2026-05-01T12:40:42.398Z</time></trkpt><trkpt lat="42.2578908" lon="14.1801165"><ele>277.0</ele><time>2026-05-01T12:40:43.398Z</time></trkpt><trkpt lat="42.2579016" lon="14.1799709"><ele>279.2</ele><time>2026-05-01T12:40:44.398Z</time></trkpt><trkpt lat="42.2579148" lon="14.1798343"><ele>281.4</ele><time>2026-05-01T12:40:45.398Z</time></trkpt><trkpt lat="42.2579181" lon="14.1797017"><ele>283.6</ele><time>2026-05-01T12:40:46.398Z</time></trkpt><trkpt lat="42.2579023" lon="14.1795788"><ele>285.8</ele><time>2026-05-01T12:40:47.398Z</time></trkpt><trkpt lat="42.2579063" lon="14.179449"><ele>288.0</ele><time>2026-05-01T12:40:48.399Z</time></trkpt><trkpt lat="42.2579171" lon="14.1793192"><ele>288.0</ele><time>2026-05-01T12:40:49.398Z</time></trkpt><trkpt lat="42.2579353" lon="14.1791986"><ele>288.0</ele><time>2026-05-01T12:40:50.398Z</time></trkpt><trkpt lat="42.2579496" lon="14.1790843"><ele>288.0</ele><time>2026-05-01T12:40:51.397Z</time></trkpt><trkpt lat="42.2579649" lon="14.1789681"><ele>288.0</ele><time>2026-05-01T12:40:52.398Z</time></trkpt><trkpt lat="42.2579924" lon="14.1788366"><ele>288.0</ele><time>2026-05-01T12:40:53.398Z</time></trkpt><trkpt lat="42.2580158" lon="14.1787464"><ele>288.0</ele><time>2026-05-01T12:40:54.398Z</time></trkpt><trkpt lat="42.2580511" lon="14.1786626"><ele>290.0</ele><time>2026-05-01T12:40:55.397Z</time></trkpt><trkpt lat="42.2580619" lon="14.1785179"><ele>292.0</ele><time>2026-05-01T12:40:57.398Z</time></trkpt><trkpt lat="42.2580848" lon="14.1783752"><ele>294.0</ele><time>2026-05-01T12:40:59.397Z</time></trkpt><trkpt lat="42.2580988" lon="14.1782649"><ele>296.0</ele><time>2026-05-01T12:41:01.398Z</time></trkpt><trkpt lat="42.2581051" lon="14.1781451"><ele>298.0</ele><time>2026-05-01T12:41:03.399Z</time></trkpt><trkpt lat="42.258099" lon="14.1779867"><ele>299.75</ele><time>2026-05-01T12:41:05.397Z</time></trkpt><trkpt lat="42.2580371" lon="14.1778568"><ele>301.5</ele><time>2026-05-01T12:41:07.398Z</time></trkpt><trkpt lat="42.257933" lon="14.1777836"><ele>303.25</ele><time>2026-05-01T12:41:09.399Z</time></trkpt><trkpt lat="42.2578416" lon="14.177711"><ele>305.0</ele><time>2026-05-01T12:41:11.398Z</time></trkpt><trkpt lat="42.257725" lon="14.177702"><ele>305.0</ele><time>2026-05-01T12:41:13.398Z</time></trkpt><trkpt lat="42.257655" lon="14.1777095"><ele>305.0</ele><time>2026-05-01T12:41:14.398Z</time></trkpt><trkpt lat="42.2575247" lon="14.177664"><ele>305.0</ele><time>2026-05-01T12:41:16.398Z</time></trkpt><trkpt lat="42.2574558" lon="14.177672"><ele>305.0</ele><time>2026-05-01T12:41:17.398Z</time></trkpt><trkpt lat="42.2573877" lon="14.1776832"><ele>305.0</ele><time>2026-05-01T12:41:18.397Z</time></trkpt><trkpt lat="42.2572892" lon="14.1777473"><ele>306.83333333333337</ele><time>2026-05-01T12:41:19.398Z</time></trkpt><trkpt lat="42.25722" lon="14.177789"><ele>308.6666666666667</ele><time>2026-05-01T12:41:20.398Z</time></trkpt><trkpt lat="42.2571901" lon="14.1778659"><ele>310.5</ele><time>2026-05-01T12:41:21.398Z</time></trkpt><trkpt lat="42.2571031" lon="14.1779584"><ele>312.3333333333333</ele><time>2026-05-01T12:41:23.397Z</time></trkpt><trkpt lat="42.2570557" lon="14.1778775"><ele>314.16666666666663</ele><time>2026-05-01T12:41:25.398Z</time></trkpt><trkpt lat="42.2570737" lon="14.1777168"><ele>316.0</ele><time>2026-05-01T12:41:27.398Z</time></trkpt><trkpt lat="42.2570892" lon="14.1776168"><ele>316.0</ele><time>2026-05-01T12:41:28.397Z</time></trkpt><trkpt lat="42.2571115" lon="14.1775091"><ele>316.0</ele><time>2026-05-01T12:41:29.399Z</time></trkpt><trkpt lat="42.2571607" lon="14.1774164"><ele>316.0</ele><time>2026-05-01T12:41:30.398Z</time></trkpt><trkpt lat="42.2572046" lon="14.1773025"><ele>316.0</ele><time>2026-05-01T12:41:31.398Z</time></trkpt><trkpt lat="42.2572474" lon="14.1771962"><ele>316.0</ele><time>2026-05-01T12:41:32.398Z</time></trkpt><trkpt lat="42.2573274" lon="14.1770821"><ele>315.8</ele><time>2026-05-01T12:41:33.397Z</time></trkpt><trkpt lat="42.2573728" lon="14.17698"><ele>315.6</ele><time>2026-05-01T12:41:34.398Z</time></trkpt><trkpt lat="42.2574073" lon="14.1768708"><ele>315.4</ele><time>2026-05-01T12:41:35.398Z</time></trkpt><trkpt lat="42.2574445" lon="14.176747"><ele>315.2</ele><time>2026-05-01T12:41:36.398Z</time></trkpt><trkpt lat="42.2574803" lon="14.1766281"><ele>315.0</ele><time>2026-05-01T12:41:37.398Z</time></trkpt><trkpt lat="42.2575151" lon="14.1765097"><ele>316.5</ele><time>2026-05-01T12:41:38.398Z</time></trkpt><trkpt lat="42.2575528" lon="14.1764237"><ele>318.0</ele><time>2026-05-01T12:41:39.397Z</time></trkpt><trkpt lat="42.2575802" lon="14.1762717"><ele>319.5</ele><time>2026-05-01T12:41:41.396Z</time></trkpt><trkpt lat="42.2575527" lon="14.1761556"><ele>321.0</ele><time>2026-05-01T12:41:43.397Z</time></trkpt><trkpt lat="42.2575001" lon="14.1760941"><ele>322.5</ele><time>2026-05-01T12:41:44.397Z</time></trkpt><trkpt lat="42.2574357" lon="14.1760512"><ele>324.0</ele><time>2026-05-01T12:41:45.397Z</time></trkpt><trkpt lat="42.2573567" lon="14.1760169"><ele>324.0</ele><time>2026-05-01T12:41:46.396Z</time></trkpt><trkpt lat="42.2572887" lon="14.1759439"><ele>324.0</ele><time>2026-05-01T12:41:47.397Z</time></trkpt><trkpt lat="42.2572741" lon="14.1758494"><ele>324.0</ele><time>2026-05-01T12:41:48.397Z</time></trkpt><trkpt lat="42.2572215" lon="14.1757103"><ele>324.0</ele><time>2026-05-01T12:41:50.396Z</time></trkpt><trkpt lat="42.257176" lon="14.1755629"><ele>324.0</ele><time>2026-05-01T12:41:52.397Z</time></trkpt><trkpt lat="42.2571605" lon="14.1754457"><ele>325.0</ele><time>2026-05-01T12:41:54.397Z</time></trkpt><trkpt lat="42.2571702" lon="14.1753581"><ele>326.0</ele><time>2026-05-01T12:41:55.396Z</time></trkpt><trkpt lat="42.2571974" lon="14.1752486"><ele>327.0</ele><time>2026-05-01T12:41:56.397Z</time></trkpt><trkpt lat="42.2572347" lon="14.1751322"><ele>328.0</ele><time>2026-05-01T12:41:57.396Z</time></trkpt><trkpt lat="42.2572825" lon="14.1749994"><ele>329.0</ele><time>2026-05-01T12:41:58.397Z</time></trkpt><trkpt lat="42.2573358" lon="14.1748694"><ele>331.0</ele><time>2026-05-01T12:41:59.397Z</time></trkpt><trkpt lat="42.257389" lon="14.1747412"><ele>333.0</ele><time>2026-05-01T12:42:00.397Z</time></trkpt><trkpt lat="42.2574387" lon="14.1746225"><ele>335.0</ele><time>2026-05-01T12:42:01.398Z</time></trkpt><trkpt lat="42.2574916" lon="14.1744972"><ele>337.0</ele><time>2026-05-01T12:42:02.398Z</time></trkpt><trkpt lat="42.2575465" lon="14.1743722"><ele>339.0</ele><time>2026-05-01T12:42:03.396Z</time></trkpt><trkpt lat="42.2576021" lon="14.1742425"><ele>339.0</ele><time>2026-05-01T12:42:04.396Z</time></trkpt><trkpt lat="42.2576665" lon="14.1740986"><ele>339.0</ele><time>2026-05-01T12:42:05.396Z</time></trkpt><trkpt lat="42.2577328" lon="14.1739528"><ele>339.0</ele><time>2026-05-01T12:42:06.396Z</time></trkpt><trkpt lat="42.2578076" lon="14.1738141"><ele>339.0</ele><time>2026-05-01T12:42:07.397Z</time></trkpt><trkpt lat="42.2578816" lon="14.1736815"><ele>340.0</ele><time>2026-05-01T12:42:08.397Z</time></trkpt><trkpt lat="42.2579584" lon="14.1735633"><ele>341.0</ele><time>2026-05-01T12:42:09.396Z</time></trkpt><trkpt lat="42.2580325" lon="14.1734654"><ele>342.0</ele><time>2026-05-01T12:42:10.397Z</time></trkpt><trkpt lat="42.2581166" lon="14.1733699"><ele>343.0</ele><time>2026-05-01T12:42:11.397Z</time></trkpt><trkpt lat="42.2581966" lon="14.1732832"><ele>344.0</ele><time>2026-05-01T12:42:12.397Z</time></trkpt><trkpt lat="42.2582668" lon="14.1732087"><ele>346.1666666666667</ele><time>2026-05-01T12:42:13.398Z</time></trkpt><trkpt lat="42.2583256" lon="14.1731454"><ele>348.33333333333337</ele><time>2026-05-01T12:42:14.397Z</time></trkpt><trkpt lat="42.2583766" lon="14.173082"><ele>350.5</ele><time>2026-05-01T12:42:15.396Z</time></trkpt><trkpt lat="42.258425" lon="14.1729947"><ele>352.6666666666667</ele><time>2026-05-01T12:42:16.397Z</time></trkpt><trkpt lat="42.2584798" lon="14.1728873"><ele>354.8333333333333</ele><time>2026-05-01T12:42:17.397Z</time></trkpt><trkpt lat="42.2585469" lon="14.1727618"><ele>357.0</ele><time>2026-05-01T12:42:18.397Z</time></trkpt><trkpt lat="42.2586508" lon="14.1726464"><ele>357.0</ele><time>2026-05-01T12:42:19.397Z</time></trkpt><trkpt lat="42.2587466" lon="14.1725129"><ele>357.0</ele><time>2026-05-01T12:42:20.397Z</time></trkpt><trkpt lat="42.2588361" lon="14.1724019"><ele>357.0</ele><time>2026-05-01T12:42:21.397Z</time></trkpt><trkpt lat="42.2589202" lon="14.1722995"><ele>357.0</ele><time>2026-05-01T12:42:22.397Z</time></trkpt><trkpt lat="42.2590025" lon="14.1722015"><ele>360.20000000000005</ele><time>2026-05-01T12:42:23.397Z</time></trkpt><trkpt lat="42.2590866" lon="14.1721063"><ele>363.4</ele><time>2026-05-01T12:42:24.397Z</time></trkpt><trkpt lat="42.2591711" lon="14.1720139"><ele>366.6</ele><time>2026-05-01T12:42:25.397Z</time></trkpt><trkpt lat="42.2592575" lon="14.1719196"><ele>369.79999999999995</ele><time>2026-05-01T12:42:26.397Z</time></trkpt><trkpt lat="42.2593401" lon="14.1718243"><ele>373.0</ele><time>2026-05-01T12:42:27.397Z</time></trkpt><trkpt lat="42.2594137" lon="14.1717202"><ele>373.0</ele><time>2026-05-01T12:42:28.398Z</time></trkpt><trkpt lat="42.2594775" lon="14.1716024"><ele>373.0</ele><time>2026-05-01T12:42:29.398Z</time></trkpt><trkpt lat="42.2595362" lon="14.1714833"><ele>373.0</ele><time>2026-05-01T12:42:30.398Z</time></trkpt><trkpt lat="42.2595814" lon="14.1713768"><ele>373.0</ele><time>2026-05-01T12:42:31.397Z</time></trkpt><trkpt lat="42.2596212" lon="14.1713001"><ele>373.0</ele><time>2026-05-01T12:42:32.397Z</time></trkpt><trkpt lat="42.2596655" lon="14.1712186"><ele>373.0</ele><time>2026-05-01T12:42:33.397Z</time></trkpt><trkpt lat="42.2597303" lon="14.1711453"><ele>372.4</ele><time>2026-05-01T12:42:34.397Z</time></trkpt><trkpt lat="42.259811" lon="14.1710711"><ele>371.79999999999995</ele><time>2026-05-01T12:42:35.397Z</time></trkpt><trkpt lat="42.259895" lon="14.1709867"><ele>371.2</ele><time>2026-05-01T12:42:36.398Z</time></trkpt><trkpt lat="42.2599829" lon="14.1708973"><ele>370.6</ele><time>2026-05-01T12:42:37.397Z</time></trkpt><trkpt lat="42.2600743" lon="14.1708054"><ele>370.0</ele><time>2026-05-01T12:42:38.396Z</time></trkpt><trkpt lat="42.2601656" lon="14.1707143"><ele>369.4</ele><time>2026-05-01T12:42:39.398Z</time></trkpt><trkpt lat="42.2602555" lon="14.1706229"><ele>368.8</ele><time>2026-05-01T12:42:40.396Z</time></trkpt><trkpt lat="42.2603462" lon="14.1705348"><ele>368.20000000000005</ele><time>2026-05-01T12:42:41.397Z</time></trkpt><trkpt lat="42.2604368" lon="14.1704513"><ele>367.6</ele><time>2026-05-01T12:42:42.397Z</time></trkpt><trkpt lat="42.2605238" lon="14.1703609"><ele>367.0</ele><time>2026-05-01T12:42:43.397Z</time></trkpt><trkpt lat="42.2606111" lon="14.1702669"><ele>364.6</ele><time>2026-05-01T12:42:44.397Z</time></trkpt><trkpt lat="42.2606936" lon="14.1701706"><ele>362.20000000000005</ele><time>2026-05-01T12:42:45.397Z</time></trkpt><trkpt lat="42.260772" lon="14.1700685"><ele>359.8</ele><time>2026-05-01T12:42:46.398Z</time></trkpt><trkpt lat="42.2608444" lon="14.1699751"><ele>357.4</ele><time>2026-05-01T12:42:47.397Z</time></trkpt><trkpt lat="42.2609039" lon="14.1698968"><ele>355.0</ele><time>2026-05-01T12:42:48.398Z</time></trkpt><trkpt lat="42.2609487" lon="14.1698168"><ele>353.6</ele><time>2026-05-01T12:42:49.397Z</time></trkpt><trkpt lat="42.2609809" lon="14.1697206"><ele>352.2</ele><time>2026-05-01T12:42:50.396Z</time></trkpt><trkpt lat="42.2609999" lon="14.1696069"><ele>350.79999999999995</ele><time>2026-05-01T12:42:51.398Z</time></trkpt><trkpt lat="42.2610096" lon="14.1694746"><ele>349.4</ele><time>2026-05-01T12:42:52.397Z</time></trkpt><trkpt lat="42.2610243" lon="14.1693299"><ele>348.0</ele><time>2026-05-01T12:42:53.397Z</time></trkpt><trkpt lat="42.2610361" lon="14.1691896"><ele>348.0</ele><time>2026-05-01T12:42:54.397Z</time></trkpt><trkpt lat="42.2610375" lon="14.1690511"><ele>348.0</ele><time>2026-05-01T12:42:55.396Z</time></trkpt><trkpt lat="42.2610323" lon="14.1689079"><ele>348.0</ele><time>2026-05-01T12:42:56.396Z</time></trkpt><trkpt lat="42.2610188" lon="14.1687715"><ele>348.0</ele><time>2026-05-01T12:42:57.396Z</time></trkpt><trkpt lat="42.2610212" lon="14.1686342"><ele>348.0</ele><time>2026-05-01T12:42:58.397Z</time></trkpt><trkpt lat="42.2610396" lon="14.1684882"><ele>347.0</ele><time>2026-05-01T12:42:59.398Z</time></trkpt><trkpt lat="42.2610662" lon="14.168339"><ele>346.0</ele><time>2026-05-01T12:43:00.397Z</time></trkpt><trkpt lat="42.2611022" lon="14.1681932"><ele>345.0</ele><time>2026-05-01T12:43:01.397Z</time></trkpt><trkpt lat="42.2611359" lon="14.1680566"><ele>344.0</ele><time>2026-05-01T12:43:02.397Z</time></trkpt><trkpt lat="42.2611636" lon="14.167929"><ele>343.0</ele><time>2026-05-01T12:43:03.397Z</time></trkpt><trkpt lat="42.261173" lon="14.1678"><ele>341.5</ele><time>2026-05-01T12:43:04.398Z</time></trkpt><trkpt lat="42.261173" lon="14.1676652"><ele>340.0</ele><time>2026-05-01T12:43:05.397Z</time></trkpt><trkpt lat="42.2611689" lon="14.1675296"><ele>338.5</ele><time>2026-05-01T12:43:06.397Z</time></trkpt><trkpt lat="42.2611628" lon="14.1674037"><ele>337.0</ele><time>2026-05-01T12:43:07.397Z</time></trkpt><trkpt lat="42.2611559" lon="14.1672942"><ele>335.5</ele><time>2026-05-01T12:43:08.397Z</time></trkpt><trkpt lat="42.2611513" lon="14.1672052"><ele>334.0</ele><time>2026-05-01T12:43:09.397Z</time></trkpt><trkpt lat="42.2611493" lon="14.1670941"><ele>331.0</ele><time>2026-05-01T12:43:11.396Z</time></trkpt><trkpt lat="42.2612058" lon="14.1669929"><ele>328.0</ele><time>2026-05-01T12:43:13.397Z</time></trkpt><trkpt lat="42.2612987" lon="14.1669657"><ele>325.0</ele><time>2026-05-01T12:43:15.397Z</time></trkpt><trkpt lat="42.2613957" lon="14.1670347"><ele>322.0</ele><time>2026-05-01T12:43:16.397Z</time></trkpt><trkpt lat="42.2614783" lon="14.1671034"><ele>319.0</ele><time>2026-05-01T12:43:17.397Z</time></trkpt><trkpt lat="42.2615735" lon="14.1671936"><ele>318.5</ele><time>2026-05-01T12:43:18.397Z</time></trkpt><trkpt lat="42.261681" lon="14.167294"><ele>318.0</ele><time>2026-05-01T12:43:19.398Z</time></trkpt><trkpt lat="42.2617777" lon="14.167408"><ele>317.5</ele><time>2026-05-01T12:43:20.397Z</time></trkpt><trkpt lat="42.2618637" lon="14.1675026"><ele>317.0</ele><time>2026-05-01T12:43:21.397Z</time></trkpt><trkpt lat="42.2619343" lon="14.1675875"><ele>317.0</ele><time>2026-05-01T12:43:22.397Z</time></trkpt><trkpt lat="42.2620098" lon="14.1676623"><ele>317.0</ele><time>2026-05-01T12:43:23.397Z</time></trkpt><trkpt lat="42.2620678" lon="14.1677128"><ele>317.0</ele><time>2026-05-01T12:43:24.398Z</time></trkpt><trkpt lat="42.2621367" lon="14.1677337"><ele>317.0</ele><time>2026-05-01T12:43:25.396Z</time></trkpt><trkpt lat="42.262225" lon="14.1677196"><ele>317.0</ele><time>2026-05-01T12:43:26.397Z</time></trkpt><trkpt lat="42.2623206" lon="14.1676814"><ele>317.0</ele><time>2026-05-01T12:43:27.397Z</time></trkpt><trkpt lat="42.262415" lon="14.1676496"><ele>311.6</ele><time>2026-05-01T12:43:28.397Z</time></trkpt><trkpt lat="42.262503" lon="14.1676302"><ele>306.2</ele><time>2026-05-01T12:43:29.398Z</time></trkpt><trkpt lat="42.2625784" lon="14.1676339"><ele>300.8</ele><time>2026-05-01T12:43:30.397Z</time></trkpt><trkpt lat="42.2626672" lon="14.1676685"><ele>295.4</ele><time>2026-05-01T12:43:31.397Z</time></trkpt><trkpt lat="42.2627723" lon="14.1677409"><ele>290.0</ele><time>2026-05-01T12:43:32.397Z</time></trkpt><trkpt lat="42.2628911" lon="14.1678275"><ele>290.0</ele><time>2026-05-01T12:43:33.397Z</time></trkpt><trkpt lat="42.2630242" lon="14.1679084"><ele>290.0</ele><time>2026-05-01T12:43:34.397Z</time></trkpt><trkpt lat="42.2631588" lon="14.168011"><ele>290.0</ele><time>2026-05-01T12:43:35.398Z</time></trkpt><trkpt lat="42.2632962" lon="14.168102"><ele>287.25</ele><time>2026-05-01T12:43:36.397Z</time></trkpt><trkpt lat="42.2634296" lon="14.1681935"><ele>284.5</ele><time>2026-05-01T12:43:37.397Z</time></trkpt><trkpt lat="42.2635456" lon="14.168284"><ele>281.75</ele><time>2026-05-01T12:43:38.397Z</time></trkpt><trkpt lat="42.2636675" lon="14.1683569"><ele>279.0</ele><time>2026-05-01T12:43:39.397Z</time></trkpt><trkpt lat="42.263783" lon="14.1684015"><ele>279.0</ele><time>2026-05-01T12:43:40.398Z</time></trkpt><trkpt lat="42.2638889" lon="14.1684203"><ele>279.0</ele><time>2026-05-01T12:43:41.397Z</time></trkpt><trkpt lat="42.2639892" lon="14.1684155"><ele>279.0</ele><time>2026-05-01T12:43:42.396Z</time></trkpt><trkpt lat="42.2640755" lon="14.1683979"><ele>279.0</ele><time>2026-05-01T12:43:43.396Z</time></trkpt><trkpt lat="42.2641493" lon="14.168368"><ele>279.0</ele><time>2026-05-01T12:43:44.396Z</time></trkpt><trkpt lat="42.2642164" lon="14.1683343"><ele>279.0</ele><time>2026-05-01T12:43:45.398Z</time></trkpt><trkpt lat="42.264301" lon="14.1682504"><ele>273.8</ele><time>2026-05-01T12:43:47.396Z</time></trkpt><trkpt lat="42.2643448" lon="14.1681843"><ele>268.59999999999997</ele><time>2026-05-01T12:43:48.398Z</time></trkpt><trkpt lat="42.2643965" lon="14.1680839"><ele>263.4</ele><time>2026-05-01T12:43:49.397Z</time></trkpt><trkpt lat="42.2644485" lon="14.1679346"><ele>258.2</ele><time>2026-05-01T12:43:50.396Z</time></trkpt><trkpt lat="42.2645048" lon="14.1677935"><ele>253.0</ele><time>2026-05-01T12:43:51.397Z</time></trkpt><trkpt lat="42.264567" lon="14.1676533"><ele>252.99999999999997</ele><time>2026-05-01T12:43:52.396Z</time></trkpt><trkpt lat="42.2646228" lon="14.1675374"><ele>253.0</ele><time>2026-05-01T12:43:53.397Z</time></trkpt><trkpt lat="42.2646851" lon="14.1674384"><ele>253.0</ele><time>2026-05-01T12:43:54.396Z</time></trkpt><trkpt lat="42.2647562" lon="14.1673729"><ele>253.0</ele><time>2026-05-01T12:43:55.398Z</time></trkpt><trkpt lat="42.2648337" lon="14.1673365"><ele>252.99999999999997</ele><time>2026-05-01T12:43:56.397Z</time></trkpt><trkpt lat="42.2649068" lon="14.1673068"><ele>253.0</ele><time>2026-05-01T12:43:57.396Z</time></trkpt><trkpt lat="42.2649731" lon="14.1672609"><ele>247.4</ele><time>2026-05-01T12:43:58.397Z</time></trkpt><trkpt lat="42.2650314" lon="14.1672167"><ele>241.8</ele><time>2026-05-01T12:43:59.397Z</time></trkpt><trkpt lat="42.265123" lon="14.1671022"><ele>236.2</ele><time>2026-05-01T12:44:01.396Z</time></trkpt><trkpt lat="42.2651792" lon="14.1670242"><ele>230.6</ele><time>2026-05-01T12:44:02.397Z</time></trkpt><trkpt lat="42.2652373" lon="14.1669452"><ele>225.0</ele><time>2026-05-01T12:44:03.396Z</time></trkpt><trkpt lat="42.2653037" lon="14.1668531"><ele>225.0</ele><time>2026-05-01T12:44:04.396Z</time></trkpt><trkpt lat="42.2653711" lon="14.1667463"><ele>225.0</ele><time>2026-05-01T12:44:05.397Z</time></trkpt><trkpt lat="42.2654458" lon="14.16664"><ele>225.0</ele><time>2026-05-01T12:44:06.397Z</time></trkpt><trkpt lat="42.2655218" lon="14.1665415"><ele>225.0</ele><time>2026-05-01T12:44:07.397Z</time></trkpt><trkpt lat="42.2655988" lon="14.1664462"><ele>225.0</ele><time>2026-05-01T12:44:08.397Z</time></trkpt><trkpt lat="42.2656747" lon="14.1663532"><ele>221.6</ele><time>2026-05-01T12:44:09.397Z</time></trkpt><trkpt lat="42.2657483" lon="14.1662581"><ele>218.2</ele><time>2026-05-01T12:44:10.397Z</time></trkpt><trkpt lat="42.2658117" lon="14.1661621"><ele>214.8</ele><time>2026-05-01T12:44:11.395Z</time></trkpt><trkpt lat="42.2658659" lon="14.1660553"><ele>211.4</ele><time>2026-05-01T12:44:12.396Z</time></trkpt><trkpt lat="42.2659097" lon="14.1659269"><ele>208.0</ele><time>2026-05-01T12:44:13.396Z</time></trkpt><trkpt lat="42.2659449" lon="14.1657913"><ele>207.99999999999997</ele><time>2026-05-01T12:44:14.396Z</time></trkpt><trkpt lat="42.2659805" lon="14.1656887"><ele>208.0</ele><time>2026-05-01T12:44:15.396Z</time></trkpt><trkpt lat="42.2660577" lon="14.1655881"><ele>208.0</ele><time>2026-05-01T12:44:17.395Z</time></trkpt><trkpt lat="42.2661339" lon="14.1656353"><ele>208.0</ele><time>2026-05-01T12:44:19.395Z</time></trkpt><trkpt lat="42.2661787" lon="14.1657126"><ele>207.99999999999997</ele><time>2026-05-01T12:44:20.395Z</time></trkpt><trkpt lat="42.266203" lon="14.1657948"><ele>208.0</ele><time>2026-05-01T12:44:21.396Z</time></trkpt><trkpt lat="42.2662222" lon="14.1658886"><ele>208.0</ele><time>2026-05-01T12:44:22.396Z</time></trkpt><trkpt lat="42.26625" lon="14.1660036"><ele>208.0</ele><time>2026-05-01T12:44:23.396Z</time></trkpt><trkpt lat="42.2662797" lon="14.1661423"><ele>208.0</ele><time>2026-05-01T12:44:24.396Z</time></trkpt><trkpt lat="42.2663134" lon="14.1662934"><ele>208.0</ele><time>2026-05-01T12:44:25.396Z</time></trkpt><trkpt lat="42.2663464" lon="14.1664272"><ele>208.0</ele><time>2026-05-01T12:44:26.396Z</time></trkpt><trkpt lat="42.2663924" lon="14.1665668"><ele>206.5</ele><time>2026-05-01T12:44:27.396Z</time></trkpt><trkpt lat="42.2664598" lon="14.1667291"><ele>205.0</ele><time>2026-05-01T12:44:28.396Z</time></trkpt><trkpt lat="42.2665272" lon="14.1668896"><ele>203.5</ele><time>2026-05-01T12:44:29.395Z</time></trkpt><trkpt lat="42.2665957" lon="14.1670489"><ele>202.0</ele><time>2026-05-01T12:44:30.395Z</time></trkpt><trkpt lat="42.2666634" lon="14.1671992"><ele>202.0</ele><time>2026-05-01T12:44:31.396Z</time></trkpt><trkpt lat="42.2667224" lon="14.1673394"><ele>202.0</ele><time>2026-05-01T12:44:32.396Z</time></trkpt><trkpt lat="42.2667807" lon="14.1674815"><ele>202.0</ele><time>2026-05-01T12:44:33.395Z</time></trkpt><trkpt lat="42.2668347" lon="14.1676146"><ele>202.0</ele><time>2026-05-01T12:44:34.397Z</time></trkpt><trkpt lat="42.2669034" lon="14.1677266"><ele>202.25</ele><time>2026-05-01T12:44:35.395Z</time></trkpt><trkpt lat="42.2669766" lon="14.1678675"><ele>202.5</ele><time>2026-05-01T12:44:36.397Z</time></trkpt><trkpt lat="42.2670372" lon="14.1679869"><ele>202.75</ele><time>2026-05-01T12:44:37.396Z</time></trkpt><trkpt lat="42.2671132" lon="14.1681035"><ele>203.0</ele><time>2026-05-01T12:44:38.396Z</time></trkpt><trkpt lat="42.2671958" lon="14.1682177"><ele>199.60000000000002</ele><time>2026-05-01T12:44:39.396Z</time></trkpt><trkpt lat="42.2672832" lon="14.168317"><ele>196.20000000000002</ele><time>2026-05-01T12:44:40.396Z</time></trkpt><trkpt lat="42.2673589" lon="14.1684233"><ele>192.8</ele><time>2026-05-01T12:44:41.396Z</time></trkpt><trkpt lat="42.2674319" lon="14.1685283"><ele>189.4</ele><time>2026-05-01T12:44:42.396Z</time></trkpt><trkpt lat="42.267504" lon="14.1686262"><ele>186.0</ele><time>2026-05-01T12:44:43.396Z</time></trkpt><trkpt lat="42.2675658" lon="14.1686945"><ele>186.0</ele><time>2026-05-01T12:44:44.397Z</time></trkpt><trkpt lat="42.2676592" lon="14.1686961"><ele>186.0</ele><time>2026-05-01T12:44:46.396Z</time></trkpt><trkpt lat="42.26767" lon="14.1685726"><ele>186.0</ele><time>2026-05-01T12:44:49.396Z</time></trkpt><trkpt lat="42.2676692" lon="14.1684825"><ele>186.0</ele><time>2026-05-01T12:44:50.397Z</time></trkpt><trkpt lat="42.2676832" lon="14.1683621"><ele>186.0</ele><time>2026-05-01T12:44:51.395Z</time></trkpt><trkpt lat="42.267701" lon="14.1682323"><ele>186.0</ele><time>2026-05-01T12:44:52.395Z</time></trkpt><trkpt lat="42.26772" lon="14.1681195"><ele>185.33333333333334</ele><time>2026-05-01T12:44:53.395Z</time></trkpt><trkpt lat="42.2677382" lon="14.1680355"><ele>184.66666666666666</ele><time>2026-05-01T12:44:54.396Z</time></trkpt><trkpt lat="42.2677471" lon="14.1679403"><ele>184.0</ele><time>2026-05-01T12:44:56.396Z</time></trkpt><trkpt lat="42.2677497" lon="14.1678294"><ele>183.33333333333331</ele><time>2026-05-01T12:44:59.397Z</time></trkpt><trkpt lat="42.2677297" lon="14.1676896"><ele>182.66666666666666</ele><time>2026-05-01T12:45:02.397Z</time></trkpt><trkpt lat="42.2677098" lon="14.1675299"><ele>182.0</ele><time>2026-05-01T12:45:04.397Z</time></trkpt><trkpt lat="42.2677066" lon="14.1674164"><ele>181.16666666666666</ele><time>2026-05-01T12:45:05.396Z</time></trkpt><trkpt lat="42.2677013" lon="14.1673134"><ele>180.33333333333331</ele><time>2026-05-01T12:45:06.395Z</time></trkpt><trkpt lat="42.2676955" lon="14.1672157"><ele>179.5</ele><time>2026-05-01T12:45:07.395Z</time></trkpt><trkpt lat="42.2676917" lon="14.1671275"><ele>178.66666666666666</ele><time>2026-05-01T12:45:08.395Z</time></trkpt><trkpt lat="42.2676826" lon="14.1669708"><ele>177.83333333333334</ele><time>2026-05-01T12:45:10.395Z</time></trkpt><trkpt lat="42.2676805" lon="14.166874"><ele>177.0</ele><time>2026-05-01T12:45:11.397Z</time></trkpt><trkpt lat="42.2676761" lon="14.1667608"><ele>177.0</ele><time>2026-05-01T12:45:12.396Z</time></trkpt><trkpt lat="42.267674" lon="14.1666613"><ele>177.0</ele><time>2026-05-01T12:45:13.397Z</time></trkpt><trkpt lat="42.2676829" lon="14.1665751"><ele>177.0</ele><time>2026-05-01T12:45:14.395Z</time></trkpt><trkpt lat="42.2676966" lon="14.1664536"><ele>177.0</ele><time>2026-05-01T12:45:15.396Z</time></trkpt><trkpt lat="42.267719" lon="14.1663393"><ele>177.0</ele><time>2026-05-01T12:45:16.395Z</time></trkpt><trkpt lat="42.2677495" lon="14.1662352"><ele>177.0</ele><time>2026-05-01T12:45:17.395Z</time></trkpt><trkpt lat="42.2677948" lon="14.1661502"><ele>176.66666666666666</ele><time>2026-05-01T12:45:18.396Z</time></trkpt><trkpt lat="42.2678454" lon="14.1660918"><ele>176.33333333333334</ele><time>2026-05-01T12:45:19.396Z</time></trkpt><trkpt lat="42.2679179" lon="14.1660195"><ele>176.0</ele><time>2026-05-01T12:45:20.396Z</time></trkpt><trkpt lat="42.2679908" lon="14.1659491"><ele>175.66666666666669</ele><time>2026-05-01T12:45:21.396Z</time></trkpt><trkpt lat="42.2680441" lon="14.1658724"><ele>175.33333333333334</ele><time>2026-05-01T12:45:22.397Z</time></trkpt><trkpt lat="42.2680802" lon="14.1657826"><ele>175.0</ele><time>2026-05-01T12:45:23.396Z</time></trkpt><trkpt lat="42.2680974" lon="14.1656811"><ele>174.16666666666669</ele><time>2026-05-01T12:45:24.396Z</time></trkpt><trkpt lat="42.2680967" lon="14.165583"><ele>173.33333333333334</ele><time>2026-05-01T12:45:25.396Z</time></trkpt><trkpt lat="42.2681042" lon="14.1654691"><ele>172.5</ele><time>2026-05-01T12:45:27.395Z</time></trkpt><trkpt lat="42.2680919" lon="14.1653577"><ele>171.66666666666666</ele><time>2026-05-01T12:45:30.396Z</time></trkpt><trkpt lat="42.2680898" lon="14.1652122"><ele>170.83333333333331</ele><time>2026-05-01T12:45:32.396Z</time></trkpt><trkpt lat="42.2680857" lon="14.1651181"><ele>170.0</ele><time>2026-05-01T12:45:33.395Z</time></trkpt><trkpt lat="42.2680771" lon="14.1650265"><ele>170.0</ele><time>2026-05-01T12:45:34.396Z</time></trkpt><trkpt lat="42.2680771" lon="14.1649402"><ele>170.0</ele><time>2026-05-01T12:45:35.396Z</time></trkpt><trkpt lat="42.2680739" lon="14.1648499"><ele>170.0</ele><time>2026-05-01T12:45:36.396Z</time></trkpt><trkpt lat="42.2680698" lon="14.1647374"><ele>170.0</ele><time>2026-05-01T12:45:37.395Z</time></trkpt><trkpt lat="42.2680653" lon="14.1646204"><ele>170.0</ele><time>2026-05-01T12:45:38.396Z</time></trkpt><trkpt lat="42.2680629" lon="14.1645067"><ele>170.0</ele><time>2026-05-01T12:45:39.396Z</time></trkpt><trkpt lat="42.2680605" lon="14.1643936"><ele>168.16666666666666</ele><time>2026-05-01T12:45:40.397Z</time></trkpt><trkpt lat="42.268052" lon="14.1642769"><ele>166.33333333333331</ele><time>2026-05-01T12:45:41.395Z</time></trkpt><trkpt lat="42.2680439" lon="14.1641591"><ele>164.5</ele><time>2026-05-01T12:45:42.397Z</time></trkpt><trkpt lat="42.2680422" lon="14.1640493"><ele>162.66666666666666</ele><time>2026-05-01T12:45:43.397Z</time></trkpt><trkpt lat="42.268038" lon="14.1639308"><ele>160.83333333333334</ele><time>2026-05-01T12:45:44.396Z</time></trkpt><trkpt lat="42.268041" lon="14.1638257"><ele>159.0</ele><time>2026-05-01T12:45:45.396Z</time></trkpt><trkpt lat="42.2680548" lon="14.1637278"><ele>156.83333333333334</ele><time>2026-05-01T12:45:46.395Z</time></trkpt><trkpt lat="42.2680728" lon="14.1636326"><ele>154.66666666666666</ele><time>2026-05-01T12:45:47.396Z</time></trkpt><trkpt lat="42.2681008" lon="14.1635295"><ele>152.5</ele><time>2026-05-01T12:45:48.396Z</time></trkpt><trkpt lat="42.2681373" lon="14.1634275"><ele>150.33333333333331</ele><time>2026-05-01T12:45:49.396Z</time></trkpt><trkpt lat="42.2681623" lon="14.1633358"><ele>148.16666666666666</ele><time>2026-05-01T12:45:50.397Z</time></trkpt><trkpt lat="42.2681952" lon="14.1632286"><ele>146.0</ele><time>2026-05-01T12:45:51.396Z</time></trkpt><trkpt lat="42.2682359" lon="14.1631264"><ele>146.0</ele><time>2026-05-01T12:45:52.396Z</time></trkpt><trkpt lat="42.2682832" lon="14.1630208"><ele>146.0</ele><time>2026-05-01T12:45:53.396Z</time></trkpt><trkpt lat="42.26833" lon="14.1629128"><ele>146.0</ele><time>2026-05-01T12:45:54.397Z</time></trkpt><trkpt lat="42.2683803" lon="14.1627948"><ele>146.0</ele><time>2026-05-01T12:45:55.396Z</time></trkpt><trkpt lat="42.2684314" lon="14.1626794"><ele>146.0</ele><time>2026-05-01T12:45:56.396Z</time></trkpt><trkpt lat="42.2684931" lon="14.1625663"><ele>146.0</ele><time>2026-05-01T12:45:57.396Z</time></trkpt><trkpt lat="42.2685582" lon="14.1624611"><ele>146.0</ele><time>2026-05-01T12:45:58.395Z</time></trkpt><trkpt lat="42.2686305" lon="14.1623851"><ele>146.0</ele><time>2026-05-01T12:45:59.397Z</time></trkpt><trkpt lat="42.2686998" lon="14.1623352"><ele>146.0</ele><time>2026-05-01T12:46:00.396Z</time></trkpt><trkpt lat="42.268772" lon="14.1623165"><ele>146.0</ele><time>2026-05-01T12:46:01.396Z</time></trkpt><trkpt lat="42.2688533" lon="14.1623106"><ele>146.0</ele><time>2026-05-01T12:46:02.395Z</time></trkpt><trkpt lat="42.2689377" lon="14.162317"><ele>147.66666666666666</ele><time>2026-05-01T12:46:03.396Z</time></trkpt><trkpt lat="42.2690052" lon="14.1623164"><ele>149.33333333333331</ele><time>2026-05-01T12:46:04.396Z</time></trkpt><trkpt lat="42.2690743" lon="14.1623156"><ele>151.0</ele><time>2026-05-01T12:46:05.397Z</time></trkpt><trkpt lat="42.2691417" lon="14.1623093"><ele>152.66666666666666</ele><time>2026-05-01T12:46:06.396Z</time></trkpt><trkpt lat="42.2692064" lon="14.1622704"><ele>154.33333333333334</ele><time>2026-05-01T12:46:07.396Z</time></trkpt><trkpt lat="42.2692108" lon="14.1621022"><ele>156.0</ele><time>2026-05-01T12:46:08.396Z</time></trkpt><trkpt lat="42.2692303" lon="14.1619943"><ele>156.0</ele><time>2026-05-01T12:46:09.396Z</time></trkpt><trkpt lat="42.2692278" lon="14.1618666"><ele>156.0</ele><time>2026-05-01T12:46:10.396Z</time></trkpt><trkpt lat="42.2692144" lon="14.1617112"><ele>156.0</ele><time>2026-05-01T12:46:11.396Z</time></trkpt><trkpt lat="42.2691965" lon="14.1615457"><ele>156.0</ele><time>2026-05-01T12:46:12.397Z</time></trkpt><trkpt lat="42.2691786" lon="14.1613787"><ele>157.16666666666666</ele><time>2026-05-01T12:46:13.396Z</time></trkpt><trkpt lat="42.2691652" lon="14.1612289"><ele>158.33333333333334</ele><time>2026-05-01T12:46:14.395Z</time></trkpt><trkpt lat="42.2691532" lon="14.161099"><ele>159.5</ele><time>2026-05-01T12:46:15.396Z</time></trkpt><trkpt lat="42.2691247" lon="14.1609717"><ele>160.66666666666669</ele><time>2026-05-01T12:46:16.395Z</time></trkpt><trkpt lat="42.269088" lon="14.1608809"><ele>161.83333333333334</ele><time>2026-05-01T12:46:17.396Z</time></trkpt><trkpt lat="42.2690373" lon="14.160825"><ele>163.0</ele><time>2026-05-01T12:46:18.395Z</time></trkpt><trkpt lat="42.2689675" lon="14.1607948"><ele>164.8</ele><time>2026-05-01T12:46:19.395Z</time></trkpt><trkpt lat="42.2688773" lon="14.1607856"><ele>166.60000000000002</ele><time>2026-05-01T12:46:20.396Z</time></trkpt><trkpt lat="42.2687666" lon="14.1607916"><ele>168.39999999999998</ele><time>2026-05-01T12:46:21.396Z</time></trkpt><trkpt lat="42.2686686" lon="14.1608012"><ele>170.2</ele><time>2026-05-01T12:46:22.397Z</time></trkpt><trkpt lat="42.268584" lon="14.1608268"><ele>172.0</ele><time>2026-05-01T12:46:23.397Z</time></trkpt><trkpt lat="42.2684976" lon="14.1608507"><ele>172.0</ele><time>2026-05-01T12:46:24.395Z</time></trkpt><trkpt lat="42.2684257" lon="14.1608548"><ele>172.0</ele><time>2026-05-01T12:46:25.396Z</time></trkpt><trkpt lat="42.2683299" lon="14.1608656"><ele>172.0</ele><time>2026-05-01T12:46:26.397Z</time></trkpt><trkpt lat="42.2682501" lon="14.1609001"><ele>172.0</ele><time>2026-05-01T12:46:27.396Z</time></trkpt><trkpt lat="42.2681608" lon="14.1609359"><ele>172.0</ele><time>2026-05-01T12:46:28.397Z</time></trkpt><trkpt lat="42.2680719" lon="14.1609586"><ele>172.0</ele><time>2026-05-01T12:46:29.396Z</time></trkpt><trkpt lat="42.26798" lon="14.1609693"><ele>172.0</ele><time>2026-05-01T12:46:30.396Z</time></trkpt><trkpt lat="42.2678836" lon="14.1609726"><ele>172.0</ele><time>2026-05-01T12:46:31.395Z</time></trkpt><trkpt lat="42.2677928" lon="14.1609676"><ele>172.0</ele><time>2026-05-01T12:46:32.395Z</time></trkpt><trkpt lat="42.2677103" lon="14.1609481"><ele>172.0</ele><time>2026-05-01T12:46:33.395Z</time></trkpt><trkpt lat="42.2676221" lon="14.1608902"><ele>172.0</ele><time>2026-05-01T12:46:35.397Z</time></trkpt><trkpt lat="42.2676169" lon="14.1607643"><ele>175.39999999999998</ele><time>2026-05-01T12:46:37.396Z</time></trkpt><trkpt lat="42.2676559" lon="14.1606863"><ele>178.79999999999998</ele><time>2026-05-01T12:46:38.396Z</time></trkpt><trkpt lat="42.2677234" lon="14.1605977"><ele>182.2</ele><time>2026-05-01T12:46:39.395Z</time></trkpt><trkpt lat="42.267809" lon="14.1604949"><ele>185.6</ele><time>2026-05-01T12:46:40.396Z</time></trkpt><trkpt lat="42.2678981" lon="14.1604093"><ele>189.0</ele><time>2026-05-01T12:46:41.396Z</time></trkpt><trkpt lat="42.2679727" lon="14.1603214"><ele>189.0</ele><time>2026-05-01T12:46:42.395Z</time></trkpt><trkpt lat="42.268038" lon="14.1602074"><ele>189.0</ele><time>2026-05-01T12:46:43.396Z</time></trkpt><trkpt lat="42.2681117" lon="14.1600726"><ele>189.0</ele><time>2026-05-01T12:46:44.396Z</time></trkpt><trkpt lat="42.2681894" lon="14.1599348"><ele>189.0</ele><time>2026-05-01T12:46:45.396Z</time></trkpt><trkpt lat="42.2682476" lon="14.159812"><ele>191.6</ele><time>2026-05-01T12:46:46.396Z</time></trkpt><trkpt lat="42.2683013" lon="14.1596929"><ele>194.2</ele><time>2026-05-01T12:46:47.396Z</time></trkpt><trkpt lat="42.268342" lon="14.159581"><ele>196.79999999999998</ele><time>2026-05-01T12:46:48.396Z</time></trkpt><trkpt lat="42.2683667" lon="14.159464"><ele>199.39999999999998</ele><time>2026-05-01T12:46:49.396Z</time></trkpt><trkpt lat="42.2683817" lon="14.1593386"><ele>202.0</ele><time>2026-05-01T12:46:50.396Z</time></trkpt><trkpt lat="42.2683812" lon="14.1591946"><ele>202.0</ele><time>2026-05-01T12:46:51.396Z</time></trkpt><trkpt lat="42.268367" lon="14.1590639"><ele>202.0</ele><time>2026-05-01T12:46:52.396Z</time></trkpt><trkpt lat="42.2683498" lon="14.1589167"><ele>202.0</ele><time>2026-05-01T12:46:53.395Z</time></trkpt><trkpt lat="42.2683253" lon="14.1587809"><ele>202.0</ele><time>2026-05-01T12:46:54.395Z</time></trkpt><trkpt lat="42.2683115" lon="14.1586471"><ele>202.0</ele><time>2026-05-01T12:46:55.395Z</time></trkpt><trkpt lat="42.2683004" lon="14.1584956"><ele>204.75</ele><time>2026-05-01T12:46:56.395Z</time></trkpt><trkpt lat="42.2682923" lon="14.1583259"><ele>207.5</ele><time>2026-05-01T12:46:57.396Z</time></trkpt><trkpt lat="42.2682964" lon="14.1581438"><ele>210.25</ele><time>2026-05-01T12:46:58.394Z</time></trkpt><trkpt lat="42.2683008" lon="14.1579697"><ele>213.0</ele><time>2026-05-01T12:46:59.394Z</time></trkpt><trkpt lat="42.2683016" lon="14.1578086"><ele>214.5</ele><time>2026-05-01T12:47:00.394Z</time></trkpt><trkpt lat="42.268334" lon="14.1577112"><ele>216.0</ele><time>2026-05-01T12:47:01.395Z</time></trkpt><trkpt lat="42.2683575" lon="14.1576175"><ele>217.5</ele><time>2026-05-01T12:47:02.395Z</time></trkpt><trkpt lat="42.2684041" lon="14.1574719"><ele>219.0</ele><time>2026-05-01T12:47:04.394Z</time></trkpt><trkpt lat="42.2684418" lon="14.1573929"><ele>220.5</ele><time>2026-05-01T12:47:05.395Z</time></trkpt><trkpt lat="42.2684866" lon="14.1573103"><ele>222.0</ele><time>2026-05-01T12:47:06.395Z</time></trkpt><trkpt lat="42.2685369" lon="14.1572578"><ele>226.0</ele><time>2026-05-01T12:47:07.395Z</time></trkpt><trkpt lat="42.2686563" lon="14.1571984"><ele>230.0</ele><time>2026-05-01T12:47:09.395Z</time></trkpt><trkpt lat="42.2687675" lon="14.1572219"><ele>234.0</ele><time>2026-05-01T12:47:10.395Z</time></trkpt><trkpt lat="42.2688804" lon="14.1572381"><ele>238.0</ele><time>2026-05-01T12:47:11.395Z</time></trkpt><trkpt lat="42.2690235" lon="14.1572674"><ele>238.2</ele><time>2026-05-01T12:47:12.395Z</time></trkpt><trkpt lat="42.2691539" lon="14.1572918"><ele>238.4</ele><time>2026-05-01T12:47:13.395Z</time></trkpt><trkpt lat="42.2692609" lon="14.1573087"><ele>238.59999999999997</ele><time>2026-05-01T12:47:14.394Z</time></trkpt><trkpt lat="42.2693637" lon="14.1573198"><ele>238.79999999999998</ele><time>2026-05-01T12:47:15.395Z</time></trkpt><trkpt lat="42.2694276" lon="14.1573392"><ele>239.0</ele><time>2026-05-01T12:47:16.395Z</time></trkpt><trkpt lat="42.2695006" lon="14.1573316"><ele>239.0</ele><time>2026-05-01T12:47:17.395Z</time></trkpt><trkpt lat="42.2695681" lon="14.1573116"><ele>238.99999999999997</ele><time>2026-05-01T12:47:18.396Z</time></trkpt><trkpt lat="42.2696486" lon="14.1572548"><ele>238.99999999999997</ele><time>2026-05-01T12:47:19.395Z</time></trkpt><trkpt lat="42.2697362" lon="14.1571782"><ele>239.0</ele><time>2026-05-01T12:47:20.396Z</time></trkpt><trkpt lat="42.2698173" lon="14.1570907"><ele>239.0</ele><time>2026-05-01T12:47:21.396Z</time></trkpt><trkpt lat="42.2698811" lon="14.1569907"><ele>238.39999999999998</ele><time>2026-05-01T12:47:22.395Z</time></trkpt><trkpt lat="42.269944" lon="14.1568851"><ele>237.79999999999998</ele><time>2026-05-01T12:47:23.395Z</time></trkpt><trkpt lat="42.2699878" lon="14.1567775"><ele>237.20000000000002</ele><time>2026-05-01T12:47:24.395Z</time></trkpt><trkpt lat="42.2700125" lon="14.1566419"><ele>236.60000000000002</ele><time>2026-05-01T12:47:25.395Z</time></trkpt><trkpt lat="42.2700391" lon="14.1565246"><ele>236.0</ele><time>2026-05-01T12:47:26.394Z</time></trkpt><trkpt lat="42.2700644" lon="14.1564144"><ele>237.8</ele><time>2026-05-01T12:47:27.394Z</time></trkpt><trkpt lat="42.2700941" lon="14.1562989"><ele>239.60000000000002</ele><time>2026-05-01T12:47:28.395Z</time></trkpt><trkpt lat="42.270139" lon="14.1561764"><ele>241.4</ele><time>2026-05-01T12:47:29.395Z</time></trkpt><trkpt lat="42.2701936" lon="14.1560375"><ele>243.2</ele><time>2026-05-01T12:47:30.395Z</time></trkpt><trkpt lat="42.2702463" lon="14.1559125"><ele>245.0</ele><time>2026-05-01T12:47:31.395Z</time></trkpt><trkpt lat="42.2702812" lon="14.1558059"><ele>246.16666666666669</ele><time>2026-05-01T12:47:32.394Z</time></trkpt><trkpt lat="42.2703031" lon="14.1557009"><ele>247.33333333333334</ele><time>2026-05-01T12:47:33.394Z</time></trkpt><trkpt lat="42.2702834" lon="14.1556035"><ele>248.5</ele><time>2026-05-01T12:47:34.394Z</time></trkpt><trkpt lat="42.2702221" lon="14.1555263"><ele>249.66666666666669</ele><time>2026-05-01T12:47:36.394Z</time></trkpt><trkpt lat="42.2701577" lon="14.1555192"><ele>250.83333333333334</ele><time>2026-05-01T12:47:37.394Z</time></trkpt><trkpt lat="42.2700697" lon="14.1555384"><ele>252.0</ele><time>2026-05-01T12:47:38.395Z</time></trkpt><trkpt lat="42.2699669" lon="14.15556"><ele>252.0</ele><time>2026-05-01T12:47:39.395Z</time></trkpt><trkpt lat="42.2698804" lon="14.1555819"><ele>252.0</ele><time>2026-05-01T12:47:40.394Z</time></trkpt><trkpt lat="42.2698137" lon="14.1555791"><ele>252.0</ele><time>2026-05-01T12:47:41.396Z</time></trkpt><trkpt lat="42.2697287" lon="14.1554465"><ele>252.0</ele><time>2026-05-01T12:47:43.396Z</time></trkpt><trkpt lat="42.269721" lon="14.155338"><ele>252.0</ele><time>2026-05-01T12:47:44.394Z</time></trkpt><trkpt lat="42.2697454" lon="14.1552468"><ele>252.0</ele><time>2026-05-01T12:47:45.394Z</time></trkpt><trkpt lat="42.2698047" lon="14.1551345"><ele>252.0</ele><time>2026-05-01T12:47:46.394Z</time></trkpt><trkpt lat="42.269874" lon="14.155023"><ele>252.0</ele><time>2026-05-01T12:47:47.395Z</time></trkpt><trkpt lat="42.2699465" lon="14.154886"><ele>252.0</ele><time>2026-05-01T12:47:48.395Z</time></trkpt><trkpt lat="42.2700272" lon="14.1547254"><ele>252.0</ele><time>2026-05-01T12:47:49.396Z</time></trkpt><trkpt lat="42.270109" lon="14.154554"><ele>255.0</ele><time>2026-05-01T12:47:50.395Z</time></trkpt><trkpt lat="42.270177" lon="14.1544214"><ele>258.0</ele><time>2026-05-01T12:47:51.395Z</time></trkpt><trkpt lat="42.2702386" lon="14.1542978"><ele>261.0</ele><time>2026-05-01T12:47:52.396Z</time></trkpt><trkpt lat="42.2703029" lon="14.1541761"><ele>264.0</ele><time>2026-05-01T12:47:53.394Z</time></trkpt><trkpt lat="42.2703727" lon="14.1540586"><ele>265.5</ele><time>2026-05-01T12:47:54.396Z</time></trkpt><trkpt lat="42.270465" lon="14.153929"><ele>267.0</ele><time>2026-05-01T12:47:55.395Z</time></trkpt><trkpt lat="42.2705764" lon="14.1537852"><ele>268.5</ele><time>2026-05-01T12:47:56.396Z</time></trkpt><trkpt lat="42.2706681" lon="14.1536596"><ele>270.0</ele><time>2026-05-01T12:47:57.395Z</time></trkpt><trkpt lat="42.2707441" lon="14.1535535"><ele>270.0</ele><time>2026-05-01T12:47:58.396Z</time></trkpt><trkpt lat="42.2708087" lon="14.1534602"><ele>270.0</ele><time>2026-05-01T12:47:59.394Z</time></trkpt><trkpt lat="42.2708602" lon="14.1533791"><ele>270.0</ele><time>2026-05-01T12:48:00.395Z</time></trkpt><trkpt lat="42.2709031" lon="14.153309"><ele>270.0</ele><time>2026-05-01T12:48:01.395Z</time></trkpt><trkpt lat="42.2709443" lon="14.153232"><ele>270.0</ele><time>2026-05-01T12:48:02.395Z</time></trkpt><trkpt lat="42.2710031" lon="14.1531319"><ele>270.0</ele><time>2026-05-01T12:48:04.395Z</time></trkpt><trkpt lat="42.2710831" lon="14.1531309"><ele>270.0</ele><time>2026-05-01T12:48:15.394Z</time></trkpt><trkpt lat="42.2711323" lon="14.1531942"><ele>270.0</ele><time>2026-05-01T12:48:18.395Z</time></trkpt><trkpt lat="42.2711933" lon="14.1532245"><ele>270.0</ele><time>2026-05-01T12:48:20.395Z</time></trkpt><trkpt lat="42.2712532" lon="14.1532571"><ele>270.0</ele><time>2026-05-01T12:48:22.395Z</time></trkpt><trkpt lat="42.2713021" lon="14.1533114"><ele>270.0</ele><time>2026-05-01T12:48:24.395Z</time></trkpt><trkpt lat="42.271352" lon="14.153373"><ele>270.0</ele><time>2026-05-01T12:48:27.394Z</time></trkpt><trkpt lat="42.2713805" lon="14.1534806"><ele>270.0</ele><time>2026-05-01T12:48:30.395Z</time></trkpt><trkpt lat="42.2713486" lon="14.1535938"><ele>270.0</ele><time>2026-05-01T12:48:33.395Z</time></trkpt><trkpt lat="42.2714115" lon="14.1535714"><ele>270.0</ele><time>2026-05-01T12:48:37.396Z</time></trkpt><trkpt lat="42.2713824" lon="14.1534649"><ele>270.0</ele><time>2026-05-01T12:48:39.394Z</time></trkpt><trkpt lat="42.2713276" lon="14.1533296"><ele>270.0</ele><time>2026-05-01T12:48:41.395Z</time></trkpt><trkpt lat="42.2712431" lon="14.1532364"><ele>270.0</ele><time>2026-05-01T12:48:43.395Z</time></trkpt><trkpt lat="42.2711407" lon="14.1531857"><ele>271.8</ele><time>2026-05-01T12:48:45.394Z</time></trkpt><trkpt lat="42.2710516" lon="14.1531018"><ele>273.6</ele><time>2026-05-01T12:48:47.395Z</time></trkpt><trkpt lat="42.2710343" lon="14.1529985"><ele>275.4</ele><time>2026-05-01T12:48:49.395Z</time></trkpt><trkpt lat="42.271084" lon="14.1528275"><ele>277.2</ele><time>2026-05-01T12:48:51.395Z</time></trkpt><trkpt lat="42.2710932" lon="14.1527193"><ele>279.0</ele><time>2026-05-01T12:48:53.396Z</time></trkpt><trkpt lat="42.2710932" lon="14.1526078"><ele>279.0</ele><time>2026-05-01T12:49:58.394Z</time></trkpt><trkpt lat="42.2710456" lon="14.1526705"><ele>279.0</ele><time>2026-05-01T12:50:00.393Z</time></trkpt><trkpt lat="42.2711235" lon="14.1527292"><ele>279.0</ele><time>2026-05-01T12:50:02.394Z</time></trkpt><trkpt lat="42.2712229" lon="14.152718"><ele>279.0</ele><time>2026-05-01T12:50:04.393Z</time></trkpt><trkpt lat="42.2713168" lon="14.1527038"><ele>279.0</ele><time>2026-05-01T12:50:05.394Z</time></trkpt><trkpt lat="42.2714133" lon="14.1526926"><ele>279.0</ele><time>2026-05-01T12:50:06.394Z</time></trkpt><trkpt lat="42.2715023" lon="14.1526799"><ele>276.2</ele><time>2026-05-01T12:50:07.393Z</time></trkpt><trkpt lat="42.2715733" lon="14.1526585"><ele>273.4</ele><time>2026-05-01T12:50:08.393Z</time></trkpt><trkpt lat="42.2716457" lon="14.1526476"><ele>270.6</ele><time>2026-05-01T12:50:09.394Z</time></trkpt><trkpt lat="42.2717628" lon="14.1526584"><ele>267.8</ele><time>2026-05-01T12:50:11.394Z</time></trkpt><trkpt lat="42.2718243" lon="14.1526879"><ele>265.0</ele><time>2026-05-01T12:50:12.393Z</time></trkpt><trkpt lat="42.2719271" lon="14.1527815"><ele>264.99999999999994</ele><time>2026-05-01T12:50:14.394Z</time></trkpt><trkpt lat="42.2719792" lon="14.1528502"><ele>265.0</ele><time>2026-05-01T12:50:15.394Z</time></trkpt><trkpt lat="42.2720277" lon="14.1529181"><ele>265.0</ele><time>2026-05-01T12:50:16.393Z</time></trkpt><trkpt lat="42.2720729" lon="14.1529786"><ele>265.0</ele><time>2026-05-01T12:50:17.394Z</time></trkpt><trkpt lat="42.2721168" lon="14.1530516"><ele>265.0</ele><time>2026-05-01T12:50:18.394Z</time></trkpt><trkpt lat="42.2721532" lon="14.1531333"><ele>264.99999999999994</ele><time>2026-05-01T12:50:19.395Z</time></trkpt><trkpt lat="42.2721983" lon="14.1532133"><ele>265.0</ele><time>2026-05-01T12:50:20.394Z</time></trkpt><trkpt lat="42.2722472" lon="14.1532876"><ele>261.16666666666663</ele><time>2026-05-01T12:50:21.393Z</time></trkpt><trkpt lat="42.2723068" lon="14.1533567"><ele>257.3333333333333</ele><time>2026-05-01T12:50:22.394Z</time></trkpt><trkpt lat="42.272368" lon="14.1534322"><ele>253.5</ele><time>2026-05-01T12:50:23.394Z</time></trkpt><trkpt lat="42.272422" lon="14.153516"><ele>249.66666666666669</ele><time>2026-05-01T12:50:24.394Z</time></trkpt><trkpt lat="42.2724819" lon="14.153585"><ele>245.83333333333334</ele><time>2026-05-01T12:50:25.394Z</time></trkpt><trkpt lat="42.2725295" lon="14.1536845"><ele>242.0</ele><time>2026-05-01T12:50:26.395Z</time></trkpt><trkpt lat="42.2725725" lon="14.1537772"><ele>242.00000000000003</ele><time>2026-05-01T12:50:27.393Z</time></trkpt><trkpt lat="42.2726114" lon="14.1538595"><ele>242.0</ele><time>2026-05-01T12:50:28.393Z</time></trkpt><trkpt lat="42.2727082" lon="14.1539616"><ele>242.0</ele><time>2026-05-01T12:50:30.394Z</time></trkpt><trkpt lat="42.2727605" lon="14.1540143"><ele>242.0</ele><time>2026-05-01T12:50:31.394Z</time></trkpt><trkpt lat="42.2728148" lon="14.1540756"><ele>242.00000000000003</ele><time>2026-05-01T12:50:32.393Z</time></trkpt><trkpt lat="42.2728798" lon="14.1541279"><ele>242.0</ele><time>2026-05-01T12:50:33.394Z</time></trkpt><trkpt lat="42.2729499" lon="14.1541707"><ele>239.83333333333334</ele><time>2026-05-01T12:50:34.394Z</time></trkpt><trkpt lat="42.2730309" lon="14.1542205"><ele>237.66666666666669</ele><time>2026-05-01T12:50:35.394Z</time></trkpt><trkpt lat="42.2731107" lon="14.1542675"><ele>235.5</ele><time>2026-05-01T12:50:36.394Z</time></trkpt><trkpt lat="42.2731899" lon="14.1543206"><ele>233.33333333333331</ele><time>2026-05-01T12:50:37.394Z</time></trkpt><trkpt lat="42.2732556" lon="14.1543634"><ele>231.16666666666666</ele><time>2026-05-01T12:50:38.394Z</time></trkpt><trkpt lat="42.2733085" lon="14.1544272"><ele>229.0</ele><time>2026-05-01T12:50:39.394Z</time></trkpt><trkpt lat="42.2733466" lon="14.1545047"><ele>226.49999999999997</ele><time>2026-05-01T12:50:40.393Z</time></trkpt><trkpt lat="42.2733767" lon="14.1545896"><ele>224.0</ele><time>2026-05-01T12:50:41.394Z</time></trkpt><trkpt lat="42.2734049" lon="14.1546669"><ele>221.5</ele><time>2026-05-01T12:50:42.394Z</time></trkpt><trkpt lat="42.2734277" lon="14.1547576"><ele>219.0</ele><time>2026-05-01T12:50:43.393Z</time></trkpt><trkpt lat="42.2734438" lon="14.1548473"><ele>216.49999999999997</ele><time>2026-05-01T12:50:44.394Z</time></trkpt><trkpt lat="42.2734587" lon="14.1549305"><ele>214.0</ele><time>2026-05-01T12:50:45.394Z</time></trkpt><trkpt lat="42.2735299" lon="14.1550688"><ele>211.85714285714286</ele><time>2026-05-01T12:50:47.394Z</time></trkpt><trkpt lat="42.2735841" lon="14.1551177"><ele>209.71428571428572</ele><time>2026-05-01T12:50:48.394Z</time></trkpt><trkpt lat="42.2736433" lon="14.1551662"><ele>207.57142857142856</ele><time>2026-05-01T12:50:49.394Z</time></trkpt><trkpt lat="42.2737107" lon="14.1552082"><ele>205.42857142857144</ele><time>2026-05-01T12:50:50.394Z</time></trkpt><trkpt lat="42.2737786" lon="14.155247"><ele>203.28571428571428</ele><time>2026-05-01T12:50:51.395Z</time></trkpt><trkpt lat="42.2738332" lon="14.1553011"><ele>201.14285714285714</ele><time>2026-05-01T12:50:52.392Z</time></trkpt><trkpt lat="42.2738928" lon="14.1553813"><ele>199.0</ele><time>2026-05-01T12:50:53.395Z</time></trkpt><trkpt lat="42.2739415" lon="14.1554764"><ele>197.83333333333331</ele><time>2026-05-01T12:50:54.394Z</time></trkpt><trkpt lat="42.2739828" lon="14.1555545"><ele>196.66666666666666</ele><time>2026-05-01T12:50:55.394Z</time></trkpt><trkpt lat="42.2740972" lon="14.1556272"><ele>195.5</ele><time>2026-05-01T12:50:57.394Z</time></trkpt><trkpt lat="42.274157" lon="14.155658"><ele>194.33333333333331</ele><time>2026-05-01T12:50:58.394Z</time></trkpt><trkpt lat="42.2742233" lon="14.1557761"><ele>193.16666666666666</ele><time>2026-05-01T12:51:00.394Z</time></trkpt><trkpt lat="42.2742472" lon="14.1558558"><ele>192.0</ele><time>2026-05-01T12:51:01.393Z</time></trkpt><trkpt lat="42.2742924" lon="14.1560462"><ele>191.0</ele><time>2026-05-01T12:51:03.395Z</time></trkpt><trkpt lat="42.274332" lon="14.1561508"><ele>190.0</ele><time>2026-05-01T12:51:04.394Z</time></trkpt><trkpt lat="42.2743694" lon="14.1562481"><ele>189.0</ele><time>2026-05-01T12:51:05.394Z</time></trkpt><trkpt lat="42.2744046" lon="14.1563369"><ele>188.0</ele><time>2026-05-01T12:51:06.394Z</time></trkpt><trkpt lat="42.2744251" lon="14.1564235"><ele>187.0</ele><time>2026-05-01T12:51:07.394Z</time></trkpt><trkpt lat="42.2744563" lon="14.1564985"><ele>186.0</ele><time>2026-05-01T12:51:08.394Z</time></trkpt><trkpt lat="42.2745427" lon="14.1565867"><ele>180.33333333333334</ele><time>2026-05-01T12:51:10.394Z</time></trkpt><trkpt lat="42.2746354" lon="14.1566677"><ele>174.66666666666669</ele><time>2026-05-01T12:51:12.394Z</time></trkpt><trkpt lat="42.2747111" lon="14.1567005"><ele>169.0</ele><time>2026-05-01T12:51:14.394Z</time></trkpt><trkpt lat="42.2757955" lon="14.1567649"><ele>168.39999999999998</ele><time>2026-05-01T12:53:09.394Z</time></trkpt><trkpt lat="42.2758801" lon="14.156646"><ele>167.8</ele><time>2026-05-01T12:54:28.393Z</time></trkpt><trkpt lat="42.2759316" lon="14.1565916"><ele>167.2</ele><time>2026-05-01T12:54:29.393Z</time></trkpt><trkpt lat="42.2760187" lon="14.156522"><ele>166.60000000000002</ele><time>2026-05-01T12:54:31.393Z</time></trkpt><trkpt lat="42.2761175" lon="14.1564563"><ele>166.0</ele><time>2026-05-01T12:54:33.392Z</time></trkpt><trkpt lat="42.2762207" lon="14.1563903"><ele>166.0</ele><time>2026-05-01T12:54:35.393Z</time></trkpt><trkpt lat="42.2763261" lon="14.1563203"><ele>166.0</ele><time>2026-05-01T12:54:37.393Z</time></trkpt><trkpt lat="42.2763828" lon="14.1562715"><ele>166.0</ele><time>2026-05-01T12:54:38.392Z</time></trkpt><trkpt lat="42.2764485" lon="14.15622"><ele>166.0</ele><time>2026-05-01T12:54:39.392Z</time></trkpt><trkpt lat="42.2765177" lon="14.1561671"><ele>166.0</ele><time>2026-05-01T12:54:40.393Z</time></trkpt><trkpt lat="42.2765908" lon="14.1561248"><ele>166.0</ele><time>2026-05-01T12:54:41.393Z</time></trkpt><trkpt lat="42.2766647" lon="14.1560789"><ele>164.33333333333334</ele><time>2026-05-01T12:54:42.393Z</time></trkpt><trkpt lat="42.276739" lon="14.1560344"><ele>162.66666666666669</ele><time>2026-05-01T12:54:43.392Z</time></trkpt><trkpt lat="42.2768147" lon="14.1559997"><ele>161.0</ele><time>2026-05-01T12:54:44.393Z</time></trkpt><trkpt lat="42.2768963" lon="14.1559642"><ele>159.33333333333334</ele><time>2026-05-01T12:54:45.393Z</time></trkpt><trkpt lat="42.2769758" lon="14.1559205"><ele>157.66666666666666</ele><time>2026-05-01T12:54:46.393Z</time></trkpt><trkpt lat="42.277053" lon="14.1558752"><ele>156.0</ele><time>2026-05-01T12:54:47.393Z</time></trkpt><trkpt lat="42.2771324" lon="14.1558317"><ele>156.0</ele><time>2026-05-01T12:54:48.394Z</time></trkpt><trkpt lat="42.2772005" lon="14.155785"><ele>156.0</ele><time>2026-05-01T12:54:49.391Z</time></trkpt><trkpt lat="42.2773114" lon="14.1557157"><ele>156.0</ele><time>2026-05-01T12:54:51.392Z</time></trkpt><trkpt lat="42.2774352" lon="14.1556469"><ele>156.0</ele><time>2026-05-01T12:54:53.392Z</time></trkpt><trkpt lat="42.2775072" lon="14.1556095"><ele>156.0</ele><time>2026-05-01T12:54:54.391Z</time></trkpt><trkpt lat="42.2775737" lon="14.1555698"><ele>156.0</ele><time>2026-05-01T12:54:55.392Z</time></trkpt><trkpt lat="42.2776529" lon="14.1555237"><ele>156.0</ele><time>2026-05-01T12:54:56.392Z</time></trkpt><trkpt lat="42.2777383" lon="14.1554658"><ele>156.0</ele><time>2026-05-01T12:54:57.391Z</time></trkpt><trkpt lat="42.2778301" lon="14.1554087"><ele>156.0</ele><time>2026-05-01T12:54:58.392Z</time></trkpt><trkpt lat="42.2779166" lon="14.1553546"><ele>156.0</ele><time>2026-05-01T12:54:59.392Z</time></trkpt><trkpt lat="42.2779947" lon="14.1553033"><ele>156.0</ele><time>2026-05-01T12:55:00.392Z</time></trkpt><trkpt lat="42.278086" lon="14.155252"><ele>156.0</ele><time>2026-05-01T12:55:01.391Z</time></trkpt><trkpt lat="42.2781835" lon="14.1552099"><ele>156.0</ele><time>2026-05-01T12:55:02.392Z</time></trkpt><trkpt lat="42.2782744" lon="14.1551708"><ele>156.0</ele><time>2026-05-01T12:55:03.392Z</time></trkpt><trkpt lat="42.2783467" lon="14.1551398"><ele>156.0</ele><time>2026-05-01T12:55:04.391Z</time></trkpt><trkpt lat="42.2784519" lon="14.1550889"><ele>155.0</ele><time>2026-05-01T12:55:06.392Z</time></trkpt><trkpt lat="42.2785128" lon="14.1550528"><ele>154.0</ele><time>2026-05-01T12:55:07.392Z</time></trkpt><trkpt lat="42.2785812" lon="14.15501"><ele>153.0</ele><time>2026-05-01T12:55:08.392Z</time></trkpt><trkpt lat="42.2786619" lon="14.1549548"><ele>152.0</ele><time>2026-05-01T12:55:09.393Z</time></trkpt><trkpt lat="42.2787546" lon="14.1548858"><ele>151.0</ele><time>2026-05-01T12:55:10.391Z</time></trkpt><trkpt lat="42.2788501" lon="14.1548125"><ele>150.0</ele><time>2026-05-01T12:55:11.392Z</time></trkpt><trkpt lat="42.2789679" lon="14.1547356"><ele>147.0</ele><time>2026-05-01T12:55:12.392Z</time></trkpt><trkpt lat="42.2791166" lon="14.1546407"><ele>144.0</ele><time>2026-05-01T12:55:13.392Z</time></trkpt><trkpt lat="42.2792947" lon="14.1545311"><ele>141.0</ele><time>2026-05-01T12:55:14.391Z</time></trkpt><trkpt lat="42.279435" lon="14.1544443"><ele>141.0</ele><time>2026-05-01T12:55:15.391Z</time></trkpt><trkpt lat="42.2795495" lon="14.1543776"><ele>141.0</ele><time>2026-05-01T12:55:16.391Z</time></trkpt><trkpt lat="42.2796714" lon="14.1543078"><ele>141.0</ele><time>2026-05-01T12:55:17.391Z</time></trkpt><trkpt lat="42.2798111" lon="14.1542268"><ele>141.0</ele><time>2026-05-01T12:55:18.392Z</time></trkpt><trkpt lat="42.27995" lon="14.1541457"><ele>141.5</ele><time>2026-05-01T12:55:19.392Z</time></trkpt><trkpt lat="42.2800888" lon="14.154064"><ele>142.0</ele><time>2026-05-01T12:55:20.392Z</time></trkpt><trkpt lat="42.280222" lon="14.1539858"><ele>142.5</ele><time>2026-05-01T12:55:21.392Z</time></trkpt><trkpt lat="42.280339" lon="14.1539101"><ele>143.0</ele><time>2026-05-01T12:55:22.391Z</time></trkpt><trkpt lat="42.2804544" lon="14.1538344"><ele>143.0</ele><time>2026-05-01T12:55:23.393Z</time></trkpt><trkpt lat="42.2805892" lon="14.1537683"><ele>143.0</ele><time>2026-05-01T12:55:24.392Z</time></trkpt><trkpt lat="42.2807341" lon="14.1537086"><ele>143.0</ele><time>2026-05-01T12:55:25.391Z</time></trkpt><trkpt lat="42.2808477" lon="14.1536626"><ele>143.0</ele><time>2026-05-01T12:55:26.393Z</time></trkpt><trkpt lat="42.2809496" lon="14.1536181"><ele>141.0</ele><time>2026-05-01T12:55:27.392Z</time></trkpt><trkpt lat="42.2810504" lon="14.1535831"><ele>139.0</ele><time>2026-05-01T12:55:28.392Z</time></trkpt><trkpt lat="42.2811437" lon="14.1535629"><ele>137.0</ele><time>2026-05-01T12:55:29.392Z</time></trkpt><trkpt lat="42.2812364" lon="14.1535341"><ele>135.0</ele><time>2026-05-01T12:55:30.392Z</time></trkpt><trkpt lat="42.281313" lon="14.1535037"><ele>133.0</ele><time>2026-05-01T12:55:31.392Z</time></trkpt><trkpt lat="42.2813913" lon="14.1534694"><ele>130.8</ele><time>2026-05-01T12:55:32.392Z</time></trkpt><trkpt lat="42.2814586" lon="14.1534068"><ele>128.60000000000002</ele><time>2026-05-01T12:55:33.391Z</time></trkpt><trkpt lat="42.281516" lon="14.15334"><ele>126.39999999999999</ele><time>2026-05-01T12:55:34.393Z</time></trkpt><trkpt lat="42.2816026" lon="14.1532615"><ele>124.19999999999999</ele><time>2026-05-01T12:55:35.391Z</time></trkpt><trkpt lat="42.2817121" lon="14.1531929"><ele>122.0</ele><time>2026-05-01T12:55:36.391Z</time></trkpt><trkpt lat="42.2818106" lon="14.1531396"><ele>121.6</ele><time>2026-05-01T12:55:37.391Z</time></trkpt><trkpt lat="42.2819052" lon="14.1530806"><ele>121.19999999999999</ele><time>2026-05-01T12:55:38.391Z</time></trkpt><trkpt lat="42.2819979" lon="14.1530905"><ele>120.8</ele><time>2026-05-01T12:55:39.392Z</time></trkpt><trkpt lat="42.2820673" lon="14.1530491"><ele>120.4</ele><time>2026-05-01T12:55:40.392Z</time></trkpt><trkpt lat="42.2821401" lon="14.1530146"><ele>120.0</ele><time>2026-05-01T12:55:41.392Z</time></trkpt><trkpt lat="42.2822747" lon="14.1529797"><ele>119.5</ele><time>2026-05-01T12:55:43.392Z</time></trkpt><trkpt lat="42.2823519" lon="14.1529917"><ele>119.0</ele><time>2026-05-01T12:55:45.391Z</time></trkpt><trkpt lat="42.2824493" lon="14.152953"><ele>118.5</ele><time>2026-05-01T12:55:53.392Z</time></trkpt><trkpt lat="42.2824895" lon="14.1528871"><ele>118.0</ele><time>2026-05-01T12:55:56.392Z</time></trkpt><trkpt lat="42.2824805" lon="14.1527734"><ele>117.5</ele><time>2026-05-01T12:55:58.392Z</time></trkpt><trkpt lat="42.2824714" lon="14.1526847"><ele>117.0</ele><time>2026-05-01T12:55:59.392Z</time></trkpt><trkpt lat="42.2824469" lon="14.1525653"><ele>117.0</ele><time>2026-05-01T12:56:00.393Z</time></trkpt><trkpt lat="42.2824204" lon="14.1524388"><ele>117.0</ele><time>2026-05-01T12:56:01.391Z</time></trkpt><trkpt lat="42.2823778" lon="14.1523194"><ele>117.0</ele><time>2026-05-01T12:56:02.392Z</time></trkpt><trkpt lat="42.2823357" lon="14.152224"><ele>117.0</ele><time>2026-05-01T12:56:03.392Z</time></trkpt><trkpt lat="42.2823399" lon="14.1521334"><ele>117.0</ele><time>2026-05-01T12:56:05.392Z</time></trkpt><trkpt lat="42.282409" lon="14.1521302"><ele>117.0</ele><time>2026-05-01T12:56:08.391Z</time></trkpt><trkpt lat="42.2824766" lon="14.1521431"><ele>117.39999999999999</ele><time>2026-05-01T12:56:10.391Z</time></trkpt><trkpt lat="42.2825797" lon="14.1521217"><ele>117.79999999999998</ele><time>2026-05-01T12:57:24.39Z</time></trkpt><trkpt lat="42.2826628" lon="14.1521244"><ele>118.2</ele><time>2026-05-01T12:57:25.391Z</time></trkpt><trkpt lat="42.2827701" lon="14.1521272"><ele>118.6</ele><time>2026-05-01T12:57:26.39Z</time></trkpt><trkpt lat="42.2828749" lon="14.1521267"><ele>119.0</ele><time>2026-05-01T12:57:27.392Z</time></trkpt><trkpt lat="42.2829572" lon="14.1520905"><ele>119.0</ele><time>2026-05-01T12:57:28.391Z</time></trkpt><trkpt lat="42.283022" lon="14.1520146"><ele>119.0</ele><time>2026-05-01T12:57:29.391Z</time></trkpt><trkpt lat="42.283062" lon="14.1518992"><ele>119.0</ele><time>2026-05-01T12:57:30.39Z</time></trkpt><trkpt lat="42.2830906" lon="14.1517526"><ele>119.0</ele><time>2026-05-01T12:57:31.39Z</time></trkpt><trkpt lat="42.2831145" lon="14.1515947"><ele>119.0</ele><time>2026-05-01T12:57:32.391Z</time></trkpt><trkpt lat="42.2831388" lon="14.1514401"><ele>119.66666666666666</ele><time>2026-05-01T12:57:33.392Z</time></trkpt><trkpt lat="42.2831619" lon="14.1513095"><ele>120.33333333333333</ele><time>2026-05-01T12:57:34.391Z</time></trkpt><trkpt lat="42.2831755" lon="14.1512066"><ele>121.0</ele><time>2026-05-01T12:57:35.391Z</time></trkpt><trkpt lat="42.2831825" lon="14.1510982"><ele>121.66666666666666</ele><time>2026-05-01T12:57:37.392Z</time></trkpt><trkpt lat="42.2831267" lon="14.1510043"><ele>122.33333333333333</ele><time>2026-05-01T12:57:39.391Z</time></trkpt><trkpt lat="42.2830508" lon="14.1509543"><ele>123.0</ele><time>2026-05-01T12:57:41.392Z</time></trkpt><trkpt lat="42.2829877" lon="14.1509145"><ele>123.0</ele><time>2026-05-01T12:57:42.391Z</time></trkpt><trkpt lat="42.2829056" lon="14.1508525"><ele>123.0</ele><time>2026-05-01T12:57:43.391Z</time></trkpt><trkpt lat="42.2828112" lon="14.1507723"><ele>123.0</ele><time>2026-05-01T12:57:44.39Z</time></trkpt><trkpt lat="42.2827063" lon="14.1506631"><ele>123.0</ele><time>2026-05-01T12:57:45.391Z</time></trkpt><trkpt lat="42.2826197" lon="14.1505504"><ele>126.0</ele><time>2026-05-01T12:57:46.391Z</time></trkpt><trkpt lat="42.2825352" lon="14.1504192"><ele>129.0</ele><time>2026-05-01T12:57:47.391Z</time></trkpt><trkpt lat="42.2824479" lon="14.1502616"><ele>132.0</ele><time>2026-05-01T12:57:48.391Z</time></trkpt><trkpt lat="42.2823492" lon="14.1500634"><ele>129.33333333333334</ele><time>2026-05-01T12:57:49.39Z</time></trkpt><trkpt lat="42.2822421" lon="14.1498529"><ele>126.66666666666667</ele><time>2026-05-01T12:57:50.39Z</time></trkpt><trkpt lat="42.282123" lon="14.1496229"><ele>124.0</ele><time>2026-05-01T12:57:51.39Z</time></trkpt><trkpt lat="42.2820009" lon="14.1493874"><ele>124.0</ele><time>2026-05-01T12:57:52.391Z</time></trkpt><trkpt lat="42.281881" lon="14.1491552"><ele>124.0</ele><time>2026-05-01T12:57:53.392Z</time></trkpt><trkpt lat="42.2817641" lon="14.1489267"><ele>124.0</ele><time>2026-05-01T12:57:54.391Z</time></trkpt><trkpt lat="42.2816548" lon="14.1487049"><ele>123.33333333333334</ele><time>2026-05-01T12:57:55.391Z</time></trkpt><trkpt lat="42.281554" lon="14.1484914"><ele>122.66666666666666</ele><time>2026-05-01T12:57:56.39Z</time></trkpt><trkpt lat="42.2814642" lon="14.1482962"><ele>122.0</ele><time>2026-05-01T12:57:57.391Z</time></trkpt><trkpt lat="42.2813862" lon="14.1481287"><ele>122.0</ele><time>2026-05-01T12:57:58.39Z</time></trkpt><trkpt lat="42.2813207" lon="14.1479757"><ele>121.99999999999999</ele><time>2026-05-01T12:57:59.391Z</time></trkpt><trkpt lat="42.2812664" lon="14.1478451"><ele>121.99999999999999</ele><time>2026-05-01T12:58:00.39Z</time></trkpt><trkpt lat="42.2812275" lon="14.1477517"><ele>122.0</ele><time>2026-05-01T12:58:01.391Z</time></trkpt><trkpt lat="42.2812211" lon="14.1476394"><ele>122.0</ele><time>2026-05-01T12:58:03.391Z</time></trkpt><trkpt lat="42.281271" lon="14.1475773"><ele>122.0</ele><time>2026-05-01T12:58:05.392Z</time></trkpt><trkpt lat="42.2813723" lon="14.1474785"><ele>121.99999999999999</ele><time>2026-05-01T12:58:07.39Z</time></trkpt><trkpt lat="42.2814358" lon="14.1474171"><ele>121.99999999999999</ele><time>2026-05-01T12:58:08.391Z</time></trkpt><trkpt lat="42.2814933" lon="14.1473462"><ele>122.0</ele><time>2026-05-01T12:58:09.391Z</time></trkpt><trkpt lat="42.2815386" lon="14.1472562"><ele>122.0</ele><time>2026-05-01T12:58:10.391Z</time></trkpt><trkpt lat="42.281583" lon="14.1471453"><ele>123.49999999999999</ele><time>2026-05-01T12:58:11.391Z</time></trkpt><trkpt lat="42.2816173" lon="14.1470496"><ele>125.0</ele><time>2026-05-01T12:58:12.39Z</time></trkpt><trkpt lat="42.2816269" lon="14.1469455"><ele>126.5</ele><time>2026-05-01T12:58:13.392Z</time></trkpt><trkpt lat="42.2816164" lon="14.1468499"><ele>128.0</ele><time>2026-05-01T12:58:14.391Z</time></trkpt><trkpt lat="42.2816029" lon="14.1467605"><ele>129.5</ele><time>2026-05-01T12:58:15.391Z</time></trkpt><trkpt lat="42.2815941" lon="14.1466575"><ele>131.0</ele><time>2026-05-01T12:58:16.391Z</time></trkpt><trkpt lat="42.2815796" lon="14.146548"><ele>132.0</ele><time>2026-05-01T12:58:17.391Z</time></trkpt><trkpt lat="42.2815559" lon="14.1464293"><ele>133.0</ele><time>2026-05-01T12:58:18.391Z</time></trkpt><trkpt lat="42.2815245" lon="14.1463017"><ele>134.0</ele><time>2026-05-01T12:58:19.391Z</time></trkpt><trkpt lat="42.2814994" lon="14.1461801"><ele>135.0</ele><time>2026-05-01T12:58:20.392Z</time></trkpt><trkpt lat="42.2814797" lon="14.1460748"><ele>136.0</ele><time>2026-05-01T12:58:21.391Z</time></trkpt><trkpt lat="42.2814498" lon="14.1459494"><ele>135.33333333333334</ele><time>2026-05-01T12:58:23.391Z</time></trkpt><trkpt lat="42.2814259" lon="14.1458566"><ele>134.66666666666669</ele><time>2026-05-01T12:58:24.39Z</time></trkpt><trkpt lat="42.281398" lon="14.1457552"><ele>134.0</ele><time>2026-05-01T12:58:25.392Z</time></trkpt><trkpt lat="42.2813542" lon="14.1456487"><ele>133.33333333333334</ele><time>2026-05-01T12:58:26.391Z</time></trkpt><trkpt lat="42.2812975" lon="14.1455479"><ele>132.66666666666666</ele><time>2026-05-01T12:58:27.391Z</time></trkpt><trkpt lat="42.2812537" lon="14.145444"><ele>132.0</ele><time>2026-05-01T12:58:28.391Z</time></trkpt><trkpt lat="42.2812273" lon="14.1453476"><ele>133.66666666666666</ele><time>2026-05-01T12:58:29.391Z</time></trkpt><trkpt lat="42.2812207" lon="14.1452444"><ele>135.33333333333334</ele><time>2026-05-01T12:58:30.39Z</time></trkpt><trkpt lat="42.2812226" lon="14.1451229"><ele>137.0</ele><time>2026-05-01T12:58:31.392Z</time></trkpt><trkpt lat="42.2812285" lon="14.145003"><ele>138.66666666666669</ele><time>2026-05-01T12:58:32.392Z</time></trkpt><trkpt lat="42.281237" lon="14.1448736"><ele>140.33333333333334</ele><time>2026-05-01T12:58:33.39Z</time></trkpt><trkpt lat="42.2812444" lon="14.144743"><ele>142.0</ele><time>2026-05-01T12:58:34.391Z</time></trkpt><trkpt lat="42.2812546" lon="14.1446143"><ele>143.6</ele><time>2026-05-01T12:58:35.391Z</time></trkpt><trkpt lat="42.2812682" lon="14.1444852"><ele>145.2</ele><time>2026-05-01T12:58:36.391Z</time></trkpt><trkpt lat="42.2812797" lon="14.1443538"><ele>146.8</ele><time>2026-05-01T12:58:37.392Z</time></trkpt><trkpt lat="42.2812902" lon="14.1442282"><ele>148.4</ele><time>2026-05-01T12:58:38.391Z</time></trkpt><trkpt lat="42.2813041" lon="14.1441002"><ele>150.0</ele><time>2026-05-01T12:58:39.391Z</time></trkpt><trkpt lat="42.2813215" lon="14.143974"><ele>151.83333333333334</ele><time>2026-05-01T12:58:40.391Z</time></trkpt><trkpt lat="42.2813368" lon="14.1438476"><ele>153.66666666666666</ele><time>2026-05-01T12:58:41.391Z</time></trkpt><trkpt lat="42.2813486" lon="14.1437344"><ele>155.5</ele><time>2026-05-01T12:58:42.39Z</time></trkpt><trkpt lat="42.2813567" lon="14.143646"><ele>157.33333333333331</ele><time>2026-05-01T12:58:43.39Z</time></trkpt><trkpt lat="42.2813574" lon="14.1435601"><ele>159.16666666666666</ele><time>2026-05-01T12:58:44.391Z</time></trkpt><trkpt lat="42.281352" lon="14.1434585"><ele>161.0</ele><time>2026-05-01T12:58:45.391Z</time></trkpt><trkpt lat="42.2813324" lon="14.1433711"><ele>161.0</ele><time>2026-05-01T12:58:46.391Z</time></trkpt><trkpt lat="42.2813047" lon="14.1432398"><ele>161.0</ele><time>2026-05-01T12:58:48.391Z</time></trkpt><trkpt lat="42.281278" lon="14.1431388"><ele>161.0</ele><time>2026-05-01T12:58:50.391Z</time></trkpt><trkpt lat="42.2812656" lon="14.1430485"><ele>161.0</ele><time>2026-05-01T12:58:52.391Z</time></trkpt><trkpt lat="42.2812833" lon="14.1429118"><ele>161.0</ele><time>2026-05-01T12:58:55.391Z</time></trkpt><trkpt lat="42.2813282" lon="14.1428455"><ele>161.0</ele><time>2026-05-01T12:58:56.391Z</time></trkpt><trkpt lat="42.2813927" lon="14.1427802"><ele>162.8</ele><time>2026-05-01T12:58:58.391Z</time></trkpt><trkpt lat="42.281463" lon="14.1426694"><ele>164.60000000000002</ele><time>2026-05-01T12:59:00.391Z</time></trkpt><trkpt lat="42.2815442" lon="14.14258"><ele>166.4</ele><time>2026-05-01T12:59:02.391Z</time></trkpt><trkpt lat="42.2815901" lon="14.142457"><ele>168.2</ele><time>2026-05-01T12:59:04.391Z</time></trkpt><trkpt lat="42.2815435" lon="14.1423827"><ele>170.0</ele><time>2026-05-01T12:59:06.391Z</time></trkpt><trkpt lat="42.2814793" lon="14.1423845"><ele>173.66666666666666</ele><time>2026-05-01T12:59:08.391Z</time></trkpt><trkpt lat="42.2813971" lon="14.1423595"><ele>177.33333333333331</ele><time>2026-05-01T13:01:06.389Z</time></trkpt><trkpt lat="42.2813101" lon="14.1423424"><ele>181.0</ele><time>2026-05-01T13:01:07.391Z</time></trkpt><trkpt lat="42.2812395" lon="14.1423166"><ele>184.66666666666666</ele><time>2026-05-01T13:01:08.39Z</time></trkpt><trkpt lat="42.2811643" lon="14.1422764"><ele>188.33333333333334</ele><time>2026-05-01T13:01:09.39Z</time></trkpt><trkpt lat="42.2810878" lon="14.1422319"><ele>192.0</ele><time>2026-05-01T13:01:10.39Z</time></trkpt><trkpt lat="42.2810329" lon="14.1421876"><ele>192.0</ele><time>2026-05-01T13:01:11.391Z</time></trkpt><trkpt lat="42.2809621" lon="14.1420698"><ele>192.0</ele><time>2026-05-01T13:01:13.389Z</time></trkpt><trkpt lat="42.2809355" lon="14.14193"><ele>192.0</ele><time>2026-05-01T13:01:15.39Z</time></trkpt><trkpt lat="42.2809243" lon="14.1418327"><ele>192.0</ele><time>2026-05-01T13:01:16.389Z</time></trkpt><trkpt lat="42.2809041" lon="14.1417359"><ele>192.0</ele><time>2026-05-01T13:01:17.39Z</time></trkpt><trkpt lat="42.2808864" lon="14.1416319"><ele>192.0</ele><time>2026-05-01T13:01:18.389Z</time></trkpt><trkpt lat="42.2808679" lon="14.1415321"><ele>192.0</ele><time>2026-05-01T13:01:19.391Z</time></trkpt><trkpt lat="42.2808535" lon="14.1414422"><ele>192.0</ele><time>2026-05-01T13:01:20.391Z</time></trkpt><trkpt lat="42.2808282" lon="14.1412588"><ele>192.0</ele><time>2026-05-01T13:01:22.39Z</time></trkpt><trkpt lat="42.2808026" lon="14.1411494"><ele>192.0</ele><time>2026-05-01T13:01:23.39Z</time></trkpt><trkpt lat="42.2807865" lon="14.141063"><ele>192.0</ele><time>2026-05-01T13:01:24.39Z</time></trkpt><trkpt lat="42.2807976" lon="14.140972"><ele>192.0</ele><time>2026-05-01T13:01:26.389Z</time></trkpt><trkpt lat="42.2808657" lon="14.140925"><ele>192.0</ele><time>2026-05-01T13:01:28.39Z</time></trkpt><trkpt lat="42.2809811" lon="14.1408545"><ele>192.0</ele><time>2026-05-01T13:01:30.39Z</time></trkpt><trkpt lat="42.281063" lon="14.1407969"><ele>192.0</ele><time>2026-05-01T13:01:31.39Z</time></trkpt><trkpt lat="42.2811651" lon="14.1407359"><ele>192.0</ele><time>2026-05-01T13:01:32.391Z</time></trkpt><trkpt lat="42.2812897" lon="14.140679"><ele>189.0</ele><time>2026-05-01T13:01:33.39Z</time></trkpt><trkpt lat="42.2814136" lon="14.1406235"><ele>186.0</ele><time>2026-05-01T13:01:34.391Z</time></trkpt><trkpt lat="42.2815158" lon="14.1405753"><ele>183.0</ele><time>2026-05-01T13:01:35.391Z</time></trkpt><trkpt lat="42.2816003" lon="14.1405274"><ele>180.0</ele><time>2026-05-01T13:01:36.39Z</time></trkpt><trkpt lat="42.281683" lon="14.1404436"><ele>177.0</ele><time>2026-05-01T13:01:37.39Z</time></trkpt><trkpt lat="42.2817715" lon="14.1403388"><ele>180.16666666666666</ele><time>2026-05-01T13:01:38.39Z</time></trkpt><trkpt lat="42.2818398" lon="14.1402549"><ele>183.33333333333331</ele><time>2026-05-01T13:01:39.391Z</time></trkpt><trkpt lat="42.281898" lon="14.1401681"><ele>186.5</ele><time>2026-05-01T13:01:40.39Z</time></trkpt><trkpt lat="42.2819427" lon="14.1400927"><ele>189.66666666666666</ele><time>2026-05-01T13:01:41.39Z</time></trkpt><trkpt lat="42.2819905" lon="14.1400188"><ele>192.83333333333331</ele><time>2026-05-01T13:01:42.391Z</time></trkpt><trkpt lat="42.2820458" lon="14.1399366"><ele>196.0</ele><time>2026-05-01T13:01:43.39Z</time></trkpt><trkpt lat="42.2821114" lon="14.1398615"><ele>196.0</ele><time>2026-05-01T13:01:44.39Z</time></trkpt><trkpt lat="42.2821909" lon="14.1397785"><ele>196.0</ele><time>2026-05-01T13:01:45.39Z</time></trkpt><trkpt lat="42.2822748" lon="14.1396834"><ele>196.0</ele><time>2026-05-01T13:01:46.389Z</time></trkpt><trkpt lat="42.2823604" lon="14.1395898"><ele>196.0</ele><time>2026-05-01T13:01:47.39Z</time></trkpt><trkpt lat="42.2824471" lon="14.1394878"><ele>196.0</ele><time>2026-05-01T13:01:48.39Z</time></trkpt><trkpt lat="42.2825308" lon="14.139386"><ele>198.4</ele><time>2026-05-01T13:01:49.39Z</time></trkpt><trkpt lat="42.2826056" lon="14.1392881"><ele>200.8</ele><time>2026-05-01T13:01:50.39Z</time></trkpt><trkpt lat="42.2826771" lon="14.1391908"><ele>203.20000000000002</ele><time>2026-05-01T13:01:51.39Z</time></trkpt><trkpt lat="42.2827431" lon="14.139094"><ele>205.60000000000002</ele><time>2026-05-01T13:01:52.389Z</time></trkpt><trkpt lat="42.2828068" lon="14.1389986"><ele>208.0</ele><time>2026-05-01T13:01:53.39Z</time></trkpt><trkpt lat="42.2828689" lon="14.1388998"><ele>208.0</ele><time>2026-05-01T13:01:54.39Z</time></trkpt><trkpt lat="42.2829267" lon="14.1388033"><ele>208.0</ele><time>2026-05-01T13:01:55.39Z</time></trkpt><trkpt lat="42.2829915" lon="14.1387126"><ele>208.0</ele><time>2026-05-01T13:01:56.391Z</time></trkpt><trkpt lat="42.2830609" lon="14.1386168"><ele>208.0</ele><time>2026-05-01T13:01:57.39Z</time></trkpt><trkpt lat="42.2831318" lon="14.1385218"><ele>208.0</ele><time>2026-05-01T13:01:58.39Z</time></trkpt><trkpt lat="42.2831939" lon="14.1384475"><ele>206.60000000000002</ele><time>2026-05-01T13:01:59.389Z</time></trkpt><trkpt lat="42.2832517" lon="14.1383925"><ele>205.20000000000002</ele><time>2026-05-01T13:02:00.39Z</time></trkpt><trkpt lat="42.283328" lon="14.1382955"><ele>203.8</ele><time>2026-05-01T13:02:02.39Z</time></trkpt><trkpt lat="42.2832736" lon="14.1382326"><ele>202.4</ele><time>2026-05-01T13:02:04.389Z</time></trkpt><trkpt lat="42.2831627" lon="14.1382043"><ele>201.0</ele><time>2026-05-01T13:02:06.39Z</time></trkpt><trkpt lat="42.283044" lon="14.1381535"><ele>201.0</ele><time>2026-05-01T13:02:08.389Z</time></trkpt><trkpt lat="42.2829313" lon="14.1381365"><ele>201.0</ele><time>2026-05-01T13:02:10.39Z</time></trkpt><trkpt lat="42.282823" lon="14.1381273"><ele>201.0</ele><time>2026-05-01T13:02:12.389Z</time></trkpt><trkpt lat="42.2827424" lon="14.1380917"><ele>201.0</ele><time>2026-05-01T13:02:14.388Z</time></trkpt><trkpt lat="42.2827313" lon="14.1379812"><ele>201.0</ele><time>2026-05-01T13:02:17.389Z</time></trkpt><trkpt lat="42.2827921" lon="14.137909"><ele>201.0</ele><time>2026-05-01T13:02:19.389Z</time></trkpt><trkpt lat="42.2828742" lon="14.1378331"><ele>201.0</ele><time>2026-05-01T13:02:21.389Z</time></trkpt><trkpt lat="42.2829311" lon="14.1376997"><ele>201.0</ele><time>2026-05-01T13:02:23.388Z</time></trkpt><trkpt lat="42.2829406" lon="14.137527"><ele>201.0</ele><time>2026-05-01T13:02:25.389Z</time></trkpt><trkpt lat="42.2829284" lon="14.1374209"><ele>201.0</ele><time>2026-05-01T13:02:26.39Z</time></trkpt><trkpt lat="42.2828718" lon="14.1373373"><ele>202.0</ele><time>2026-05-01T13:02:27.39Z</time></trkpt><trkpt lat="42.2828392" lon="14.1372451"><ele>203.0</ele><time>2026-05-01T13:02:28.389Z</time></trkpt><trkpt lat="42.2828023" lon="14.1370837"><ele>204.0</ele><time>2026-05-01T13:02:30.388Z</time></trkpt><trkpt lat="42.2827926" lon="14.1369909"><ele>205.0</ele><time>2026-05-01T13:02:31.388Z</time></trkpt><trkpt lat="42.2827885" lon="14.1368843"><ele>206.0</ele><time>2026-05-01T13:02:32.389Z</time></trkpt><trkpt lat="42.2827851" lon="14.1367787"><ele>207.0</ele><time>2026-05-01T13:02:33.389Z</time></trkpt><trkpt lat="42.2827765" lon="14.1366736"><ele>208.39999999999998</ele><time>2026-05-01T13:02:34.388Z</time></trkpt><trkpt lat="42.282755" lon="14.1365471"><ele>209.79999999999998</ele><time>2026-05-01T13:02:35.388Z</time></trkpt><trkpt lat="42.2827232" lon="14.1364233"><ele>211.2</ele><time>2026-05-01T13:02:36.389Z</time></trkpt><trkpt lat="42.282693" lon="14.136306"><ele>212.6</ele><time>2026-05-01T13:02:37.389Z</time></trkpt><trkpt lat="42.2826568" lon="14.1362048"><ele>214.0</ele><time>2026-05-01T13:02:38.389Z</time></trkpt><trkpt lat="42.2825977" lon="14.1361032"><ele>214.0</ele><time>2026-05-01T13:02:39.389Z</time></trkpt><trkpt lat="42.2825218" lon="14.1360013"><ele>213.99999999999997</ele><time>2026-05-01T13:02:40.388Z</time></trkpt><trkpt lat="42.2824572" lon="14.1359071"><ele>213.99999999999997</ele><time>2026-05-01T13:02:41.39Z</time></trkpt><trkpt lat="42.2824102" lon="14.1358013"><ele>214.0</ele><time>2026-05-01T13:02:42.389Z</time></trkpt><trkpt lat="42.2823591" lon="14.1356854"><ele>214.0</ele><time>2026-05-01T13:02:43.39Z</time></trkpt><trkpt lat="42.2823223" lon="14.1355931"><ele>212.39999999999998</ele><time>2026-05-01T13:02:44.389Z</time></trkpt><trkpt lat="42.2823011" lon="14.135493"><ele>210.79999999999998</ele><time>2026-05-01T13:02:45.388Z</time></trkpt><trkpt lat="42.2822982" lon="14.1353754"><ele>209.2</ele><time>2026-05-01T13:02:46.39Z</time></trkpt><trkpt lat="42.2822828" lon="14.1352459"><ele>207.60000000000002</ele><time>2026-05-01T13:02:47.388Z</time></trkpt><trkpt lat="42.2822689" lon="14.1351177"><ele>206.0</ele><time>2026-05-01T13:02:48.389Z</time></trkpt><trkpt lat="42.2822566" lon="14.1349827"><ele>207.8</ele><time>2026-05-01T13:02:49.389Z</time></trkpt><trkpt lat="42.282235" lon="14.1348414"><ele>209.60000000000002</ele><time>2026-05-01T13:02:50.389Z</time></trkpt><trkpt lat="42.2822169" lon="14.134704"><ele>211.4</ele><time>2026-05-01T13:02:51.389Z</time></trkpt><trkpt lat="42.282195" lon="14.1345692"><ele>213.2</ele><time>2026-05-01T13:02:52.389Z</time></trkpt><trkpt lat="42.2821707" lon="14.1344386"><ele>215.0</ele><time>2026-05-01T13:02:53.388Z</time></trkpt><trkpt lat="42.2821408" lon="14.1342965"><ele>215.0</ele><time>2026-05-01T13:02:54.388Z</time></trkpt><trkpt lat="42.2821177" lon="14.1341429"><ele>215.0</ele><time>2026-05-01T13:02:55.388Z</time></trkpt><trkpt lat="42.2821005" lon="14.1339961"><ele>215.0</ele><time>2026-05-01T13:02:56.389Z</time></trkpt><trkpt lat="42.2820749" lon="14.1338243"><ele>215.0</ele><time>2026-05-01T13:02:57.389Z</time></trkpt><trkpt lat="42.2820559" lon="14.1336616"><ele>216.0</ele><time>2026-05-01T13:02:58.389Z</time></trkpt><trkpt lat="42.2820383" lon="14.1335192"><ele>217.0</ele><time>2026-05-01T13:02:59.39Z</time></trkpt><trkpt lat="42.2820301" lon="14.1333857"><ele>218.0</ele><time>2026-05-01T13:03:00.389Z</time></trkpt><trkpt lat="42.2820101" lon="14.1332926"><ele>219.0</ele><time>2026-05-01T13:03:01.389Z</time></trkpt><trkpt lat="42.2819309" lon="14.1331961"><ele>220.0</ele><time>2026-05-01T13:03:03.389Z</time></trkpt><trkpt lat="42.2818664" lon="14.133172"><ele>220.66666666666666</ele><time>2026-05-01T13:03:04.389Z</time></trkpt><trkpt lat="42.2817928" lon="14.1331247"><ele>221.33333333333331</ele><time>2026-05-01T13:03:05.389Z</time></trkpt><trkpt lat="42.2817203" lon="14.1330583"><ele>222.0</ele><time>2026-05-01T13:03:06.389Z</time></trkpt><trkpt lat="42.2816536" lon="14.1330042"><ele>222.66666666666669</ele><time>2026-05-01T13:03:07.389Z</time></trkpt><trkpt lat="42.281576" lon="14.1329855"><ele>223.33333333333334</ele><time>2026-05-01T13:03:08.39Z</time></trkpt><trkpt lat="42.2814848" lon="14.1329978"><ele>224.0</ele><time>2026-05-01T13:03:09.39Z</time></trkpt><trkpt lat="42.2813807" lon="14.1330269"><ele>224.00000000000003</ele><time>2026-05-01T13:03:10.39Z</time></trkpt><trkpt lat="42.2812793" lon="14.1330616"><ele>224.0</ele><time>2026-05-01T13:03:11.389Z</time></trkpt><trkpt lat="42.2811794" lon="14.1331036"><ele>224.0</ele><time>2026-05-01T13:03:12.389Z</time></trkpt><trkpt lat="42.2810884" lon="14.1331364"><ele>224.0</ele><time>2026-05-01T13:03:13.39Z</time></trkpt><trkpt lat="42.2810227" lon="14.1331476"><ele>224.00000000000003</ele><time>2026-05-01T13:03:14.389Z</time></trkpt><trkpt lat="42.2809575" lon="14.1331251"><ele>224.0</ele><time>2026-05-01T13:03:15.389Z</time></trkpt><trkpt lat="42.2808962" lon="14.1330685"><ele>224.0</ele><time>2026-05-01T13:03:16.389Z</time></trkpt><trkpt lat="42.280817" lon="14.1329874"><ele>223.99999999999997</ele><time>2026-05-01T13:03:17.389Z</time></trkpt><trkpt lat="42.2807365" lon="14.1328941"><ele>223.99999999999997</ele><time>2026-05-01T13:03:18.389Z</time></trkpt><trkpt lat="42.2806449" lon="14.1328221"><ele>224.0</ele><time>2026-05-01T13:03:19.389Z</time></trkpt><trkpt lat="42.2805352" lon="14.1327564"><ele>224.0</ele><time>2026-05-01T13:03:20.39Z</time></trkpt><trkpt lat="42.2804398" lon="14.1327009"><ele>222.83333333333334</ele><time>2026-05-01T13:03:21.389Z</time></trkpt><trkpt lat="42.2803403" lon="14.1326473"><ele>221.66666666666669</ele><time>2026-05-01T13:03:22.389Z</time></trkpt><trkpt lat="42.2802485" lon="14.1325981"><ele>220.5</ele><time>2026-05-01T13:03:23.389Z</time></trkpt><trkpt lat="42.2801703" lon="14.1325497"><ele>219.33333333333331</ele><time>2026-05-01T13:03:24.388Z</time></trkpt><trkpt lat="42.2800991" lon="14.1324937"><ele>218.16666666666666</ele><time>2026-05-01T13:03:25.389Z</time></trkpt><trkpt lat="42.2800318" lon="14.1324514"><ele>217.0</ele><time>2026-05-01T13:03:26.39Z</time></trkpt><trkpt lat="42.2799704" lon="14.1324143"><ele>219.39999999999998</ele><time>2026-05-01T13:03:27.389Z</time></trkpt><trkpt lat="42.2798896" lon="14.132302"><ele>221.79999999999998</ele><time>2026-05-01T13:03:29.388Z</time></trkpt><trkpt lat="42.2798795" lon="14.1322138"><ele>224.2</ele><time>2026-05-01T13:03:30.389Z</time></trkpt><trkpt lat="42.2798566" lon="14.132107"><ele>226.6</ele><time>2026-05-01T13:03:31.389Z</time></trkpt><trkpt lat="42.2798207" lon="14.1319947"><ele>229.0</ele><time>2026-05-01T13:03:32.389Z</time></trkpt><trkpt lat="42.2797854" lon="14.1318701"><ele>227.99999999999997</ele><time>2026-05-01T13:03:33.389Z</time></trkpt><trkpt lat="42.2797498" lon="14.1317423"><ele>227.0</ele><time>2026-05-01T13:03:34.389Z</time></trkpt><trkpt lat="42.2797252" lon="14.1316262"><ele>226.0</ele><time>2026-05-01T13:03:35.389Z</time></trkpt><trkpt lat="42.2797196" lon="14.1315034"><ele>225.0</ele><time>2026-05-01T13:03:37.389Z</time></trkpt><trkpt lat="42.2797863" lon="14.1314743"><ele>223.99999999999997</ele><time>2026-05-01T13:03:39.389Z</time></trkpt><trkpt lat="42.2798571" lon="14.1314869"><ele>223.0</ele><time>2026-05-01T13:03:40.39Z</time></trkpt><trkpt lat="42.2799551" lon="14.1315053"><ele>228.25</ele><time>2026-05-01T13:03:41.388Z</time></trkpt><trkpt lat="42.2800709" lon="14.1315206"><ele>233.5</ele><time>2026-05-01T13:03:42.388Z</time></trkpt><trkpt lat="42.280199" lon="14.1315214"><ele>238.75</ele><time>2026-05-01T13:03:43.389Z</time></trkpt><trkpt lat="42.2803411" lon="14.131503"><ele>244.0</ele><time>2026-05-01T13:03:44.39Z</time></trkpt><trkpt lat="42.2804944" lon="14.1314688"><ele>243.5</ele><time>2026-05-01T13:03:45.39Z</time></trkpt><trkpt lat="42.2806231" lon="14.1314262"><ele>243.0</ele><time>2026-05-01T13:03:46.389Z</time></trkpt><trkpt lat="42.28073" lon="14.1313579"><ele>242.5</ele><time>2026-05-01T13:03:47.389Z</time></trkpt><trkpt lat="42.2808116" lon="14.1312581"><ele>242.0</ele><time>2026-05-01T13:03:48.389Z</time></trkpt><trkpt lat="42.2808717" lon="14.1311232"><ele>242.0</ele><time>2026-05-01T13:03:49.39Z</time></trkpt><trkpt lat="42.2809233" lon="14.1309587"><ele>242.0</ele><time>2026-05-01T13:03:50.39Z</time></trkpt><trkpt lat="42.2809713" lon="14.1307742"><ele>242.0</ele><time>2026-05-01T13:03:51.389Z</time></trkpt><trkpt lat="42.2810165" lon="14.1305739"><ele>242.0</ele><time>2026-05-01T13:03:52.389Z</time></trkpt><trkpt lat="42.2810486" lon="14.1303986"><ele>243.2</ele><time>2026-05-01T13:03:53.39Z</time></trkpt><trkpt lat="42.2810666" lon="14.1302449"><ele>244.39999999999998</ele><time>2026-05-01T13:03:54.39Z</time></trkpt><trkpt lat="42.2810594" lon="14.1301125"><ele>245.60000000000002</ele><time>2026-05-01T13:03:55.389Z</time></trkpt><trkpt lat="42.2810193" lon="14.1300042"><ele>246.8</ele><time>2026-05-01T13:03:56.389Z</time></trkpt><trkpt lat="42.2809553" lon="14.1299223"><ele>248.0</ele><time>2026-05-01T13:03:57.388Z</time></trkpt><trkpt lat="42.2808774" lon="14.1298836"><ele>248.0</ele><time>2026-05-01T13:03:58.389Z</time></trkpt><trkpt lat="42.280793" lon="14.1298987"><ele>248.0</ele><time>2026-05-01T13:03:59.389Z</time></trkpt><trkpt lat="42.2807136" lon="14.1299635"><ele>248.0</ele><time>2026-05-01T13:04:00.389Z</time></trkpt><trkpt lat="42.2806303" lon="14.1300688"><ele>248.0</ele><time>2026-05-01T13:04:01.389Z</time></trkpt><trkpt lat="42.2805313" lon="14.1301899"><ele>248.0</ele><time>2026-05-01T13:04:02.389Z</time></trkpt><trkpt lat="42.2804199" lon="14.1303155"><ele>249.5</ele><time>2026-05-01T13:04:03.388Z</time></trkpt><trkpt lat="42.2803061" lon="14.13042"><ele>251.0</ele><time>2026-05-01T13:04:04.39Z</time></trkpt><trkpt lat="42.2801933" lon="14.1304822"><ele>252.5</ele><time>2026-05-01T13:04:05.39Z</time></trkpt><trkpt lat="42.2800891" lon="14.1304892"><ele>254.0</ele><time>2026-05-01T13:04:06.389Z</time></trkpt><trkpt lat="42.2799829" lon="14.130446"><ele>254.0</ele><time>2026-05-01T13:04:07.389Z</time></trkpt><trkpt lat="42.2798594" lon="14.1303726"><ele>254.0</ele><time>2026-05-01T13:04:08.389Z</time></trkpt><trkpt lat="42.2797175" lon="14.1302869"><ele>254.0</ele><time>2026-05-01T13:04:09.389Z</time></trkpt><trkpt lat="42.2795675" lon="14.1301982"><ele>253.5</ele><time>2026-05-01T13:04:10.389Z</time></trkpt><trkpt lat="42.2794372" lon="14.1300976"><ele>253.0</ele><time>2026-05-01T13:04:11.389Z</time></trkpt><trkpt lat="42.2793566" lon="14.1299867"><ele>252.5</ele><time>2026-05-01T13:04:12.389Z</time></trkpt><trkpt lat="42.2793217" lon="14.1298627"><ele>252.0</ele><time>2026-05-01T13:04:13.389Z</time></trkpt><trkpt lat="42.2793368" lon="14.1297472"><ele>253.6</ele><time>2026-05-01T13:04:14.389Z</time></trkpt><trkpt lat="42.2793932" lon="14.1296574"><ele>255.2</ele><time>2026-05-01T13:04:15.39Z</time></trkpt><trkpt lat="42.2794789" lon="14.1296202"><ele>256.8</ele><time>2026-05-01T13:04:16.389Z</time></trkpt><trkpt lat="42.2795887" lon="14.12961"><ele>258.4</ele><time>2026-05-01T13:04:17.388Z</time></trkpt><trkpt lat="42.2797074" lon="14.1295827"><ele>260.0</ele><time>2026-05-01T13:04:18.389Z</time></trkpt><trkpt lat="42.2798062" lon="14.1295146"><ele>260.0</ele><time>2026-05-01T13:04:19.389Z</time></trkpt><trkpt lat="42.2798947" lon="14.1293951"><ele>260.0</ele><time>2026-05-01T13:04:20.389Z</time></trkpt><trkpt lat="42.279969" lon="14.1292395"><ele>260.0</ele><time>2026-05-01T13:04:21.388Z</time></trkpt><trkpt lat="42.2800402" lon="14.1290623"><ele>260.0</ele><time>2026-05-01T13:04:22.388Z</time></trkpt><trkpt lat="42.2801156" lon="14.1288746"><ele>263.6666666666667</ele><time>2026-05-01T13:04:23.388Z</time></trkpt><trkpt lat="42.2801947" lon="14.1286664"><ele>267.3333333333333</ele><time>2026-05-01T13:04:24.388Z</time></trkpt><trkpt lat="42.280269" lon="14.1284853"><ele>271.0</ele><time>2026-05-01T13:04:25.389Z</time></trkpt><trkpt lat="42.2803603" lon="14.1283441"><ele>271.0</ele><time>2026-05-01T13:04:26.388Z</time></trkpt><trkpt lat="42.2804842" lon="14.128232"><ele>271.0</ele><time>2026-05-01T13:04:27.388Z</time></trkpt><trkpt lat="42.2806344" lon="14.1281256"><ele>271.0</ele><time>2026-05-01T13:04:28.388Z</time></trkpt><trkpt lat="42.2807873" lon="14.1280463"><ele>272.5</ele><time>2026-05-01T13:04:29.388Z</time></trkpt><trkpt lat="42.2809128" lon="14.1279715"><ele>274.0</ele><time>2026-05-01T13:04:30.388Z</time></trkpt><trkpt lat="42.281005" lon="14.1278868"><ele>275.5</ele><time>2026-05-01T13:04:31.389Z</time></trkpt><trkpt lat="42.2810677" lon="14.1277794"><ele>277.0</ele><time>2026-05-01T13:04:32.387Z</time></trkpt><trkpt lat="42.2810885" lon="14.127644"><ele>277.0</ele><time>2026-05-01T13:04:33.387Z</time></trkpt><trkpt lat="42.2810625" lon="14.1275118"><ele>277.0</ele><time>2026-05-01T13:04:34.388Z</time></trkpt><trkpt lat="42.281001" lon="14.1274051"><ele>277.0</ele><time>2026-05-01T13:04:35.388Z</time></trkpt><trkpt lat="42.2809159" lon="14.1273356"><ele>277.0</ele><time>2026-05-01T13:04:36.388Z</time></trkpt><trkpt lat="42.2808034" lon="14.1273035"><ele>277.0</ele><time>2026-05-01T13:04:37.388Z</time></trkpt><trkpt lat="42.2806627" lon="14.1273122"><ele>280.66666666666663</ele><time>2026-05-01T13:04:38.388Z</time></trkpt><trkpt lat="42.2805024" lon="14.1273324"><ele>284.3333333333333</ele><time>2026-05-01T13:04:39.389Z</time></trkpt><trkpt lat="42.2803255" lon="14.1273507"><ele>288.0</ele><time>2026-05-01T13:04:40.388Z</time></trkpt><trkpt lat="42.2801281" lon="14.1273701"><ele>288.0</ele><time>2026-05-01T13:04:41.389Z</time></trkpt><trkpt lat="42.279919" lon="14.1273913"><ele>288.0</ele><time>2026-05-01T13:04:42.388Z</time></trkpt><trkpt lat="42.2797073" lon="14.1274162"><ele>288.0</ele><time>2026-05-01T13:04:43.388Z</time></trkpt><trkpt lat="42.2795086" lon="14.1274372"><ele>286.0</ele><time>2026-05-01T13:04:44.389Z</time></trkpt><trkpt lat="42.2793297" lon="14.1274562"><ele>284.0</ele><time>2026-05-01T13:04:45.388Z</time></trkpt><trkpt lat="42.2791753" lon="14.1274768"><ele>282.0</ele><time>2026-05-01T13:04:46.388Z</time></trkpt><trkpt lat="42.2790584" lon="14.1274862"><ele>282.0</ele><time>2026-05-01T13:04:47.388Z</time></trkpt><trkpt lat="42.2789561" lon="14.127501"><ele>282.0</ele><time>2026-05-01T13:04:48.388Z</time></trkpt><trkpt lat="42.2788605" lon="14.127518"><ele>282.0</ele><time>2026-05-01T13:04:49.389Z</time></trkpt><trkpt lat="42.2787687" lon="14.1275104"><ele>282.0</ele><time>2026-05-01T13:04:50.388Z</time></trkpt><trkpt lat="42.2786714" lon="14.1274682"><ele>282.0</ele><time>2026-05-01T13:04:51.388Z</time></trkpt><trkpt lat="42.278588" lon="14.1274015"><ele>283.2</ele><time>2026-05-01T13:04:52.388Z</time></trkpt><trkpt lat="42.2785173" lon="14.1273207"><ele>284.4</ele><time>2026-05-01T13:04:53.387Z</time></trkpt><trkpt lat="42.2784761" lon="14.1272449"><ele>285.6</ele><time>2026-05-01T13:04:54.387Z</time></trkpt><trkpt lat="42.2784437" lon="14.1270725"><ele>286.8</ele><time>2026-05-01T13:04:56.388Z</time></trkpt><trkpt lat="42.2784442" lon="14.1269861"><ele>288.0</ele><time>2026-05-01T13:04:57.388Z</time></trkpt><trkpt lat="42.2784405" lon="14.1268564"><ele>288.0</ele><time>2026-05-01T13:04:59.387Z</time></trkpt><trkpt lat="42.2784096" lon="14.1269559"><ele>288.0</ele><time>2026-05-01T13:05:02.388Z</time></trkpt><trkpt lat="42.2784101" lon="14.1270455"><ele>288.0</ele><time>2026-05-01T13:05:03.387Z</time></trkpt><trkpt lat="42.2784221" lon="14.1271689"><ele>288.0</ele><time>2026-05-01T13:05:04.388Z</time></trkpt><trkpt lat="42.2784837" lon="14.1273032"><ele>288.0</ele><time>2026-05-01T13:05:05.389Z</time></trkpt><trkpt lat="42.2785705" lon="14.127411"><ele>287.2</ele><time>2026-05-01T13:05:06.388Z</time></trkpt><trkpt lat="42.2786789" lon="14.1274832"><ele>286.4</ele><time>2026-05-01T13:05:07.388Z</time></trkpt><trkpt lat="42.2788002" lon="14.1275141"><ele>285.59999999999997</ele><time>2026-05-01T13:05:08.389Z</time></trkpt><trkpt lat="42.2788938" lon="14.1275148"><ele>284.8</ele><time>2026-05-01T13:05:09.389Z</time></trkpt><trkpt lat="42.2789696" lon="14.1275098"><ele>284.0</ele><time>2026-05-01T13:05:10.388Z</time></trkpt><trkpt lat="42.2790667" lon="14.1275119"><ele>284.0</ele><time>2026-05-01T13:05:11.389Z</time></trkpt><trkpt lat="42.2791453" lon="14.1275035"><ele>284.0</ele><time>2026-05-01T13:05:12.388Z</time></trkpt><trkpt lat="42.2791617" lon="14.1275943"><ele>284.0</ele><time>2026-05-01T13:05:18.388Z</time></trkpt><trkpt lat="42.2790779" lon="14.1276238"><ele>284.0</ele><time>2026-05-01T13:05:20.389Z</time></trkpt><trkpt lat="42.2789868" lon="14.1276228"><ele>284.0</ele><time>2026-05-01T13:05:21.388Z</time></trkpt><trkpt lat="42.2788909" lon="14.1276273"><ele>284.0</ele><time>2026-05-01T13:05:22.388Z</time></trkpt><trkpt lat="42.278782" lon="14.127628"><ele>284.0</ele><time>2026-05-01T13:05:23.387Z</time></trkpt><trkpt lat="42.2786685" lon="14.1276217"><ele>284.0</ele><time>2026-05-01T13:05:24.388Z</time></trkpt><trkpt lat="42.2785507" lon="14.1276172"><ele>284.0</ele><time>2026-05-01T13:05:25.388Z</time></trkpt><trkpt lat="42.2784272" lon="14.1276085"><ele>284.0</ele><time>2026-05-01T13:05:26.388Z</time></trkpt><trkpt lat="42.2783148" lon="14.1275966"><ele>284.0</ele><time>2026-05-01T13:05:27.388Z</time></trkpt><trkpt lat="42.2782166" lon="14.1275815"><ele>284.0</ele><time>2026-05-01T13:05:28.388Z</time></trkpt><trkpt lat="42.2781043" lon="14.1275604"><ele>284.0</ele><time>2026-05-01T13:05:29.388Z</time></trkpt><trkpt lat="42.2779815" lon="14.1275212"><ele>284.0</ele><time>2026-05-01T13:05:30.387Z</time></trkpt><trkpt lat="42.2778472" lon="14.1274688"><ele>284.5</ele><time>2026-05-01T13:05:31.388Z</time></trkpt><trkpt lat="42.2777247" lon="14.1274228"><ele>285.0</ele><time>2026-05-01T13:05:32.387Z</time></trkpt><trkpt lat="42.277614" lon="14.1273919"><ele>285.5</ele><time>2026-05-01T13:05:33.388Z</time></trkpt><trkpt lat="42.2775033" lon="14.1273744"><ele>286.0</ele><time>2026-05-01T13:05:34.387Z</time></trkpt><trkpt lat="42.2773919" lon="14.1273804"><ele>287.6</ele><time>2026-05-01T13:05:35.389Z</time></trkpt><trkpt lat="42.2772819" lon="14.1273884"><ele>289.20000000000005</ele><time>2026-05-01T13:05:36.388Z</time></trkpt><trkpt lat="42.277188" lon="14.1273913"><ele>290.79999999999995</ele><time>2026-05-01T13:05:37.388Z</time></trkpt><trkpt lat="42.2770957" lon="14.1273821"><ele>292.4</ele><time>2026-05-01T13:05:38.388Z</time></trkpt><trkpt lat="42.2769998" lon="14.1273508"><ele>294.0</ele><time>2026-05-01T13:05:39.387Z</time></trkpt><trkpt lat="42.2769016" lon="14.1272986"><ele>294.5</ele><time>2026-05-01T13:05:40.388Z</time></trkpt><trkpt lat="42.2768021" lon="14.1272528"><ele>295.0</ele><time>2026-05-01T13:05:41.387Z</time></trkpt><trkpt lat="42.2767186" lon="14.1272023"><ele>295.5</ele><time>2026-05-01T13:05:42.388Z</time></trkpt><trkpt lat="42.2766473" lon="14.1271895"><ele>296.0</ele><time>2026-05-01T13:05:43.388Z</time></trkpt><trkpt lat="42.2765833" lon="14.1272095"><ele>296.5</ele><time>2026-05-01T13:05:44.389Z</time></trkpt><trkpt lat="42.2765218" lon="14.127263"><ele>297.0</ele><time>2026-05-01T13:05:45.388Z</time></trkpt><trkpt lat="42.2764583" lon="14.1273497"><ele>296.75</ele><time>2026-05-01T13:05:46.387Z</time></trkpt><trkpt lat="42.2763904" lon="14.1274606"><ele>296.5</ele><time>2026-05-01T13:05:47.388Z</time></trkpt><trkpt lat="42.2763117" lon="14.1275857"><ele>296.25</ele><time>2026-05-01T13:05:48.388Z</time></trkpt><trkpt lat="42.2762346" lon="14.1277075"><ele>296.0</ele><time>2026-05-01T13:05:49.388Z</time></trkpt><trkpt lat="42.2761535" lon="14.1278067"><ele>296.0</ele><time>2026-05-01T13:05:50.388Z</time></trkpt><trkpt lat="42.2760712" lon="14.127881"><ele>296.0</ele><time>2026-05-01T13:05:51.388Z</time></trkpt><trkpt lat="42.2759778" lon="14.1279306"><ele>296.0</ele><time>2026-05-01T13:05:52.388Z</time></trkpt><trkpt lat="42.2758708" lon="14.1279611"><ele>296.0</ele><time>2026-05-01T13:05:53.387Z</time></trkpt><trkpt lat="42.2757559" lon="14.1279923"><ele>296.0</ele><time>2026-05-01T13:05:54.389Z</time></trkpt><trkpt lat="42.2756283" lon="14.1280266"><ele>296.8</ele><time>2026-05-01T13:05:55.388Z</time></trkpt><trkpt lat="42.2755111" lon="14.1280699"><ele>297.6</ele><time>2026-05-01T13:05:56.388Z</time></trkpt><trkpt lat="42.275394" lon="14.1281308"><ele>298.4</ele><time>2026-05-01T13:05:57.387Z</time></trkpt><trkpt lat="42.2753403" lon="14.1282137"><ele>299.2</ele><time>2026-05-01T13:05:58.388Z</time></trkpt><trkpt lat="42.2752635" lon="14.1282743"><ele>300.0</ele><time>2026-05-01T13:05:59.388Z</time></trkpt><trkpt lat="42.2752047" lon="14.1283141"><ele>300.6</ele><time>2026-05-01T13:06:00.388Z</time></trkpt><trkpt lat="42.2751655" lon="14.1281771"><ele>301.2</ele><time>2026-05-01T13:06:02.388Z</time></trkpt><trkpt lat="42.2751285" lon="14.1280746"><ele>301.8</ele><time>2026-05-01T13:06:03.387Z</time></trkpt><trkpt lat="42.2750913" lon="14.1279366"><ele>302.4</ele><time>2026-05-01T13:06:04.388Z</time></trkpt><trkpt lat="42.275047" lon="14.1277861"><ele>303.0</ele><time>2026-05-01T13:06:05.388Z</time></trkpt><trkpt lat="42.2749928" lon="14.127622"><ele>303.0</ele><time>2026-05-01T13:06:06.388Z</time></trkpt><trkpt lat="42.2749322" lon="14.1274501"><ele>303.0</ele><time>2026-05-01T13:06:07.388Z</time></trkpt><trkpt lat="42.2748695" lon="14.1272643"><ele>303.0</ele><time>2026-05-01T13:06:08.388Z</time></trkpt><trkpt lat="42.274816" lon="14.1270842"><ele>303.0</ele><time>2026-05-01T13:06:09.388Z</time></trkpt><trkpt lat="42.2747652" lon="14.1269074"><ele>302.2</ele><time>2026-05-01T13:06:10.387Z</time></trkpt><trkpt lat="42.2747283" lon="14.1267501"><ele>301.4</ele><time>2026-05-01T13:06:11.388Z</time></trkpt><trkpt lat="42.2746951" lon="14.126604"><ele>300.59999999999997</ele><time>2026-05-01T13:06:12.388Z</time></trkpt><trkpt lat="42.2746603" lon="14.1264701"><ele>299.8</ele><time>2026-05-01T13:06:13.388Z</time></trkpt><trkpt lat="42.2746349" lon="14.1263391"><ele>299.0</ele><time>2026-05-01T13:06:14.387Z</time></trkpt><trkpt lat="42.2746389" lon="14.1261947"><ele>297.25</ele><time>2026-05-01T13:06:15.388Z</time></trkpt><trkpt lat="42.2746605" lon="14.1260144"><ele>295.5</ele><time>2026-05-01T13:06:16.388Z</time></trkpt><trkpt lat="42.2746972" lon="14.1258225"><ele>293.75</ele><time>2026-05-01T13:06:17.388Z</time></trkpt><trkpt lat="42.2747482" lon="14.1256153"><ele>292.0</ele><time>2026-05-01T13:06:18.387Z</time></trkpt><trkpt lat="42.2748111" lon="14.1254064"><ele>298.75</ele><time>2026-05-01T13:06:19.387Z</time></trkpt><trkpt lat="42.2748719" lon="14.1252008"><ele>305.5</ele><time>2026-05-01T13:06:20.388Z</time></trkpt><trkpt lat="42.2749235" lon="14.1250271"><ele>312.25</ele><time>2026-05-01T13:06:21.388Z</time></trkpt><trkpt lat="42.27497" lon="14.1248914"><ele>319.0</ele><time>2026-05-01T13:06:22.389Z</time></trkpt><trkpt lat="42.2750131" lon="14.1247754"><ele>320.3333333333333</ele><time>2026-05-01T13:06:23.389Z</time></trkpt><trkpt lat="42.275061" lon="14.1246664"><ele>321.66666666666663</ele><time>2026-05-01T13:06:24.387Z</time></trkpt><trkpt lat="42.2751096" lon="14.1245556"><ele>323.0</ele><time>2026-05-01T13:06:25.387Z</time></trkpt><trkpt lat="42.2751598" lon="14.1244476"><ele>324.3333333333333</ele><time>2026-05-01T13:06:26.387Z</time></trkpt><trkpt lat="42.2752036" lon="14.1243632"><ele>325.6666666666667</ele><time>2026-05-01T13:06:27.388Z</time></trkpt><trkpt lat="42.2752499" lon="14.1242845"><ele>327.0</ele><time>2026-05-01T13:06:29.389Z</time></trkpt><trkpt lat="42.2752622" lon="14.1241936"><ele>327.0</ele><time>2026-05-01T13:06:31.388Z</time></trkpt><trkpt lat="42.2752234" lon="14.1240877"><ele>327.0</ele><time>2026-05-01T13:06:33.389Z</time></trkpt><trkpt lat="42.2751946" lon="14.1239626"><ele>327.0</ele><time>2026-05-01T13:06:35.388Z</time></trkpt><trkpt lat="42.2751745" lon="14.1238445"><ele>327.0</ele><time>2026-05-01T13:06:37.387Z</time></trkpt><trkpt lat="42.2751404" lon="14.1236662"><ele>327.0</ele><time>2026-05-01T13:06:39.388Z</time></trkpt><trkpt lat="42.2751155" lon="14.1235584"><ele>326.6666666666667</ele><time>2026-05-01T13:06:40.388Z</time></trkpt><trkpt lat="42.2751072" lon="14.1234675"><ele>326.3333333333333</ele><time>2026-05-01T13:06:41.387Z</time></trkpt><trkpt lat="42.2751088" lon="14.1233788"><ele>326.0</ele><time>2026-05-01T13:06:42.388Z</time></trkpt><trkpt lat="42.2750978" lon="14.123262"><ele>325.66666666666663</ele><time>2026-05-01T13:06:44.388Z</time></trkpt><trkpt lat="42.2750221" lon="14.1231963"><ele>325.3333333333333</ele><time>2026-05-01T13:06:48.387Z</time></trkpt><trkpt lat="42.2749272" lon="14.1231498"><ele>325.0</ele><time>2026-05-01T13:06:50.386Z</time></trkpt><trkpt lat="42.2748638" lon="14.1231368"><ele>324.16666666666663</ele><time>2026-05-01T13:06:51.387Z</time></trkpt><trkpt lat="42.2748008" lon="14.1231133"><ele>323.3333333333333</ele><time>2026-05-01T13:06:52.387Z</time></trkpt><trkpt lat="42.2747177" lon="14.1230914"><ele>322.5</ele><time>2026-05-01T13:06:53.386Z</time></trkpt><trkpt lat="42.2746161" lon="14.1230741"><ele>321.6666666666667</ele><time>2026-05-01T13:06:54.386Z</time></trkpt><trkpt lat="42.274532" lon="14.1230513"><ele>320.83333333333337</ele><time>2026-05-01T13:06:55.387Z</time></trkpt><trkpt lat="42.2744396" lon="14.1230066"><ele>320.0</ele><time>2026-05-01T13:06:56.387Z</time></trkpt><trkpt lat="42.2743408" lon="14.1229459"><ele>320.0</ele><time>2026-05-01T13:06:57.388Z</time></trkpt><trkpt lat="42.2742419" lon="14.1228823"><ele>320.0</ele><time>2026-05-01T13:06:58.387Z</time></trkpt><trkpt lat="42.2741668" lon="14.122817"><ele>320.0</ele><time>2026-05-01T13:06:59.387Z</time></trkpt><trkpt lat="42.2741048" lon="14.1227359"><ele>320.0</ele><time>2026-05-01T13:07:00.387Z</time></trkpt><trkpt lat="42.2740546" lon="14.1226317"><ele>320.0</ele><time>2026-05-01T13:07:01.386Z</time></trkpt><trkpt lat="42.2740036" lon="14.1225118"><ele>320.0</ele><time>2026-05-01T13:07:02.386Z</time></trkpt><trkpt lat="42.2739434" lon="14.1224045"><ele>320.0</ele><time>2026-05-01T13:07:03.386Z</time></trkpt><trkpt lat="42.2738668" lon="14.122311"><ele>320.0</ele><time>2026-05-01T13:07:04.387Z</time></trkpt><trkpt lat="42.2737996" lon="14.1222362"><ele>320.0</ele><time>2026-05-01T13:07:05.386Z</time></trkpt><trkpt lat="42.2737433" lon="14.1221529"><ele>320.0</ele><time>2026-05-01T13:07:06.387Z</time></trkpt><trkpt lat="42.2737092" lon="14.1220606"><ele>316.83333333333337</ele><time>2026-05-01T13:07:07.386Z</time></trkpt><trkpt lat="42.2736844" lon="14.1219573"><ele>313.6666666666667</ele><time>2026-05-01T13:07:08.387Z</time></trkpt><trkpt lat="42.2736579" lon="14.121838"><ele>310.5</ele><time>2026-05-01T13:07:09.387Z</time></trkpt><trkpt lat="42.2736193" lon="14.1217276"><ele>307.3333333333333</ele><time>2026-05-01T13:07:10.387Z</time></trkpt><trkpt lat="42.2735724" lon="14.1216346"><ele>304.16666666666663</ele><time>2026-05-01T13:07:11.387Z</time></trkpt><trkpt lat="42.2735153" lon="14.1215608"><ele>301.0</ele><time>2026-05-01T13:07:12.386Z</time></trkpt><trkpt lat="42.273454" lon="14.1214953"><ele>300.5</ele><time>2026-05-01T13:07:13.386Z</time></trkpt><trkpt lat="42.2733894" lon="14.1214304"><ele>300.0</ele><time>2026-05-01T13:07:14.386Z</time></trkpt><trkpt lat="42.2733379" lon="14.1213726"><ele>299.5</ele><time>2026-05-01T13:07:15.387Z</time></trkpt><trkpt lat="42.273293" lon="14.1212914"><ele>299.0</ele><time>2026-05-01T13:07:16.387Z</time></trkpt><trkpt lat="42.273268" lon="14.1212017"><ele>298.5</ele><time>2026-05-01T13:07:17.388Z</time></trkpt><trkpt lat="42.2732318" lon="14.1211215"><ele>298.0</ele><time>2026-05-01T13:07:18.388Z</time></trkpt><trkpt lat="42.2731595" lon="14.1210451"><ele>296.8</ele><time>2026-05-01T13:07:19.387Z</time></trkpt><trkpt lat="42.2730729" lon="14.1209909"><ele>295.6</ele><time>2026-05-01T13:07:20.387Z</time></trkpt><trkpt lat="42.2729806" lon="14.1209243"><ele>294.4</ele><time>2026-05-01T13:07:21.387Z</time></trkpt><trkpt lat="42.2728927" lon="14.1208585"><ele>293.2</ele><time>2026-05-01T13:07:22.387Z</time></trkpt><trkpt lat="42.2728072" lon="14.1208041"><ele>292.0</ele><time>2026-05-01T13:07:23.387Z</time></trkpt><trkpt lat="42.2727334" lon="14.1207602"><ele>290.5</ele><time>2026-05-01T13:07:24.387Z</time></trkpt><trkpt lat="42.2726684" lon="14.1207236"><ele>289.0</ele><time>2026-05-01T13:07:25.387Z</time></trkpt><trkpt lat="42.2726034" lon="14.12068"><ele>287.5</ele><time>2026-05-01T13:07:26.387Z</time></trkpt><trkpt lat="42.2725249" lon="14.1206175"><ele>286.0</ele><time>2026-05-01T13:07:27.386Z</time></trkpt><trkpt lat="42.2724382" lon="14.1205433"><ele>284.5</ele><time>2026-05-01T13:07:28.387Z</time></trkpt><trkpt lat="42.2723607" lon="14.1204741"><ele>283.0</ele><time>2026-05-01T13:07:29.386Z</time></trkpt><trkpt lat="42.2722865" lon="14.1204155"><ele>282.66666666666663</ele><time>2026-05-01T13:07:30.387Z</time></trkpt><trkpt lat="42.2722081" lon="14.1203612"><ele>282.3333333333333</ele><time>2026-05-01T13:07:31.386Z</time></trkpt><trkpt lat="42.2721359" lon="14.1202976"><ele>282.0</ele><time>2026-05-01T13:07:32.387Z</time></trkpt><trkpt lat="42.2720623" lon="14.1202401"><ele>281.6666666666667</ele><time>2026-05-01T13:07:33.386Z</time></trkpt><trkpt lat="42.2719857" lon="14.1201769"><ele>281.33333333333337</ele><time>2026-05-01T13:07:34.387Z</time></trkpt><trkpt lat="42.2719117" lon="14.1201117"><ele>281.0</ele><time>2026-05-01T13:07:35.387Z</time></trkpt><trkpt lat="42.2718439" lon="14.1200534"><ele>281.0</ele><time>2026-05-01T13:07:36.388Z</time></trkpt><trkpt lat="42.2717662" lon="14.1199897"><ele>281.0</ele><time>2026-05-01T13:07:37.387Z</time></trkpt><trkpt lat="42.2716836" lon="14.1199288"><ele>281.0</ele><time>2026-05-01T13:07:38.388Z</time></trkpt><trkpt lat="42.2716085" lon="14.1198664"><ele>281.0</ele><time>2026-05-01T13:07:39.388Z</time></trkpt><trkpt lat="42.2715508" lon="14.1197919"><ele>281.0</ele><time>2026-05-01T13:07:40.387Z</time></trkpt><trkpt lat="42.271503" lon="14.1196996"><ele>281.0</ele><time>2026-05-01T13:07:41.387Z</time></trkpt><trkpt lat="42.2714648" lon="14.1195883"><ele>280.40000000000003</ele><time>2026-05-01T13:07:42.387Z</time></trkpt><trkpt lat="42.2714278" lon="14.1194587"><ele>279.8</ele><time>2026-05-01T13:07:43.387Z</time></trkpt><trkpt lat="42.2713845" lon="14.1193353"><ele>279.20000000000005</ele><time>2026-05-01T13:07:44.386Z</time></trkpt><trkpt lat="42.2713437" lon="14.1192206"><ele>278.6</ele><time>2026-05-01T13:07:45.386Z</time></trkpt><trkpt lat="42.2712974" lon="14.1190998"><ele>278.0</ele><time>2026-05-01T13:07:46.386Z</time></trkpt><trkpt lat="42.2712476" lon="14.1189899"><ele>277.33333333333337</ele><time>2026-05-01T13:07:47.387Z</time></trkpt><trkpt lat="42.2711857" lon="14.1188957"><ele>276.6666666666667</ele><time>2026-05-01T13:07:48.386Z</time></trkpt><trkpt lat="42.271114" lon="14.1188308"><ele>276.0</ele><time>2026-05-01T13:07:49.387Z</time></trkpt><trkpt lat="42.2710513" lon="14.1187982"><ele>275.3333333333333</ele><time>2026-05-01T13:07:50.386Z</time></trkpt><trkpt lat="42.2709778" lon="14.1187873"><ele>274.66666666666663</ele><time>2026-05-01T13:07:51.386Z</time></trkpt><trkpt lat="42.2708907" lon="14.118781"><ele>274.0</ele><time>2026-05-01T13:07:52.387Z</time></trkpt><trkpt lat="42.2707949" lon="14.1187659"><ele>274.0</ele><time>2026-05-01T13:07:53.387Z</time></trkpt><trkpt lat="42.2706982" lon="14.1187483"><ele>274.0</ele><time>2026-05-01T13:07:54.387Z</time></trkpt><trkpt lat="42.2705841" lon="14.1187282"><ele>274.0</ele><time>2026-05-01T13:07:55.388Z</time></trkpt><trkpt lat="42.2704755" lon="14.1187079"><ele>274.0</ele><time>2026-05-01T13:07:56.387Z</time></trkpt><trkpt lat="42.2703677" lon="14.1186742"><ele>274.0</ele><time>2026-05-01T13:07:57.387Z</time></trkpt><trkpt lat="42.2702601" lon="14.11862"><ele>275.59999999999997</ele><time>2026-05-01T13:07:58.387Z</time></trkpt><trkpt lat="42.2701487" lon="14.118566"><ele>277.2</ele><time>2026-05-01T13:07:59.387Z</time></trkpt><trkpt lat="42.270037" lon="14.1185112"><ele>278.79999999999995</ele><time>2026-05-01T13:08:00.387Z</time></trkpt><trkpt lat="42.2699483" lon="14.1184584"><ele>280.4</ele><time>2026-05-01T13:08:01.387Z</time></trkpt><trkpt lat="42.2698754" lon="14.1184081"><ele>282.0</ele><time>2026-05-01T13:08:02.388Z</time></trkpt><trkpt lat="42.2698209" lon="14.1183563"><ele>280.6666666666667</ele><time>2026-05-01T13:08:03.388Z</time></trkpt><trkpt lat="42.2697629" lon="14.1183095"><ele>279.3333333333333</ele><time>2026-05-01T13:08:04.387Z</time></trkpt><trkpt lat="42.2697098" lon="14.1182557"><ele>278.0</ele><time>2026-05-01T13:08:05.387Z</time></trkpt><trkpt lat="42.2696484" lon="14.1181859"><ele>276.66666666666663</ele><time>2026-05-01T13:08:06.388Z</time></trkpt><trkpt lat="42.2695887" lon="14.1181176"><ele>275.3333333333333</ele><time>2026-05-01T13:08:07.387Z</time></trkpt><trkpt lat="42.269533" lon="14.118042"><ele>274.0</ele><time>2026-05-01T13:08:08.387Z</time></trkpt><trkpt lat="42.2694799" lon="14.1179446"><ele>273.0</ele><time>2026-05-01T13:08:09.387Z</time></trkpt><trkpt lat="42.2694371" lon="14.1178217"><ele>272.0</ele><time>2026-05-01T13:08:10.387Z</time></trkpt><trkpt lat="42.2694181" lon="14.1176838"><ele>271.0</ele><time>2026-05-01T13:08:11.387Z</time></trkpt><trkpt lat="42.2694177" lon="14.1175349"><ele>270.0</ele><time>2026-05-01T13:08:12.387Z</time></trkpt><trkpt lat="42.2694495" lon="14.1173934"><ele>269.0</ele><time>2026-05-01T13:08:13.388Z</time></trkpt><trkpt lat="42.2695045" lon="14.1172573"><ele>267.0</ele><time>2026-05-01T13:08:14.386Z</time></trkpt><trkpt lat="42.2695626" lon="14.1171293"><ele>265.0</ele><time>2026-05-01T13:08:15.386Z</time></trkpt><trkpt lat="42.2695961" lon="14.1169897"><ele>263.0</ele><time>2026-05-01T13:08:16.387Z</time></trkpt><trkpt lat="42.2696256" lon="14.1168576"><ele>261.0</ele><time>2026-05-01T13:08:17.387Z</time></trkpt><trkpt lat="42.2696056" lon="14.1167265"><ele>259.0</ele><time>2026-05-01T13:08:18.387Z</time></trkpt><trkpt lat="42.2695964" lon="14.1166083"><ele>257.8</ele><time>2026-05-01T13:08:19.387Z</time></trkpt><trkpt lat="42.2696016" lon="14.1164659"><ele>256.59999999999997</ele><time>2026-05-01T13:08:20.388Z</time></trkpt><trkpt lat="42.2696047" lon="14.1163071"><ele>255.4</ele><time>2026-05-01T13:08:21.388Z</time></trkpt><trkpt lat="42.2696007" lon="14.1161589"><ele>254.2</ele><time>2026-05-01T13:08:22.387Z</time></trkpt><trkpt lat="42.2695776" lon="14.1160139"><ele>253.0</ele><time>2026-05-01T13:08:23.387Z</time></trkpt><trkpt lat="42.2695356" lon="14.1158837"><ele>253.0</ele><time>2026-05-01T13:08:24.387Z</time></trkpt><trkpt lat="42.2694717" lon="14.1157812"><ele>253.0</ele><time>2026-05-01T13:08:25.387Z</time></trkpt><trkpt lat="42.2693921" lon="14.1157026"><ele>253.0</ele><time>2026-05-01T13:08:26.388Z</time></trkpt><trkpt lat="42.2693003" lon="14.1156292"><ele>253.0</ele><time>2026-05-01T13:08:27.387Z</time></trkpt><trkpt lat="42.2692262" lon="14.1155572"><ele>253.0</ele><time>2026-05-01T13:08:28.387Z</time></trkpt><trkpt lat="42.2691791" lon="14.1154886"><ele>251.8</ele><time>2026-05-01T13:08:29.386Z</time></trkpt><trkpt lat="42.2691337" lon="14.1154069"><ele>250.60000000000002</ele><time>2026-05-01T13:08:30.387Z</time></trkpt><trkpt lat="42.2690896" lon="14.1153139"><ele>249.39999999999998</ele><time>2026-05-01T13:08:31.386Z</time></trkpt><trkpt lat="42.2690351" lon="14.1151629"><ele>248.2</ele><time>2026-05-01T13:08:33.388Z</time></trkpt><trkpt lat="42.2690043" lon="14.115032"><ele>247.0</ele><time>2026-05-01T13:08:35.386Z</time></trkpt><trkpt lat="42.2689617" lon="14.1149303"><ele>243.99999999999997</ele><time>2026-05-01T13:08:37.387Z</time></trkpt><trkpt lat="42.2689209" lon="14.1148111"><ele>241.0</ele><time>2026-05-01T13:08:39.387Z</time></trkpt><trkpt lat="42.2688829" lon="14.1147348"><ele>238.0</ele><time>2026-05-01T13:08:40.387Z</time></trkpt><trkpt lat="42.268846" lon="14.1145801"><ele>235.0</ele><time>2026-05-01T13:08:42.387Z</time></trkpt><trkpt lat="42.2688326" lon="14.1144936"><ele>231.99999999999997</ele><time>2026-05-01T13:08:43.387Z</time></trkpt><trkpt lat="42.2688124" lon="14.1143993"><ele>229.0</ele><time>2026-05-01T13:08:44.387Z</time></trkpt><trkpt lat="42.2687943" lon="14.1142881"><ele>228.99999999999997</ele><time>2026-05-01T13:08:45.387Z</time></trkpt><trkpt lat="42.2687756" lon="14.1141823"><ele>229.0</ele><time>2026-05-01T13:08:46.387Z</time></trkpt><trkpt lat="42.2687462" lon="14.1140725"><ele>229.0</ele><time>2026-05-01T13:08:47.388Z</time></trkpt><trkpt lat="42.2687031" lon="14.1139874"><ele>229.0</ele><time>2026-05-01T13:08:48.387Z</time></trkpt><trkpt lat="42.2686465" lon="14.1139183"><ele>228.99999999999997</ele><time>2026-05-01T13:08:49.386Z</time></trkpt><trkpt lat="42.2685726" lon="14.1138605"><ele>229.0</ele><time>2026-05-01T13:08:50.387Z</time></trkpt><trkpt lat="42.268482" lon="14.1137883"><ele>229.0</ele><time>2026-05-01T13:08:51.387Z</time></trkpt><trkpt lat="42.2683836" lon="14.1137011"><ele>229.0</ele><time>2026-05-01T13:08:52.387Z</time></trkpt><trkpt lat="42.2682742" lon="14.1136213"><ele>229.0</ele><time>2026-05-01T13:08:53.388Z</time></trkpt><trkpt lat="42.268167" lon="14.1135457"><ele>229.0</ele><time>2026-05-01T13:08:54.387Z</time></trkpt><trkpt lat="42.2680813" lon="14.1134413"><ele>228.5</ele><time>2026-05-01T13:08:55.388Z</time></trkpt><trkpt lat="42.2679882" lon="14.1133002"><ele>228.0</ele><time>2026-05-01T13:08:56.387Z</time></trkpt><trkpt lat="42.2679104" lon="14.1131583"><ele>227.5</ele><time>2026-05-01T13:08:57.388Z</time></trkpt><trkpt lat="42.267853" lon="14.1130233"><ele>227.0</ele><time>2026-05-01T13:08:58.388Z</time></trkpt><trkpt lat="42.2677823" lon="14.1128949"><ele>228.5</ele><time>2026-05-01T13:08:59.387Z</time></trkpt><trkpt lat="42.2676886" lon="14.1127797"><ele>230.0</ele><time>2026-05-01T13:09:00.387Z</time></trkpt><trkpt lat="42.2675798" lon="14.1126608"><ele>231.5</ele><time>2026-05-01T13:09:01.387Z</time></trkpt><trkpt lat="42.2674933" lon="14.1125557"><ele>233.0</ele><time>2026-05-01T13:09:02.387Z</time></trkpt><trkpt lat="42.2674411" lon="14.1124262"><ele>232.0</ele><time>2026-05-01T13:09:03.388Z</time></trkpt><trkpt lat="42.2673991" lon="14.1122642"><ele>231.0</ele><time>2026-05-01T13:09:04.387Z</time></trkpt><trkpt lat="42.2673574" lon="14.1120767"><ele>230.0</ele><time>2026-05-01T13:09:05.387Z</time></trkpt><trkpt lat="42.2673115" lon="14.111889"><ele>229.0</ele><time>2026-05-01T13:09:06.386Z</time></trkpt><trkpt lat="42.2672629" lon="14.1117021"><ele>232.75</ele><time>2026-05-01T13:09:07.386Z</time></trkpt><trkpt lat="42.2672173" lon="14.111521"><ele>236.5</ele><time>2026-05-01T13:09:08.386Z</time></trkpt><trkpt lat="42.2671616" lon="14.1113391"><ele>240.25</ele><time>2026-05-01T13:09:09.388Z</time></trkpt><trkpt lat="42.2670964" lon="14.1111435"><ele>244.0</ele><time>2026-05-01T13:09:10.387Z</time></trkpt><trkpt lat="42.2670349" lon="14.1109694"><ele>244.0</ele><time>2026-05-01T13:09:11.388Z</time></trkpt><trkpt lat="42.2669888" lon="14.1108238"><ele>244.0</ele><time>2026-05-01T13:09:12.387Z</time></trkpt><trkpt lat="42.2669418" lon="14.1106859"><ele>244.0</ele><time>2026-05-01T13:09:13.385Z</time></trkpt><trkpt lat="42.2669053" lon="14.1105455"><ele>244.0</ele><time>2026-05-01T13:09:14.386Z</time></trkpt><trkpt lat="42.26687" lon="14.1103792"><ele>244.75</ele><time>2026-05-01T13:09:15.386Z</time></trkpt><trkpt lat="42.2668443" lon="14.1102058"><ele>245.5</ele><time>2026-05-01T13:09:16.386Z</time></trkpt><trkpt lat="42.2668219" lon="14.1100282"><ele>246.25</ele><time>2026-05-01T13:09:17.386Z</time></trkpt><trkpt lat="42.2667875" lon="14.1098825"><ele>247.0</ele><time>2026-05-01T13:09:18.386Z</time></trkpt><trkpt lat="42.2667412" lon="14.1097629"><ele>249.5</ele><time>2026-05-01T13:09:19.386Z</time></trkpt><trkpt lat="42.2666957" lon="14.1096322"><ele>252.0</ele><time>2026-05-01T13:09:20.385Z</time></trkpt><trkpt lat="42.2666329" lon="14.1094892"><ele>254.5</ele><time>2026-05-01T13:09:21.385Z</time></trkpt><trkpt lat="42.2665636" lon="14.1093313"><ele>257.0</ele><time>2026-05-01T13:09:22.387Z</time></trkpt><trkpt lat="42.2664934" lon="14.1091806"><ele>259.5</ele><time>2026-05-01T13:09:23.386Z</time></trkpt><trkpt lat="42.2664142" lon="14.10904"><ele>262.0</ele><time>2026-05-01T13:09:24.385Z</time></trkpt><trkpt lat="42.2663364" lon="14.1089112"><ele>264.5</ele><time>2026-05-01T13:09:25.387Z</time></trkpt><trkpt lat="42.2662657" lon="14.1088033"><ele>267.0</ele><time>2026-05-01T13:09:26.386Z</time></trkpt><trkpt lat="42.2661836" lon="14.1086794"><ele>267.0</ele><time>2026-05-01T13:09:27.386Z</time></trkpt><trkpt lat="42.2661039" lon="14.1085484"><ele>267.0</ele><time>2026-05-01T13:09:28.386Z</time></trkpt><trkpt lat="42.2660299" lon="14.1084361"><ele>267.0</ele><time>2026-05-01T13:09:29.386Z</time></trkpt><trkpt lat="42.265959" lon="14.1083186"><ele>267.0</ele><time>2026-05-01T13:09:30.387Z</time></trkpt><trkpt lat="42.2658939" lon="14.1081907"><ele>267.5</ele><time>2026-05-01T13:09:31.386Z</time></trkpt><trkpt lat="42.2658308" lon="14.1080493"><ele>268.0</ele><time>2026-05-01T13:09:32.385Z</time></trkpt><trkpt lat="42.2657769" lon="14.1079057"><ele>268.5</ele><time>2026-05-01T13:09:33.385Z</time></trkpt><trkpt lat="42.2657196" lon="14.107755"><ele>269.0</ele><time>2026-05-01T13:09:34.386Z</time></trkpt><trkpt lat="42.2656581" lon="14.1076061"><ele>269.25</ele><time>2026-05-01T13:09:35.387Z</time></trkpt><trkpt lat="42.2655727" lon="14.1074551"><ele>269.5</ele><time>2026-05-01T13:09:36.385Z</time></trkpt><trkpt lat="42.2654995" lon="14.1073115"><ele>269.75</ele><time>2026-05-01T13:09:37.385Z</time></trkpt><trkpt lat="42.2654316" lon="14.1071628"><ele>270.0</ele><time>2026-05-01T13:09:38.386Z</time></trkpt><trkpt lat="42.26537" lon="14.1070195"><ele>270.0</ele><time>2026-05-01T13:09:39.386Z</time></trkpt><trkpt lat="42.2653182" lon="14.1069055"><ele>270.0</ele><time>2026-05-01T13:09:40.386Z</time></trkpt><trkpt lat="42.2652784" lon="14.1068083"><ele>270.0</ele><time>2026-05-01T13:09:41.386Z</time></trkpt><trkpt lat="42.2652319" lon="14.1067246"><ele>270.0</ele><time>2026-05-01T13:09:42.385Z</time></trkpt><trkpt lat="42.2651702" lon="14.1066679"><ele>270.0</ele><time>2026-05-01T13:09:43.386Z</time></trkpt><trkpt lat="42.2651025" lon="14.1066182"><ele>270.0</ele><time>2026-05-01T13:09:44.386Z</time></trkpt><trkpt lat="42.2650348" lon="14.1065868"><ele>269.4</ele><time>2026-05-01T13:09:45.386Z</time></trkpt><trkpt lat="42.2649496" lon="14.1065576"><ele>268.8</ele><time>2026-05-01T13:09:46.386Z</time></trkpt><trkpt lat="42.2648588" lon="14.1065209"><ele>268.2</ele><time>2026-05-01T13:09:47.387Z</time></trkpt><trkpt lat="42.2647737" lon="14.1064931"><ele>267.6</ele><time>2026-05-01T13:09:48.386Z</time></trkpt><trkpt lat="42.2646819" lon="14.1064681"><ele>267.0</ele><time>2026-05-01T13:09:49.385Z</time></trkpt><trkpt lat="42.2645778" lon="14.1064471"><ele>267.0</ele><time>2026-05-01T13:09:50.385Z</time></trkpt><trkpt lat="42.2644695" lon="14.106428"><ele>267.0</ele><time>2026-05-01T13:09:51.385Z</time></trkpt><trkpt lat="42.2643471" lon="14.10642"><ele>267.0</ele><time>2026-05-01T13:09:52.385Z</time></trkpt><trkpt lat="42.2642208" lon="14.1064247"><ele>267.0</ele><time>2026-05-01T13:09:53.385Z</time></trkpt><trkpt lat="42.2641006" lon="14.1064247"><ele>267.0</ele><time>2026-05-01T13:09:54.386Z</time></trkpt><trkpt lat="42.2639883" lon="14.1063861"><ele>267.0</ele><time>2026-05-01T13:09:55.387Z</time></trkpt><trkpt lat="42.2638823" lon="14.106312"><ele>267.0</ele><time>2026-05-01T13:09:56.386Z</time></trkpt><trkpt lat="42.2637853" lon="14.1062173"><ele>267.0</ele><time>2026-05-01T13:09:57.387Z</time></trkpt><trkpt lat="42.2636962" lon="14.1061065"><ele>269.6666666666667</ele><time>2026-05-01T13:09:58.386Z</time></trkpt><trkpt lat="42.2636368" lon="14.1060172"><ele>272.3333333333333</ele><time>2026-05-01T13:09:59.387Z</time></trkpt><trkpt lat="42.263579" lon="14.105948"><ele>275.0</ele><time>2026-05-01T13:10:01.385Z</time></trkpt><trkpt lat="42.2635274" lon="14.1058616"><ele>277.66666666666663</ele><time>2026-05-01T13:10:45.386Z</time></trkpt><trkpt lat="42.2635867" lon="14.1059546"><ele>280.3333333333333</ele><time>2026-05-01T13:11:14.386Z</time></trkpt><trkpt lat="42.2636478" lon="14.1060337"><ele>283.0</ele><time>2026-05-01T13:11:15.385Z</time></trkpt><trkpt lat="42.2637008" lon="14.1061133"><ele>283.0</ele><time>2026-05-01T13:11:16.387Z</time></trkpt><trkpt lat="42.2637485" lon="14.1061786"><ele>283.0</ele><time>2026-05-01T13:11:17.387Z</time></trkpt><trkpt lat="42.2638036" lon="14.1062405"><ele>283.0</ele><time>2026-05-01T13:11:18.386Z</time></trkpt><trkpt lat="42.2638719" lon="14.1063031"><ele>283.0</ele><time>2026-05-01T13:11:19.386Z</time></trkpt><trkpt lat="42.2639442" lon="14.1063586"><ele>283.0</ele><time>2026-05-01T13:11:20.386Z</time></trkpt><trkpt lat="42.2640285" lon="14.1063958"><ele>283.0</ele><time>2026-05-01T13:11:21.385Z</time></trkpt><trkpt lat="42.264118" lon="14.1064118"><ele>279.8</ele><time>2026-05-01T13:11:22.387Z</time></trkpt><trkpt lat="42.2642048" lon="14.106414"><ele>276.6</ele><time>2026-05-01T13:11:23.385Z</time></trkpt><trkpt lat="42.2642941" lon="14.1064121"><ele>273.4</ele><time>2026-05-01T13:11:24.385Z</time></trkpt><trkpt lat="42.264391" lon="14.1064101"><ele>270.2</ele><time>2026-05-01T13:11:25.386Z</time></trkpt><trkpt lat="42.2644886" lon="14.1064222"><ele>267.0</ele><time>2026-05-01T13:11:26.386Z</time></trkpt><trkpt lat="42.2645851" lon="14.1064413"><ele>267.0</ele><time>2026-05-01T13:11:27.386Z</time></trkpt><trkpt lat="42.2646823" lon="14.1064622"><ele>267.0</ele><time>2026-05-01T13:11:28.386Z</time></trkpt><trkpt lat="42.2647762" lon="14.1064911"><ele>267.0</ele><time>2026-05-01T13:11:29.386Z</time></trkpt><trkpt lat="42.2648698" lon="14.1065226"><ele>267.0</ele><time>2026-05-01T13:11:30.386Z</time></trkpt><trkpt lat="42.2649629" lon="14.1065622"><ele>267.0</ele><time>2026-05-01T13:11:31.386Z</time></trkpt><trkpt lat="42.2650486" lon="14.1065947"><ele>267.5</ele><time>2026-05-01T13:11:32.385Z</time></trkpt><trkpt lat="42.2651111" lon="14.1066304"><ele>268.0</ele><time>2026-05-01T13:11:33.386Z</time></trkpt><trkpt lat="42.2652188" lon="14.1067301"><ele>268.5</ele><time>2026-05-01T13:11:35.386Z</time></trkpt><trkpt lat="42.2652646" lon="14.1068157"><ele>269.0</ele><time>2026-05-01T13:11:36.385Z</time></trkpt><trkpt lat="42.2652998" lon="14.1068921"><ele>269.5</ele><time>2026-05-01T13:11:37.385Z</time></trkpt><trkpt lat="42.2653542" lon="14.1069579"><ele>270.0</ele><time>2026-05-01T13:11:39.384Z</time></trkpt><trkpt lat="42.2654125" lon="14.106925"><ele>270.0</ele><time>2026-05-01T13:11:41.385Z</time></trkpt><trkpt lat="42.2654577" lon="14.1068248"><ele>270.0</ele><time>2026-05-01T13:11:43.384Z</time></trkpt><trkpt lat="42.2655157" lon="14.106711"><ele>270.0</ele><time>2026-05-01T13:11:45.385Z</time></trkpt><trkpt lat="42.2655795" lon="14.1065868"><ele>270.0</ele><time>2026-05-01T13:11:47.384Z</time></trkpt><trkpt lat="42.2656444" lon="14.1064961"><ele>270.0</ele><time>2026-05-01T13:11:49.385Z</time></trkpt><trkpt lat="42.2657177" lon="14.1064336"><ele>265.8333333333333</ele><time>2026-05-01T13:11:52.384Z</time></trkpt><trkpt lat="42.2657759" lon="14.1063935"><ele>261.6666666666667</ele><time>2026-05-01T13:11:54.385Z</time></trkpt><trkpt lat="42.2658406" lon="14.1063538"><ele>257.5</ele><time>2026-05-01T13:11:56.385Z</time></trkpt><trkpt lat="42.2659142" lon="14.1062956"><ele>253.33333333333334</ele><time>2026-05-01T13:11:58.385Z</time></trkpt><trkpt lat="42.265992" lon="14.1062218"><ele>249.16666666666669</ele><time>2026-05-01T13:12:00.386Z</time></trkpt><trkpt lat="42.2660521" lon="14.1061399"><ele>245.0</ele><time>2026-05-01T13:12:02.386Z</time></trkpt><trkpt lat="42.2660992" lon="14.1060596"><ele>245.00000000000003</ele><time>2026-05-01T13:12:04.385Z</time></trkpt><trkpt lat="42.2661461" lon="14.1059578"><ele>245.0</ele><time>2026-05-01T13:12:06.386Z</time></trkpt><trkpt lat="42.26619" lon="14.1058336"><ele>245.0</ele><time>2026-05-01T13:12:08.385Z</time></trkpt><trkpt lat="42.2662149" lon="14.105717"><ele>245.0</ele><time>2026-05-01T13:12:10.385Z</time></trkpt><trkpt lat="42.2662335" lon="14.1056175"><ele>245.00000000000003</ele><time>2026-05-01T13:12:12.385Z</time></trkpt><trkpt lat="42.2662574" lon="14.1055234"><ele>245.0</ele><time>2026-05-01T13:12:49.385Z</time></trkpt><trkpt lat="42.2662753" lon="14.1054411"><ele>241.16666666666669</ele><time>2026-05-01T13:12:54.385Z</time></trkpt><trkpt lat="42.2662896" lon="14.1053537"><ele>237.33333333333334</ele><time>2026-05-01T13:13:02.385Z</time></trkpt><trkpt lat="42.2663109" lon="14.1052566"><ele>233.5</ele><time>2026-05-01T13:13:04.385Z</time></trkpt><trkpt lat="42.2663538" lon="14.1051182"><ele>229.66666666666669</ele><time>2026-05-01T13:13:06.385Z</time></trkpt><trkpt lat="42.2663915" lon="14.1050459"><ele>225.83333333333334</ele><time>2026-05-01T13:13:07.386Z</time></trkpt><trkpt lat="42.2664353" lon="14.1049806"><ele>222.0</ele><time>2026-05-01T13:13:08.385Z</time></trkpt><trkpt lat="42.2665478" lon="14.1048701"><ele>219.33333333333334</ele><time>2026-05-01T13:13:10.385Z</time></trkpt><trkpt lat="42.2666131" lon="14.1048218"><ele>216.66666666666669</ele><time>2026-05-01T13:13:11.385Z</time></trkpt><trkpt lat="42.2666854" lon="14.1047822"><ele>214.0</ele><time>2026-05-01T13:13:12.384Z</time></trkpt><trkpt lat="42.2667647" lon="14.1047576"><ele>211.33333333333334</ele><time>2026-05-01T13:13:13.385Z</time></trkpt><trkpt lat="42.2668455" lon="14.1047448"><ele>208.66666666666669</ele><time>2026-05-01T13:13:14.385Z</time></trkpt><trkpt lat="42.2669273" lon="14.1047344"><ele>206.0</ele><time>2026-05-01T13:13:15.385Z</time></trkpt><trkpt lat="42.2670123" lon="14.1047225"><ele>206.0</ele><time>2026-05-01T13:13:16.386Z</time></trkpt><trkpt lat="42.2671066" lon="14.1047039"><ele>206.0</ele><time>2026-05-01T13:13:17.385Z</time></trkpt><trkpt lat="42.2672002" lon="14.1046862"><ele>206.0</ele><time>2026-05-01T13:13:18.384Z</time></trkpt><trkpt lat="42.2672937" lon="14.1046627"><ele>206.0</ele><time>2026-05-01T13:13:19.386Z</time></trkpt><trkpt lat="42.2673893" lon="14.1046334"><ele>206.0</ele><time>2026-05-01T13:13:20.384Z</time></trkpt><trkpt lat="42.2674861" lon="14.1046165"><ele>206.60000000000002</ele><time>2026-05-01T13:13:21.384Z</time></trkpt><trkpt lat="42.2675861" lon="14.1046062"><ele>207.2</ele><time>2026-05-01T13:13:22.384Z</time></trkpt><trkpt lat="42.2676947" lon="14.1045932"><ele>207.8</ele><time>2026-05-01T13:13:23.385Z</time></trkpt><trkpt lat="42.2678106" lon="14.1045768"><ele>208.39999999999998</ele><time>2026-05-01T13:13:24.385Z</time></trkpt><trkpt lat="42.2679288" lon="14.1045583"><ele>209.0</ele><time>2026-05-01T13:13:25.385Z</time></trkpt><trkpt lat="42.2680432" lon="14.1045427"><ele>210.0</ele><time>2026-05-01T13:13:26.385Z</time></trkpt><trkpt lat="42.2681528" lon="14.1045186"><ele>211.0</ele><time>2026-05-01T13:13:27.383Z</time></trkpt><trkpt lat="42.2682648" lon="14.1044856"><ele>211.99999999999997</ele><time>2026-05-01T13:13:28.385Z</time></trkpt><trkpt lat="42.2683725" lon="14.1044535"><ele>213.0</ele><time>2026-05-01T13:13:29.385Z</time></trkpt><trkpt lat="42.2684583" lon="14.1044318"><ele>214.0</ele><time>2026-05-01T13:13:30.386Z</time></trkpt><trkpt lat="42.2685319" lon="14.1044162"><ele>213.99999999999997</ele><time>2026-05-01T13:13:31.384Z</time></trkpt><trkpt lat="42.2685972" lon="14.1044094"><ele>214.0</ele><time>2026-05-01T13:13:32.385Z</time></trkpt><trkpt lat="42.2686673" lon="14.104414"><ele>214.0</ele><time>2026-05-01T13:13:33.385Z</time></trkpt><trkpt lat="42.2687488" lon="14.1044295"><ele>214.0</ele><time>2026-05-01T13:13:34.384Z</time></trkpt><trkpt lat="42.2688334" lon="14.1044427"><ele>213.99999999999997</ele><time>2026-05-01T13:13:35.385Z</time></trkpt><trkpt lat="42.2689323" lon="14.1044729"><ele>214.0</ele><time>2026-05-01T13:13:36.385Z</time></trkpt><trkpt lat="42.2690506" lon="14.1045057"><ele>213.79999999999998</ele><time>2026-05-01T13:13:37.384Z</time></trkpt><trkpt lat="42.2691618" lon="14.1045299"><ele>213.59999999999997</ele><time>2026-05-01T13:13:38.385Z</time></trkpt><trkpt lat="42.2692507" lon="14.1045617"><ele>213.4</ele><time>2026-05-01T13:13:39.385Z</time></trkpt><trkpt lat="42.2693655" lon="14.1046061"><ele>213.2</ele><time>2026-05-01T13:13:40.385Z</time></trkpt><trkpt lat="42.269483" lon="14.1046254"><ele>213.0</ele><time>2026-05-01T13:13:41.384Z</time></trkpt><trkpt lat="42.2696277" lon="14.1046077"><ele>214.66666666666669</ele><time>2026-05-01T13:13:42.385Z</time></trkpt><trkpt lat="42.2697909" lon="14.1045902"><ele>216.33333333333334</ele><time>2026-05-01T13:13:43.385Z</time></trkpt><trkpt lat="42.2699503" lon="14.1045997"><ele>218.0</ele><time>2026-05-01T13:13:44.384Z</time></trkpt><trkpt lat="42.2701048" lon="14.1046126"><ele>218.0</ele><time>2026-05-01T13:13:45.384Z</time></trkpt><trkpt lat="42.2702378" lon="14.104627"><ele>218.0</ele><time>2026-05-01T13:13:46.384Z</time></trkpt><trkpt lat="42.2703639" lon="14.1046288"><ele>218.0</ele><time>2026-05-01T13:13:47.383Z</time></trkpt><trkpt lat="42.2704808" lon="14.1046227"><ele>218.0</ele><time>2026-05-01T13:13:48.383Z</time></trkpt><trkpt lat="42.2705704" lon="14.1046142"><ele>217.60000000000002</ele><time>2026-05-01T13:13:49.384Z</time></trkpt><trkpt lat="42.270661" lon="14.1046069"><ele>217.20000000000002</ele><time>2026-05-01T13:13:50.384Z</time></trkpt><trkpt lat="42.2707531" lon="14.1045958"><ele>216.8</ele><time>2026-05-01T13:13:51.383Z</time></trkpt><trkpt lat="42.2708537" lon="14.1045818"><ele>216.4</ele><time>2026-05-01T13:13:52.383Z</time></trkpt><trkpt lat="42.2709625" lon="14.1045627"><ele>216.0</ele><time>2026-05-01T13:13:53.385Z</time></trkpt><trkpt lat="42.271081" lon="14.1045101"><ele>216.0</ele><time>2026-05-01T13:13:54.383Z</time></trkpt><trkpt lat="42.2711899" lon="14.1044749"><ele>216.0</ele><time>2026-05-01T13:13:55.384Z</time></trkpt><trkpt lat="42.2713141" lon="14.1044552"><ele>216.0</ele><time>2026-05-01T13:13:56.383Z</time></trkpt><trkpt lat="42.2714305" lon="14.1044487"><ele>216.0</ele><time>2026-05-01T13:13:57.384Z</time></trkpt><trkpt lat="42.271529" lon="14.1044511"><ele>214.60000000000002</ele><time>2026-05-01T13:13:58.383Z</time></trkpt><trkpt lat="42.2716136" lon="14.1044324"><ele>213.20000000000002</ele><time>2026-05-01T13:13:59.384Z</time></trkpt><trkpt lat="42.2717029" lon="14.1043719"><ele>211.8</ele><time>2026-05-01T13:14:00.384Z</time></trkpt><trkpt lat="42.2718059" lon="14.1042753"><ele>210.39999999999998</ele><time>2026-05-01T13:14:01.384Z</time></trkpt><trkpt lat="42.2719017" lon="14.1041778"><ele>209.0</ele><time>2026-05-01T13:14:02.384Z</time></trkpt><trkpt lat="42.2719622" lon="14.1040969"><ele>206.2</ele><time>2026-05-01T13:14:03.384Z</time></trkpt><trkpt lat="42.2720239" lon="14.1039832"><ele>203.39999999999998</ele><time>2026-05-01T13:14:04.384Z</time></trkpt><trkpt lat="42.2720681" lon="14.1038586"><ele>200.6</ele><time>2026-05-01T13:14:05.384Z</time></trkpt><trkpt lat="42.2721026" lon="14.1037248"><ele>197.8</ele><time>2026-05-01T13:14:06.383Z</time></trkpt><trkpt lat="42.2721384" lon="14.1035822"><ele>195.0</ele><time>2026-05-01T13:14:07.383Z</time></trkpt><trkpt lat="42.2721812" lon="14.1034196"><ele>192.25</ele><time>2026-05-01T13:14:08.383Z</time></trkpt><trkpt lat="42.272211" lon="14.1032397"><ele>189.5</ele><time>2026-05-01T13:14:09.385Z</time></trkpt><trkpt lat="42.2722255" lon="14.1030645"><ele>186.75</ele><time>2026-05-01T13:14:10.383Z</time></trkpt><trkpt lat="42.2722455" lon="14.1029167"><ele>184.0</ele><time>2026-05-01T13:14:11.383Z</time></trkpt><trkpt lat="42.2722722" lon="14.1027912"><ele>190.0</ele><time>2026-05-01T13:14:12.384Z</time></trkpt><trkpt lat="42.2723272" lon="14.1027051"><ele>196.0</ele><time>2026-05-01T13:14:13.384Z</time></trkpt><trkpt lat="42.2724149" lon="14.1026163"><ele>202.0</ele><time>2026-05-01T13:14:14.384Z</time></trkpt><trkpt lat="42.2725206" lon="14.1025219"><ele>208.0</ele><time>2026-05-01T13:14:15.384Z</time></trkpt><trkpt lat="42.2726395" lon="14.1024253"><ele>204.0</ele><time>2026-05-01T13:14:16.384Z</time></trkpt><trkpt lat="42.2727355" lon="14.1023247"><ele>200.0</ele><time>2026-05-01T13:14:17.384Z</time></trkpt><trkpt lat="42.2728171" lon="14.1022082"><ele>196.0</ele><time>2026-05-01T13:14:18.384Z</time></trkpt><trkpt lat="42.2728693" lon="14.1020761"><ele>192.0</ele><time>2026-05-01T13:14:19.383Z</time></trkpt><trkpt lat="42.2729042" lon="14.1019315"><ele>192.0</ele><time>2026-05-01T13:14:20.383Z</time></trkpt><trkpt lat="42.2729505" lon="14.1017842"><ele>192.0</ele><time>2026-05-01T13:14:21.384Z</time></trkpt><trkpt lat="42.273011" lon="14.1016509"><ele>192.0</ele><time>2026-05-01T13:14:22.384Z</time></trkpt><trkpt lat="42.2730737" lon="14.1015481"><ele>192.0</ele><time>2026-05-01T13:14:23.384Z</time></trkpt><trkpt lat="42.2731592" lon="14.1014764"><ele>192.0</ele><time>2026-05-01T13:14:24.383Z</time></trkpt><trkpt lat="42.2732469" lon="14.1014562"><ele>191.75</ele><time>2026-05-01T13:14:25.384Z</time></trkpt><trkpt lat="42.2733414" lon="14.1014719"><ele>191.5</ele><time>2026-05-01T13:14:26.384Z</time></trkpt><trkpt lat="42.2734544" lon="14.1015096"><ele>191.25</ele><time>2026-05-01T13:14:27.383Z</time></trkpt><trkpt lat="42.2735833" lon="14.1015553"><ele>191.0</ele><time>2026-05-01T13:14:28.384Z</time></trkpt><trkpt lat="42.2737278" lon="14.1016112"><ele>189.5</ele><time>2026-05-01T13:14:29.384Z</time></trkpt><trkpt lat="42.273868" lon="14.1016742"><ele>188.0</ele><time>2026-05-01T13:14:30.383Z</time></trkpt><trkpt lat="42.2739991" lon="14.1017285"><ele>186.5</ele><time>2026-05-01T13:14:31.384Z</time></trkpt><trkpt lat="42.2741313" lon="14.1017672"><ele>185.0</ele><time>2026-05-01T13:14:32.384Z</time></trkpt><trkpt lat="42.2742566" lon="14.1017809"><ele>185.0</ele><time>2026-05-01T13:14:33.384Z</time></trkpt><trkpt lat="42.2743828" lon="14.1017653"><ele>185.0</ele><time>2026-05-01T13:14:34.384Z</time></trkpt><trkpt lat="42.2744988" lon="14.1017177"><ele>185.0</ele><time>2026-05-01T13:14:35.383Z</time></trkpt><trkpt lat="42.2746045" lon="14.1016493"><ele>185.0</ele><time>2026-05-01T13:14:36.384Z</time></trkpt><trkpt lat="42.2747061" lon="14.1015587"><ele>183.5</ele><time>2026-05-01T13:14:37.385Z</time></trkpt><trkpt lat="42.2747947" lon="14.1014465"><ele>182.0</ele><time>2026-05-01T13:14:38.384Z</time></trkpt><trkpt lat="42.2748676" lon="14.1013362"><ele>180.5</ele><time>2026-05-01T13:14:39.384Z</time></trkpt><trkpt lat="42.2749266" lon="14.1012099"><ele>179.0</ele><time>2026-05-01T13:14:40.383Z</time></trkpt><trkpt lat="42.2749802" lon="14.1010563"><ele>179.0</ele><time>2026-05-01T13:14:41.384Z</time></trkpt><trkpt lat="42.2750491" lon="14.1008708"><ele>179.0</ele><time>2026-05-01T13:14:42.383Z</time></trkpt><trkpt lat="42.2751306" lon="14.1006701"><ele>179.0</ele><time>2026-05-01T13:14:43.384Z</time></trkpt><trkpt lat="42.2752233" lon="14.10044"><ele>177.66666666666666</ele><time>2026-05-01T13:14:44.384Z</time></trkpt><trkpt lat="42.2753167" lon="14.100211"><ele>176.33333333333334</ele><time>2026-05-01T13:14:45.384Z</time></trkpt><trkpt lat="42.2754" lon="14.0999944"><ele>175.0</ele><time>2026-05-01T13:14:46.384Z</time></trkpt><trkpt lat="42.275463" lon="14.0997817"><ele>175.0</ele><time>2026-05-01T13:14:47.384Z</time></trkpt><trkpt lat="42.2755008" lon="14.0995649"><ele>175.0</ele><time>2026-05-01T13:14:48.385Z</time></trkpt><trkpt lat="42.2754932" lon="14.0993352"><ele>175.0</ele><time>2026-05-01T13:14:49.384Z</time></trkpt><trkpt lat="42.2754612" lon="14.099097"><ele>176.66666666666669</ele><time>2026-05-01T13:14:50.384Z</time></trkpt><trkpt lat="42.2754201" lon="14.0988383"><ele>178.33333333333334</ele><time>2026-05-01T13:14:51.385Z</time></trkpt><trkpt lat="42.2753846" lon="14.0985674"><ele>180.0</ele><time>2026-05-01T13:14:52.384Z</time></trkpt><trkpt lat="42.2753537" lon="14.0983044"><ele>180.0</ele><time>2026-05-01T13:14:53.384Z</time></trkpt><trkpt lat="42.2753365" lon="14.0980594"><ele>180.0</ele><time>2026-05-01T13:14:54.384Z</time></trkpt><trkpt lat="42.2753306" lon="14.097836"><ele>180.0</ele><time>2026-05-01T13:14:55.384Z</time></trkpt><trkpt lat="42.2753394" lon="14.0976283"><ele>180.0</ele><time>2026-05-01T13:14:56.384Z</time></trkpt><trkpt lat="42.275354" lon="14.0974378"><ele>180.0</ele><time>2026-05-01T13:14:57.384Z</time></trkpt><trkpt lat="42.2753691" lon="14.0972636"><ele>180.0</ele><time>2026-05-01T13:14:58.384Z</time></trkpt><trkpt lat="42.2753885" lon="14.0970974"><ele>180.0</ele><time>2026-05-01T13:14:59.384Z</time></trkpt><trkpt lat="42.2754038" lon="14.0969402"><ele>178.75</ele><time>2026-05-01T13:15:00.384Z</time></trkpt><trkpt lat="42.2754245" lon="14.096784"><ele>177.5</ele><time>2026-05-01T13:15:01.384Z</time></trkpt><trkpt lat="42.2754507" lon="14.0966294"><ele>176.25</ele><time>2026-05-01T13:15:02.385Z</time></trkpt><trkpt lat="42.2754698" lon="14.0964714"><ele>175.0</ele><time>2026-05-01T13:15:03.384Z</time></trkpt><trkpt lat="42.2754789" lon="14.0963131"><ele>173.6</ele><time>2026-05-01T13:15:04.385Z</time></trkpt><trkpt lat="42.2754965" lon="14.0961615"><ele>172.2</ele><time>2026-05-01T13:15:05.384Z</time></trkpt><trkpt lat="42.2755205" lon="14.096009"><ele>170.8</ele><time>2026-05-01T13:15:06.384Z</time></trkpt><trkpt lat="42.2755508" lon="14.0958642"><ele>169.4</ele><time>2026-05-01T13:15:07.384Z</time></trkpt><trkpt lat="42.2755799" lon="14.095736"><ele>168.0</ele><time>2026-05-01T13:15:08.384Z</time></trkpt><trkpt lat="42.2755975" lon="14.0956127"><ele>167.5</ele><time>2026-05-01T13:15:09.385Z</time></trkpt><trkpt lat="42.2756095" lon="14.0954893"><ele>167.0</ele><time>2026-05-01T13:15:10.383Z</time></trkpt><trkpt lat="42.2756173" lon="14.0953826"><ele>166.5</ele><time>2026-05-01T13:15:11.384Z</time></trkpt><trkpt lat="42.2756339" lon="14.0952893"><ele>166.0</ele><time>2026-05-01T13:15:12.384Z</time></trkpt><trkpt lat="42.2756623" lon="14.0952106"><ele>165.5</ele><time>2026-05-01T13:15:13.384Z</time></trkpt><trkpt lat="42.2757083" lon="14.0951515"><ele>165.0</ele><time>2026-05-01T13:15:14.384Z</time></trkpt><trkpt lat="42.2758039" lon="14.095101"><ele>165.0</ele><time>2026-05-01T13:15:15.384Z</time></trkpt><trkpt lat="42.275903" lon="14.0950426"><ele>165.0</ele><time>2026-05-01T13:15:16.384Z</time></trkpt><trkpt lat="42.2760256" lon="14.0949751"><ele>165.0</ele><time>2026-05-01T13:15:17.384Z</time></trkpt><trkpt lat="42.2761673" lon="14.0948989"><ele>165.0</ele><time>2026-05-01T13:15:18.384Z</time></trkpt><trkpt lat="42.2763082" lon="14.0948188"><ele>162.25</ele><time>2026-05-01T13:15:19.384Z</time></trkpt><trkpt lat="42.2764401" lon="14.0947406"><ele>159.5</ele><time>2026-05-01T13:15:20.384Z</time></trkpt><trkpt lat="42.276559" lon="14.0946658"><ele>156.75</ele><time>2026-05-01T13:15:21.385Z</time></trkpt><trkpt lat="42.2766665" lon="14.0945757"><ele>154.0</ele><time>2026-05-01T13:15:22.384Z</time></trkpt><trkpt lat="42.2767537" lon="14.0944637"><ele>154.0</ele><time>2026-05-01T13:15:23.383Z</time></trkpt><trkpt lat="42.2768257" lon="14.0943275"><ele>154.0</ele><time>2026-05-01T13:15:24.384Z</time></trkpt><trkpt lat="42.2768778" lon="14.0941702"><ele>154.0</ele><time>2026-05-01T13:15:25.384Z</time></trkpt><trkpt lat="42.2769195" lon="14.0939977"><ele>154.0</ele><time>2026-05-01T13:15:26.385Z</time></trkpt><trkpt lat="42.2769577" lon="14.0938143"><ele>151.75</ele><time>2026-05-01T13:15:27.384Z</time></trkpt><trkpt lat="42.2769953" lon="14.0936272"><ele>149.5</ele><time>2026-05-01T13:15:28.383Z</time></trkpt><trkpt lat="42.2770357" lon="14.0934373"><ele>147.25</ele><time>2026-05-01T13:15:29.384Z</time></trkpt><trkpt lat="42.2770762" lon="14.0932365"><ele>145.0</ele><time>2026-05-01T13:15:30.385Z</time></trkpt><trkpt lat="42.2771154" lon="14.0930364"><ele>142.75</ele><time>2026-05-01T13:15:31.384Z</time></trkpt><trkpt lat="42.277142" lon="14.0928485"><ele>140.5</ele><time>2026-05-01T13:15:32.384Z</time></trkpt><trkpt lat="42.2771525" lon="14.0926737"><ele>138.25</ele><time>2026-05-01T13:15:33.384Z</time></trkpt><trkpt lat="42.2771529" lon="14.0925027"><ele>136.0</ele><time>2026-05-01T13:15:34.385Z</time></trkpt><trkpt lat="42.27716" lon="14.0923448"><ele>133.75</ele><time>2026-05-01T13:15:35.384Z</time></trkpt><trkpt lat="42.2771591" lon="14.092181"><ele>131.5</ele><time>2026-05-01T13:15:36.384Z</time></trkpt><trkpt lat="42.2771629" lon="14.0920184"><ele>129.25</ele><time>2026-05-01T13:15:37.385Z</time></trkpt><trkpt lat="42.2771697" lon="14.0918683"><ele>127.0</ele><time>2026-05-01T13:15:38.383Z</time></trkpt><trkpt lat="42.2771788" lon="14.0917184"><ele>128.2</ele><time>2026-05-01T13:15:39.384Z</time></trkpt><trkpt lat="42.2771939" lon="14.0915776"><ele>129.39999999999998</ele><time>2026-05-01T13:15:40.384Z</time></trkpt><trkpt lat="42.2772143" lon="14.0914383"><ele>130.60000000000002</ele><time>2026-05-01T13:15:41.384Z</time></trkpt><trkpt lat="42.2772463" lon="14.0913101"><ele>131.8</ele><time>2026-05-01T13:15:42.384Z</time></trkpt><trkpt lat="42.2772826" lon="14.0911941"><ele>133.0</ele><time>2026-05-01T13:15:43.384Z</time></trkpt><trkpt lat="42.2773335" lon="14.0910972"><ele>133.0</ele><time>2026-05-01T13:15:44.384Z</time></trkpt><trkpt lat="42.2773934" lon="14.0910365"><ele>133.0</ele><time>2026-05-01T13:15:45.383Z</time></trkpt><trkpt lat="42.2774665" lon="14.0910154"><ele>133.0</ele><time>2026-05-01T13:15:46.384Z</time></trkpt><trkpt lat="42.2775542" lon="14.0910351"><ele>133.0</ele><time>2026-05-01T13:15:47.384Z</time></trkpt><trkpt lat="42.2776421" lon="14.0910686"><ele>133.0</ele><time>2026-05-01T13:15:48.384Z</time></trkpt><trkpt lat="42.2777448" lon="14.0911457"><ele>133.0</ele><time>2026-05-01T13:15:49.384Z</time></trkpt><trkpt lat="42.2778344" lon="14.0911993"><ele>133.0</ele><time>2026-05-01T13:15:50.384Z</time></trkpt><trkpt lat="42.2779165" lon="14.0912231"><ele>133.0</ele><time>2026-05-01T13:15:51.384Z</time></trkpt><trkpt lat="42.2779862" lon="14.0912125"><ele>133.0</ele><time>2026-05-01T13:15:52.384Z</time></trkpt><trkpt lat="42.2780617" lon="14.0910696"><ele>133.0</ele><time>2026-05-01T13:15:54.385Z</time></trkpt><trkpt lat="42.2780583" lon="14.0909614"><ele>133.0</ele><time>2026-05-01T13:15:55.385Z</time></trkpt><trkpt lat="42.2780498" lon="14.0908549"><ele>133.0</ele><time>2026-05-01T13:15:56.383Z</time></trkpt><trkpt lat="42.2780385" lon="14.0907651"><ele>130.6</ele><time>2026-05-01T13:15:57.383Z</time></trkpt><trkpt lat="42.278019" lon="14.0906475"><ele>128.20000000000002</ele><time>2026-05-01T13:15:59.383Z</time></trkpt><trkpt lat="42.2780942" lon="14.0906487"><ele>125.8</ele><time>2026-05-01T13:16:02.383Z</time></trkpt><trkpt lat="42.2781455" lon="14.090791"><ele>123.4</ele><time>2026-05-01T13:16:04.383Z</time></trkpt><trkpt lat="42.2781898" lon="14.0908941"><ele>121.0</ele><time>2026-05-01T13:16:05.382Z</time></trkpt><trkpt lat="42.2782371" lon="14.0910195"><ele>120.75</ele><time>2026-05-01T13:16:06.383Z</time></trkpt><trkpt lat="42.2782773" lon="14.0911649"><ele>120.5</ele><time>2026-05-01T13:16:07.383Z</time></trkpt><trkpt lat="42.2783308" lon="14.0913327"><ele>120.25</ele><time>2026-05-01T13:16:08.383Z</time></trkpt><trkpt lat="42.2783764" lon="14.0915038"><ele>120.0</ele><time>2026-05-01T13:16:09.383Z</time></trkpt><trkpt lat="42.2784135" lon="14.0916826"><ele>121.0</ele><time>2026-05-01T13:16:10.382Z</time></trkpt><trkpt lat="42.2784478" lon="14.091865"><ele>122.0</ele><time>2026-05-01T13:16:11.383Z</time></trkpt><trkpt lat="42.2784779" lon="14.0920409"><ele>123.0</ele><time>2026-05-01T13:16:12.382Z</time></trkpt><trkpt lat="42.2785069" lon="14.092207"><ele>124.0</ele><time>2026-05-01T13:16:13.382Z</time></trkpt><trkpt lat="42.2785264" lon="14.0923702"><ele>124.25</ele><time>2026-05-01T13:16:14.383Z</time></trkpt><trkpt lat="42.2785415" lon="14.0925337"><ele>124.5</ele><time>2026-05-01T13:16:15.382Z</time></trkpt><trkpt lat="42.2785767" lon="14.0926902"><ele>124.75</ele><time>2026-05-01T13:16:16.383Z</time></trkpt><trkpt lat="42.2786167" lon="14.0928268"><ele>125.0</ele><time>2026-05-01T13:16:17.383Z</time></trkpt><trkpt lat="42.2786681" lon="14.0929489"><ele>125.0</ele><time>2026-05-01T13:16:18.383Z</time></trkpt><trkpt lat="42.2787233" lon="14.0930507"><ele>125.0</ele><time>2026-05-01T13:16:19.383Z</time></trkpt><trkpt lat="42.2787922" lon="14.0931311"><ele>125.0</ele><time>2026-05-01T13:16:20.382Z</time></trkpt><trkpt lat="42.2788738" lon="14.0931828"><ele>125.0</ele><time>2026-05-01T13:16:21.382Z</time></trkpt><trkpt lat="42.278967" lon="14.093203"><ele>125.0</ele><time>2026-05-01T13:16:22.383Z</time></trkpt><trkpt lat="42.2790635" lon="14.0931877"><ele>123.2</ele><time>2026-05-01T13:16:23.382Z</time></trkpt><trkpt lat="42.2791659" lon="14.0931512"><ele>121.4</ele><time>2026-05-01T13:16:24.383Z</time></trkpt><trkpt lat="42.279268" lon="14.0931327"><ele>119.6</ele><time>2026-05-01T13:16:25.383Z</time></trkpt><trkpt lat="42.2793666" lon="14.0931488"><ele>117.8</ele><time>2026-05-01T13:16:26.383Z</time></trkpt><trkpt lat="42.2794583" lon="14.093197"><ele>116.0</ele><time>2026-05-01T13:16:27.383Z</time></trkpt><trkpt lat="42.2795453" lon="14.0932843"><ele>116.0</ele><time>2026-05-01T13:16:28.382Z</time></trkpt><trkpt lat="42.2796281" lon="14.0933855"><ele>116.0</ele><time>2026-05-01T13:16:29.384Z</time></trkpt><trkpt lat="42.2796984" lon="14.09348"><ele>116.0</ele><time>2026-05-01T13:16:30.382Z</time></trkpt><trkpt lat="42.2797761" lon="14.093582"><ele>116.0</ele><time>2026-05-01T13:16:31.382Z</time></trkpt><trkpt lat="42.2798542" lon="14.093678"><ele>116.0</ele><time>2026-05-01T13:16:32.383Z</time></trkpt><trkpt lat="42.2799383" lon="14.0937658"><ele>113.0</ele><time>2026-05-01T13:16:33.384Z</time></trkpt><trkpt lat="42.2800143" lon="14.0938404"><ele>110.0</ele><time>2026-05-01T13:16:34.382Z</time></trkpt><trkpt lat="42.2800782" lon="14.0939278"><ele>107.0</ele><time>2026-05-01T13:16:35.383Z</time></trkpt><trkpt lat="42.2801186" lon="14.0940288"><ele>104.0</ele><time>2026-05-01T13:16:36.383Z</time></trkpt><trkpt lat="42.2801344" lon="14.0941579"><ele>101.0</ele><time>2026-05-01T13:16:37.382Z</time></trkpt><trkpt lat="42.2801464" lon="14.0943125"><ele>100.75</ele><time>2026-05-01T13:16:38.383Z</time></trkpt><trkpt lat="42.2801565" lon="14.0944891"><ele>100.5</ele><time>2026-05-01T13:16:39.383Z</time></trkpt><trkpt lat="42.2801624" lon="14.0946853"><ele>100.25</ele><time>2026-05-01T13:16:40.383Z</time></trkpt><trkpt lat="42.2801723" lon="14.0948947"><ele>100.0</ele><time>2026-05-01T13:16:41.383Z</time></trkpt><trkpt lat="42.280185" lon="14.0951186"><ele>100.0</ele><time>2026-05-01T13:16:42.383Z</time></trkpt><trkpt lat="42.2802001" lon="14.0953507"><ele>100.0</ele><time>2026-05-01T13:16:43.382Z</time></trkpt><trkpt lat="42.2802174" lon="14.0955929"><ele>100.0</ele><time>2026-05-01T13:16:44.384Z</time></trkpt><trkpt lat="42.2802386" lon="14.0958357"><ele>100.0</ele><time>2026-05-01T13:16:45.383Z</time></trkpt><trkpt lat="42.2802639" lon="14.0960745"><ele>100.0</ele><time>2026-05-01T13:16:46.383Z</time></trkpt><trkpt lat="42.2803008" lon="14.0962974"><ele>100.0</ele><time>2026-05-01T13:16:47.383Z</time></trkpt><trkpt lat="42.2803455" lon="14.0965174"><ele>100.75</ele><time>2026-05-01T13:16:48.383Z</time></trkpt><trkpt lat="42.2803859" lon="14.0967092"><ele>101.5</ele><time>2026-05-01T13:16:49.383Z</time></trkpt><trkpt lat="42.2804206" lon="14.0968857"><ele>102.25</ele><time>2026-05-01T13:16:50.383Z</time></trkpt><trkpt lat="42.2804399" lon="14.097059"><ele>103.0</ele><time>2026-05-01T13:16:51.384Z</time></trkpt><trkpt lat="42.2804541" lon="14.0972399"><ele>103.0</ele><time>2026-05-01T13:16:52.383Z</time></trkpt><trkpt lat="42.2804782" lon="14.0974227"><ele>103.0</ele><time>2026-05-01T13:16:53.384Z</time></trkpt><trkpt lat="42.280499" lon="14.0976163"><ele>103.0</ele><time>2026-05-01T13:16:54.384Z</time></trkpt><trkpt lat="42.2805282" lon="14.0978192"><ele>103.0</ele><time>2026-05-01T13:16:55.383Z</time></trkpt><trkpt lat="42.2805675" lon="14.0980303"><ele>105.33333333333334</ele><time>2026-05-01T13:16:56.383Z</time></trkpt><trkpt lat="42.2806152" lon="14.098253"><ele>107.66666666666666</ele><time>2026-05-01T13:16:57.384Z</time></trkpt><trkpt lat="42.2806605" lon="14.098485"><ele>110.0</ele><time>2026-05-01T13:16:58.383Z</time></trkpt><trkpt lat="42.280708" lon="14.0987246"><ele>110.0</ele><time>2026-05-01T13:16:59.383Z</time></trkpt><trkpt lat="42.2807611" lon="14.0989715"><ele>110.0</ele><time>2026-05-01T13:17:00.383Z</time></trkpt><trkpt lat="42.2808178" lon="14.0992223"><ele>110.0</ele><time>2026-05-01T13:17:01.384Z</time></trkpt><trkpt lat="42.2808708" lon="14.0994562"><ele>111.75</ele><time>2026-05-01T13:17:02.384Z</time></trkpt><trkpt lat="42.2809175" lon="14.0996709"><ele>113.5</ele><time>2026-05-01T13:17:03.384Z</time></trkpt><trkpt lat="42.2809599" lon="14.0998474"><ele>115.25</ele><time>2026-05-01T13:17:04.383Z</time></trkpt><trkpt lat="42.2809863" lon="14.0999704"><ele>117.0</ele><time>2026-05-01T13:17:05.383Z</time></trkpt><trkpt lat="42.2810345" lon="14.1000761"><ele>118.16666666666667</ele><time>2026-05-01T13:17:07.383Z</time></trkpt><trkpt lat="42.2810943" lon="14.1001468"><ele>119.33333333333334</ele><time>2026-05-01T13:17:09.383Z</time></trkpt><trkpt lat="42.2811528" lon="14.1002801"><ele>120.5</ele><time>2026-05-01T13:17:11.384Z</time></trkpt><trkpt lat="42.2811825" lon="14.1003603"><ele>121.66666666666667</ele><time>2026-05-01T13:17:12.383Z</time></trkpt><trkpt lat="42.2812195" lon="14.100436"><ele>122.83333333333334</ele><time>2026-05-01T13:17:13.382Z</time></trkpt><trkpt lat="42.2812653" lon="14.1005134"><ele>124.0</ele><time>2026-05-01T13:17:14.383Z</time></trkpt><trkpt lat="42.2813139" lon="14.1005985"><ele>124.00000000000001</ele><time>2026-05-01T13:17:15.384Z</time></trkpt><trkpt lat="42.281359" lon="14.1006871"><ele>124.0</ele><time>2026-05-01T13:17:16.382Z</time></trkpt><trkpt lat="42.2814066" lon="14.1007756"><ele>124.0</ele><time>2026-05-01T13:17:17.383Z</time></trkpt><trkpt lat="42.2814541" lon="14.1008709"><ele>124.0</ele><time>2026-05-01T13:17:18.383Z</time></trkpt><trkpt lat="42.2814976" lon="14.1009691"><ele>124.00000000000001</ele><time>2026-05-01T13:17:19.384Z</time></trkpt><trkpt lat="42.2815422" lon="14.1010705"><ele>124.0</ele><time>2026-05-01T13:17:20.382Z</time></trkpt><trkpt lat="42.2815834" lon="14.1011701"><ele>124.0</ele><time>2026-05-01T13:17:21.383Z</time></trkpt><trkpt lat="42.2816319" lon="14.1012804"><ele>124.0</ele><time>2026-05-01T13:17:22.383Z</time></trkpt><trkpt lat="42.2816832" lon="14.1013872"><ele>124.0</ele><time>2026-05-01T13:17:23.382Z</time></trkpt><trkpt lat="42.2817358" lon="14.1015054"><ele>124.0</ele><time>2026-05-01T13:17:24.383Z</time></trkpt><trkpt lat="42.2817915" lon="14.101617"><ele>124.0</ele><time>2026-05-01T13:17:25.383Z</time></trkpt><trkpt lat="42.2818454" lon="14.1017404"><ele>125.80000000000001</ele><time>2026-05-01T13:17:26.382Z</time></trkpt><trkpt lat="42.2818971" lon="14.1018667"><ele>127.60000000000001</ele><time>2026-05-01T13:17:27.382Z</time></trkpt><trkpt lat="42.2819496" lon="14.1019893"><ele>129.4</ele><time>2026-05-01T13:17:28.383Z</time></trkpt><trkpt lat="42.2820013" lon="14.1021115"><ele>131.20000000000002</ele><time>2026-05-01T13:17:29.383Z</time></trkpt><trkpt lat="42.2820531" lon="14.1022371"><ele>133.0</ele><time>2026-05-01T13:17:30.384Z</time></trkpt><trkpt lat="42.2821055" lon="14.1023605"><ele>134.8</ele><time>2026-05-01T13:17:31.383Z</time></trkpt><trkpt lat="42.2821569" lon="14.1024861"><ele>136.60000000000002</ele><time>2026-05-01T13:17:32.384Z</time></trkpt><trkpt lat="42.2822089" lon="14.1026094"><ele>138.39999999999998</ele><time>2026-05-01T13:17:33.382Z</time></trkpt><trkpt lat="42.2822647" lon="14.1027318"><ele>140.2</ele><time>2026-05-01T13:17:34.383Z</time></trkpt><trkpt lat="42.2823199" lon="14.1028544"><ele>142.0</ele><time>2026-05-01T13:17:35.383Z</time></trkpt><trkpt lat="42.2823796" lon="14.1029814"><ele>138.75</ele><time>2026-05-01T13:17:36.382Z</time></trkpt><trkpt lat="42.2824372" lon="14.1031192"><ele>135.5</ele><time>2026-05-01T13:17:37.383Z</time></trkpt><trkpt lat="42.2825006" lon="14.1032659"><ele>132.25</ele><time>2026-05-01T13:17:38.382Z</time></trkpt><trkpt lat="42.2825611" lon="14.1034114"><ele>129.0</ele><time>2026-05-01T13:17:39.384Z</time></trkpt><trkpt lat="42.2826085" lon="14.103535"><ele>129.0</ele><time>2026-05-01T13:17:40.383Z</time></trkpt><trkpt lat="42.2826582" lon="14.1036609"><ele>129.0</ele><time>2026-05-01T13:17:41.382Z</time></trkpt><trkpt lat="42.2827055" lon="14.1037763"><ele>129.0</ele><time>2026-05-01T13:17:42.383Z</time></trkpt><trkpt lat="42.2827483" lon="14.1038849"><ele>129.0</ele><time>2026-05-01T13:17:43.382Z</time></trkpt><trkpt lat="42.2827872" lon="14.1039857"><ele>129.0</ele><time>2026-05-01T13:17:44.383Z</time></trkpt><trkpt lat="42.2828235" lon="14.1040799"><ele>130.16666666666666</ele><time>2026-05-01T13:17:45.383Z</time></trkpt><trkpt lat="42.2828545" lon="14.104173"><ele>131.33333333333334</ele><time>2026-05-01T13:17:46.383Z</time></trkpt><trkpt lat="42.2828874" lon="14.1042651"><ele>132.5</ele><time>2026-05-01T13:17:47.383Z</time></trkpt><trkpt lat="42.2829186" lon="14.1043462"><ele>133.66666666666669</ele><time>2026-05-01T13:17:48.383Z</time></trkpt><trkpt lat="42.282946" lon="14.1044258"><ele>134.83333333333334</ele><time>2026-05-01T13:17:49.383Z</time></trkpt><trkpt lat="42.2829745" lon="14.1045081"><ele>136.0</ele><time>2026-05-01T13:17:50.383Z</time></trkpt><trkpt lat="42.2830235" lon="14.1046625"><ele>136.0</ele><time>2026-05-01T13:17:52.383Z</time></trkpt><trkpt lat="42.283077" lon="14.1047972"><ele>136.0</ele><time>2026-05-01T13:17:54.383Z</time></trkpt><trkpt lat="42.2831451" lon="14.1049504"><ele>136.0</ele><time>2026-05-01T13:17:56.383Z</time></trkpt><trkpt lat="42.2831872" lon="14.1050469"><ele>136.0</ele><time>2026-05-01T13:17:57.382Z</time></trkpt><trkpt lat="42.2832295" lon="14.1051571"><ele>136.0</ele><time>2026-05-01T13:17:58.383Z</time></trkpt><trkpt lat="42.283271" lon="14.1052745"><ele>134.66666666666669</ele><time>2026-05-01T13:17:59.383Z</time></trkpt><trkpt lat="42.28331" lon="14.1053923"><ele>133.33333333333334</ele><time>2026-05-01T13:18:00.383Z</time></trkpt><trkpt lat="42.2833425" lon="14.105498"><ele>132.0</ele><time>2026-05-01T13:18:01.383Z</time></trkpt><trkpt lat="42.2833772" lon="14.1055991"><ele>130.66666666666666</ele><time>2026-05-01T13:18:02.383Z</time></trkpt><trkpt lat="42.2834166" lon="14.1057057"><ele>129.33333333333331</ele><time>2026-05-01T13:18:03.382Z</time></trkpt><trkpt lat="42.2834477" lon="14.1058034"><ele>128.0</ele><time>2026-05-01T13:18:04.383Z</time></trkpt><trkpt lat="42.283483" lon="14.1059035"><ele>127.99999999999999</ele><time>2026-05-01T13:18:05.384Z</time></trkpt><trkpt lat="42.2835229" lon="14.1059985"><ele>128.0</ele><time>2026-05-01T13:18:06.382Z</time></trkpt><trkpt lat="42.2835635" lon="14.1060957"><ele>128.0</ele><time>2026-05-01T13:18:07.381Z</time></trkpt><trkpt lat="42.283598" lon="14.1061884"><ele>128.0</ele><time>2026-05-01T13:18:08.382Z</time></trkpt><trkpt lat="42.2836304" lon="14.1062879"><ele>127.99999999999999</ele><time>2026-05-01T13:18:09.381Z</time></trkpt><trkpt lat="42.2836638" lon="14.1063858"><ele>128.0</ele><time>2026-05-01T13:18:10.382Z</time></trkpt><trkpt lat="42.2836979" lon="14.1064908"><ele>129.6</ele><time>2026-05-01T13:18:11.382Z</time></trkpt><trkpt lat="42.2837347" lon="14.1066022"><ele>131.20000000000002</ele><time>2026-05-01T13:18:12.382Z</time></trkpt><trkpt lat="42.283774" lon="14.1067163"><ele>132.8</ele><time>2026-05-01T13:18:13.381Z</time></trkpt><trkpt lat="42.2838142" lon="14.1068345"><ele>134.4</ele><time>2026-05-01T13:18:14.382Z</time></trkpt><trkpt lat="42.283849" lon="14.1069473"><ele>136.0</ele><time>2026-05-01T13:18:15.382Z</time></trkpt><trkpt lat="42.2838845" lon="14.1070509"><ele>136.0</ele><time>2026-05-01T13:18:16.383Z</time></trkpt><trkpt lat="42.2839213" lon="14.1071609"><ele>136.0</ele><time>2026-05-01T13:18:17.381Z</time></trkpt><trkpt lat="42.2839557" lon="14.1072736"><ele>136.0</ele><time>2026-05-01T13:18:18.381Z</time></trkpt><trkpt lat="42.2839919" lon="14.1073856"><ele>136.0</ele><time>2026-05-01T13:18:19.382Z</time></trkpt><trkpt lat="42.2840289" lon="14.1074943"><ele>136.0</ele><time>2026-05-01T13:18:20.381Z</time></trkpt><trkpt lat="42.2840615" lon="14.1075998"><ele>136.0</ele><time>2026-05-01T13:18:21.382Z</time></trkpt><trkpt lat="42.2840967" lon="14.1077154"><ele>135.2</ele><time>2026-05-01T13:18:22.381Z</time></trkpt><trkpt lat="42.2841288" lon="14.1078375"><ele>134.39999999999998</ele><time>2026-05-01T13:18:23.382Z</time></trkpt><trkpt lat="42.2841704" lon="14.1079602"><ele>133.6</ele><time>2026-05-01T13:18:24.382Z</time></trkpt><trkpt lat="42.2842118" lon="14.1080803"><ele>132.79999999999998</ele><time>2026-05-01T13:18:25.382Z</time></trkpt><trkpt lat="42.2842469" lon="14.108192"><ele>132.0</ele><time>2026-05-01T13:18:26.382Z</time></trkpt><trkpt lat="42.2842765" lon="14.1082877"><ele>132.0</ele><time>2026-05-01T13:18:27.382Z</time></trkpt><trkpt lat="42.2843077" lon="14.1083896"><ele>132.0</ele><time>2026-05-01T13:18:28.383Z</time></trkpt><trkpt lat="42.2843338" lon="14.1084737"><ele>132.0</ele><time>2026-05-01T13:18:29.382Z</time></trkpt><trkpt lat="42.2843603" lon="14.1085556"><ele>132.0</ele><time>2026-05-01T13:18:30.382Z</time></trkpt><trkpt lat="42.2844016" lon="14.10867"><ele>132.0</ele><time>2026-05-01T13:18:32.383Z</time></trkpt><trkpt lat="42.284439" lon="14.1087963"><ele>132.0</ele><time>2026-05-01T13:19:44.382Z</time></trkpt><trkpt lat="42.2844886" lon="14.1089396"><ele>132.0</ele><time>2026-05-01T13:19:46.382Z</time></trkpt><trkpt lat="42.2845202" lon="14.1090233"><ele>132.0</ele><time>2026-05-01T13:19:48.381Z</time></trkpt><trkpt lat="42.2845516" lon="14.109111"><ele>132.0</ele><time>2026-05-01T13:19:51.382Z</time></trkpt><trkpt lat="42.2845932" lon="14.1092001"><ele>132.0</ele><time>2026-05-01T13:20:43.38Z</time></trkpt><trkpt lat="42.2846255" lon="14.1092993"><ele>132.0</ele><time>2026-05-01T13:20:45.382Z</time></trkpt><trkpt lat="42.2846747" lon="14.1094413"><ele>132.0</ele><time>2026-05-01T13:20:47.381Z</time></trkpt><trkpt lat="42.2847065" lon="14.1095279"><ele>132.83333333333334</ele><time>2026-05-01T13:20:48.38Z</time></trkpt><trkpt lat="42.2847454" lon="14.1096183"><ele>133.66666666666666</ele><time>2026-05-01T13:20:49.38Z</time></trkpt><trkpt lat="42.284782" lon="14.1097055"><ele>134.5</ele><time>2026-05-01T13:20:50.381Z</time></trkpt><trkpt lat="42.2848263" lon="14.1098062"><ele>135.33333333333331</ele><time>2026-05-01T13:20:51.381Z</time></trkpt><trkpt lat="42.2848625" lon="14.109902"><ele>136.16666666666666</ele><time>2026-05-01T13:20:52.382Z</time></trkpt><trkpt lat="42.2848991" lon="14.110005"><ele>137.0</ele><time>2026-05-01T13:20:53.381Z</time></trkpt><trkpt lat="42.2849343" lon="14.110107"><ele>135.0</ele><time>2026-05-01T13:20:54.381Z</time></trkpt><trkpt lat="42.2849712" lon="14.1102186"><ele>133.0</ele><time>2026-05-01T13:20:55.38Z</time></trkpt><trkpt lat="42.2850106" lon="14.1103476"><ele>131.0</ele><time>2026-05-01T13:20:56.381Z</time></trkpt><trkpt lat="42.2850465" lon="14.1104693"><ele>129.0</ele><time>2026-05-01T13:20:57.381Z</time></trkpt><trkpt lat="42.2850828" lon="14.1105972"><ele>127.0</ele><time>2026-05-01T13:20:58.381Z</time></trkpt><trkpt lat="42.2851213" lon="14.1107283"><ele>128.6</ele><time>2026-05-01T13:20:59.381Z</time></trkpt><trkpt lat="42.2851565" lon="14.1108613"><ele>130.2</ele><time>2026-05-01T13:21:00.381Z</time></trkpt><trkpt lat="42.2851916" lon="14.1110005"><ele>131.8</ele><time>2026-05-01T13:21:01.38Z</time></trkpt><trkpt lat="42.2852256" lon="14.1111357"><ele>133.4</ele><time>2026-05-01T13:21:02.38Z</time></trkpt><trkpt lat="42.2852593" lon="14.1112759"><ele>135.0</ele><time>2026-05-01T13:21:03.38Z</time></trkpt><trkpt lat="42.2852922" lon="14.1114199"><ele>135.0</ele><time>2026-05-01T13:21:04.381Z</time></trkpt><trkpt lat="42.2853275" lon="14.1115449"><ele>135.0</ele><time>2026-05-01T13:21:05.38Z</time></trkpt><trkpt lat="42.2853594" lon="14.1116567"><ele>135.0</ele><time>2026-05-01T13:21:06.381Z</time></trkpt><trkpt lat="42.285389" lon="14.1117532"><ele>135.0</ele><time>2026-05-01T13:21:07.38Z</time></trkpt><trkpt lat="42.285408" lon="14.1118416"><ele>135.0</ele><time>2026-05-01T13:21:08.382Z</time></trkpt><trkpt lat="42.285459" lon="14.1120085"><ele>135.8</ele><time>2026-05-01T13:21:10.38Z</time></trkpt><trkpt lat="42.2855032" lon="14.1120922"><ele>136.6</ele><time>2026-05-01T13:21:11.382Z</time></trkpt><trkpt lat="42.2855567" lon="14.1121876"><ele>137.4</ele><time>2026-05-01T13:21:12.382Z</time></trkpt><trkpt lat="42.2856235" lon="14.1122977"><ele>138.2</ele><time>2026-05-01T13:21:13.381Z</time></trkpt><trkpt lat="42.2856888" lon="14.112408"><ele>139.0</ele><time>2026-05-01T13:21:14.382Z</time></trkpt><trkpt lat="42.2857629" lon="14.1125144"><ele>137.2</ele><time>2026-05-01T13:21:15.38Z</time></trkpt><trkpt lat="42.2858314" lon="14.1126263"><ele>135.4</ele><time>2026-05-01T13:21:16.381Z</time></trkpt><trkpt lat="42.2859029" lon="14.1127347"><ele>133.6</ele><time>2026-05-01T13:21:17.381Z</time></trkpt><trkpt lat="42.285975" lon="14.112839"><ele>131.8</ele><time>2026-05-01T13:21:18.381Z</time></trkpt><trkpt lat="42.2860497" lon="14.1129548"><ele>130.0</ele><time>2026-05-01T13:21:19.38Z</time></trkpt><trkpt lat="42.2861057" lon="14.1130547"><ele>130.0</ele><time>2026-05-01T13:21:20.381Z</time></trkpt><trkpt lat="42.2861487" lon="14.1131419"><ele>130.0</ele><time>2026-05-01T13:21:21.382Z</time></trkpt><trkpt lat="42.2861883" lon="14.1132351"><ele>130.0</ele><time>2026-05-01T13:21:22.38Z</time></trkpt><trkpt lat="42.2862191" lon="14.1133476"><ele>130.0</ele><time>2026-05-01T13:21:23.381Z</time></trkpt><trkpt lat="42.286241" lon="14.1134744"><ele>130.0</ele><time>2026-05-01T13:21:24.381Z</time></trkpt><trkpt lat="42.286252" lon="14.1136189"><ele>131.8</ele><time>2026-05-01T13:21:25.381Z</time></trkpt><trkpt lat="42.2862846" lon="14.1137686"><ele>133.6</ele><time>2026-05-01T13:21:26.38Z</time></trkpt><trkpt lat="42.2862961" lon="14.1139156"><ele>135.4</ele><time>2026-05-01T13:21:27.381Z</time></trkpt><trkpt lat="42.2863107" lon="14.1140575"><ele>137.2</ele><time>2026-05-01T13:21:28.381Z</time></trkpt><trkpt lat="42.2863203" lon="14.114195"><ele>139.0</ele><time>2026-05-01T13:21:29.381Z</time></trkpt><trkpt lat="42.2863362" lon="14.1143272"><ele>140.0</ele><time>2026-05-01T13:21:30.382Z</time></trkpt><trkpt lat="42.2863489" lon="14.1144606"><ele>141.0</ele><time>2026-05-01T13:21:31.381Z</time></trkpt><trkpt lat="42.2863572" lon="14.1145914"><ele>142.0</ele><time>2026-05-01T13:21:32.382Z</time></trkpt><trkpt lat="42.2863727" lon="14.1147348"><ele>143.0</ele><time>2026-05-01T13:21:33.381Z</time></trkpt><trkpt lat="42.2863836" lon="14.1148558"><ele>144.0</ele><time>2026-05-01T13:21:34.382Z</time></trkpt><trkpt lat="42.2864081" lon="14.1149805"><ele>142.2</ele><time>2026-05-01T13:21:35.382Z</time></trkpt><trkpt lat="42.2864327" lon="14.1151153"><ele>140.4</ele><time>2026-05-01T13:21:36.381Z</time></trkpt><trkpt lat="42.2864676" lon="14.1152582"><ele>138.6</ele><time>2026-05-01T13:21:37.381Z</time></trkpt><trkpt lat="42.2865007" lon="14.1153982"><ele>136.8</ele><time>2026-05-01T13:21:38.381Z</time></trkpt><trkpt lat="42.2865338" lon="14.1155172"><ele>135.0</ele><time>2026-05-01T13:21:39.381Z</time></trkpt><trkpt lat="42.2865599" lon="14.1156276"><ele>135.0</ele><time>2026-05-01T13:21:40.382Z</time></trkpt><trkpt lat="42.2865518" lon="14.115719"><ele>135.0</ele><time>2026-05-01T13:21:41.382Z</time></trkpt><trkpt lat="42.286553" lon="14.1158172"><ele>135.0</ele><time>2026-05-01T13:21:42.381Z</time></trkpt><trkpt lat="42.2865307" lon="14.1159273"><ele>135.0</ele><time>2026-05-01T13:21:43.381Z</time></trkpt><trkpt lat="42.2864924" lon="14.1160397"><ele>135.0</ele><time>2026-05-01T13:21:44.381Z</time></trkpt><trkpt lat="42.2864487" lon="14.116148"><ele>135.0</ele><time>2026-05-01T13:21:45.381Z</time></trkpt><trkpt lat="42.2863866" lon="14.1162636"><ele>137.33333333333334</ele><time>2026-05-01T13:21:46.381Z</time></trkpt><trkpt lat="42.2863211" lon="14.116381"><ele>139.66666666666666</ele><time>2026-05-01T13:21:47.381Z</time></trkpt><trkpt lat="42.2862673" lon="14.116473"><ele>142.0</ele><time>2026-05-01T13:21:48.381Z</time></trkpt><trkpt lat="42.286228" lon="14.1165662"><ele>144.33333333333331</ele><time>2026-05-01T13:21:49.381Z</time></trkpt><trkpt lat="42.2861952" lon="14.1166679"><ele>146.66666666666666</ele><time>2026-05-01T13:21:50.381Z</time></trkpt><trkpt lat="42.286173" lon="14.1167554"><ele>149.0</ele><time>2026-05-01T13:21:51.381Z</time></trkpt><trkpt lat="42.286169" lon="14.1168692"><ele>149.0</ele><time>2026-05-01T13:21:52.381Z</time></trkpt><trkpt lat="42.2861589" lon="14.1170018"><ele>149.0</ele><time>2026-05-01T13:21:53.381Z</time></trkpt><trkpt lat="42.2861509" lon="14.117114"><ele>149.0</ele><time>2026-05-01T13:21:54.381Z</time></trkpt><trkpt lat="42.2861481" lon="14.1172126"><ele>149.0</ele><time>2026-05-01T13:21:55.38Z</time></trkpt><trkpt lat="42.2861452" lon="14.11731"><ele>149.0</ele><time>2026-05-01T13:21:56.381Z</time></trkpt><trkpt lat="42.2861377" lon="14.117412"><ele>149.0</ele><time>2026-05-01T13:21:57.381Z</time></trkpt><trkpt lat="42.2861347" lon="14.1175259"><ele>149.4</ele><time>2026-05-01T13:21:58.38Z</time></trkpt><trkpt lat="42.286122" lon="14.1176564"><ele>149.8</ele><time>2026-05-01T13:21:59.38Z</time></trkpt><trkpt lat="42.2861039" lon="14.1178042"><ele>150.2</ele><time>2026-05-01T13:22:00.381Z</time></trkpt><trkpt lat="42.2860719" lon="14.1179492"><ele>150.6</ele><time>2026-05-01T13:22:01.381Z</time></trkpt><trkpt lat="42.2860347" lon="14.1180809"><ele>151.0</ele><time>2026-05-01T13:22:02.38Z</time></trkpt><trkpt lat="42.2859889" lon="14.1182304"><ele>151.8</ele><time>2026-05-01T13:22:03.379Z</time></trkpt><trkpt lat="42.2859518" lon="14.118387"><ele>152.6</ele><time>2026-05-01T13:22:04.379Z</time></trkpt><trkpt lat="42.2859211" lon="14.1185196"><ele>153.4</ele><time>2026-05-01T13:22:05.38Z</time></trkpt><trkpt lat="42.2858936" lon="14.1186232"><ele>154.2</ele><time>2026-05-01T13:22:06.38Z</time></trkpt><trkpt lat="42.2858842" lon="14.1187361"><ele>155.0</ele><time>2026-05-01T13:22:07.38Z</time></trkpt><trkpt lat="42.2858734" lon="14.1188728"><ele>155.0</ele><time>2026-05-01T13:22:08.38Z</time></trkpt><trkpt lat="42.2858495" lon="14.1189865"><ele>155.0</ele><time>2026-05-01T13:22:09.381Z</time></trkpt><trkpt lat="42.2858135" lon="14.1191071"><ele>155.0</ele><time>2026-05-01T13:22:10.38Z</time></trkpt><trkpt lat="42.2857747" lon="14.1191953"><ele>155.0</ele><time>2026-05-01T13:22:11.379Z</time></trkpt><trkpt lat="42.2857256" lon="14.1192629"><ele>155.0</ele><time>2026-05-01T13:22:12.379Z</time></trkpt><trkpt lat="42.2856804" lon="14.119331"><ele>155.0</ele><time>2026-05-01T13:22:13.38Z</time></trkpt><trkpt lat="42.2856252" lon="14.1194063"><ele>158.4</ele><time>2026-05-01T13:22:14.38Z</time></trkpt><trkpt lat="42.2855521" lon="14.1194854"><ele>161.8</ele><time>2026-05-01T13:22:15.38Z</time></trkpt><trkpt lat="42.2854729" lon="14.1195672"><ele>165.2</ele><time>2026-05-01T13:22:16.38Z</time></trkpt><trkpt lat="42.2853854" lon="14.1196538"><ele>168.6</ele><time>2026-05-01T13:22:17.38Z</time></trkpt><trkpt lat="42.2852968" lon="14.1197458"><ele>172.0</ele><time>2026-05-01T13:22:18.38Z</time></trkpt><trkpt lat="42.2852064" lon="14.1198217"><ele>172.0</ele><time>2026-05-01T13:22:19.381Z</time></trkpt><trkpt lat="42.2851129" lon="14.1198909"><ele>172.0</ele><time>2026-05-01T13:22:20.38Z</time></trkpt><trkpt lat="42.2850202" lon="14.1199648"><ele>172.0</ele><time>2026-05-01T13:22:21.38Z</time></trkpt><trkpt lat="42.2849319" lon="14.1200379"><ele>172.0</ele><time>2026-05-01T13:22:22.379Z</time></trkpt><trkpt lat="42.2848454" lon="14.1201089"><ele>172.0</ele><time>2026-05-01T13:22:23.38Z</time></trkpt><trkpt lat="42.284766" lon="14.1201737"><ele>174.83333333333334</ele><time>2026-05-01T13:22:24.38Z</time></trkpt><trkpt lat="42.2847128" lon="14.1202284"><ele>177.66666666666669</ele><time>2026-05-01T13:22:25.381Z</time></trkpt><trkpt lat="42.2846648" lon="14.1202958"><ele>180.5</ele><time>2026-05-01T13:22:26.38Z</time></trkpt><trkpt lat="42.2846165" lon="14.1203843"><ele>183.33333333333334</ele><time>2026-05-01T13:22:27.379Z</time></trkpt><trkpt lat="42.2845706" lon="14.1204827"><ele>186.16666666666666</ele><time>2026-05-01T13:22:28.38Z</time></trkpt><trkpt lat="42.284531" lon="14.1205882"><ele>189.0</ele><time>2026-05-01T13:22:29.38Z</time></trkpt><trkpt lat="42.2845005" lon="14.120702"><ele>188.83333333333334</ele><time>2026-05-01T13:22:30.379Z</time></trkpt><trkpt lat="42.284477" lon="14.1208096"><ele>188.66666666666666</ele><time>2026-05-01T13:22:31.379Z</time></trkpt><trkpt lat="42.2844577" lon="14.120911"><ele>188.5</ele><time>2026-05-01T13:22:32.38Z</time></trkpt><trkpt lat="42.2844452" lon="14.1210162"><ele>188.33333333333331</ele><time>2026-05-01T13:22:33.38Z</time></trkpt><trkpt lat="42.2844357" lon="14.1211325"><ele>188.16666666666666</ele><time>2026-05-01T13:22:34.38Z</time></trkpt><trkpt lat="42.2844272" lon="14.1212559"><ele>188.0</ele><time>2026-05-01T13:22:35.379Z</time></trkpt><trkpt lat="42.2844179" lon="14.1213743"><ele>188.0</ele><time>2026-05-01T13:22:36.38Z</time></trkpt><trkpt lat="42.284405" lon="14.1215029"><ele>188.0</ele><time>2026-05-01T13:22:37.379Z</time></trkpt><trkpt lat="42.2843877" lon="14.1216252"><ele>188.0</ele><time>2026-05-01T13:22:38.38Z</time></trkpt><trkpt lat="42.2843617" lon="14.1217357"><ele>188.0</ele><time>2026-05-01T13:22:39.381Z</time></trkpt><trkpt lat="42.2843417" lon="14.1218253"><ele>188.0</ele><time>2026-05-01T13:22:40.38Z</time></trkpt><trkpt lat="42.2843086" lon="14.1219119"><ele>188.0</ele><time>2026-05-01T13:22:42.381Z</time></trkpt><trkpt lat="42.2842724" lon="14.1219821"><ele>188.2</ele><time>2026-05-01T13:23:02.38Z</time></trkpt><trkpt lat="42.2842039" lon="14.122061"><ele>188.4</ele><time>2026-05-01T13:23:04.379Z</time></trkpt><trkpt lat="42.284085" lon="14.122119"><ele>188.6</ele><time>2026-05-01T13:23:06.38Z</time></trkpt><trkpt lat="42.2839654" lon="14.1221179"><ele>188.79999999999998</ele><time>2026-05-01T13:23:08.381Z</time></trkpt><trkpt lat="42.2839023" lon="14.1220796"><ele>189.0</ele><time>2026-05-01T13:23:09.38Z</time></trkpt><trkpt lat="42.2838485" lon="14.1220238"><ele>193.33333333333334</ele><time>2026-05-01T13:23:10.379Z</time></trkpt><trkpt lat="42.2837962" lon="14.1219522"><ele>197.66666666666669</ele><time>2026-05-01T13:23:11.379Z</time></trkpt><trkpt lat="42.2837525" lon="14.1218713"><ele>202.0</ele><time>2026-05-01T13:23:12.379Z</time></trkpt><trkpt lat="42.2837083" lon="14.121803"><ele>206.33333333333334</ele><time>2026-05-01T13:23:13.379Z</time></trkpt><trkpt lat="42.2836529" lon="14.1217248"><ele>210.66666666666669</ele><time>2026-05-01T13:23:14.379Z</time></trkpt><trkpt lat="42.2835994" lon="14.1216361"><ele>215.0</ele><time>2026-05-01T13:23:15.38Z</time></trkpt><trkpt lat="42.2835434" lon="14.1215562"><ele>215.00000000000003</ele><time>2026-05-01T13:23:16.38Z</time></trkpt><trkpt lat="42.2834908" lon="14.1214715"><ele>215.0</ele><time>2026-05-01T13:23:17.381Z</time></trkpt><trkpt lat="42.283444" lon="14.1213713"><ele>215.0</ele><time>2026-05-01T13:23:18.38Z</time></trkpt><trkpt lat="42.2833927" lon="14.1212641"><ele>215.0</ele><time>2026-05-01T13:23:19.38Z</time></trkpt><trkpt lat="42.2833372" lon="14.1211596"><ele>215.00000000000003</ele><time>2026-05-01T13:23:20.379Z</time></trkpt><trkpt lat="42.2832988" lon="14.1210701"><ele>215.0</ele><time>2026-05-01T13:23:21.379Z</time></trkpt><trkpt lat="42.2832634" lon="14.1209754"><ele>215.0</ele><time>2026-05-01T13:23:22.38Z</time></trkpt><trkpt lat="42.2832348" lon="14.120875"><ele>215.0</ele><time>2026-05-01T13:23:23.379Z</time></trkpt><trkpt lat="42.2832057" lon="14.1207743"><ele>215.0</ele><time>2026-05-01T13:23:24.381Z</time></trkpt><trkpt lat="42.2831702" lon="14.1206568"><ele>215.0</ele><time>2026-05-01T13:23:25.38Z</time></trkpt><trkpt lat="42.283137" lon="14.1205369"><ele>215.0</ele><time>2026-05-01T13:23:26.38Z</time></trkpt><trkpt lat="42.2830943" lon="14.1204065"><ele>218.75</ele><time>2026-05-01T13:23:27.38Z</time></trkpt><trkpt lat="42.283052" lon="14.1202687"><ele>222.5</ele><time>2026-05-01T13:23:28.381Z</time></trkpt><trkpt lat="42.2830031" lon="14.1201146"><ele>226.25</ele><time>2026-05-01T13:23:29.379Z</time></trkpt><trkpt lat="42.2829588" lon="14.1199514"><ele>230.0</ele><time>2026-05-01T13:23:30.38Z</time></trkpt><trkpt lat="42.2829136" lon="14.1197815"><ele>230.0</ele><time>2026-05-01T13:23:31.38Z</time></trkpt><trkpt lat="42.2828632" lon="14.119614"><ele>230.0</ele><time>2026-05-01T13:23:32.38Z</time></trkpt><trkpt lat="42.2828166" lon="14.1194531"><ele>230.0</ele><time>2026-05-01T13:23:33.379Z</time></trkpt><trkpt lat="42.2827749" lon="14.1192967"><ele>230.0</ele><time>2026-05-01T13:23:34.379Z</time></trkpt><trkpt lat="42.2827381" lon="14.1191486"><ele>229.2</ele><time>2026-05-01T13:23:35.381Z</time></trkpt><trkpt lat="42.2826913" lon="14.118997"><ele>228.4</ele><time>2026-05-01T13:23:36.38Z</time></trkpt><trkpt lat="42.2826479" lon="14.1188559"><ele>227.60000000000002</ele><time>2026-05-01T13:23:37.38Z</time></trkpt><trkpt lat="42.2826095" lon="14.1187324"><ele>226.8</ele><time>2026-05-01T13:23:38.38Z</time></trkpt><trkpt lat="42.2825671" lon="14.1185987"><ele>226.0</ele><time>2026-05-01T13:23:39.38Z</time></trkpt><trkpt lat="42.2825243" lon="14.1184602"><ele>226.0</ele><time>2026-05-01T13:23:40.38Z</time></trkpt><trkpt lat="42.2824783" lon="14.118324"><ele>226.0</ele><time>2026-05-01T13:23:41.38Z</time></trkpt><trkpt lat="42.2824292" lon="14.1181871"><ele>226.0</ele><time>2026-05-01T13:23:42.379Z</time></trkpt><trkpt lat="42.2823752" lon="14.1180529"><ele>226.0</ele><time>2026-05-01T13:23:43.38Z</time></trkpt><trkpt lat="42.2823119" lon="14.1179222"><ele>225.49999999999997</ele><time>2026-05-01T13:23:44.379Z</time></trkpt><trkpt lat="42.2822552" lon="14.117809"><ele>225.0</ele><time>2026-05-01T13:23:45.38Z</time></trkpt><trkpt lat="42.282198" lon="14.117713"><ele>224.5</ele><time>2026-05-01T13:23:46.38Z</time></trkpt><trkpt lat="42.2821543" lon="14.1176486"><ele>224.0</ele><time>2026-05-01T13:23:47.379Z</time></trkpt><trkpt lat="42.2820921" lon="14.1175851"><ele>223.49999999999997</ele><time>2026-05-01T13:23:49.38Z</time></trkpt><trkpt lat="42.2820408" lon="14.1176822"><ele>223.0</ele><time>2026-05-01T13:23:52.38Z</time></trkpt><trkpt lat="42.2820493" lon="14.1178765"><ele>223.0</ele><time>2026-05-01T13:23:54.38Z</time></trkpt><trkpt lat="42.282047" lon="14.1179967"><ele>223.0</ele><time>2026-05-01T13:23:55.38Z</time></trkpt><trkpt lat="42.2820471" lon="14.1181291"><ele>223.0</ele><time>2026-05-01T13:23:56.38Z</time></trkpt><trkpt lat="42.28204" lon="14.1182645"><ele>223.0</ele><time>2026-05-01T13:23:57.379Z</time></trkpt><trkpt lat="42.2820268" lon="14.1184088"><ele>223.0</ele><time>2026-05-01T13:23:58.379Z</time></trkpt><trkpt lat="42.2820095" lon="14.1185585"><ele>224.25</ele><time>2026-05-01T13:23:59.38Z</time></trkpt><trkpt lat="42.2819927" lon="14.1187143"><ele>225.5</ele><time>2026-05-01T13:24:00.38Z</time></trkpt><trkpt lat="42.2819719" lon="14.1188752"><ele>226.75</ele><time>2026-05-01T13:24:01.38Z</time></trkpt><trkpt lat="42.2819506" lon="14.1190438"><ele>228.0</ele><time>2026-05-01T13:24:02.379Z</time></trkpt><trkpt lat="42.2819275" lon="14.1192191"><ele>230.0</ele><time>2026-05-01T13:24:03.379Z</time></trkpt><trkpt lat="42.2819112" lon="14.1194021"><ele>232.0</ele><time>2026-05-01T13:24:04.379Z</time></trkpt><trkpt lat="42.2819048" lon="14.1195854"><ele>234.0</ele><time>2026-05-01T13:24:05.379Z</time></trkpt><trkpt lat="42.2819187" lon="14.1197789"><ele>236.0</ele><time>2026-05-01T13:24:06.379Z</time></trkpt><trkpt lat="42.2819484" lon="14.1199872"><ele>237.5</ele><time>2026-05-01T13:24:07.379Z</time></trkpt><trkpt lat="42.2819953" lon="14.1201917"><ele>239.0</ele><time>2026-05-01T13:24:08.379Z</time></trkpt><trkpt lat="42.2820453" lon="14.1203888"><ele>240.5</ele><time>2026-05-01T13:24:09.379Z</time></trkpt><trkpt lat="42.2820771" lon="14.1205673"><ele>242.0</ele><time>2026-05-01T13:24:10.378Z</time></trkpt><trkpt lat="42.2820917" lon="14.1207521"><ele>244.0</ele><time>2026-05-01T13:24:11.378Z</time></trkpt><trkpt lat="42.2820969" lon="14.1209458"><ele>246.0</ele><time>2026-05-01T13:24:12.379Z</time></trkpt><trkpt lat="42.2820843" lon="14.1211496"><ele>248.0</ele><time>2026-05-01T13:24:13.379Z</time></trkpt><trkpt lat="42.2820514" lon="14.1213589"><ele>248.0</ele><time>2026-05-01T13:24:14.378Z</time></trkpt><trkpt lat="42.2820186" lon="14.1215633"><ele>248.0</ele><time>2026-05-01T13:24:15.379Z</time></trkpt><trkpt lat="42.2820046" lon="14.1217682"><ele>248.0</ele><time>2026-05-01T13:24:16.379Z</time></trkpt><trkpt lat="42.2820196" lon="14.1219792"><ele>249.33333333333334</ele><time>2026-05-01T13:24:17.379Z</time></trkpt><trkpt lat="42.2820501" lon="14.1221985"><ele>250.66666666666669</ele><time>2026-05-01T13:24:18.38Z</time></trkpt><trkpt lat="42.282085" lon="14.1224196"><ele>252.0</ele><time>2026-05-01T13:24:19.379Z</time></trkpt><trkpt lat="42.2821154" lon="14.1226479"><ele>254.33333333333331</ele><time>2026-05-01T13:24:20.378Z</time></trkpt><trkpt lat="42.2821346" lon="14.1228868"><ele>256.66666666666663</ele><time>2026-05-01T13:24:21.378Z</time></trkpt><trkpt lat="42.2821453" lon="14.1231284"><ele>259.0</ele><time>2026-05-01T13:24:22.378Z</time></trkpt><trkpt lat="42.2821495" lon="14.123382"><ele>263.0</ele><time>2026-05-01T13:24:23.379Z</time></trkpt><trkpt lat="42.2821558" lon="14.1236426"><ele>267.0</ele><time>2026-05-01T13:24:24.379Z</time></trkpt><trkpt lat="42.2821634" lon="14.1239157"><ele>271.0</ele><time>2026-05-01T13:24:25.378Z</time></trkpt><trkpt lat="42.2821738" lon="14.1241959"><ele>273.66666666666663</ele><time>2026-05-01T13:24:26.379Z</time></trkpt><trkpt lat="42.2821897" lon="14.1244692"><ele>276.3333333333333</ele><time>2026-05-01T13:24:27.379Z</time></trkpt><trkpt lat="42.2822101" lon="14.1247419"><ele>279.0</ele><time>2026-05-01T13:24:28.379Z</time></trkpt><trkpt lat="42.2822339" lon="14.1250041"><ele>279.6666666666667</ele><time>2026-05-01T13:24:29.378Z</time></trkpt><trkpt lat="42.28226" lon="14.1252599"><ele>280.33333333333337</ele><time>2026-05-01T13:24:30.379Z</time></trkpt><trkpt lat="42.2822844" lon="14.1255065"><ele>281.0</ele><time>2026-05-01T13:24:31.379Z</time></trkpt><trkpt lat="42.2823087" lon="14.1257426"><ele>283.6666666666667</ele><time>2026-05-01T13:24:32.379Z</time></trkpt><trkpt lat="42.2823352" lon="14.1259487"><ele>286.3333333333333</ele><time>2026-05-01T13:24:33.379Z</time></trkpt><trkpt lat="42.2823618" lon="14.1261421"><ele>289.0</ele><time>2026-05-01T13:24:34.378Z</time></trkpt><trkpt lat="42.2824058" lon="14.1263356"><ele>289.0</ele><time>2026-05-01T13:24:35.379Z</time></trkpt><trkpt lat="42.2824661" lon="14.1265122"><ele>289.0</ele><time>2026-05-01T13:24:36.38Z</time></trkpt><trkpt lat="42.2825262" lon="14.1266676"><ele>289.0</ele><time>2026-05-01T13:24:37.379Z</time></trkpt><trkpt lat="42.2825813" lon="14.1268051"><ele>289.0</ele><time>2026-05-01T13:24:38.379Z</time></trkpt><trkpt lat="42.2826245" lon="14.1269146"><ele>291.2</ele><time>2026-05-01T13:24:39.379Z</time></trkpt><trkpt lat="42.2826511" lon="14.1269979"><ele>293.4</ele><time>2026-05-01T13:24:40.379Z</time></trkpt><trkpt lat="42.2827096" lon="14.1271634"><ele>295.6</ele><time>2026-05-01T13:24:42.379Z</time></trkpt><trkpt lat="42.2827751" lon="14.1272824"><ele>297.8</ele><time>2026-05-01T13:24:43.379Z</time></trkpt><trkpt lat="42.2828529" lon="14.1274194"><ele>300.0</ele><time>2026-05-01T13:24:44.379Z</time></trkpt><trkpt lat="42.2829416" lon="14.1275709"><ele>300.3333333333333</ele><time>2026-05-01T13:24:45.379Z</time></trkpt><trkpt lat="42.2830378" lon="14.1277339"><ele>300.66666666666663</ele><time>2026-05-01T13:24:46.378Z</time></trkpt><trkpt lat="42.2831329" lon="14.127904"><ele>301.0</ele><time>2026-05-01T13:24:47.379Z</time></trkpt><trkpt lat="42.283231" lon="14.1280787"><ele>301.25</ele><time>2026-05-01T13:24:48.379Z</time></trkpt><trkpt lat="42.2833313" lon="14.1282495"><ele>301.5</ele><time>2026-05-01T13:24:49.379Z</time></trkpt><trkpt lat="42.2834257" lon="14.1284027"><ele>301.75</ele><time>2026-05-01T13:24:50.379Z</time></trkpt><trkpt lat="42.2835211" lon="14.1285252"><ele>302.0</ele><time>2026-05-01T13:24:51.379Z</time></trkpt><trkpt lat="42.2836204" lon="14.1286115"><ele>302.0</ele><time>2026-05-01T13:24:52.378Z</time></trkpt><trkpt lat="42.2837427" lon="14.1286716"><ele>302.0</ele><time>2026-05-01T13:24:53.378Z</time></trkpt><trkpt lat="42.2838759" lon="14.1286911"><ele>302.0</ele><time>2026-05-01T13:24:54.379Z</time></trkpt><trkpt lat="42.2840206" lon="14.128702"><ele>302.0</ele><time>2026-05-01T13:24:55.379Z</time></trkpt><trkpt lat="42.2841549" lon="14.1287372"><ele>302.5</ele><time>2026-05-01T13:24:56.379Z</time></trkpt><trkpt lat="42.2842759" lon="14.1288007"><ele>303.0</ele><time>2026-05-01T13:24:57.379Z</time></trkpt><trkpt lat="42.2843955" lon="14.1288976"><ele>303.5</ele><time>2026-05-01T13:24:58.379Z</time></trkpt><trkpt lat="42.2845232" lon="14.1290134"><ele>304.0</ele><time>2026-05-01T13:24:59.379Z</time></trkpt><trkpt lat="42.2846542" lon="14.1291434"><ele>303.3333333333333</ele><time>2026-05-01T13:25:00.378Z</time></trkpt><trkpt lat="42.284793" lon="14.129285"><ele>302.6666666666667</ele><time>2026-05-01T13:25:01.379Z</time></trkpt><trkpt lat="42.2849347" lon="14.1294333"><ele>302.0</ele><time>2026-05-01T13:25:02.379Z</time></trkpt><trkpt lat="42.2850756" lon="14.1296002"><ele>302.0</ele><time>2026-05-01T13:25:03.379Z</time></trkpt><trkpt lat="42.2852149" lon="14.1297809"><ele>302.0</ele><time>2026-05-01T13:25:04.38Z</time></trkpt><trkpt lat="42.2853474" lon="14.1299646"><ele>302.0</ele><time>2026-05-01T13:25:05.378Z</time></trkpt><trkpt lat="42.2854718" lon="14.1301449"><ele>303.6666666666667</ele><time>2026-05-01T13:25:06.38Z</time></trkpt><trkpt lat="42.2855839" lon="14.1303292"><ele>305.3333333333333</ele><time>2026-05-01T13:25:07.38Z</time></trkpt><trkpt lat="42.285681" lon="14.1305125"><ele>307.0</ele><time>2026-05-01T13:25:08.379Z</time></trkpt><trkpt lat="42.2857719" lon="14.1306996"><ele>304.0</ele><time>2026-05-01T13:25:09.379Z</time></trkpt><trkpt lat="42.2858581" lon="14.1309"><ele>301.0</ele><time>2026-05-01T13:25:10.378Z</time></trkpt><trkpt lat="42.2859621" lon="14.1310935"><ele>298.0</ele><time>2026-05-01T13:25:11.378Z</time></trkpt><trkpt lat="42.2860752" lon="14.1312797"><ele>298.0</ele><time>2026-05-01T13:25:12.38Z</time></trkpt><trkpt lat="42.2861928" lon="14.1314651"><ele>298.0</ele><time>2026-05-01T13:25:13.38Z</time></trkpt><trkpt lat="42.2863045" lon="14.1316446"><ele>298.0</ele><time>2026-05-01T13:25:14.379Z</time></trkpt><trkpt lat="42.2864112" lon="14.1318191"><ele>295.0</ele><time>2026-05-01T13:25:15.379Z</time></trkpt><trkpt lat="42.2865067" lon="14.1319906"><ele>292.0</ele><time>2026-05-01T13:25:16.38Z</time></trkpt><trkpt lat="42.28659" lon="14.1321546"><ele>289.0</ele><time>2026-05-01T13:25:17.378Z</time></trkpt><trkpt lat="42.2866613" lon="14.1323274"><ele>289.75</ele><time>2026-05-01T13:25:18.378Z</time></trkpt><trkpt lat="42.2867127" lon="14.1325163"><ele>290.5</ele><time>2026-05-01T13:25:19.38Z</time></trkpt><trkpt lat="42.286756" lon="14.1327086"><ele>291.25</ele><time>2026-05-01T13:25:20.379Z</time></trkpt><trkpt lat="42.2867918" lon="14.132884"><ele>292.0</ele><time>2026-05-01T13:25:21.378Z</time></trkpt><trkpt lat="42.2868291" lon="14.133048"><ele>292.0</ele><time>2026-05-01T13:25:22.379Z</time></trkpt><trkpt lat="42.2868691" lon="14.133179"><ele>292.0</ele><time>2026-05-01T13:25:23.379Z</time></trkpt><trkpt lat="42.2869116" lon="14.133274"><ele>292.0</ele><time>2026-05-01T13:25:24.379Z</time></trkpt><trkpt lat="42.2870254" lon="14.1333716"><ele>292.0</ele><time>2026-05-01T13:25:26.379Z</time></trkpt><trkpt lat="42.2871176" lon="14.1334243"><ele>292.0</ele><time>2026-05-01T13:25:27.38Z</time></trkpt><trkpt lat="42.2872317" lon="14.1334751"><ele>291.25</ele><time>2026-05-01T13:25:28.38Z</time></trkpt><trkpt lat="42.2873629" lon="14.1335291"><ele>290.5</ele><time>2026-05-01T13:25:29.379Z</time></trkpt><trkpt lat="42.2875077" lon="14.133589"><ele>289.75</ele><time>2026-05-01T13:25:30.378Z</time></trkpt><trkpt lat="42.2876512" lon="14.1336446"><ele>289.0</ele><time>2026-05-01T13:25:31.379Z</time></trkpt><trkpt lat="42.287776" lon="14.133704"><ele>289.0</ele><time>2026-05-01T13:25:32.378Z</time></trkpt><trkpt lat="42.2878883" lon="14.1337679"><ele>289.0</ele><time>2026-05-01T13:25:33.378Z</time></trkpt><trkpt lat="42.2879934" lon="14.1338592"><ele>289.0</ele><time>2026-05-01T13:25:34.38Z</time></trkpt><trkpt lat="42.2880813" lon="14.1339906"><ele>289.0</ele><time>2026-05-01T13:25:35.378Z</time></trkpt><trkpt lat="42.2881653" lon="14.1341484"><ele>292.0</ele><time>2026-05-01T13:25:36.379Z</time></trkpt><trkpt lat="42.2882575" lon="14.1343133"><ele>295.0</ele><time>2026-05-01T13:25:37.38Z</time></trkpt><trkpt lat="42.2883602" lon="14.1344756"><ele>298.0</ele><time>2026-05-01T13:25:38.38Z</time></trkpt><trkpt lat="42.28848" lon="14.1346251"><ele>298.0</ele><time>2026-05-01T13:25:39.379Z</time></trkpt><trkpt lat="42.2886151" lon="14.1347572"><ele>298.0</ele><time>2026-05-01T13:25:40.379Z</time></trkpt><trkpt lat="42.2887669" lon="14.1348824"><ele>298.0</ele><time>2026-05-01T13:25:41.379Z</time></trkpt><trkpt lat="42.2889007" lon="14.1349973"><ele>301.0</ele><time>2026-05-01T13:25:42.378Z</time></trkpt><trkpt lat="42.2890121" lon="14.1351018"><ele>304.0</ele><time>2026-05-01T13:25:43.378Z</time></trkpt><trkpt lat="42.2891268" lon="14.1352072"><ele>307.0</ele><time>2026-05-01T13:25:44.379Z</time></trkpt><trkpt lat="42.2892412" lon="14.1353296"><ele>310.0</ele><time>2026-05-01T13:25:45.378Z</time></trkpt><trkpt lat="42.2893585" lon="14.1354698"><ele>310.0</ele><time>2026-05-01T13:25:46.379Z</time></trkpt><trkpt lat="42.289495" lon="14.1355918"><ele>310.0</ele><time>2026-05-01T13:25:47.379Z</time></trkpt><trkpt lat="42.2896407" lon="14.1356898"><ele>310.0</ele><time>2026-05-01T13:25:48.379Z</time></trkpt><trkpt lat="42.289807" lon="14.1357609"><ele>310.3333333333333</ele><time>2026-05-01T13:25:49.379Z</time></trkpt><trkpt lat="42.2899879" lon="14.1358196"><ele>310.6666666666667</ele><time>2026-05-01T13:25:50.378Z</time></trkpt><trkpt lat="42.2901771" lon="14.1358818"><ele>311.0</ele><time>2026-05-01T13:25:51.379Z</time></trkpt><trkpt lat="42.2903685" lon="14.1359484"><ele>311.0</ele><time>2026-05-01T13:25:52.379Z</time></trkpt><trkpt lat="42.2905569" lon="14.1360077"><ele>311.0</ele><time>2026-05-01T13:25:53.379Z</time></trkpt><trkpt lat="42.2907275" lon="14.1360664"><ele>311.0</ele><time>2026-05-01T13:25:54.378Z</time></trkpt><trkpt lat="42.290882" lon="14.1361191"><ele>312.2</ele><time>2026-05-01T13:25:55.378Z</time></trkpt><trkpt lat="42.2910143" lon="14.1361292"><ele>313.40000000000003</ele><time>2026-05-01T13:25:56.378Z</time></trkpt><trkpt lat="42.2911324" lon="14.1361135"><ele>314.6</ele><time>2026-05-01T13:25:57.379Z</time></trkpt><trkpt lat="42.2912274" lon="14.1360775"><ele>315.8</ele><time>2026-05-01T13:25:58.379Z</time></trkpt><trkpt lat="42.2913144" lon="14.1360532"><ele>317.0</ele><time>2026-05-01T13:25:59.379Z</time></trkpt><trkpt lat="42.2913871" lon="14.1360369"><ele>317.0</ele><time>2026-05-01T13:26:00.379Z</time></trkpt><trkpt lat="42.2914627" lon="14.1359424"><ele>317.0</ele><time>2026-05-01T13:26:02.379Z</time></trkpt><trkpt lat="42.2914242" lon="14.1358065"><ele>317.0</ele><time>2026-05-01T13:26:04.377Z</time></trkpt><trkpt lat="42.2913812" lon="14.1357419"><ele>317.0</ele><time>2026-05-01T13:26:05.377Z</time></trkpt><trkpt lat="42.2912941" lon="14.1356015"><ele>317.0</ele><time>2026-05-01T13:26:07.378Z</time></trkpt><trkpt lat="42.291244" lon="14.1355133"><ele>319.2</ele><time>2026-05-01T13:26:08.378Z</time></trkpt><trkpt lat="42.2911983" lon="14.1354164"><ele>321.4</ele><time>2026-05-01T13:26:09.378Z</time></trkpt><trkpt lat="42.2911606" lon="14.1353203"><ele>323.59999999999997</ele><time>2026-05-01T13:26:10.379Z</time></trkpt><trkpt lat="42.2911131" lon="14.1352035"><ele>325.79999999999995</ele><time>2026-05-01T13:26:11.377Z</time></trkpt><trkpt lat="42.2910619" lon="14.1350737"><ele>328.0</ele><time>2026-05-01T13:26:12.377Z</time></trkpt><trkpt lat="42.2910095" lon="14.1349406"><ele>326.8333333333333</ele><time>2026-05-01T13:26:13.378Z</time></trkpt><trkpt lat="42.2909633" lon="14.1348238"><ele>325.66666666666663</ele><time>2026-05-01T13:26:14.378Z</time></trkpt><trkpt lat="42.2909283" lon="14.1347363"><ele>324.5</ele><time>2026-05-01T13:26:15.378Z</time></trkpt><trkpt lat="42.2908871" lon="14.1346326"><ele>323.3333333333333</ele><time>2026-05-01T13:26:17.377Z</time></trkpt><trkpt lat="42.2909279" lon="14.1347051"><ele>322.1666666666667</ele><time>2026-05-01T13:26:46.377Z</time></trkpt><trkpt lat="42.2909172" lon="14.1346062"><ele>321.0</ele><time>2026-05-01T13:26:49.378Z</time></trkpt><trkpt lat="42.2908927" lon="14.1345091"><ele>321.0</ele><time>2026-05-01T13:26:51.378Z</time></trkpt><trkpt lat="42.290869" lon="14.1344136"><ele>321.0</ele><time>2026-05-01T13:26:54.379Z</time></trkpt><trkpt lat="42.2908062" lon="14.1343614"><ele>321.0</ele><time>2026-05-01T13:47:56.368Z</time></trkpt><trkpt lat="42.2907709" lon="14.1342727"><ele>321.0</ele><time>2026-05-01T13:47:58.367Z</time></trkpt><trkpt lat="42.2907454" lon="14.1341812"><ele>321.0</ele><time>2026-05-01T13:48:59.368Z</time></trkpt><trkpt lat="42.2906588" lon="14.1340581"><ele>321.0</ele><time>2026-05-01T13:49:02.367Z</time></trkpt><trkpt lat="42.290596" lon="14.1340134"><ele>320.6</ele><time>2026-05-01T13:49:03.369Z</time></trkpt><trkpt lat="42.2905169" lon="14.1339697"><ele>320.20000000000005</ele><time>2026-05-01T13:49:04.367Z</time></trkpt><trkpt lat="42.2904325" lon="14.1339299"><ele>319.79999999999995</ele><time>2026-05-01T13:49:05.368Z</time></trkpt><trkpt lat="42.2903349" lon="14.1338836"><ele>319.4</ele><time>2026-05-01T13:49:06.368Z</time></trkpt><trkpt lat="42.2902337" lon="14.1338285"><ele>319.0</ele><time>2026-05-01T13:49:07.369Z</time></trkpt><trkpt lat="42.2901354" lon="14.1337589"><ele>319.0</ele><time>2026-05-01T13:49:08.368Z</time></trkpt><trkpt lat="42.2900579" lon="14.1336672"><ele>319.0</ele><time>2026-05-01T13:49:09.368Z</time></trkpt><trkpt lat="42.2899915" lon="14.1335577"><ele>319.0</ele><time>2026-05-01T13:49:10.368Z</time></trkpt><trkpt lat="42.2899322" lon="14.1334355"><ele>319.0</ele><time>2026-05-01T13:49:11.367Z</time></trkpt><trkpt lat="42.2898716" lon="14.1333119"><ele>319.0</ele><time>2026-05-01T13:49:12.369Z</time></trkpt><trkpt lat="42.2898091" lon="14.1332051"><ele>318.16666666666663</ele><time>2026-05-01T13:49:13.368Z</time></trkpt><trkpt lat="42.2897426" lon="14.1331251"><ele>317.3333333333333</ele><time>2026-05-01T13:49:14.369Z</time></trkpt><trkpt lat="42.2896821" lon="14.1330509"><ele>316.5</ele><time>2026-05-01T13:49:15.368Z</time></trkpt><trkpt lat="42.2896419" lon="14.1329768"><ele>315.6666666666667</ele><time>2026-05-01T13:49:16.367Z</time></trkpt><trkpt lat="42.2896278" lon="14.1328845"><ele>314.83333333333337</ele><time>2026-05-01T13:49:17.368Z</time></trkpt><trkpt lat="42.2896274" lon="14.1327753"><ele>314.0</ele><time>2026-05-01T13:49:18.368Z</time></trkpt><trkpt lat="42.2896395" lon="14.1326506"><ele>314.0</ele><time>2026-05-01T13:49:19.368Z</time></trkpt><trkpt lat="42.2896575" lon="14.1325119"><ele>314.0</ele><time>2026-05-01T13:49:20.367Z</time></trkpt><trkpt lat="42.2896806" lon="14.1323692"><ele>314.0</ele><time>2026-05-01T13:49:21.368Z</time></trkpt><trkpt lat="42.2897118" lon="14.1322246"><ele>314.0</ele><time>2026-05-01T13:49:22.368Z</time></trkpt><trkpt lat="42.2897493" lon="14.1320953"><ele>314.0</ele><time>2026-05-01T13:49:23.367Z</time></trkpt><trkpt lat="42.2897992" lon="14.131974"><ele>313.1666666666667</ele><time>2026-05-01T13:49:24.368Z</time></trkpt><trkpt lat="42.2898443" lon="14.1318627"><ele>312.33333333333337</ele><time>2026-05-01T13:49:25.368Z</time></trkpt><trkpt lat="42.2898907" lon="14.1317563"><ele>311.5</ele><time>2026-05-01T13:49:26.368Z</time></trkpt><trkpt lat="42.2899336" lon="14.1316593"><ele>310.6666666666667</ele><time>2026-05-01T13:49:27.368Z</time></trkpt><trkpt lat="42.289982" lon="14.131569"><ele>309.8333333333333</ele><time>2026-05-01T13:49:28.368Z</time></trkpt><trkpt lat="42.2900279" lon="14.1314843"><ele>309.0</ele><time>2026-05-01T13:49:29.368Z</time></trkpt><trkpt lat="42.2900682" lon="14.131409"><ele>305.8</ele><time>2026-05-01T13:49:30.367Z</time></trkpt><trkpt lat="42.2901297" lon="14.1312702"><ele>302.59999999999997</ele><time>2026-05-01T13:49:32.369Z</time></trkpt><trkpt lat="42.2901794" lon="14.1311127"><ele>299.4</ele><time>2026-05-01T13:49:34.369Z</time></trkpt><trkpt lat="42.2902005" lon="14.1310296"><ele>296.2</ele><time>2026-05-01T13:49:35.367Z</time></trkpt><trkpt lat="42.2902234" lon="14.1309431"><ele>293.0</ele><time>2026-05-01T13:49:36.369Z</time></trkpt><trkpt lat="42.2902466" lon="14.130849"><ele>293.0</ele><time>2026-05-01T13:49:37.367Z</time></trkpt><trkpt lat="42.2902689" lon="14.130743"><ele>293.0</ele><time>2026-05-01T13:49:38.367Z</time></trkpt><trkpt lat="42.2902918" lon="14.1306343"><ele>293.0</ele><time>2026-05-01T13:49:39.369Z</time></trkpt><trkpt lat="42.2903222" lon="14.1305252"><ele>293.0</ele><time>2026-05-01T13:49:40.368Z</time></trkpt><trkpt lat="42.2903499" lon="14.1304313"><ele>293.0</ele><time>2026-05-01T13:49:41.368Z</time></trkpt><trkpt lat="42.29038" lon="14.1303353"><ele>293.0</ele><time>2026-05-01T13:49:42.368Z</time></trkpt><trkpt lat="42.2903867" lon="14.1302207"><ele>290.33333333333337</ele><time>2026-05-01T13:49:43.367Z</time></trkpt><trkpt lat="42.2903978" lon="14.1301114"><ele>287.6666666666667</ele><time>2026-05-01T13:49:44.366Z</time></trkpt><trkpt lat="42.290403" lon="14.1299933"><ele>285.0</ele><time>2026-05-01T13:49:45.367Z</time></trkpt><trkpt lat="42.2903983" lon="14.1298728"><ele>282.3333333333333</ele><time>2026-05-01T13:49:46.367Z</time></trkpt><trkpt lat="42.2903846" lon="14.1297552"><ele>279.66666666666663</ele><time>2026-05-01T13:49:47.368Z</time></trkpt><trkpt lat="42.2903764" lon="14.1296319"><ele>277.0</ele><time>2026-05-01T13:49:48.367Z</time></trkpt><trkpt lat="42.2903659" lon="14.1295157"><ele>275.4</ele><time>2026-05-01T13:49:49.368Z</time></trkpt><trkpt lat="42.2903556" lon="14.1293996"><ele>273.79999999999995</ele><time>2026-05-01T13:49:50.366Z</time></trkpt><trkpt lat="42.2903557" lon="14.1292794"><ele>272.2</ele><time>2026-05-01T13:49:51.366Z</time></trkpt><trkpt lat="42.2903667" lon="14.1291449"><ele>270.59999999999997</ele><time>2026-05-01T13:49:52.367Z</time></trkpt><trkpt lat="42.2903714" lon="14.1290163"><ele>269.0</ele><time>2026-05-01T13:49:53.367Z</time></trkpt><trkpt lat="42.2903878" lon="14.1289034"><ele>265.0</ele><time>2026-05-01T13:49:54.366Z</time></trkpt><trkpt lat="42.290403" lon="14.1287745"><ele>261.0</ele><time>2026-05-01T13:49:55.367Z</time></trkpt><trkpt lat="42.2904196" lon="14.1286447"><ele>257.0</ele><time>2026-05-01T13:49:56.368Z</time></trkpt><trkpt lat="42.2904387" lon="14.128509"><ele>253.0</ele><time>2026-05-01T13:49:57.367Z</time></trkpt><trkpt lat="42.2904534" lon="14.1283676"><ele>249.0</ele><time>2026-05-01T13:49:58.366Z</time></trkpt><trkpt lat="42.2904738" lon="14.1282347"><ele>244.79999999999998</ele><time>2026-05-01T13:49:59.367Z</time></trkpt><trkpt lat="42.2904897" lon="14.1281056"><ele>240.59999999999997</ele><time>2026-05-01T13:50:00.368Z</time></trkpt><trkpt lat="42.2905039" lon="14.1279754"><ele>236.4</ele><time>2026-05-01T13:50:01.368Z</time></trkpt><trkpt lat="42.290523" lon="14.1278418"><ele>232.2</ele><time>2026-05-01T13:50:02.367Z</time></trkpt><trkpt lat="42.29054" lon="14.1277042"><ele>228.0</ele><time>2026-05-01T13:50:03.367Z</time></trkpt><trkpt lat="42.2905561" lon="14.1275762"><ele>228.0</ele><time>2026-05-01T13:50:04.366Z</time></trkpt><trkpt lat="42.2905748" lon="14.1274504"><ele>228.0</ele><time>2026-05-01T13:50:05.366Z</time></trkpt><trkpt lat="42.2905953" lon="14.1273235"><ele>228.0</ele><time>2026-05-01T13:50:06.367Z</time></trkpt><trkpt lat="42.2906156" lon="14.1272018"><ele>228.0</ele><time>2026-05-01T13:50:07.367Z</time></trkpt><trkpt lat="42.2906356" lon="14.1270824"><ele>228.0</ele><time>2026-05-01T13:50:08.367Z</time></trkpt><trkpt lat="42.2906527" lon="14.1269579"><ele>227.2</ele><time>2026-05-01T13:50:09.367Z</time></trkpt><trkpt lat="42.2906595" lon="14.1268334"><ele>226.4</ele><time>2026-05-01T13:50:10.367Z</time></trkpt><trkpt lat="42.2906579" lon="14.1267145"><ele>225.59999999999997</ele><time>2026-05-01T13:50:11.367Z</time></trkpt><trkpt lat="42.2906461" lon="14.1265962"><ele>224.79999999999998</ele><time>2026-05-01T13:50:12.367Z</time></trkpt><trkpt lat="42.2906329" lon="14.1264776"><ele>224.0</ele><time>2026-05-01T13:50:13.366Z</time></trkpt><trkpt lat="42.2906118" lon="14.126352"><ele>220.33333333333334</ele><time>2026-05-01T13:50:14.367Z</time></trkpt><trkpt lat="42.2905891" lon="14.1262288"><ele>216.66666666666669</ele><time>2026-05-01T13:50:15.367Z</time></trkpt><trkpt lat="42.2905734" lon="14.1261025"><ele>213.0</ele><time>2026-05-01T13:50:16.367Z</time></trkpt><trkpt lat="42.2905666" lon="14.1259788"><ele>209.33333333333331</ele><time>2026-05-01T13:50:17.366Z</time></trkpt><trkpt lat="42.2905543" lon="14.1258685"><ele>205.66666666666666</ele><time>2026-05-01T13:50:18.366Z</time></trkpt><trkpt lat="42.2905465" lon="14.1257588"><ele>202.0</ele><time>2026-05-01T13:50:19.367Z</time></trkpt><trkpt lat="42.2905347" lon="14.1256601"><ele>201.49999999999997</ele><time>2026-05-01T13:50:20.367Z</time></trkpt><trkpt lat="42.2905223" lon="14.125563"><ele>201.0</ele><time>2026-05-01T13:50:21.367Z</time></trkpt><trkpt lat="42.2905109" lon="14.1254545"><ele>200.5</ele><time>2026-05-01T13:50:22.368Z</time></trkpt><trkpt lat="42.2905086" lon="14.125345"><ele>200.0</ele><time>2026-05-01T13:50:23.366Z</time></trkpt><trkpt lat="42.2905074" lon="14.1252401"><ele>199.49999999999997</ele><time>2026-05-01T13:50:24.367Z</time></trkpt><trkpt lat="42.2905082" lon="14.1251372"><ele>199.0</ele><time>2026-05-01T13:50:25.367Z</time></trkpt><trkpt lat="42.2905156" lon="14.1250445"><ele>198.99999999999997</ele><time>2026-05-01T13:50:26.368Z</time></trkpt><trkpt lat="42.2905328" lon="14.1249586"><ele>199.0</ele><time>2026-05-01T13:50:27.366Z</time></trkpt><trkpt lat="42.2906085" lon="14.1248091"><ele>199.0</ele><time>2026-05-01T13:50:29.367Z</time></trkpt><trkpt lat="42.2906446" lon="14.1247263"><ele>199.0</ele><time>2026-05-01T13:50:30.366Z</time></trkpt><trkpt lat="42.2906865" lon="14.1246405"><ele>198.99999999999997</ele><time>2026-05-01T13:50:31.367Z</time></trkpt><trkpt lat="42.2907284" lon="14.1245544"><ele>199.0</ele><time>2026-05-01T13:50:32.366Z</time></trkpt><trkpt lat="42.2907739" lon="14.1244644"><ele>198.16666666666666</ele><time>2026-05-01T13:50:33.367Z</time></trkpt><trkpt lat="42.2908129" lon="14.1243762"><ele>197.33333333333331</ele><time>2026-05-01T13:50:34.366Z</time></trkpt><trkpt lat="42.2908544" lon="14.1242824"><ele>196.5</ele><time>2026-05-01T13:50:35.366Z</time></trkpt><trkpt lat="42.2908971" lon="14.1241828"><ele>195.66666666666669</ele><time>2026-05-01T13:50:36.368Z</time></trkpt><trkpt lat="42.2909239" lon="14.124084"><ele>194.83333333333334</ele><time>2026-05-01T13:50:37.367Z</time></trkpt><trkpt lat="42.2909489" lon="14.1239827"><ele>194.0</ele><time>2026-05-01T13:50:38.368Z</time></trkpt><trkpt lat="42.2909716" lon="14.1238811"><ele>191.00000000000003</ele><time>2026-05-01T13:50:39.367Z</time></trkpt><trkpt lat="42.2909946" lon="14.1237834"><ele>188.0</ele><time>2026-05-01T13:50:40.366Z</time></trkpt><trkpt lat="42.2910121" lon="14.1236821"><ele>185.0</ele><time>2026-05-01T13:50:41.367Z</time></trkpt><trkpt lat="42.2910072" lon="14.1235892"><ele>182.0</ele><time>2026-05-01T13:50:42.367Z</time></trkpt><trkpt lat="42.2909866" lon="14.1234981"><ele>179.0</ele><time>2026-05-01T13:50:43.367Z</time></trkpt><trkpt lat="42.2909646" lon="14.1234015"><ele>176.0</ele><time>2026-05-01T13:50:44.367Z</time></trkpt><trkpt lat="42.290907" lon="14.1232702"><ele>173.5</ele><time>2026-05-01T13:50:45.366Z</time></trkpt><trkpt lat="42.2908705" lon="14.1231656"><ele>171.0</ele><time>2026-05-01T13:50:46.366Z</time></trkpt><trkpt lat="42.2908387" lon="14.123051"><ele>168.5</ele><time>2026-05-01T13:50:47.367Z</time></trkpt><trkpt lat="42.2908018" lon="14.1229263"><ele>166.0</ele><time>2026-05-01T13:50:48.367Z</time></trkpt><trkpt lat="42.2907642" lon="14.1228161"><ele>163.5</ele><time>2026-05-01T13:50:49.367Z</time></trkpt><trkpt lat="42.2907274" lon="14.122729"><ele>161.0</ele><time>2026-05-01T13:50:50.367Z</time></trkpt><trkpt lat="42.2907005" lon="14.1226365"><ele>161.0</ele><time>2026-05-01T13:50:51.367Z</time></trkpt><trkpt lat="42.2907011" lon="14.1224973"><ele>161.0</ele><time>2026-05-01T13:50:53.367Z</time></trkpt><trkpt lat="42.2907665" lon="14.1224458"><ele>161.0</ele><time>2026-05-01T13:50:54.367Z</time></trkpt><trkpt lat="42.2908683" lon="14.1223529"><ele>161.0</ele><time>2026-05-01T13:50:56.367Z</time></trkpt><trkpt lat="42.2909255" lon="14.1223045"><ele>161.0</ele><time>2026-05-01T13:50:57.367Z</time></trkpt><trkpt lat="42.2909761" lon="14.122251"><ele>161.0</ele><time>2026-05-01T13:50:58.368Z</time></trkpt><trkpt lat="42.2910413" lon="14.1221605"><ele>161.0</ele><time>2026-05-01T13:51:00.367Z</time></trkpt><trkpt lat="42.2910322" lon="14.1220629"><ele>161.0</ele><time>2026-05-01T13:51:01.366Z</time></trkpt><trkpt lat="42.2910266" lon="14.1219001"><ele>161.0</ele><time>2026-05-01T13:51:03.366Z</time></trkpt><trkpt lat="42.2910756" lon="14.121759"><ele>161.0</ele><time>2026-05-01T13:51:05.366Z</time></trkpt><trkpt lat="42.2911144" lon="14.1216852"><ele>161.0</ele><time>2026-05-01T13:51:06.367Z</time></trkpt><trkpt lat="42.2911513" lon="14.121604"><ele>161.0</ele><time>2026-05-01T13:51:07.367Z</time></trkpt><trkpt lat="42.2911979" lon="14.1215186"><ele>162.66666666666666</ele><time>2026-05-01T13:51:08.366Z</time></trkpt><trkpt lat="42.2912357" lon="14.1214316"><ele>164.33333333333331</ele><time>2026-05-01T13:51:09.367Z</time></trkpt><trkpt lat="42.2912807" lon="14.1213411"><ele>166.0</ele><time>2026-05-01T13:51:10.366Z</time></trkpt><trkpt lat="42.2913255" lon="14.1212464"><ele>167.66666666666666</ele><time>2026-05-01T13:51:11.367Z</time></trkpt><trkpt lat="42.2913678" lon="14.1211464"><ele>169.33333333333334</ele><time>2026-05-01T13:51:12.368Z</time></trkpt><trkpt lat="42.2914082" lon="14.1210507"><ele>171.0</ele><time>2026-05-01T13:51:13.367Z</time></trkpt><trkpt lat="42.2914468" lon="14.1209559"><ele>172.5</ele><time>2026-05-01T13:51:14.366Z</time></trkpt><trkpt lat="42.2914856" lon="14.1208614"><ele>174.0</ele><time>2026-05-01T13:51:15.368Z</time></trkpt><trkpt lat="42.2915289" lon="14.1207707"><ele>175.5</ele><time>2026-05-01T13:51:16.366Z</time></trkpt><trkpt lat="42.2915764" lon="14.1206755"><ele>177.0</ele><time>2026-05-01T13:51:17.368Z</time></trkpt><trkpt lat="42.2916251" lon="14.1205844"><ele>178.5</ele><time>2026-05-01T13:51:18.367Z</time></trkpt><trkpt lat="42.2916698" lon="14.120493"><ele>180.0</ele><time>2026-05-01T13:51:19.367Z</time></trkpt><trkpt lat="42.2917091" lon="14.1204089"><ele>182.83333333333334</ele><time>2026-05-01T13:51:20.367Z</time></trkpt><trkpt lat="42.2917516" lon="14.1203343"><ele>185.66666666666669</ele><time>2026-05-01T13:51:21.367Z</time></trkpt><trkpt lat="42.2917878" lon="14.1202607"><ele>188.5</ele><time>2026-05-01T13:51:22.367Z</time></trkpt><trkpt lat="42.2918255" lon="14.1201039"><ele>191.33333333333334</ele><time>2026-05-01T13:51:24.367Z</time></trkpt><trkpt lat="42.2918273" lon="14.1200048"><ele>194.16666666666669</ele><time>2026-05-01T13:51:25.368Z</time></trkpt><trkpt lat="42.2918195" lon="14.1199076"><ele>197.0</ele><time>2026-05-01T13:51:26.367Z</time></trkpt><trkpt lat="42.2918138" lon="14.1198111"><ele>200.00000000000003</ele><time>2026-05-01T13:51:27.367Z</time></trkpt><trkpt lat="42.2918031" lon="14.1197213"><ele>203.0</ele><time>2026-05-01T13:51:28.367Z</time></trkpt><trkpt lat="42.2917819" lon="14.1196331"><ele>206.0</ele><time>2026-05-01T13:51:29.368Z</time></trkpt><trkpt lat="42.2917541" lon="14.1195465"><ele>209.0</ele><time>2026-05-01T13:51:30.367Z</time></trkpt><trkpt lat="42.2917655" lon="14.1194537"><ele>212.00000000000003</ele><time>2026-05-01T13:51:33.366Z</time></trkpt><trkpt lat="42.2918446" lon="14.1194932"><ele>215.0</ele><time>2026-05-01T13:51:39.367Z</time></trkpt><trkpt lat="42.2919676" lon="14.1195302"><ele>215.00000000000003</ele><time>2026-05-01T13:51:41.367Z</time></trkpt><trkpt lat="42.2920931" lon="14.1194872"><ele>215.0</ele><time>2026-05-01T13:51:43.367Z</time></trkpt><trkpt lat="42.2921585" lon="14.1194559"><ele>215.0</ele><time>2026-05-01T13:51:44.368Z</time></trkpt><trkpt lat="42.2922248" lon="14.1194163"><ele>215.0</ele><time>2026-05-01T13:51:45.366Z</time></trkpt><trkpt lat="42.2922955" lon="14.1193717"><ele>215.00000000000003</ele><time>2026-05-01T13:51:46.366Z</time></trkpt><trkpt lat="42.2923653" lon="14.1193241"><ele>215.0</ele><time>2026-05-01T13:51:47.366Z</time></trkpt><trkpt lat="42.2924372" lon="14.1192776"><ele>217.14285714285714</ele><time>2026-05-01T13:51:48.366Z</time></trkpt><trkpt lat="42.2925096" lon="14.1192289"><ele>219.28571428571428</ele><time>2026-05-01T13:51:49.367Z</time></trkpt><trkpt lat="42.2925729" lon="14.1191717"><ele>221.42857142857142</ele><time>2026-05-01T13:51:50.368Z</time></trkpt><trkpt lat="42.2926287" lon="14.1191089"><ele>223.57142857142856</ele><time>2026-05-01T13:51:51.366Z</time></trkpt><trkpt lat="42.2926813" lon="14.1190446"><ele>225.71428571428572</ele><time>2026-05-01T13:51:52.367Z</time></trkpt><trkpt lat="42.2927336" lon="14.1189801"><ele>227.85714285714283</ele><time>2026-05-01T13:51:53.366Z</time></trkpt><trkpt lat="42.2927909" lon="14.1189183"><ele>229.99999999999997</ele><time>2026-05-01T13:51:54.367Z</time></trkpt><trkpt lat="42.2928459" lon="14.1188562"><ele>232.83333333333334</ele><time>2026-05-01T13:51:55.368Z</time></trkpt><trkpt lat="42.2929048" lon="14.1187992"><ele>235.66666666666669</ele><time>2026-05-01T13:51:56.366Z</time></trkpt><trkpt lat="42.2929684" lon="14.1187441"><ele>238.5</ele><time>2026-05-01T13:51:57.366Z</time></trkpt><trkpt lat="42.2930276" lon="14.1186924"><ele>241.33333333333331</ele><time>2026-05-01T13:51:58.366Z</time></trkpt><trkpt lat="42.29306" lon="14.1185839"><ele>244.16666666666666</ele><time>2026-05-01T13:52:00.366Z</time></trkpt><trkpt lat="42.2930236" lon="14.1184243"><ele>247.0</ele><time>2026-05-01T13:52:02.367Z</time></trkpt><trkpt lat="42.2930018" lon="14.1182723"><ele>246.16666666666666</ele><time>2026-05-01T13:52:04.366Z</time></trkpt><trkpt lat="42.293048" lon="14.118191"><ele>245.33333333333331</ele><time>2026-05-01T13:52:08.365Z</time></trkpt><trkpt lat="42.2930062" lon="14.1181241"><ele>244.5</ele><time>2026-05-01T13:53:14.365Z</time></trkpt><trkpt lat="42.2929383" lon="14.1181156"><ele>243.66666666666669</ele><time>2026-05-01T13:54:16.364Z</time></trkpt><trkpt lat="42.2928481" lon="14.118083"><ele>242.83333333333334</ele><time>2026-05-01T13:54:18.364Z</time></trkpt><trkpt lat="42.2927837" lon="14.1180574"><ele>242.0</ele><time>2026-05-01T13:54:19.365Z</time></trkpt><trkpt lat="42.2927045" lon="14.118033"><ele>242.0</ele><time>2026-05-01T13:54:20.365Z</time></trkpt><trkpt lat="42.2926264" lon="14.1180019"><ele>241.99999999999997</ele><time>2026-05-01T13:54:21.364Z</time></trkpt><trkpt lat="42.2925504" lon="14.1179634"><ele>242.0</ele><time>2026-05-01T13:54:22.366Z</time></trkpt><trkpt lat="42.292482" lon="14.1179099"><ele>242.0</ele><time>2026-05-01T13:54:23.366Z</time></trkpt><trkpt lat="42.2924339" lon="14.1178376"><ele>241.99999999999997</ele><time>2026-05-01T13:54:24.364Z</time></trkpt><trkpt lat="42.2924061" lon="14.1177519"><ele>242.0</ele><time>2026-05-01T13:54:25.365Z</time></trkpt><trkpt lat="42.2924076" lon="14.1176668"><ele>242.0</ele><time>2026-05-01T13:54:26.366Z</time></trkpt><trkpt lat="42.2924898" lon="14.1175487"><ele>242.0</ele><time>2026-05-01T13:54:28.365Z</time></trkpt><trkpt lat="42.292562" lon="14.1175421"><ele>242.0</ele><time>2026-05-01T13:54:29.364Z</time></trkpt><trkpt lat="42.2926458" lon="14.1175797"><ele>242.0</ele><time>2026-05-01T13:54:30.365Z</time></trkpt><trkpt lat="42.2927378" lon="14.1176486"><ele>242.0</ele><time>2026-05-01T13:54:31.365Z</time></trkpt><trkpt lat="42.2928346" lon="14.1177229"><ele>242.0</ele><time>2026-05-01T13:54:32.365Z</time></trkpt><trkpt lat="42.2929286" lon="14.1177803"><ele>242.00000000000003</ele><time>2026-05-01T13:54:33.365Z</time></trkpt><trkpt lat="42.2930155" lon="14.1178101"><ele>242.0</ele><time>2026-05-01T13:54:34.365Z</time></trkpt><trkpt lat="42.293092" lon="14.1178046"><ele>242.0</ele><time>2026-05-01T13:54:35.366Z</time></trkpt><trkpt lat="42.2931471" lon="14.1177562"><ele>242.0</ele><time>2026-05-01T13:54:36.365Z</time></trkpt><trkpt lat="42.293138" lon="14.1175888"><ele>242.00000000000003</ele><time>2026-05-01T13:54:38.365Z</time></trkpt><trkpt lat="42.2930756" lon="14.1175086"><ele>242.0</ele><time>2026-05-01T13:54:39.364Z</time></trkpt><trkpt lat="42.2929887" lon="14.1174239"><ele>238.75</ele><time>2026-05-01T13:54:40.365Z</time></trkpt><trkpt lat="42.2928961" lon="14.1173246"><ele>235.5</ele><time>2026-05-01T13:54:41.365Z</time></trkpt><trkpt lat="42.2928053" lon="14.1172097"><ele>232.25</ele><time>2026-05-01T13:54:42.365Z</time></trkpt><trkpt lat="42.2927242" lon="14.1170873"><ele>229.0</ele><time>2026-05-01T13:54:43.366Z</time></trkpt><trkpt lat="42.2926558" lon="14.1169554"><ele>229.0</ele><time>2026-05-01T13:54:44.365Z</time></trkpt><trkpt lat="42.2925943" lon="14.116822"><ele>229.0</ele><time>2026-05-01T13:54:45.364Z</time></trkpt><trkpt lat="42.2925181" lon="14.116696"><ele>229.0</ele><time>2026-05-01T13:54:46.366Z</time></trkpt><trkpt lat="42.2924384" lon="14.1165667"><ele>229.0</ele><time>2026-05-01T13:54:47.364Z</time></trkpt><trkpt lat="42.2923441" lon="14.1164287"><ele>224.33333333333331</ele><time>2026-05-01T13:54:48.365Z</time></trkpt><trkpt lat="42.2922386" lon="14.116287"><ele>219.66666666666669</ele><time>2026-05-01T13:54:49.366Z</time></trkpt><trkpt lat="42.2921236" lon="14.1161422"><ele>215.0</ele><time>2026-05-01T13:54:50.366Z</time></trkpt><trkpt lat="42.2920053" lon="14.1159915"><ele>215.0</ele><time>2026-05-01T13:54:51.364Z</time></trkpt><trkpt lat="42.2918848" lon="14.115831"><ele>215.0</ele><time>2026-05-01T13:54:52.365Z</time></trkpt><trkpt lat="42.2917671" lon="14.1156563"><ele>215.0</ele><time>2026-05-01T13:54:53.366Z</time></trkpt><trkpt lat="42.2916515" lon="14.1154719"><ele>214.0</ele><time>2026-05-01T13:54:54.365Z</time></trkpt><trkpt lat="42.2915391" lon="14.1152862"><ele>213.0</ele><time>2026-05-01T13:54:55.366Z</time></trkpt><trkpt lat="42.291433" lon="14.1151089"><ele>212.0</ele><time>2026-05-01T13:54:56.365Z</time></trkpt><trkpt lat="42.2913421" lon="14.1149353"><ele>214.0</ele><time>2026-05-01T13:54:57.365Z</time></trkpt><trkpt lat="42.2912565" lon="14.1147547"><ele>216.0</ele><time>2026-05-01T13:54:58.365Z</time></trkpt><trkpt lat="42.2911735" lon="14.1145746"><ele>218.0</ele><time>2026-05-01T13:54:59.365Z</time></trkpt><trkpt lat="42.2910907" lon="14.1143963"><ele>218.0</ele><time>2026-05-01T13:55:00.365Z</time></trkpt><trkpt lat="42.2910085" lon="14.1142182"><ele>218.0</ele><time>2026-05-01T13:55:01.365Z</time></trkpt><trkpt lat="42.2909257" lon="14.1140389"><ele>218.0</ele><time>2026-05-01T13:55:02.365Z</time></trkpt><trkpt lat="42.2908415" lon="14.1138515"><ele>216.66666666666669</ele><time>2026-05-01T13:55:03.365Z</time></trkpt><trkpt lat="42.2907564" lon="14.1136588"><ele>215.33333333333331</ele><time>2026-05-01T13:55:04.365Z</time></trkpt><trkpt lat="42.2906746" lon="14.1134623"><ele>214.0</ele><time>2026-05-01T13:55:05.365Z</time></trkpt><trkpt lat="42.290599" lon="14.1132677"><ele>217.33333333333331</ele><time>2026-05-01T13:55:06.365Z</time></trkpt><trkpt lat="42.2905284" lon="14.1130657"><ele>220.66666666666669</ele><time>2026-05-01T13:55:07.365Z</time></trkpt><trkpt lat="42.2904672" lon="14.1128537"><ele>224.0</ele><time>2026-05-01T13:55:08.365Z</time></trkpt><trkpt lat="42.2904168" lon="14.112643"><ele>224.0</ele><time>2026-05-01T13:55:09.365Z</time></trkpt><trkpt lat="42.2903649" lon="14.112429"><ele>224.0</ele><time>2026-05-01T13:55:10.364Z</time></trkpt><trkpt lat="42.2903136" lon="14.1122166"><ele>224.0</ele><time>2026-05-01T13:55:11.366Z</time></trkpt><trkpt lat="42.2902696" lon="14.1119984"><ele>222.33333333333334</ele><time>2026-05-01T13:55:12.365Z</time></trkpt><trkpt lat="42.2902268" lon="14.1117856"><ele>220.66666666666669</ele><time>2026-05-01T13:55:13.365Z</time></trkpt><trkpt lat="42.2901883" lon="14.1115806"><ele>219.0</ele><time>2026-05-01T13:55:14.365Z</time></trkpt><trkpt lat="42.2901656" lon="14.1113949"><ele>217.25</ele><time>2026-05-01T13:55:15.365Z</time></trkpt><trkpt lat="42.2901639" lon="14.1112156"><ele>215.5</ele><time>2026-05-01T13:55:16.365Z</time></trkpt><trkpt lat="42.2901744" lon="14.1110432"><ele>213.75</ele><time>2026-05-01T13:55:17.364Z</time></trkpt><trkpt lat="42.290211" lon="14.110878"><ele>212.0</ele><time>2026-05-01T13:55:18.366Z</time></trkpt><trkpt lat="42.2902591" lon="14.1107127"><ele>209.25</ele><time>2026-05-01T13:55:19.365Z</time></trkpt><trkpt lat="42.2903124" lon="14.1105572"><ele>206.5</ele><time>2026-05-01T13:55:20.365Z</time></trkpt><trkpt lat="42.2903759" lon="14.110428"><ele>203.75</ele><time>2026-05-01T13:55:21.364Z</time></trkpt><trkpt lat="42.290458" lon="14.1103297"><ele>201.0</ele><time>2026-05-01T13:55:22.365Z</time></trkpt><trkpt lat="42.2905603" lon="14.1102397"><ele>202.5</ele><time>2026-05-01T13:55:23.366Z</time></trkpt><trkpt lat="42.2906716" lon="14.1101406"><ele>204.0</ele><time>2026-05-01T13:55:24.365Z</time></trkpt><trkpt lat="42.2907926" lon="14.1100273"><ele>205.5</ele><time>2026-05-01T13:55:25.364Z</time></trkpt><trkpt lat="42.2909226" lon="14.1098952"><ele>207.0</ele><time>2026-05-01T13:55:26.365Z</time></trkpt><trkpt lat="42.2910432" lon="14.1097657"><ele>207.0</ele><time>2026-05-01T13:55:27.365Z</time></trkpt><trkpt lat="42.2911573" lon="14.109636"><ele>207.0</ele><time>2026-05-01T13:55:28.365Z</time></trkpt><trkpt lat="42.2912576" lon="14.1095169"><ele>207.0</ele><time>2026-05-01T13:55:29.366Z</time></trkpt><trkpt lat="42.2913572" lon="14.1094067"><ele>207.0</ele><time>2026-05-01T13:55:30.366Z</time></trkpt><trkpt lat="42.2914504" lon="14.1093255"><ele>209.83333333333334</ele><time>2026-05-01T13:55:31.364Z</time></trkpt><trkpt lat="42.2915232" lon="14.1092655"><ele>212.66666666666669</ele><time>2026-05-01T13:55:32.365Z</time></trkpt><trkpt lat="42.2915922" lon="14.1092152"><ele>215.5</ele><time>2026-05-01T13:55:33.366Z</time></trkpt><trkpt lat="42.2916699" lon="14.1091636"><ele>218.33333333333334</ele><time>2026-05-01T13:55:34.365Z</time></trkpt><trkpt lat="42.2917492" lon="14.1091178"><ele>221.16666666666669</ele><time>2026-05-01T13:55:35.364Z</time></trkpt><trkpt lat="42.2918344" lon="14.1090659"><ele>224.0</ele><time>2026-05-01T13:55:36.365Z</time></trkpt><trkpt lat="42.2919286" lon="14.1090012"><ele>223.5</ele><time>2026-05-01T13:55:37.365Z</time></trkpt><trkpt lat="42.2920241" lon="14.108924"><ele>223.0</ele><time>2026-05-01T13:55:38.365Z</time></trkpt><trkpt lat="42.2921198" lon="14.1088253"><ele>222.5</ele><time>2026-05-01T13:55:39.365Z</time></trkpt><trkpt lat="42.2922122" lon="14.1087187"><ele>222.0</ele><time>2026-05-01T13:55:40.365Z</time></trkpt><trkpt lat="42.2922996" lon="14.1085953"><ele>222.0</ele><time>2026-05-01T13:55:41.366Z</time></trkpt><trkpt lat="42.2923829" lon="14.1084584"><ele>222.0</ele><time>2026-05-01T13:55:42.366Z</time></trkpt><trkpt lat="42.292461" lon="14.1082921"><ele>222.0</ele><time>2026-05-01T13:55:43.365Z</time></trkpt><trkpt lat="42.2925356" lon="14.1081175"><ele>222.0</ele><time>2026-05-01T13:55:44.365Z</time></trkpt><trkpt lat="42.2926086" lon="14.1079304"><ele>223.66666666666669</ele><time>2026-05-01T13:55:45.365Z</time></trkpt><trkpt lat="42.292686" lon="14.107741"><ele>225.33333333333334</ele><time>2026-05-01T13:55:46.365Z</time></trkpt><trkpt lat="42.2927589" lon="14.107543"><ele>227.0</ele><time>2026-05-01T13:55:47.365Z</time></trkpt><trkpt lat="42.2928345" lon="14.1073445"><ele>228.0</ele><time>2026-05-01T13:55:48.365Z</time></trkpt><trkpt lat="42.2929138" lon="14.1071364"><ele>229.0</ele><time>2026-05-01T13:55:49.366Z</time></trkpt><trkpt lat="42.2929941" lon="14.1069231"><ele>230.0</ele><time>2026-05-01T13:55:50.364Z</time></trkpt><trkpt lat="42.2930725" lon="14.1067096"><ele>225.66666666666669</ele><time>2026-05-01T13:55:51.365Z</time></trkpt><trkpt lat="42.2931527" lon="14.1064999"><ele>221.33333333333331</ele><time>2026-05-01T13:55:52.365Z</time></trkpt><trkpt lat="42.293235" lon="14.1063016"><ele>217.0</ele><time>2026-05-01T13:55:53.364Z</time></trkpt><trkpt lat="42.2933286" lon="14.1061166"><ele>217.0</ele><time>2026-05-01T13:55:54.365Z</time></trkpt><trkpt lat="42.2934304" lon="14.1059397"><ele>217.0</ele><time>2026-05-01T13:55:55.365Z</time></trkpt><trkpt lat="42.2935395" lon="14.1057755"><ele>217.0</ele><time>2026-05-01T13:55:56.364Z</time></trkpt><trkpt lat="42.2936482" lon="14.1056242"><ele>218.0</ele><time>2026-05-01T13:55:57.365Z</time></trkpt><trkpt lat="42.2937602" lon="14.1054692"><ele>219.0</ele><time>2026-05-01T13:55:58.365Z</time></trkpt><trkpt lat="42.2938625" lon="14.1053071"><ele>220.0</ele><time>2026-05-01T13:55:59.365Z</time></trkpt><trkpt lat="42.2939514" lon="14.1051337"><ele>216.33333333333331</ele><time>2026-05-01T13:56:00.365Z</time></trkpt><trkpt lat="42.2940426" lon="14.1049492"><ele>212.66666666666669</ele><time>2026-05-01T13:56:01.364Z</time></trkpt><trkpt lat="42.2941368" lon="14.1047579"><ele>209.0</ele><time>2026-05-01T13:56:02.364Z</time></trkpt><trkpt lat="42.2942316" lon="14.1045678"><ele>209.0</ele><time>2026-05-01T13:56:03.365Z</time></trkpt><trkpt lat="42.2943372" lon="14.1043538"><ele>209.0</ele><time>2026-05-01T13:56:04.365Z</time></trkpt><trkpt lat="42.294456" lon="14.1041039"><ele>209.0</ele><time>2026-05-01T13:56:05.365Z</time></trkpt><trkpt lat="42.2945681" lon="14.1038621"><ele>209.0</ele><time>2026-05-01T13:56:06.365Z</time></trkpt><trkpt lat="42.2946761" lon="14.1036402"><ele>209.0</ele><time>2026-05-01T13:56:07.365Z</time></trkpt><trkpt lat="42.2947833" lon="14.1034177"><ele>209.0</ele><time>2026-05-01T13:56:08.365Z</time></trkpt><trkpt lat="42.2948863" lon="14.1031994"><ele>207.33333333333334</ele><time>2026-05-01T13:56:09.365Z</time></trkpt><trkpt lat="42.2949901" lon="14.1029843"><ele>205.66666666666669</ele><time>2026-05-01T13:56:10.365Z</time></trkpt><trkpt lat="42.2950941" lon="14.1027908"><ele>204.0</ele><time>2026-05-01T13:56:11.365Z</time></trkpt><trkpt lat="42.2951904" lon="14.1026222"><ele>204.0</ele><time>2026-05-01T13:56:12.365Z</time></trkpt><trkpt lat="42.2952858" lon="14.102466"><ele>204.0</ele><time>2026-05-01T13:56:13.365Z</time></trkpt><trkpt lat="42.2953769" lon="14.1023249"><ele>204.0</ele><time>2026-05-01T13:56:14.364Z</time></trkpt><trkpt lat="42.2954758" lon="14.1021893"><ele>204.0</ele><time>2026-05-01T13:56:15.365Z</time></trkpt><trkpt lat="42.2955885" lon="14.102056"><ele>203.33333333333331</ele><time>2026-05-01T13:56:16.365Z</time></trkpt><trkpt lat="42.2957017" lon="14.1019235"><ele>202.66666666666666</ele><time>2026-05-01T13:56:17.365Z</time></trkpt><trkpt lat="42.2958164" lon="14.1017894"><ele>202.0</ele><time>2026-05-01T13:56:18.364Z</time></trkpt><trkpt lat="42.295931" lon="14.1016442"><ele>203.0</ele><time>2026-05-01T13:56:19.365Z</time></trkpt><trkpt lat="42.296042" lon="14.1014896"><ele>204.0</ele><time>2026-05-01T13:56:20.365Z</time></trkpt><trkpt lat="42.2961504" lon="14.1013311"><ele>205.0</ele><time>2026-05-01T13:56:21.364Z</time></trkpt><trkpt lat="42.2962524" lon="14.1011817"><ele>205.0</ele><time>2026-05-01T13:56:22.365Z</time></trkpt><trkpt lat="42.2963569" lon="14.1010327"><ele>205.0</ele><time>2026-05-01T13:56:23.365Z</time></trkpt><trkpt lat="42.2964653" lon="14.1008922"><ele>205.0</ele><time>2026-05-01T13:56:24.365Z</time></trkpt><trkpt lat="42.2965762" lon="14.1007664"><ele>205.0</ele><time>2026-05-01T13:56:25.364Z</time></trkpt><trkpt lat="42.296695" lon="14.1006505"><ele>203.33333333333331</ele><time>2026-05-01T13:56:26.365Z</time></trkpt><trkpt lat="42.2968195" lon="14.1005416"><ele>201.66666666666669</ele><time>2026-05-01T13:56:27.365Z</time></trkpt><trkpt lat="42.296943" lon="14.1004273"><ele>200.0</ele><time>2026-05-01T13:56:28.364Z</time></trkpt><trkpt lat="42.2970612" lon="14.1002981"><ele>200.0</ele><time>2026-05-01T13:56:29.365Z</time></trkpt><trkpt lat="42.2971777" lon="14.1001477"><ele>200.0</ele><time>2026-05-01T13:56:30.365Z</time></trkpt><trkpt lat="42.2972889" lon="14.0999842"><ele>200.0</ele><time>2026-05-01T13:56:31.363Z</time></trkpt><trkpt lat="42.2973932" lon="14.0998074"><ele>194.66666666666669</ele><time>2026-05-01T13:56:32.364Z</time></trkpt><trkpt lat="42.2974833" lon="14.0996144"><ele>189.33333333333334</ele><time>2026-05-01T13:56:33.364Z</time></trkpt><trkpt lat="42.297551" lon="14.0994065"><ele>184.0</ele><time>2026-05-01T13:56:34.363Z</time></trkpt><trkpt lat="42.2975962" lon="14.0991987"><ele>182.33333333333334</ele><time>2026-05-01T13:56:35.364Z</time></trkpt><trkpt lat="42.2976162" lon="14.0989874"><ele>180.66666666666666</ele><time>2026-05-01T13:56:36.364Z</time></trkpt><trkpt lat="42.2976215" lon="14.0987782"><ele>179.0</ele><time>2026-05-01T13:56:37.364Z</time></trkpt><trkpt lat="42.2976217" lon="14.098584"><ele>179.0</ele><time>2026-05-01T13:56:38.364Z</time></trkpt><trkpt lat="42.2976221" lon="14.0984152"><ele>179.0</ele><time>2026-05-01T13:56:39.363Z</time></trkpt><trkpt lat="42.2976252" lon="14.0982578"><ele>179.0</ele><time>2026-05-01T13:56:40.364Z</time></trkpt><trkpt lat="42.2976374" lon="14.0981077"><ele>179.0</ele><time>2026-05-01T13:56:41.364Z</time></trkpt><trkpt lat="42.2976602" lon="14.0979687"><ele>179.16666666666666</ele><time>2026-05-01T13:56:42.364Z</time></trkpt><trkpt lat="42.2976799" lon="14.0978505"><ele>179.33333333333331</ele><time>2026-05-01T13:56:43.364Z</time></trkpt><trkpt lat="42.2976994" lon="14.0977637"><ele>179.5</ele><time>2026-05-01T13:56:44.364Z</time></trkpt><trkpt lat="42.297753" lon="14.0976813"><ele>179.66666666666666</ele><time>2026-05-01T13:56:46.364Z</time></trkpt><trkpt lat="42.2977816" lon="14.0978292"><ele>179.83333333333334</ele><time>2026-05-01T13:56:49.364Z</time></trkpt><trkpt lat="42.2977991" lon="14.0979268"><ele>180.0</ele><time>2026-05-01T13:56:50.363Z</time></trkpt><trkpt lat="42.2978466" lon="14.0980012"><ele>180.0</ele><time>2026-05-01T13:56:51.364Z</time></trkpt><trkpt lat="42.29791" lon="14.0980605"><ele>180.0</ele><time>2026-05-01T13:56:52.364Z</time></trkpt><trkpt lat="42.2979851" lon="14.0981092"><ele>180.0</ele><time>2026-05-01T13:56:53.364Z</time></trkpt><trkpt lat="42.2980605" lon="14.09816"><ele>180.0</ele><time>2026-05-01T13:56:54.364Z</time></trkpt><trkpt lat="42.2981365" lon="14.0982252"><ele>180.0</ele><time>2026-05-01T13:56:55.363Z</time></trkpt><trkpt lat="42.2982037" lon="14.0983093"><ele>180.0</ele><time>2026-05-01T13:56:56.365Z</time></trkpt><trkpt lat="42.2982939" lon="14.0983969"><ele>175.0</ele><time>2026-05-01T13:56:57.364Z</time></trkpt><trkpt lat="42.2983892" lon="14.098467"><ele>170.0</ele><time>2026-05-01T13:56:58.364Z</time></trkpt><trkpt lat="42.2984906" lon="14.0985393"><ele>165.0</ele><time>2026-05-01T13:56:59.364Z</time></trkpt><trkpt lat="42.2985957" lon="14.0985937"><ele>160.0</ele><time>2026-05-01T13:57:00.364Z</time></trkpt><trkpt lat="42.2987077" lon="14.09863"><ele>160.0</ele><time>2026-05-01T13:57:01.364Z</time></trkpt><trkpt lat="42.2988293" lon="14.0986575"><ele>160.0</ele><time>2026-05-01T13:57:02.364Z</time></trkpt><trkpt lat="42.2989501" lon="14.0986872"><ele>160.0</ele><time>2026-05-01T13:57:03.364Z</time></trkpt><trkpt lat="42.2990727" lon="14.098721"><ele>160.0</ele><time>2026-05-01T13:57:04.364Z</time></trkpt><trkpt lat="42.2992001" lon="14.0987519"><ele>154.75</ele><time>2026-05-01T13:57:05.363Z</time></trkpt><trkpt lat="42.299331" lon="14.0987756"><ele>149.5</ele><time>2026-05-01T13:57:06.363Z</time></trkpt><trkpt lat="42.2994592" lon="14.0987805"><ele>144.25</ele><time>2026-05-01T13:57:07.363Z</time></trkpt><trkpt lat="42.2995932" lon="14.0987742"><ele>139.0</ele><time>2026-05-01T13:57:08.363Z</time></trkpt><trkpt lat="42.2997301" lon="14.098755"><ele>135.75</ele><time>2026-05-01T13:57:09.364Z</time></trkpt><trkpt lat="42.299872" lon="14.0987268"><ele>132.5</ele><time>2026-05-01T13:57:10.363Z</time></trkpt><trkpt lat="42.3000068" lon="14.0986856"><ele>129.25</ele><time>2026-05-01T13:57:11.363Z</time></trkpt><trkpt lat="42.3001355" lon="14.0986367"><ele>126.0</ele><time>2026-05-01T13:57:12.364Z</time></trkpt><trkpt lat="42.3002636" lon="14.0985694"><ele>126.0</ele><time>2026-05-01T13:57:13.365Z</time></trkpt><trkpt lat="42.3003848" lon="14.0984859"><ele>126.0</ele><time>2026-05-01T13:57:14.363Z</time></trkpt><trkpt lat="42.3004966" lon="14.0983833"><ele>126.0</ele><time>2026-05-01T13:57:15.363Z</time></trkpt><trkpt lat="42.3005971" lon="14.0982713"><ele>126.0</ele><time>2026-05-01T13:57:16.365Z</time></trkpt><trkpt lat="42.3006959" lon="14.0981555"><ele>122.25</ele><time>2026-05-01T13:57:17.365Z</time></trkpt><trkpt lat="42.3008035" lon="14.0980516"><ele>118.5</ele><time>2026-05-01T13:57:18.363Z</time></trkpt><trkpt lat="42.3009149" lon="14.0979696"><ele>114.75</ele><time>2026-05-01T13:57:19.363Z</time></trkpt><trkpt lat="42.3010339" lon="14.0979035"><ele>111.0</ele><time>2026-05-01T13:57:20.364Z</time></trkpt><trkpt lat="42.3011588" lon="14.0978501"><ele>111.0</ele><time>2026-05-01T13:57:21.365Z</time></trkpt><trkpt lat="42.3012812" lon="14.0978159"><ele>111.0</ele><time>2026-05-01T13:57:22.364Z</time></trkpt><trkpt lat="42.301392" lon="14.0978"><ele>111.0</ele><time>2026-05-01T13:57:23.363Z</time></trkpt><trkpt lat="42.3014893" lon="14.0978037"><ele>111.0</ele><time>2026-05-01T13:57:24.364Z</time></trkpt><trkpt lat="42.3015655" lon="14.0978162"><ele>111.0</ele><time>2026-05-01T13:57:25.364Z</time></trkpt><trkpt lat="42.3016414" lon="14.0977835"><ele>110.0</ele><time>2026-05-01T13:57:27.365Z</time></trkpt><trkpt lat="42.3016689" lon="14.0976338"><ele>109.0</ele><time>2026-05-01T13:57:29.364Z</time></trkpt><trkpt lat="42.3016834" lon="14.0975357"><ele>108.0</ele><time>2026-05-01T13:57:30.363Z</time></trkpt><trkpt lat="42.3017103" lon="14.0973902"><ele>107.0</ele><time>2026-05-01T13:57:31.364Z</time></trkpt><trkpt lat="42.3017333" lon="14.0972421"><ele>106.0</ele><time>2026-05-01T13:57:32.363Z</time></trkpt><trkpt lat="42.3017617" lon="14.0970796"><ele>105.75</ele><time>2026-05-01T13:57:33.364Z</time></trkpt><trkpt lat="42.3017916" lon="14.0968942"><ele>105.5</ele><time>2026-05-01T13:57:34.364Z</time></trkpt><trkpt lat="42.3018229" lon="14.0967003"><ele>105.25</ele><time>2026-05-01T13:57:35.364Z</time></trkpt><trkpt lat="42.3018554" lon="14.0965069"><ele>105.0</ele><time>2026-05-01T13:57:36.364Z</time></trkpt><trkpt lat="42.3018861" lon="14.0963079"><ele>105.25</ele><time>2026-05-01T13:57:37.365Z</time></trkpt><trkpt lat="42.3019144" lon="14.0961183"><ele>105.5</ele><time>2026-05-01T13:57:38.364Z</time></trkpt><trkpt lat="42.3019386" lon="14.0959315"><ele>105.75</ele><time>2026-05-01T13:57:39.363Z</time></trkpt><trkpt lat="42.3019635" lon="14.0957446"><ele>106.0</ele><time>2026-05-01T13:57:40.364Z</time></trkpt><trkpt lat="42.3019855" lon="14.0955549"><ele>106.0</ele><time>2026-05-01T13:57:41.364Z</time></trkpt><trkpt lat="42.3020058" lon="14.0953629"><ele>106.0</ele><time>2026-05-01T13:57:42.363Z</time></trkpt><trkpt lat="42.3020288" lon="14.095182"><ele>106.0</ele><time>2026-05-01T13:57:43.364Z</time></trkpt><trkpt lat="42.3020516" lon="14.0950109"><ele>106.0</ele><time>2026-05-01T13:57:44.364Z</time></trkpt><trkpt lat="42.30207" lon="14.094863"><ele>105.8</ele><time>2026-05-01T13:57:45.363Z</time></trkpt><trkpt lat="42.3020726" lon="14.0947291"><ele>105.6</ele><time>2026-05-01T13:57:46.364Z</time></trkpt><trkpt lat="42.302053" lon="14.0945973"><ele>105.4</ele><time>2026-05-01T13:57:47.363Z</time></trkpt><trkpt lat="42.3020201" lon="14.0944605"><ele>105.2</ele><time>2026-05-01T13:57:48.363Z</time></trkpt><trkpt lat="42.301991" lon="14.0943109"><ele>105.0</ele><time>2026-05-01T13:57:49.365Z</time></trkpt><trkpt lat="42.3019761" lon="14.0941643"><ele>105.2</ele><time>2026-05-01T13:57:50.364Z</time></trkpt><trkpt lat="42.3019346" lon="14.0940326"><ele>105.4</ele><time>2026-05-01T13:57:51.364Z</time></trkpt><trkpt lat="42.3018742" lon="14.0939033"><ele>105.6</ele><time>2026-05-01T13:57:52.364Z</time></trkpt><trkpt lat="42.3017979" lon="14.0937812"><ele>105.8</ele><time>2026-05-01T13:57:53.364Z</time></trkpt><trkpt lat="42.3017321" lon="14.0936633"><ele>106.0</ele><time>2026-05-01T13:57:54.364Z</time></trkpt><trkpt lat="42.3016894" lon="14.093552"><ele>106.0</ele><time>2026-05-01T13:57:55.364Z</time></trkpt><trkpt lat="42.3016873" lon="14.0934645"><ele>106.0</ele><time>2026-05-01T13:57:56.363Z</time></trkpt><trkpt lat="42.3017306" lon="14.0933947"><ele>106.0</ele><time>2026-05-01T13:57:57.364Z</time></trkpt><trkpt lat="42.3018062" lon="14.0933309"><ele>106.0</ele><time>2026-05-01T13:57:58.363Z</time></trkpt><trkpt lat="42.3019105" lon="14.0932689"><ele>106.0</ele><time>2026-05-01T13:57:59.364Z</time></trkpt><trkpt lat="42.3020382" lon="14.0931996"><ele>109.0</ele><time>2026-05-01T13:58:00.365Z</time></trkpt><trkpt lat="42.3021822" lon="14.0931191"><ele>112.0</ele><time>2026-05-01T13:58:01.364Z</time></trkpt><trkpt lat="42.3023356" lon="14.0930402"><ele>115.0</ele><time>2026-05-01T13:58:02.364Z</time></trkpt><trkpt lat="42.3024727" lon="14.0929674"><ele>115.0</ele><time>2026-05-01T13:58:03.363Z</time></trkpt><trkpt lat="42.3025863" lon="14.0929041"><ele>115.0</ele><time>2026-05-01T13:58:04.363Z</time></trkpt><trkpt lat="42.3026937" lon="14.0928454"><ele>115.0</ele><time>2026-05-01T13:58:05.364Z</time></trkpt><trkpt lat="42.3027842" lon="14.0927827"><ele>115.0</ele><time>2026-05-01T13:58:06.364Z</time></trkpt><trkpt lat="42.3028698" lon="14.0927077"><ele>115.0</ele><time>2026-05-01T13:58:07.364Z</time></trkpt><trkpt lat="42.3029625" lon="14.0926052"><ele>115.0</ele><time>2026-05-01T13:58:08.364Z</time></trkpt><trkpt lat="42.3030582" lon="14.0924804"><ele>115.0</ele><time>2026-05-01T13:58:09.364Z</time></trkpt><trkpt lat="42.3031552" lon="14.0923408"><ele>115.0</ele><time>2026-05-01T13:58:10.365Z</time></trkpt><trkpt lat="42.3032583" lon="14.0922013"><ele>115.0</ele><time>2026-05-01T13:58:11.363Z</time></trkpt><trkpt lat="42.303364" lon="14.0920717"><ele>114.0</ele><time>2026-05-01T13:58:12.364Z</time></trkpt><trkpt lat="42.3034782" lon="14.0919529"><ele>113.0</ele><time>2026-05-01T13:58:13.364Z</time></trkpt><trkpt lat="42.3036027" lon="14.0918531"><ele>112.0</ele><time>2026-05-01T13:58:14.364Z</time></trkpt><trkpt lat="42.3037446" lon="14.0917625"><ele>111.0</ele><time>2026-05-01T13:58:15.363Z</time></trkpt><trkpt lat="42.3038968" lon="14.091675"><ele>111.33333333333334</ele><time>2026-05-01T13:58:16.364Z</time></trkpt><trkpt lat="42.3040597" lon="14.0915864"><ele>111.66666666666667</ele><time>2026-05-01T13:58:17.364Z</time></trkpt><trkpt lat="42.3042253" lon="14.0914979"><ele>112.0</ele><time>2026-05-01T13:58:18.364Z</time></trkpt><trkpt lat="42.3043979" lon="14.0914039"><ele>112.0</ele><time>2026-05-01T13:58:19.364Z</time></trkpt><trkpt lat="42.3045677" lon="14.0913075"><ele>112.0</ele><time>2026-05-01T13:58:20.363Z</time></trkpt><trkpt lat="42.3047373" lon="14.0912054"><ele>112.0</ele><time>2026-05-01T13:58:21.364Z</time></trkpt><trkpt lat="42.304908" lon="14.0910966"><ele>108.0</ele><time>2026-05-01T13:58:22.363Z</time></trkpt><trkpt lat="42.3050743" lon="14.0909945"><ele>104.0</ele><time>2026-05-01T13:58:23.365Z</time></trkpt><trkpt lat="42.3052296" lon="14.0908913"><ele>100.0</ele><time>2026-05-01T13:58:24.363Z</time></trkpt><trkpt lat="42.3053796" lon="14.0907944"><ele>98.66666666666667</ele><time>2026-05-01T13:58:25.364Z</time></trkpt><trkpt lat="42.3055293" lon="14.0906973"><ele>97.33333333333334</ele><time>2026-05-01T13:58:26.364Z</time></trkpt><trkpt lat="42.3056743" lon="14.0906044"><ele>96.0</ele><time>2026-05-01T13:58:27.364Z</time></trkpt><trkpt lat="42.3058114" lon="14.0905093"><ele>96.0</ele><time>2026-05-01T13:58:28.365Z</time></trkpt><trkpt lat="42.3059379" lon="14.0904085"><ele>96.0</ele><time>2026-05-01T13:58:29.364Z</time></trkpt><trkpt lat="42.3060636" lon="14.0902999"><ele>96.0</ele><time>2026-05-01T13:58:30.363Z</time></trkpt><trkpt lat="42.3061737" lon="14.0901929"><ele>96.0</ele><time>2026-05-01T13:58:31.364Z</time></trkpt><trkpt lat="42.3062742" lon="14.0900761"><ele>96.0</ele><time>2026-05-01T13:58:32.364Z</time></trkpt><trkpt lat="42.3063566" lon="14.0899331"><ele>96.0</ele><time>2026-05-01T13:58:33.363Z</time></trkpt><trkpt lat="42.3064278" lon="14.0897793"><ele>96.0</ele><time>2026-05-01T13:58:34.363Z</time></trkpt><trkpt lat="42.3064973" lon="14.0896246"><ele>96.0</ele><time>2026-05-01T13:58:35.363Z</time></trkpt><trkpt lat="42.306576" lon="14.0894959"><ele>95.4</ele><time>2026-05-01T13:58:36.365Z</time></trkpt><trkpt lat="42.3066585" lon="14.089419"><ele>94.8</ele><time>2026-05-01T13:58:37.363Z</time></trkpt><trkpt lat="42.3067444" lon="14.089396"><ele>94.2</ele><time>2026-05-01T13:58:38.363Z</time></trkpt><trkpt lat="42.3068342" lon="14.0894095"><ele>93.60000000000001</ele><time>2026-05-01T13:58:39.363Z</time></trkpt><trkpt lat="42.3069323" lon="14.089451"><ele>93.0</ele><time>2026-05-01T13:58:40.364Z</time></trkpt><trkpt lat="42.3070423" lon="14.0895099"><ele>93.0</ele><time>2026-05-01T13:58:41.364Z</time></trkpt><trkpt lat="42.3071579" lon="14.0895736"><ele>93.0</ele><time>2026-05-01T13:58:42.365Z</time></trkpt><trkpt lat="42.3072677" lon="14.089607"><ele>93.0</ele><time>2026-05-01T13:58:43.365Z</time></trkpt><trkpt lat="42.3073722" lon="14.0896163"><ele>93.0</ele><time>2026-05-01T13:58:44.363Z</time></trkpt><trkpt lat="42.3074585" lon="14.0895835"><ele>93.0</ele><time>2026-05-01T13:58:45.363Z</time></trkpt><trkpt lat="42.3075281" lon="14.0895257"><ele>92.80000000000001</ele><time>2026-05-01T13:58:46.364Z</time></trkpt><trkpt lat="42.3075991" lon="14.0894408"><ele>92.6</ele><time>2026-05-01T13:58:47.364Z</time></trkpt><trkpt lat="42.307678" lon="14.0893352"><ele>92.4</ele><time>2026-05-01T13:58:48.364Z</time></trkpt><trkpt lat="42.3077528" lon="14.089241"><ele>92.19999999999999</ele><time>2026-05-01T13:58:49.364Z</time></trkpt><trkpt lat="42.3078124" lon="14.0891723"><ele>92.0</ele><time>2026-05-01T13:58:50.363Z</time></trkpt><trkpt lat="42.3078915" lon="14.0890951"><ele>92.0</ele><time>2026-05-01T13:58:52.364Z</time></trkpt><trkpt lat="42.3079195" lon="14.0889988"><ele>92.0</ele><time>2026-05-01T13:58:55.364Z</time></trkpt><trkpt lat="42.3078469" lon="14.0890812"><ele>92.0</ele><time>2026-05-01T13:58:58.363Z</time></trkpt><trkpt lat="42.3078007" lon="14.0891596"><ele>92.0</ele><time>2026-05-01T13:58:59.365Z</time></trkpt><trkpt lat="42.3077353" lon="14.0892419"><ele>92.0</ele><time>2026-05-01T13:59:00.365Z</time></trkpt><trkpt lat="42.3076605" lon="14.0893307"><ele>92.0</ele><time>2026-05-01T13:59:01.364Z</time></trkpt><trkpt lat="42.3076044" lon="14.0894054"><ele>92.0</ele><time>2026-05-01T13:59:02.364Z</time></trkpt><trkpt lat="42.3075431" lon="14.0894994"><ele>92.0</ele><time>2026-05-01T13:59:04.362Z</time></trkpt><trkpt lat="42.3075585" lon="14.0895984"><ele>92.0</ele><time>2026-05-01T13:59:06.362Z</time></trkpt><trkpt lat="42.3076498" lon="14.0896676"><ele>92.0</ele><time>2026-05-01T13:59:08.363Z</time></trkpt><trkpt lat="42.3077293" lon="14.089705"><ele>92.0</ele><time>2026-05-01T13:59:09.363Z</time></trkpt><trkpt lat="42.3078347" lon="14.0897452"><ele>92.0</ele><time>2026-05-01T13:59:10.363Z</time></trkpt><trkpt lat="42.3079665" lon="14.0897932"><ele>92.0</ele><time>2026-05-01T13:59:11.363Z</time></trkpt><trkpt lat="42.30812" lon="14.089845"><ele>92.0</ele><time>2026-05-01T13:59:12.363Z</time></trkpt><trkpt lat="42.3082904" lon="14.0898956"><ele>88.66666666666667</ele><time>2026-05-01T13:59:13.362Z</time></trkpt><trkpt lat="42.308466" lon="14.0899543"><ele>85.33333333333333</ele><time>2026-05-01T13:59:14.362Z</time></trkpt><trkpt lat="42.308614" lon="14.0900066"><ele>82.0</ele><time>2026-05-01T13:59:15.363Z</time></trkpt><trkpt lat="42.3087344" lon="14.0900498"><ele>82.0</ele><time>2026-05-01T13:59:16.364Z</time></trkpt><trkpt lat="42.3088307" lon="14.0900823"><ele>82.0</ele><time>2026-05-01T13:59:17.363Z</time></trkpt><trkpt lat="42.3088944" lon="14.0901069"><ele>82.0</ele><time>2026-05-01T13:59:18.363Z</time></trkpt><trkpt lat="42.3089779" lon="14.0901286"><ele>82.0</ele><time>2026-05-01T13:59:21.363Z</time></trkpt><trkpt lat="42.3090518" lon="14.0901137"><ele>82.0</ele><time>2026-05-01T13:59:23.363Z</time></trkpt><trkpt lat="42.3091122" lon="14.0901748"><ele>82.0</ele><time>2026-05-01T13:59:25.363Z</time></trkpt><trkpt lat="42.3091855" lon="14.0903049"><ele>81.33333333333333</ele><time>2026-05-01T13:59:27.362Z</time></trkpt><trkpt lat="42.3092185" lon="14.090405"><ele>80.66666666666666</ele><time>2026-05-01T13:59:28.363Z</time></trkpt><trkpt lat="42.3092473" lon="14.0905053"><ele>80.0</ele><time>2026-05-01T13:59:29.363Z</time></trkpt><trkpt lat="42.3092689" lon="14.0906161"><ele>79.33333333333333</ele><time>2026-05-01T13:59:30.363Z</time></trkpt><trkpt lat="42.3092854" lon="14.0907237"><ele>78.66666666666667</ele><time>2026-05-01T13:59:31.364Z</time></trkpt><trkpt lat="42.3093149" lon="14.0908187"><ele>78.0</ele><time>2026-05-01T13:59:32.362Z</time></trkpt><trkpt lat="42.3093685" lon="14.090889"><ele>77.66666666666667</ele><time>2026-05-01T13:59:33.362Z</time></trkpt><trkpt lat="42.3094327" lon="14.0909517"><ele>77.33333333333333</ele><time>2026-05-01T13:59:34.363Z</time></trkpt><trkpt lat="42.3094987" lon="14.0910118"><ele>77.0</ele><time>2026-05-01T13:59:35.363Z</time></trkpt><trkpt lat="42.309557" lon="14.0910819"><ele>76.66666666666666</ele><time>2026-05-01T13:59:36.363Z</time></trkpt><trkpt lat="42.3096128" lon="14.0911556"><ele>76.33333333333333</ele><time>2026-05-01T13:59:37.363Z</time></trkpt><trkpt lat="42.3096687" lon="14.0912354"><ele>76.0</ele><time>2026-05-01T13:59:38.363Z</time></trkpt><trkpt lat="42.3097363" lon="14.0913227"><ele>77.0</ele><time>2026-05-01T13:59:39.363Z</time></trkpt><trkpt lat="42.3098028" lon="14.0914074"><ele>78.0</ele><time>2026-05-01T13:59:40.363Z</time></trkpt><trkpt lat="42.3098692" lon="14.0914965"><ele>79.0</ele><time>2026-05-01T13:59:41.364Z</time></trkpt><trkpt lat="42.3099249" lon="14.091594"><ele>80.0</ele><time>2026-05-01T13:59:42.363Z</time></trkpt><trkpt lat="42.3099877" lon="14.0917041"><ele>81.0</ele><time>2026-05-01T13:59:43.363Z</time></trkpt><trkpt lat="42.3100499" lon="14.0918136"><ele>82.0</ele><time>2026-05-01T13:59:44.364Z</time></trkpt><trkpt lat="42.3101116" lon="14.0919249"><ele>83.0</ele><time>2026-05-01T13:59:45.363Z</time></trkpt><trkpt lat="42.310182" lon="14.0920353"><ele>84.0</ele><time>2026-05-01T13:59:46.363Z</time></trkpt><trkpt lat="42.3102491" lon="14.0921336"><ele>85.0</ele><time>2026-05-01T13:59:47.363Z</time></trkpt><trkpt lat="42.3103149" lon="14.0922298"><ele>86.0</ele><time>2026-05-01T13:59:48.363Z</time></trkpt><trkpt lat="42.3103794" lon="14.0923308"><ele>87.19999999999999</ele><time>2026-05-01T13:59:49.363Z</time></trkpt><trkpt lat="42.3104406" lon="14.0924403"><ele>88.39999999999999</ele><time>2026-05-01T13:59:50.362Z</time></trkpt><trkpt lat="42.310506" lon="14.0925595"><ele>89.6</ele><time>2026-05-01T13:59:51.362Z</time></trkpt><trkpt lat="42.3105784" lon="14.092676"><ele>90.8</ele><time>2026-05-01T13:59:52.362Z</time></trkpt><trkpt lat="42.3106548" lon="14.092798"><ele>92.0</ele><time>2026-05-01T13:59:53.363Z</time></trkpt><trkpt lat="42.3107329" lon="14.0929279"><ele>92.0</ele><time>2026-05-01T13:59:54.364Z</time></trkpt><trkpt lat="42.3108167" lon="14.0930577"><ele>92.0</ele><time>2026-05-01T13:59:55.362Z</time></trkpt><trkpt lat="42.3108999" lon="14.0931838"><ele>92.0</ele><time>2026-05-01T13:59:56.363Z</time></trkpt><trkpt lat="42.3109816" lon="14.0933016"><ele>92.0</ele><time>2026-05-01T13:59:57.363Z</time></trkpt><trkpt lat="42.3110515" lon="14.0933947"><ele>93.0</ele><time>2026-05-01T13:59:58.363Z</time></trkpt><trkpt lat="42.3111179" lon="14.0934922"><ele>94.0</ele><time>2026-05-01T13:59:59.364Z</time></trkpt><trkpt lat="42.3111729" lon="14.0935929"><ele>95.0</ele><time>2026-05-01T14:00:00.363Z</time></trkpt><trkpt lat="42.311216" lon="14.0936629"><ele>96.0</ele><time>2026-05-01T14:00:01.362Z</time></trkpt><trkpt lat="42.3112952" lon="14.0937919"><ele>97.0</ele><time>2026-05-01T14:00:03.363Z</time></trkpt><trkpt lat="42.3113443" lon="14.0938572"><ele>96.83333333333334</ele><time>2026-05-01T14:00:04.362Z</time></trkpt><trkpt lat="42.3114188" lon="14.0938909"><ele>96.66666666666667</ele><time>2026-05-01T14:00:06.363Z</time></trkpt><trkpt lat="42.3114704" lon="14.0938093"><ele>96.5</ele><time>2026-05-01T14:00:08.363Z</time></trkpt><trkpt lat="42.3115001" lon="14.0937297"><ele>96.33333333333334</ele><time>2026-05-01T14:00:09.364Z</time></trkpt><trkpt lat="42.3115449" lon="14.0936275"><ele>96.16666666666667</ele><time>2026-05-01T14:00:10.363Z</time></trkpt><trkpt lat="42.3115989" lon="14.0935043"><ele>96.0</ele><time>2026-05-01T14:00:11.363Z</time></trkpt><trkpt lat="42.3116594" lon="14.0933836"><ele>95.0</ele><time>2026-05-01T14:00:12.363Z</time></trkpt><trkpt lat="42.3117404" lon="14.0932403"><ele>94.0</ele><time>2026-05-01T14:00:13.362Z</time></trkpt><trkpt lat="42.3118352" lon="14.0930836"><ele>93.0</ele><time>2026-05-01T14:00:14.362Z</time></trkpt><trkpt lat="42.3119318" lon="14.0929224"><ele>92.0</ele><time>2026-05-01T14:00:15.363Z</time></trkpt><trkpt lat="42.3120301" lon="14.0927465"><ele>92.0</ele><time>2026-05-01T14:00:16.363Z</time></trkpt><trkpt lat="42.312123" lon="14.0925682"><ele>92.0</ele><time>2026-05-01T14:00:17.362Z</time></trkpt><trkpt lat="42.3122032" lon="14.0924085"><ele>92.0</ele><time>2026-05-01T14:00:18.363Z</time></trkpt><trkpt lat="42.3122817" lon="14.092272"><ele>92.0</ele><time>2026-05-01T14:00:19.363Z</time></trkpt><trkpt lat="42.3123602" lon="14.0921572"><ele>92.5</ele><time>2026-05-01T14:00:20.362Z</time></trkpt><trkpt lat="42.3124422" lon="14.0920536"><ele>93.0</ele><time>2026-05-01T14:00:21.364Z</time></trkpt><trkpt lat="42.3125372" lon="14.0919633"><ele>93.5</ele><time>2026-05-01T14:00:22.363Z</time></trkpt><trkpt lat="42.3126479" lon="14.0918675"><ele>94.0</ele><time>2026-05-01T14:00:23.363Z</time></trkpt><trkpt lat="42.3127573" lon="14.091784"><ele>94.0</ele><time>2026-05-01T14:00:24.364Z</time></trkpt><trkpt lat="42.3128563" lon="14.0916977"><ele>94.0</ele><time>2026-05-01T14:00:25.363Z</time></trkpt><trkpt lat="42.3129398" lon="14.091598"><ele>94.0</ele><time>2026-05-01T14:00:26.363Z</time></trkpt><trkpt lat="42.3130073" lon="14.0914703"><ele>94.0</ele><time>2026-05-01T14:00:27.363Z</time></trkpt><trkpt lat="42.3130504" lon="14.0913167"><ele>94.0</ele><time>2026-05-01T14:00:28.363Z</time></trkpt><trkpt lat="42.3130854" lon="14.0911119"><ele>94.0</ele><time>2026-05-01T14:00:29.363Z</time></trkpt><trkpt lat="42.3131303" lon="14.0908922"><ele>94.0</ele><time>2026-05-01T14:00:30.363Z</time></trkpt><trkpt lat="42.3131729" lon="14.0906534"><ele>94.0</ele><time>2026-05-01T14:00:31.363Z</time></trkpt><trkpt lat="42.3132038" lon="14.0904414"><ele>94.0</ele><time>2026-05-01T14:00:32.362Z</time></trkpt><trkpt lat="42.3132296" lon="14.0902264"><ele>94.0</ele><time>2026-05-01T14:00:33.364Z</time></trkpt><trkpt lat="42.3132572" lon="14.0900169"><ele>93.33333333333333</ele><time>2026-05-01T14:00:34.363Z</time></trkpt><trkpt lat="42.313291" lon="14.0898019"><ele>92.66666666666667</ele><time>2026-05-01T14:00:35.363Z</time></trkpt><trkpt lat="42.3133337" lon="14.0895776"><ele>92.0</ele><time>2026-05-01T14:00:36.363Z</time></trkpt><trkpt lat="42.313388" lon="14.0893591"><ele>92.0</ele><time>2026-05-01T14:00:37.362Z</time></trkpt><trkpt lat="42.3134499" lon="14.0891499"><ele>92.0</ele><time>2026-05-01T14:00:38.364Z</time></trkpt><trkpt lat="42.3135183" lon="14.0889362"><ele>92.0</ele><time>2026-05-01T14:00:39.363Z</time></trkpt><trkpt lat="42.3135867" lon="14.0887344"><ele>91.33333333333334</ele><time>2026-05-01T14:00:40.362Z</time></trkpt><trkpt lat="42.3136697" lon="14.0885497"><ele>90.66666666666667</ele><time>2026-05-01T14:00:41.362Z</time></trkpt><trkpt lat="42.313777" lon="14.0883563"><ele>90.0</ele><time>2026-05-01T14:00:42.363Z</time></trkpt><trkpt lat="42.3139057" lon="14.0881704"><ele>88.0</ele><time>2026-05-01T14:00:43.362Z</time></trkpt><trkpt lat="42.3140495" lon="14.0879818"><ele>86.0</ele><time>2026-05-01T14:00:44.363Z</time></trkpt><trkpt lat="42.3141967" lon="14.0877818"><ele>84.0</ele><time>2026-05-01T14:00:45.364Z</time></trkpt><trkpt lat="42.3143381" lon="14.0875994"><ele>84.0</ele><time>2026-05-01T14:00:46.363Z</time></trkpt><trkpt lat="42.3144729" lon="14.087433"><ele>84.0</ele><time>2026-05-01T14:00:47.363Z</time></trkpt><trkpt lat="42.3145992" lon="14.087277"><ele>84.0</ele><time>2026-05-01T14:00:48.363Z</time></trkpt><trkpt lat="42.3147321" lon="14.0871352"><ele>82.33333333333333</ele><time>2026-05-01T14:00:49.364Z</time></trkpt><trkpt lat="42.3148687" lon="14.0870038"><ele>80.66666666666666</ele><time>2026-05-01T14:00:50.362Z</time></trkpt><trkpt lat="42.3149974" lon="14.0868986"><ele>79.0</ele><time>2026-05-01T14:00:51.362Z</time></trkpt><trkpt lat="42.3151217" lon="14.0868153"><ele>79.0</ele><time>2026-05-01T14:00:52.362Z</time></trkpt><trkpt lat="42.3152502" lon="14.0867537"><ele>79.0</ele><time>2026-05-01T14:00:53.362Z</time></trkpt><trkpt lat="42.3153825" lon="14.0867303"><ele>79.0</ele><time>2026-05-01T14:00:54.363Z</time></trkpt><trkpt lat="42.3155297" lon="14.0867406"><ele>79.0</ele><time>2026-05-01T14:00:55.363Z</time></trkpt><trkpt lat="42.3156869" lon="14.0867632"><ele>79.33333333333333</ele><time>2026-05-01T14:00:56.362Z</time></trkpt><trkpt lat="42.3158634" lon="14.086786"><ele>79.66666666666667</ele><time>2026-05-01T14:00:57.363Z</time></trkpt><trkpt lat="42.3160509" lon="14.0868076"><ele>80.0</ele><time>2026-05-01T14:00:58.363Z</time></trkpt><trkpt lat="42.3162191" lon="14.0868351"><ele>80.0</ele><time>2026-05-01T14:00:59.363Z</time></trkpt><trkpt lat="42.3163773" lon="14.0868964"><ele>80.0</ele><time>2026-05-01T14:01:00.363Z</time></trkpt><trkpt lat="42.3165509" lon="14.0869942"><ele>80.0</ele><time>2026-05-01T14:01:01.363Z</time></trkpt><trkpt lat="42.3167315" lon="14.0871042"><ele>79.0</ele><time>2026-05-01T14:01:02.362Z</time></trkpt><trkpt lat="42.3169268" lon="14.087216"><ele>78.0</ele><time>2026-05-01T14:01:03.363Z</time></trkpt><trkpt lat="42.3171189" lon="14.087323"><ele>77.0</ele><time>2026-05-01T14:01:04.364Z</time></trkpt><trkpt lat="42.3172926" lon="14.0874265"><ele>73.66666666666667</ele><time>2026-05-01T14:01:05.364Z</time></trkpt><trkpt lat="42.3174516" lon="14.0875359"><ele>70.33333333333333</ele><time>2026-05-01T14:01:06.363Z</time></trkpt><trkpt lat="42.3175945" lon="14.0876432"><ele>67.0</ele><time>2026-05-01T14:01:07.366Z</time></trkpt><trkpt lat="42.3177213" lon="14.0877501"><ele>67.0</ele><time>2026-05-01T14:01:08.362Z</time></trkpt><trkpt lat="42.3178303" lon="14.0878677"><ele>67.0</ele><time>2026-05-01T14:01:09.362Z</time></trkpt><trkpt lat="42.3179309" lon="14.0879802"><ele>67.0</ele><time>2026-05-01T14:01:10.362Z</time></trkpt><trkpt lat="42.3180217" lon="14.0880943"><ele>67.0</ele><time>2026-05-01T14:01:11.363Z</time></trkpt><trkpt lat="42.3181074" lon="14.0881954"><ele>66.4</ele><time>2026-05-01T14:01:12.363Z</time></trkpt><trkpt lat="42.3181955" lon="14.0882576"><ele>65.80000000000001</ele><time>2026-05-01T14:01:13.363Z</time></trkpt><trkpt lat="42.3182962" lon="14.0882988"><ele>65.2</ele><time>2026-05-01T14:01:14.363Z</time></trkpt><trkpt lat="42.3183989" lon="14.0883166"><ele>64.60000000000001</ele><time>2026-05-01T14:01:15.363Z</time></trkpt><trkpt lat="42.3185109" lon="14.0883302"><ele>64.0</ele><time>2026-05-01T14:01:16.362Z</time></trkpt><trkpt lat="42.3186241" lon="14.0883545"><ele>64.0</ele><time>2026-05-01T14:01:17.362Z</time></trkpt><trkpt lat="42.3187421" lon="14.088397"><ele>64.0</ele><time>2026-05-01T14:01:18.363Z</time></trkpt><trkpt lat="42.3188647" lon="14.0884428"><ele>64.0</ele><time>2026-05-01T14:01:19.363Z</time></trkpt><trkpt lat="42.3189882" lon="14.0884935"><ele>64.0</ele><time>2026-05-01T14:01:20.363Z</time></trkpt><trkpt lat="42.3191087" lon="14.0885379"><ele>63.666666666666664</ele><time>2026-05-01T14:01:21.362Z</time></trkpt><trkpt lat="42.3192179" lon="14.0885691"><ele>63.33333333333333</ele><time>2026-05-01T14:01:22.363Z</time></trkpt><trkpt lat="42.3193159" lon="14.0885935"><ele>63.0</ele><time>2026-05-01T14:01:23.363Z</time></trkpt><trkpt lat="42.3194004" lon="14.0886273"><ele>62.66666666666667</ele><time>2026-05-01T14:01:24.363Z</time></trkpt><trkpt lat="42.3194672" lon="14.0886492"><ele>62.333333333333336</ele><time>2026-05-01T14:01:25.363Z</time></trkpt><trkpt lat="42.3195274" lon="14.0885916"><ele>62.0</ele><time>2026-05-01T14:01:27.363Z</time></trkpt><trkpt lat="42.3196202" lon="14.0884391"><ele>62.0</ele><time>2026-05-01T14:01:29.363Z</time></trkpt><trkpt lat="42.319686" lon="14.0883231"><ele>62.0</ele><time>2026-05-01T14:01:30.363Z</time></trkpt><trkpt lat="42.3197485" lon="14.088214"><ele>62.0</ele><time>2026-05-01T14:01:31.363Z</time></trkpt><trkpt lat="42.3198059" lon="14.0881021"><ele>62.0</ele><time>2026-05-01T14:01:32.364Z</time></trkpt><trkpt lat="42.319869" lon="14.0879825"><ele>62.0</ele><time>2026-05-01T14:01:33.364Z</time></trkpt><trkpt lat="42.3199378" lon="14.0878537"><ele>61.8</ele><time>2026-05-01T14:01:34.363Z</time></trkpt><trkpt lat="42.3200018" lon="14.0877351"><ele>61.6</ele><time>2026-05-01T14:01:35.362Z</time></trkpt><trkpt lat="42.3200705" lon="14.0876159"><ele>61.39999999999999</ele><time>2026-05-01T14:01:36.362Z</time></trkpt><trkpt lat="42.3201419" lon="14.0875125"><ele>61.199999999999996</ele><time>2026-05-01T14:01:37.362Z</time></trkpt><trkpt lat="42.3202101" lon="14.0874346"><ele>61.0</ele><time>2026-05-01T14:01:38.362Z</time></trkpt><trkpt lat="42.320267" lon="14.0873851"><ele>61.0</ele><time>2026-05-01T14:01:39.361Z</time></trkpt><trkpt lat="42.3203424" lon="14.0873649"><ele>60.99999999999999</ele><time>2026-05-01T14:01:41.362Z</time></trkpt><trkpt lat="42.3204159" lon="14.0874738"><ele>60.99999999999999</ele><time>2026-05-01T14:01:43.362Z</time></trkpt><trkpt lat="42.3204736" lon="14.0875835"><ele>61.0</ele><time>2026-05-01T14:01:44.363Z</time></trkpt><trkpt lat="42.320543" lon="14.0877285"><ele>61.0</ele><time>2026-05-01T14:01:45.361Z</time></trkpt><trkpt lat="42.3206191" lon="14.0878908"><ele>60.666666666666664</ele><time>2026-05-01T14:01:46.362Z</time></trkpt><trkpt lat="42.3207004" lon="14.088065"><ele>60.33333333333333</ele><time>2026-05-01T14:01:47.362Z</time></trkpt><trkpt lat="42.3207889" lon="14.0882406"><ele>60.0</ele><time>2026-05-01T14:01:48.363Z</time></trkpt><trkpt lat="42.3208793" lon="14.0884229"><ele>60.0</ele><time>2026-05-01T14:01:49.362Z</time></trkpt><trkpt lat="42.3209615" lon="14.0885956"><ele>60.0</ele><time>2026-05-01T14:01:50.362Z</time></trkpt><trkpt lat="42.3210382" lon="14.0887512"><ele>60.0</ele><time>2026-05-01T14:01:51.363Z</time></trkpt><trkpt lat="42.3211081" lon="14.0888843"><ele>60.0</ele><time>2026-05-01T14:01:52.362Z</time></trkpt><trkpt lat="42.3211693" lon="14.0890036"><ele>59.833333333333336</ele><time>2026-05-01T14:01:53.363Z</time></trkpt><trkpt lat="42.3212272" lon="14.089117"><ele>59.66666666666667</ele><time>2026-05-01T14:01:54.362Z</time></trkpt><trkpt lat="42.3212801" lon="14.0892233"><ele>59.5</ele><time>2026-05-01T14:01:55.362Z</time></trkpt><trkpt lat="42.321327" lon="14.0893201"><ele>59.333333333333336</ele><time>2026-05-01T14:01:56.362Z</time></trkpt><trkpt lat="42.3213656" lon="14.0894057"><ele>59.16666666666667</ele><time>2026-05-01T14:01:57.362Z</time></trkpt><trkpt lat="42.3213984" lon="14.0894873"><ele>59.0</ele><time>2026-05-01T14:01:58.362Z</time></trkpt><trkpt lat="42.3214406" lon="14.0895534"><ele>59.0</ele><time>2026-05-01T14:01:59.362Z</time></trkpt><trkpt lat="42.3214948" lon="14.0896617"><ele>59.0</ele><time>2026-05-01T14:02:01.362Z</time></trkpt><trkpt lat="42.3215297" lon="14.0897413"><ele>59.0</ele><time>2026-05-01T14:02:03.361Z</time></trkpt><trkpt lat="42.3215211" lon="14.0898271"><ele>59.0</ele><time>2026-05-01T14:02:06.362Z</time></trkpt><trkpt lat="42.3215211" lon="14.0898271"><ele>59.0</ele><time>2026-05-01T14:02:06.362Z</time></trkpt></trkseg><trkseg><trkpt lat="42.3215379" lon="14.0899228"><ele>59.0</ele><time>2026-05-01T14:17:04.356Z</time></trkpt><trkpt lat="42.3216102" lon="14.0899161"><ele>59.00000000000001</ele><time>2026-05-01T14:17:42.356Z</time></trkpt><trkpt lat="42.3216768" lon="14.0900646"><ele>59.00000000000001</ele><time>2026-05-01T14:17:44.355Z</time></trkpt><trkpt lat="42.3217177" lon="14.0901541"><ele>59.0</ele><time>2026-05-01T14:17:45.357Z</time></trkpt><trkpt lat="42.3217694" lon="14.0902699"><ele>59.0</ele><time>2026-05-01T14:17:46.356Z</time></trkpt><trkpt lat="42.3218267" lon="14.0903884"><ele>58.75</ele><time>2026-05-01T14:17:47.356Z</time></trkpt><trkpt lat="42.3218888" lon="14.0905194"><ele>58.5</ele><time>2026-05-01T14:17:48.357Z</time></trkpt><trkpt lat="42.3219553" lon="14.0906649"><ele>58.25</ele><time>2026-05-01T14:17:49.357Z</time></trkpt><trkpt lat="42.3220274" lon="14.0908105"><ele>58.0</ele><time>2026-05-01T14:17:50.356Z</time></trkpt><trkpt lat="42.3220961" lon="14.0909548"><ele>58.0</ele><time>2026-05-01T14:17:51.355Z</time></trkpt><trkpt lat="42.3221666" lon="14.0910946"><ele>58.0</ele><time>2026-05-01T14:17:52.355Z</time></trkpt><trkpt lat="42.3222307" lon="14.0912219"><ele>58.0</ele><time>2026-05-01T14:17:53.355Z</time></trkpt><trkpt lat="42.32229" lon="14.0913482"><ele>58.0</ele><time>2026-05-01T14:17:54.356Z</time></trkpt><trkpt lat="42.3223467" lon="14.0914547"><ele>58.0</ele><time>2026-05-01T14:17:55.356Z</time></trkpt><trkpt lat="42.3223953" lon="14.0915589"><ele>58.2</ele><time>2026-05-01T14:17:56.356Z</time></trkpt><trkpt lat="42.3224397" lon="14.0916532"><ele>58.4</ele><time>2026-05-01T14:17:57.356Z</time></trkpt><trkpt lat="42.3224883" lon="14.0917504"><ele>58.60000000000001</ele><time>2026-05-01T14:17:58.355Z</time></trkpt><trkpt lat="42.3225407" lon="14.0918582"><ele>58.800000000000004</ele><time>2026-05-01T14:17:59.355Z</time></trkpt><trkpt lat="42.3225965" lon="14.0919719"><ele>59.0</ele><time>2026-05-01T14:18:00.357Z</time></trkpt><trkpt lat="42.3226558" lon="14.0920899"><ele>59.0</ele><time>2026-05-01T14:18:01.355Z</time></trkpt><trkpt lat="42.3227108" lon="14.0922063"><ele>59.00000000000001</ele><time>2026-05-01T14:18:02.356Z</time></trkpt><trkpt lat="42.3227636" lon="14.0923214"><ele>59.00000000000001</ele><time>2026-05-01T14:18:03.355Z</time></trkpt><trkpt lat="42.322812" lon="14.0924303"><ele>59.0</ele><time>2026-05-01T14:18:04.355Z</time></trkpt><trkpt lat="42.3228676" lon="14.0925444"><ele>59.0</ele><time>2026-05-01T14:18:05.356Z</time></trkpt><trkpt lat="42.322922" lon="14.0926617"><ele>58.800000000000004</ele><time>2026-05-01T14:18:06.357Z</time></trkpt><trkpt lat="42.3229777" lon="14.0927721"><ele>58.60000000000001</ele><time>2026-05-01T14:18:07.356Z</time></trkpt><trkpt lat="42.3230355" lon="14.0928865"><ele>58.4</ele><time>2026-05-01T14:18:08.356Z</time></trkpt><trkpt lat="42.3230934" lon="14.0930142"><ele>58.2</ele><time>2026-05-01T14:18:09.356Z</time></trkpt><trkpt lat="42.3231561" lon="14.0931463"><ele>58.0</ele><time>2026-05-01T14:18:10.356Z</time></trkpt><trkpt lat="42.3232149" lon="14.0932747"><ele>58.0</ele><time>2026-05-01T14:18:11.356Z</time></trkpt><trkpt lat="42.3232739" lon="14.0934037"><ele>58.0</ele><time>2026-05-01T14:18:12.356Z</time></trkpt><trkpt lat="42.3233347" lon="14.0935349"><ele>58.0</ele><time>2026-05-01T14:18:13.356Z</time></trkpt><trkpt lat="42.3233967" lon="14.0936702"><ele>58.0</ele><time>2026-05-01T14:18:14.356Z</time></trkpt><trkpt lat="42.3234595" lon="14.0938111"><ele>58.0</ele><time>2026-05-01T14:18:15.355Z</time></trkpt><trkpt lat="42.3235217" lon="14.0939607"><ele>58.0</ele><time>2026-05-01T14:18:16.355Z</time></trkpt><trkpt lat="42.3235752" lon="14.094108"><ele>58.0</ele><time>2026-05-01T14:18:17.356Z</time></trkpt><trkpt lat="42.3236182" lon="14.0942606"><ele>58.0</ele><time>2026-05-01T14:18:18.357Z</time></trkpt><trkpt lat="42.3236548" lon="14.0944071"><ele>58.0</ele><time>2026-05-01T14:18:19.357Z</time></trkpt><trkpt lat="42.3236876" lon="14.0945606"><ele>58.0</ele><time>2026-05-01T14:18:20.356Z</time></trkpt><trkpt lat="42.3237213" lon="14.0947105"><ele>58.0</ele><time>2026-05-01T14:18:21.356Z</time></trkpt><trkpt lat="42.3237491" lon="14.0948679"><ele>58.0</ele><time>2026-05-01T14:18:22.355Z</time></trkpt><trkpt lat="42.3237883" lon="14.0950418"><ele>58.33333333333333</ele><time>2026-05-01T14:18:23.355Z</time></trkpt><trkpt lat="42.3238328" lon="14.0952443"><ele>58.66666666666667</ele><time>2026-05-01T14:18:24.355Z</time></trkpt><trkpt lat="42.3238789" lon="14.0954661"><ele>59.0</ele><time>2026-05-01T14:18:25.356Z</time></trkpt><trkpt lat="42.3239178" lon="14.0956794"><ele>58.75</ele><time>2026-05-01T14:18:26.355Z</time></trkpt><trkpt lat="42.3239589" lon="14.0958757"><ele>58.5</ele><time>2026-05-01T14:18:27.355Z</time></trkpt><trkpt lat="42.3239961" lon="14.0960593"><ele>58.25</ele><time>2026-05-01T14:18:28.355Z</time></trkpt><trkpt lat="42.3240329" lon="14.0962329"><ele>58.0</ele><time>2026-05-01T14:18:29.355Z</time></trkpt><trkpt lat="42.3240682" lon="14.096403"><ele>58.0</ele><time>2026-05-01T14:18:30.355Z</time></trkpt><trkpt lat="42.3241079" lon="14.0965847"><ele>58.0</ele><time>2026-05-01T14:18:31.355Z</time></trkpt><trkpt lat="42.3241462" lon="14.0967655"><ele>58.0</ele><time>2026-05-01T14:18:32.354Z</time></trkpt><trkpt lat="42.3241832" lon="14.0969392"><ele>58.0</ele><time>2026-05-01T14:18:33.354Z</time></trkpt><trkpt lat="42.3242172" lon="14.0971071"><ele>58.0</ele><time>2026-05-01T14:18:34.355Z</time></trkpt><trkpt lat="42.3242518" lon="14.0972778"><ele>58.0</ele><time>2026-05-01T14:18:35.355Z</time></trkpt><trkpt lat="42.3242858" lon="14.0974443"><ele>58.0</ele><time>2026-05-01T14:18:36.356Z</time></trkpt><trkpt lat="42.324337" lon="14.0976323"><ele>58.0</ele><time>2026-05-01T14:18:37.355Z</time></trkpt><trkpt lat="42.3244032" lon="14.097833"><ele>57.666666666666664</ele><time>2026-05-01T14:18:38.354Z</time></trkpt><trkpt lat="42.3244897" lon="14.0980341"><ele>57.33333333333333</ele><time>2026-05-01T14:18:39.354Z</time></trkpt><trkpt lat="42.3246004" lon="14.0982422"><ele>57.0</ele><time>2026-05-01T14:18:40.356Z</time></trkpt><trkpt lat="42.3247303" lon="14.0984697"><ele>55.0</ele><time>2026-05-01T14:18:41.355Z</time></trkpt><trkpt lat="42.3248671" lon="14.098707"><ele>53.0</ele><time>2026-05-01T14:18:42.355Z</time></trkpt><trkpt lat="42.3250199" lon="14.098959"><ele>54.5</ele><time>2026-05-01T14:18:43.355Z</time></trkpt><trkpt lat="42.3251702" lon="14.0991994"><ele>56.0</ele><time>2026-05-01T14:18:44.355Z</time></trkpt><trkpt lat="42.3253283" lon="14.0994372"><ele>56.0</ele><time>2026-05-01T14:18:45.355Z</time></trkpt><trkpt lat="42.3254628" lon="14.0996502"><ele>56.0</ele><time>2026-05-01T14:18:46.355Z</time></trkpt><trkpt lat="42.325572" lon="14.0998299"><ele>56.0</ele><time>2026-05-01T14:18:47.356Z</time></trkpt><trkpt lat="42.3256895" lon="14.1000148"><ele>55.0</ele><time>2026-05-01T14:18:48.355Z</time></trkpt><trkpt lat="42.325799" lon="14.1001831"><ele>54.0</ele><time>2026-05-01T14:18:49.355Z</time></trkpt><trkpt lat="42.3258962" lon="14.1003404"><ele>53.0</ele><time>2026-05-01T14:18:50.355Z</time></trkpt><trkpt lat="42.3259817" lon="14.1004809"><ele>53.0</ele><time>2026-05-01T14:18:51.355Z</time></trkpt><trkpt lat="42.3260492" lon="14.1006029"><ele>53.0</ele><time>2026-05-01T14:18:52.354Z</time></trkpt><trkpt lat="42.3260988" lon="14.1007172"><ele>53.0</ele><time>2026-05-01T14:18:53.354Z</time></trkpt><trkpt lat="42.3261275" lon="14.1008301"><ele>53.0</ele><time>2026-05-01T14:18:54.355Z</time></trkpt><trkpt lat="42.3261437" lon="14.1009516"><ele>53.0</ele><time>2026-05-01T14:18:55.355Z</time></trkpt><trkpt lat="42.3261615" lon="14.1010549"><ele>53.4</ele><time>2026-05-01T14:18:56.354Z</time></trkpt><trkpt lat="42.3262176" lon="14.101173"><ele>53.8</ele><time>2026-05-01T14:18:58.355Z</time></trkpt><trkpt lat="42.3263241" lon="14.1012335"><ele>54.2</ele><time>2026-05-01T14:19:00.356Z</time></trkpt><trkpt lat="42.3263902" lon="14.1012731"><ele>54.6</ele><time>2026-05-01T14:19:01.355Z</time></trkpt><trkpt lat="42.3264625" lon="14.1013297"><ele>55.0</ele><time>2026-05-01T14:19:02.355Z</time></trkpt><trkpt lat="42.3265312" lon="14.1013993"><ele>55.0</ele><time>2026-05-01T14:19:03.355Z</time></trkpt><trkpt lat="42.3265983" lon="14.1014846"><ele>55.0</ele><time>2026-05-01T14:19:04.356Z</time></trkpt><trkpt lat="42.326666" lon="14.1015848"><ele>55.0</ele><time>2026-05-01T14:19:05.355Z</time></trkpt><trkpt lat="42.3267606" lon="14.1017236"><ele>55.0</ele><time>2026-05-01T14:19:06.355Z</time></trkpt><trkpt lat="42.3268498" lon="14.1018673"><ele>55.0</ele><time>2026-05-01T14:19:07.355Z</time></trkpt><trkpt lat="42.3269779" lon="14.1020996"><ele>55.0</ele><time>2026-05-01T14:19:08.355Z</time></trkpt><trkpt lat="42.3270893" lon="14.102328"><ele>55.0</ele><time>2026-05-01T14:19:09.355Z</time></trkpt><trkpt lat="42.3272017" lon="14.1025765"><ele>53.0</ele><time>2026-05-01T14:19:10.355Z</time></trkpt><trkpt lat="42.3272921" lon="14.1028114"><ele>51.0</ele><time>2026-05-01T14:19:11.355Z</time></trkpt><trkpt lat="42.3273655" lon="14.1030393"><ele>49.0</ele><time>2026-05-01T14:19:12.355Z</time></trkpt><trkpt lat="42.3274384" lon="14.1032563"><ele>49.0</ele><time>2026-05-01T14:19:13.356Z</time></trkpt><trkpt lat="42.3275078" lon="14.1034613"><ele>49.0</ele><time>2026-05-01T14:19:14.355Z</time></trkpt><trkpt lat="42.3275772" lon="14.103667"><ele>49.0</ele><time>2026-05-01T14:19:15.354Z</time></trkpt><trkpt lat="42.3276484" lon="14.1038776"><ele>48.33333333333333</ele><time>2026-05-01T14:19:16.355Z</time></trkpt><trkpt lat="42.3277179" lon="14.1040987"><ele>47.666666666666664</ele><time>2026-05-01T14:19:17.355Z</time></trkpt><trkpt lat="42.3277839" lon="14.1043123"><ele>47.0</ele><time>2026-05-01T14:19:18.355Z</time></trkpt><trkpt lat="42.3278412" lon="14.104504"><ele>47.0</ele><time>2026-05-01T14:19:19.355Z</time></trkpt><trkpt lat="42.3278977" lon="14.1046824"><ele>47.0</ele><time>2026-05-01T14:19:20.355Z</time></trkpt><trkpt lat="42.3279537" lon="14.1048613"><ele>47.0</ele><time>2026-05-01T14:19:21.354Z</time></trkpt><trkpt lat="42.3280075" lon="14.1050396"><ele>47.0</ele><time>2026-05-01T14:19:22.355Z</time></trkpt><trkpt lat="42.3280672" lon="14.105228"><ele>46.666666666666664</ele><time>2026-05-01T14:19:23.354Z</time></trkpt><trkpt lat="42.328137" lon="14.1054353"><ele>46.333333333333336</ele><time>2026-05-01T14:19:24.355Z</time></trkpt><trkpt lat="42.3282056" lon="14.1056727"><ele>46.0</ele><time>2026-05-01T14:19:25.355Z</time></trkpt><trkpt lat="42.3282682" lon="14.1058881"><ele>46.0</ele><time>2026-05-01T14:19:26.355Z</time></trkpt><trkpt lat="42.3283306" lon="14.1060938"><ele>46.0</ele><time>2026-05-01T14:19:27.355Z</time></trkpt><trkpt lat="42.3283998" lon="14.1062987"><ele>46.0</ele><time>2026-05-01T14:19:28.355Z</time></trkpt><trkpt lat="42.3284553" lon="14.1064849"><ele>46.0</ele><time>2026-05-01T14:19:29.355Z</time></trkpt><trkpt lat="42.3285004" lon="14.1066384"><ele>46.0</ele><time>2026-05-01T14:19:30.355Z</time></trkpt><trkpt lat="42.3285557" lon="14.1067999"><ele>46.0</ele><time>2026-05-01T14:19:31.355Z</time></trkpt><trkpt lat="42.3286086" lon="14.1069392"><ele>46.0</ele><time>2026-05-01T14:19:32.355Z</time></trkpt><trkpt lat="42.3286514" lon="14.1070841"><ele>46.0</ele><time>2026-05-01T14:19:33.355Z</time></trkpt><trkpt lat="42.3286853" lon="14.1072133"><ele>46.0</ele><time>2026-05-01T14:19:34.355Z</time></trkpt><trkpt lat="42.328721" lon="14.1073243"><ele>46.0</ele><time>2026-05-01T14:19:35.354Z</time></trkpt><trkpt lat="42.3287627" lon="14.1074428"><ele>46.0</ele><time>2026-05-01T14:19:36.356Z</time></trkpt><trkpt lat="42.328806" lon="14.1075694"><ele>46.0</ele><time>2026-05-01T14:19:37.355Z</time></trkpt><trkpt lat="42.3288476" lon="14.1077011"><ele>46.0</ele><time>2026-05-01T14:19:38.355Z</time></trkpt><trkpt lat="42.3288894" lon="14.107828"><ele>46.0</ele><time>2026-05-01T14:19:39.356Z</time></trkpt><trkpt lat="42.3289322" lon="14.1079572"><ele>46.0</ele><time>2026-05-01T14:19:40.355Z</time></trkpt><trkpt lat="42.3289778" lon="14.1081082"><ele>46.0</ele><time>2026-05-01T14:19:41.355Z</time></trkpt><trkpt lat="42.3290304" lon="14.1082812"><ele>44.75</ele><time>2026-05-01T14:19:42.355Z</time></trkpt><trkpt lat="42.3290855" lon="14.1084608"><ele>43.5</ele><time>2026-05-01T14:19:43.354Z</time></trkpt><trkpt lat="42.3291409" lon="14.1086506"><ele>42.25</ele><time>2026-05-01T14:19:44.356Z</time></trkpt><trkpt lat="42.3291957" lon="14.1088185"><ele>41.0</ele><time>2026-05-01T14:19:45.355Z</time></trkpt><trkpt lat="42.3292501" lon="14.1089898"><ele>41.5</ele><time>2026-05-01T14:19:46.355Z</time></trkpt><trkpt lat="42.3293061" lon="14.1091689"><ele>42.0</ele><time>2026-05-01T14:19:47.355Z</time></trkpt><trkpt lat="42.3293608" lon="14.109344"><ele>42.5</ele><time>2026-05-01T14:19:48.355Z</time></trkpt><trkpt lat="42.3294072" lon="14.1095061"><ele>43.0</ele><time>2026-05-01T14:19:49.356Z</time></trkpt><trkpt lat="42.3294691" lon="14.1096699"><ele>43.0</ele><time>2026-05-01T14:19:50.355Z</time></trkpt><trkpt lat="42.329527" lon="14.1098555"><ele>43.0</ele><time>2026-05-01T14:19:51.356Z</time></trkpt><trkpt lat="42.329595" lon="14.1100646"><ele>43.0</ele><time>2026-05-01T14:19:52.355Z</time></trkpt><trkpt lat="42.3296645" lon="14.1103062"><ele>42.66666666666667</ele><time>2026-05-01T14:19:53.355Z</time></trkpt><trkpt lat="42.3297445" lon="14.1105689"><ele>42.333333333333336</ele><time>2026-05-01T14:19:54.354Z</time></trkpt><trkpt lat="42.3298229" lon="14.110828"><ele>42.0</ele><time>2026-05-01T14:19:55.355Z</time></trkpt><trkpt lat="42.3298964" lon="14.1110755"><ele>42.0</ele><time>2026-05-01T14:19:56.354Z</time></trkpt><trkpt lat="42.329979" lon="14.111345"><ele>42.0</ele><time>2026-05-01T14:19:57.354Z</time></trkpt><trkpt lat="42.3300613" lon="14.1116006"><ele>42.0</ele><time>2026-05-01T14:19:58.354Z</time></trkpt><trkpt lat="42.3301367" lon="14.1118348"><ele>42.333333333333336</ele><time>2026-05-01T14:19:59.354Z</time></trkpt><trkpt lat="42.3302049" lon="14.1120527"><ele>42.66666666666667</ele><time>2026-05-01T14:20:00.354Z</time></trkpt><trkpt lat="42.3302656" lon="14.1122529"><ele>43.0</ele><time>2026-05-01T14:20:01.355Z</time></trkpt><trkpt lat="42.3303233" lon="14.1124319"><ele>43.0</ele><time>2026-05-01T14:20:02.355Z</time></trkpt><trkpt lat="42.3303678" lon="14.112586"><ele>43.0</ele><time>2026-05-01T14:20:03.355Z</time></trkpt><trkpt lat="42.3304069" lon="14.1127305"><ele>43.0</ele><time>2026-05-01T14:20:04.356Z</time></trkpt><trkpt lat="42.3304325" lon="14.1128656"><ele>43.0</ele><time>2026-05-01T14:20:05.355Z</time></trkpt><trkpt lat="42.3304409" lon="14.1130089"><ele>43.0</ele><time>2026-05-01T14:20:06.355Z</time></trkpt><trkpt lat="42.330448" lon="14.113128"><ele>43.0</ele><time>2026-05-01T14:20:07.355Z</time></trkpt><trkpt lat="42.3304784" lon="14.1132207"><ele>43.0</ele><time>2026-05-01T14:20:08.355Z</time></trkpt><trkpt lat="42.3305302" lon="14.1132922"><ele>43.0</ele><time>2026-05-01T14:20:09.356Z</time></trkpt><trkpt lat="42.3305897" lon="14.1133782"><ele>43.0</ele><time>2026-05-01T14:20:10.355Z</time></trkpt><trkpt lat="42.3306444" lon="14.1135015"><ele>43.0</ele><time>2026-05-01T14:20:11.354Z</time></trkpt><trkpt lat="42.3306991" lon="14.1136608"><ele>41.333333333333336</ele><time>2026-05-01T14:20:12.355Z</time></trkpt><trkpt lat="42.3307623" lon="14.1138475"><ele>39.666666666666664</ele><time>2026-05-01T14:20:13.354Z</time></trkpt><trkpt lat="42.3308221" lon="14.1140347"><ele>38.0</ele><time>2026-05-01T14:20:14.354Z</time></trkpt><trkpt lat="42.3309016" lon="14.114266"><ele>38.0</ele><time>2026-05-01T14:20:15.355Z</time></trkpt><trkpt lat="42.3309716" lon="14.1145117"><ele>38.0</ele><time>2026-05-01T14:20:16.355Z</time></trkpt><trkpt lat="42.3310423" lon="14.1147328"><ele>38.0</ele><time>2026-05-01T14:20:17.355Z</time></trkpt><trkpt lat="42.3311099" lon="14.114945"><ele>38.0</ele><time>2026-05-01T14:20:18.356Z</time></trkpt><trkpt lat="42.3311766" lon="14.11515"><ele>38.0</ele><time>2026-05-01T14:20:19.355Z</time></trkpt><trkpt lat="42.331246" lon="14.1153618"><ele>38.0</ele><time>2026-05-01T14:20:20.355Z</time></trkpt><trkpt lat="42.3313251" lon="14.1156099"><ele>38.0</ele><time>2026-05-01T14:20:21.355Z</time></trkpt><trkpt lat="42.33141" lon="14.1158804"><ele>38.0</ele><time>2026-05-01T14:20:22.355Z</time></trkpt><trkpt lat="42.3314891" lon="14.1161267"><ele>38.0</ele><time>2026-05-01T14:20:23.355Z</time></trkpt><trkpt lat="42.3315706" lon="14.1163756"><ele>38.0</ele><time>2026-05-01T14:20:24.356Z</time></trkpt><trkpt lat="42.3316326" lon="14.1165793"><ele>38.0</ele><time>2026-05-01T14:20:25.354Z</time></trkpt><trkpt lat="42.3316996" lon="14.1167817"><ele>38.0</ele><time>2026-05-01T14:20:26.354Z</time></trkpt><trkpt lat="42.3317615" lon="14.116986"><ele>38.0</ele><time>2026-05-01T14:20:27.355Z</time></trkpt><trkpt lat="42.3318476" lon="14.1172126"><ele>38.0</ele><time>2026-05-01T14:20:28.354Z</time></trkpt><trkpt lat="42.3319061" lon="14.1174542"><ele>38.0</ele><time>2026-05-01T14:20:29.354Z</time></trkpt><trkpt lat="42.3319742" lon="14.1176839"><ele>38.666666666666664</ele><time>2026-05-01T14:20:30.354Z</time></trkpt><trkpt lat="42.3320463" lon="14.1179142"><ele>39.333333333333336</ele><time>2026-05-01T14:20:31.355Z</time></trkpt><trkpt lat="42.3321203" lon="14.1181594"><ele>40.0</ele><time>2026-05-01T14:20:32.354Z</time></trkpt><trkpt lat="42.3322041" lon="14.118429"><ele>39.333333333333336</ele><time>2026-05-01T14:20:33.353Z</time></trkpt><trkpt lat="42.3322849" lon="14.1186933"><ele>38.666666666666664</ele><time>2026-05-01T14:20:34.354Z</time></trkpt><trkpt lat="42.3323722" lon="14.1189604"><ele>38.0</ele><time>2026-05-01T14:20:35.354Z</time></trkpt><trkpt lat="42.3324569" lon="14.1192204"><ele>37.666666666666664</ele><time>2026-05-01T14:20:36.355Z</time></trkpt><trkpt lat="42.3325335" lon="14.119477"><ele>37.333333333333336</ele><time>2026-05-01T14:20:37.354Z</time></trkpt><trkpt lat="42.3326183" lon="14.1197371"><ele>37.0</ele><time>2026-05-01T14:20:38.354Z</time></trkpt><trkpt lat="42.3327014" lon="14.1199955"><ele>38.0</ele><time>2026-05-01T14:20:39.354Z</time></trkpt><trkpt lat="42.3327767" lon="14.1202431"><ele>39.0</ele><time>2026-05-01T14:20:40.355Z</time></trkpt><trkpt lat="42.3328589" lon="14.1205043"><ele>40.0</ele><time>2026-05-01T14:20:41.353Z</time></trkpt><trkpt lat="42.3329286" lon="14.1207465"><ele>40.0</ele><time>2026-05-01T14:20:42.355Z</time></trkpt><trkpt lat="42.3330225" lon="14.1210196"><ele>40.0</ele><time>2026-05-01T14:20:43.354Z</time></trkpt><trkpt lat="42.3331033" lon="14.1212983"><ele>40.0</ele><time>2026-05-01T14:20:44.353Z</time></trkpt><trkpt lat="42.3331908" lon="14.121579"><ele>41.0</ele><time>2026-05-01T14:20:45.354Z</time></trkpt><trkpt lat="42.3332782" lon="14.1218582"><ele>42.0</ele><time>2026-05-01T14:20:46.354Z</time></trkpt><trkpt lat="42.3333702" lon="14.1221381"><ele>43.0</ele><time>2026-05-01T14:20:47.354Z</time></trkpt><trkpt lat="42.3334647" lon="14.1224227"><ele>44.0</ele><time>2026-05-01T14:20:48.354Z</time></trkpt><trkpt lat="42.33355" lon="14.1227171"><ele>44.0</ele><time>2026-05-01T14:20:49.355Z</time></trkpt><trkpt lat="42.3336499" lon="14.1230137"><ele>44.0</ele><time>2026-05-01T14:20:50.355Z</time></trkpt><trkpt lat="42.3337444" lon="14.1233206"><ele>43.5</ele><time>2026-05-01T14:20:51.354Z</time></trkpt><trkpt lat="42.3338405" lon="14.1236137"><ele>43.0</ele><time>2026-05-01T14:20:52.355Z</time></trkpt><trkpt lat="42.3339261" lon="14.1238827"><ele>42.333333333333336</ele><time>2026-05-01T14:20:53.354Z</time></trkpt><trkpt lat="42.3340092" lon="14.1241382"><ele>41.666666666666664</ele><time>2026-05-01T14:20:54.354Z</time></trkpt><trkpt lat="42.3340993" lon="14.1243963"><ele>41.0</ele><time>2026-05-01T14:20:55.355Z</time></trkpt><trkpt lat="42.3341853" lon="14.124659"><ele>41.666666666666664</ele><time>2026-05-01T14:20:56.354Z</time></trkpt><trkpt lat="42.3342633" lon="14.124913"><ele>42.333333333333336</ele><time>2026-05-01T14:20:57.354Z</time></trkpt><trkpt lat="42.3343424" lon="14.1251643"><ele>43.0</ele><time>2026-05-01T14:20:58.353Z</time></trkpt><trkpt lat="42.3344152" lon="14.1254141"><ele>43.0</ele><time>2026-05-01T14:20:59.354Z</time></trkpt><trkpt lat="42.3344869" lon="14.1256384"><ele>43.0</ele><time>2026-05-01T14:21:00.355Z</time></trkpt><trkpt lat="42.3345573" lon="14.1258467"><ele>43.0</ele><time>2026-05-01T14:21:01.354Z</time></trkpt><trkpt lat="42.3346218" lon="14.1260402"><ele>43.5</ele><time>2026-05-01T14:21:02.354Z</time></trkpt><trkpt lat="42.3346801" lon="14.1262181"><ele>44.0</ele><time>2026-05-01T14:21:03.354Z</time></trkpt><trkpt lat="42.3347385" lon="14.1263867"><ele>44.5</ele><time>2026-05-01T14:21:04.355Z</time></trkpt><trkpt lat="42.3348071" lon="14.126584"><ele>45.0</ele><time>2026-05-01T14:21:05.353Z</time></trkpt><trkpt lat="42.3348743" lon="14.1268128"><ele>45.333333333333336</ele><time>2026-05-01T14:21:06.354Z</time></trkpt><trkpt lat="42.3349443" lon="14.1270818"><ele>45.66666666666667</ele><time>2026-05-01T14:21:07.354Z</time></trkpt><trkpt lat="42.3350309" lon="14.1273659"><ele>46.0</ele><time>2026-05-01T14:21:08.354Z</time></trkpt><trkpt lat="42.3351189" lon="14.12767"><ele>47.0</ele><time>2026-05-01T14:21:09.354Z</time></trkpt><trkpt lat="42.3352167" lon="14.1279783"><ele>48.0</ele><time>2026-05-01T14:21:10.355Z</time></trkpt><trkpt lat="42.3353057" lon="14.1282732"><ele>48.5</ele><time>2026-05-01T14:21:11.354Z</time></trkpt><trkpt lat="42.3354023" lon="14.1285595"><ele>49.0</ele><time>2026-05-01T14:21:12.354Z</time></trkpt><trkpt lat="42.3354911" lon="14.1288413"><ele>49.33333333333333</ele><time>2026-05-01T14:21:13.354Z</time></trkpt><trkpt lat="42.3355765" lon="14.1291096"><ele>49.66666666666667</ele><time>2026-05-01T14:21:14.355Z</time></trkpt><trkpt lat="42.3356605" lon="14.1293639"><ele>50.0</ele><time>2026-05-01T14:21:15.354Z</time></trkpt><trkpt lat="42.3357354" lon="14.1296009"><ele>50.0</ele><time>2026-05-01T14:21:16.355Z</time></trkpt><trkpt lat="42.3358095" lon="14.129833"><ele>50.0</ele><time>2026-05-01T14:21:17.354Z</time></trkpt><trkpt lat="42.3358809" lon="14.1300659"><ele>50.0</ele><time>2026-05-01T14:21:18.354Z</time></trkpt><trkpt lat="42.3359481" lon="14.1302839"><ele>50.66666666666667</ele><time>2026-05-01T14:21:19.354Z</time></trkpt><trkpt lat="42.3360124" lon="14.1304894"><ele>51.33333333333333</ele><time>2026-05-01T14:21:20.354Z</time></trkpt><trkpt lat="42.336074" lon="14.1306838"><ele>52.0</ele><time>2026-05-01T14:21:21.354Z</time></trkpt><trkpt lat="42.3361344" lon="14.1308642"><ele>52.0</ele><time>2026-05-01T14:21:22.354Z</time></trkpt><trkpt lat="42.3361881" lon="14.1310367"><ele>52.0</ele><time>2026-05-01T14:21:23.354Z</time></trkpt><trkpt lat="42.3362424" lon="14.1312127"><ele>52.0</ele><time>2026-05-01T14:21:24.354Z</time></trkpt><trkpt lat="42.3362993" lon="14.1313934"><ele>52.0</ele><time>2026-05-01T14:21:25.355Z</time></trkpt><trkpt lat="42.3363794" lon="14.1316076"><ele>52.0</ele><time>2026-05-01T14:21:26.354Z</time></trkpt><trkpt lat="42.3364665" lon="14.1318524"><ele>52.0</ele><time>2026-05-01T14:21:27.353Z</time></trkpt><trkpt lat="42.3365635" lon="14.1320735"><ele>52.0</ele><time>2026-05-01T14:21:28.354Z</time></trkpt><trkpt lat="42.3366764" lon="14.132266"><ele>52.666666666666664</ele><time>2026-05-01T14:21:29.354Z</time></trkpt><trkpt lat="42.3368063" lon="14.1324407"><ele>53.33333333333333</ele><time>2026-05-01T14:21:30.354Z</time></trkpt><trkpt lat="42.3369475" lon="14.1325936"><ele>54.0</ele><time>2026-05-01T14:21:31.354Z</time></trkpt><trkpt lat="42.3370964" lon="14.1327142"><ele>54.33333333333333</ele><time>2026-05-01T14:21:32.354Z</time></trkpt><trkpt lat="42.3372505" lon="14.1328074"><ele>54.666666666666664</ele><time>2026-05-01T14:21:33.354Z</time></trkpt><trkpt lat="42.3374133" lon="14.1328884"><ele>55.0</ele><time>2026-05-01T14:21:34.354Z</time></trkpt><trkpt lat="42.3375768" lon="14.1329619"><ele>55.0</ele><time>2026-05-01T14:21:35.354Z</time></trkpt><trkpt lat="42.3377393" lon="14.1330414"><ele>55.0</ele><time>2026-05-01T14:21:36.353Z</time></trkpt><trkpt lat="42.3378891" lon="14.1330574"><ele>55.0</ele><time>2026-05-01T14:21:37.353Z</time></trkpt><trkpt lat="42.3380425" lon="14.1331027"><ele>55.0</ele><time>2026-05-01T14:21:38.353Z</time></trkpt><trkpt lat="42.3381918" lon="14.133149"><ele>55.0</ele><time>2026-05-01T14:21:39.354Z</time></trkpt><trkpt lat="42.3383346" lon="14.1331881"><ele>55.0</ele><time>2026-05-01T14:21:40.353Z</time></trkpt><trkpt lat="42.3384744" lon="14.1332327"><ele>55.0</ele><time>2026-05-01T14:21:41.354Z</time></trkpt><trkpt lat="42.3385989" lon="14.1332697"><ele>55.0</ele><time>2026-05-01T14:21:42.354Z</time></trkpt><trkpt lat="42.3387133" lon="14.1333034"><ele>55.0</ele><time>2026-05-01T14:21:43.353Z</time></trkpt><trkpt lat="42.338807" lon="14.133333"><ele>55.0</ele><time>2026-05-01T14:21:44.353Z</time></trkpt><trkpt lat="42.3388967" lon="14.1333613"><ele>55.0</ele><time>2026-05-01T14:21:45.354Z</time></trkpt><trkpt lat="42.338991" lon="14.1333915"><ele>55.0</ele><time>2026-05-01T14:21:46.354Z</time></trkpt><trkpt lat="42.3390893" lon="14.1334203"><ele>55.2</ele><time>2026-05-01T14:21:47.354Z</time></trkpt><trkpt lat="42.3391872" lon="14.1334512"><ele>55.4</ele><time>2026-05-01T14:21:48.354Z</time></trkpt><trkpt lat="42.3392822" lon="14.133476"><ele>55.599999999999994</ele><time>2026-05-01T14:21:49.353Z</time></trkpt><trkpt lat="42.3393693" lon="14.1335029"><ele>55.8</ele><time>2026-05-01T14:21:50.353Z</time></trkpt><trkpt lat="42.33946" lon="14.1335276"><ele>56.0</ele><time>2026-05-01T14:21:51.355Z</time></trkpt><trkpt lat="42.3395465" lon="14.1335566"><ele>56.00000000000001</ele><time>2026-05-01T14:21:52.354Z</time></trkpt><trkpt lat="42.3396321" lon="14.1335819"><ele>56.0</ele><time>2026-05-01T14:21:53.353Z</time></trkpt><trkpt lat="42.3397175" lon="14.1336041"><ele>56.0</ele><time>2026-05-01T14:21:54.353Z</time></trkpt><trkpt lat="42.3398023" lon="14.1336339"><ele>56.0</ele><time>2026-05-01T14:21:55.354Z</time></trkpt><trkpt lat="42.3398811" lon="14.1336605"><ele>56.00000000000001</ele><time>2026-05-01T14:21:56.354Z</time></trkpt><trkpt lat="42.3399631" lon="14.1336841"><ele>56.0</ele><time>2026-05-01T14:21:57.355Z</time></trkpt><trkpt lat="42.3400421" lon="14.1337087"><ele>55.833333333333336</ele><time>2026-05-01T14:21:58.354Z</time></trkpt><trkpt lat="42.3401133" lon="14.133729"><ele>55.66666666666667</ele><time>2026-05-01T14:21:59.355Z</time></trkpt><trkpt lat="42.3401846" lon="14.1337523"><ele>55.5</ele><time>2026-05-01T14:22:00.355Z</time></trkpt><trkpt lat="42.3402558" lon="14.1337769"><ele>55.33333333333333</ele><time>2026-05-01T14:22:01.354Z</time></trkpt><trkpt lat="42.3403233" lon="14.1337996"><ele>55.166666666666664</ele><time>2026-05-01T14:22:02.355Z</time></trkpt><trkpt lat="42.3403849" lon="14.1338266"><ele>55.0</ele><time>2026-05-01T14:22:03.354Z</time></trkpt><trkpt lat="42.3404788" lon="14.133904"><ele>54.6</ele><time>2026-05-01T14:22:05.354Z</time></trkpt><trkpt lat="42.3405575" lon="14.1339876"><ele>54.2</ele><time>2026-05-01T14:22:07.355Z</time></trkpt><trkpt lat="42.340659" lon="14.1339929"><ele>53.8</ele><time>2026-05-01T14:22:09.354Z</time></trkpt><trkpt lat="42.3407145" lon="14.1338779"><ele>53.4</ele><time>2026-05-01T14:22:11.354Z</time></trkpt><trkpt lat="42.3407019" lon="14.1337441"><ele>53.0</ele><time>2026-05-01T14:22:13.355Z</time></trkpt><trkpt lat="42.3406838" lon="14.1335716"><ele>53.0</ele><time>2026-05-01T14:22:15.353Z</time></trkpt><trkpt lat="42.340713" lon="14.1334541"><ele>53.0</ele><time>2026-05-01T14:22:16.354Z</time></trkpt><trkpt lat="42.3407724" lon="14.1333079"><ele>53.0</ele><time>2026-05-01T14:22:17.353Z</time></trkpt><trkpt lat="42.340858" lon="14.1331487"><ele>53.0</ele><time>2026-05-01T14:22:18.354Z</time></trkpt><trkpt lat="42.3409422" lon="14.1329966"><ele>52.5</ele><time>2026-05-01T14:22:19.355Z</time></trkpt><trkpt lat="42.3410181" lon="14.1328652"><ele>52.0</ele><time>2026-05-01T14:22:20.354Z</time></trkpt><trkpt lat="42.3410885" lon="14.1327412"><ele>51.5</ele><time>2026-05-01T14:22:21.355Z</time></trkpt><trkpt lat="42.3411723" lon="14.132602"><ele>51.0</ele><time>2026-05-01T14:22:22.354Z</time></trkpt><trkpt lat="42.341266" lon="14.1324673"><ele>50.5</ele><time>2026-05-01T14:22:23.354Z</time></trkpt><trkpt lat="42.3413577" lon="14.1323307"><ele>50.0</ele><time>2026-05-01T14:22:24.354Z</time></trkpt><trkpt lat="42.341435" lon="14.1322008"><ele>49.5</ele><time>2026-05-01T14:22:25.354Z</time></trkpt><trkpt lat="42.3414985" lon="14.1320664"><ele>49.0</ele><time>2026-05-01T14:22:26.353Z</time></trkpt><trkpt lat="42.3415458" lon="14.1319301"><ele>48.800000000000004</ele><time>2026-05-01T14:22:27.353Z</time></trkpt><trkpt lat="42.3415878" lon="14.1317942"><ele>48.6</ele><time>2026-05-01T14:22:28.353Z</time></trkpt><trkpt lat="42.3416213" lon="14.1316809"><ele>48.4</ele><time>2026-05-01T14:22:29.353Z</time></trkpt><trkpt lat="42.3416523" lon="14.1315681"><ele>48.2</ele><time>2026-05-01T14:22:30.354Z</time></trkpt><trkpt lat="42.3416804" lon="14.1314802"><ele>48.0</ele><time>2026-05-01T14:22:31.354Z</time></trkpt><trkpt lat="42.3417397" lon="14.1313205"><ele>47.833333333333336</ele><time>2026-05-01T14:22:33.353Z</time></trkpt><trkpt lat="42.3417812" lon="14.1312273"><ele>47.666666666666664</ele><time>2026-05-01T14:22:34.353Z</time></trkpt><trkpt lat="42.3418209" lon="14.1311351"><ele>47.5</ele><time>2026-05-01T14:22:35.353Z</time></trkpt><trkpt lat="42.3418473" lon="14.1310336"><ele>47.33333333333333</ele><time>2026-05-01T14:22:36.354Z</time></trkpt><trkpt lat="42.3418602" lon="14.1309307"><ele>47.166666666666664</ele><time>2026-05-01T14:22:37.352Z</time></trkpt><trkpt lat="42.3418686" lon="14.1308328"><ele>47.0</ele><time>2026-05-01T14:22:38.352Z</time></trkpt><trkpt lat="42.3419027" lon="14.1306861"><ele>46.8</ele><time>2026-05-01T14:22:39.352Z</time></trkpt><trkpt lat="42.3419341" lon="14.1305371"><ele>46.6</ele><time>2026-05-01T14:22:40.352Z</time></trkpt><trkpt lat="42.341967" lon="14.1303954"><ele>46.4</ele><time>2026-05-01T14:22:41.353Z</time></trkpt><trkpt lat="42.3420078" lon="14.1302555"><ele>46.199999999999996</ele><time>2026-05-01T14:22:42.353Z</time></trkpt><trkpt lat="42.3420487" lon="14.1301226"><ele>46.0</ele><time>2026-05-01T14:22:43.353Z</time></trkpt><trkpt lat="42.3420506" lon="14.1300322"><ele>46.0</ele><time>2026-05-01T14:22:44.353Z</time></trkpt><trkpt lat="42.3420519" lon="14.1299357"><ele>46.0</ele><time>2026-05-01T14:22:45.353Z</time></trkpt><trkpt lat="42.3420643" lon="14.1298092"><ele>46.0</ele><time>2026-05-01T14:22:47.353Z</time></trkpt><trkpt lat="42.3420857" lon="14.1296793"><ele>46.0</ele><time>2026-05-01T14:22:50.353Z</time></trkpt><trkpt lat="42.342129" lon="14.1296165"><ele>46.0</ele><time>2026-05-01T14:22:51.353Z</time></trkpt><trkpt lat="42.3421754" lon="14.1295219"><ele>46.0</ele><time>2026-05-01T14:22:52.354Z</time></trkpt><trkpt lat="42.3421805" lon="14.1294231"><ele>45.66666666666667</ele><time>2026-05-01T14:22:53.353Z</time></trkpt><trkpt lat="42.342161" lon="14.1293331"><ele>45.333333333333336</ele><time>2026-05-01T14:22:54.352Z</time></trkpt><trkpt lat="42.3421029" lon="14.1292457"><ele>45.0</ele><time>2026-05-01T14:22:55.352Z</time></trkpt><trkpt lat="42.342022" lon="14.1291646"><ele>44.666666666666664</ele><time>2026-05-01T14:22:56.354Z</time></trkpt><trkpt lat="42.3419563" lon="14.1290761"><ele>44.33333333333333</ele><time>2026-05-01T14:22:57.353Z</time></trkpt><trkpt lat="42.341907" lon="14.1289599"><ele>44.0</ele><time>2026-05-01T14:22:58.353Z</time></trkpt><trkpt lat="42.3418458" lon="14.1288265"><ele>42.33333333333333</ele><time>2026-05-01T14:22:59.354Z</time></trkpt><trkpt lat="42.3417803" lon="14.128671"><ele>40.666666666666664</ele><time>2026-05-01T14:23:00.353Z</time></trkpt><trkpt lat="42.3417598" lon="14.1283679"><ele>39.0</ele><time>2026-05-01T14:23:01.353Z</time></trkpt><trkpt lat="42.341723" lon="14.128086"><ele>38.0</ele><time>2026-05-01T14:23:02.354Z</time></trkpt><trkpt lat="42.341674" lon="14.127788"><ele>37.0</ele><time>2026-05-01T14:23:03.352Z</time></trkpt><trkpt lat="42.3416198" lon="14.127464"><ele>36.0</ele><time>2026-05-01T14:23:04.353Z</time></trkpt><trkpt lat="42.341568" lon="14.127124"><ele>35.0</ele><time>2026-05-01T14:23:05.353Z</time></trkpt><trkpt lat="42.3415012" lon="14.1267705"><ele>35.0</ele><time>2026-05-01T14:23:06.353Z</time></trkpt><trkpt lat="42.3414374" lon="14.1264048"><ele>35.0</ele><time>2026-05-01T14:23:07.352Z</time></trkpt><trkpt lat="42.3413736" lon="14.126031"><ele>34.5</ele><time>2026-05-01T14:23:08.353Z</time></trkpt><trkpt lat="42.3413102" lon="14.1256453"><ele>34.0</ele><time>2026-05-01T14:23:09.353Z</time></trkpt><trkpt lat="42.3412428" lon="14.1252496"><ele>34.5</ele><time>2026-05-01T14:23:10.353Z</time></trkpt><trkpt lat="42.3411734" lon="14.1248391"><ele>35.0</ele><time>2026-05-01T14:23:11.353Z</time></trkpt><trkpt lat="42.3411022" lon="14.124413"><ele>35.5</ele><time>2026-05-01T14:23:12.354Z</time></trkpt><trkpt lat="42.3410373" lon="14.1240156"><ele>36.0</ele><time>2026-05-01T14:23:13.353Z</time></trkpt><trkpt lat="42.3409771" lon="14.1236447"><ele>36.0</ele><time>2026-05-01T14:23:14.353Z</time></trkpt><trkpt lat="42.3409242" lon="14.1233167"><ele>36.0</ele><time>2026-05-01T14:23:15.353Z</time></trkpt><trkpt lat="42.3408752" lon="14.1230149"><ele>35.666666666666664</ele><time>2026-05-01T14:23:16.354Z</time></trkpt><trkpt lat="42.3408369" lon="14.1227453"><ele>35.33333333333333</ele><time>2026-05-01T14:23:17.353Z</time></trkpt><trkpt lat="42.3408115" lon="14.1224937"><ele>35.0</ele><time>2026-05-01T14:23:18.352Z</time></trkpt><trkpt lat="42.3408111" lon="14.1222606"><ele>34.75</ele><time>2026-05-01T14:23:19.352Z</time></trkpt><trkpt lat="42.3408279" lon="14.1220462"><ele>34.5</ele><time>2026-05-01T14:23:20.353Z</time></trkpt><trkpt lat="42.3408596" lon="14.1218735"><ele>34.25</ele><time>2026-05-01T14:23:21.353Z</time></trkpt><trkpt lat="42.3409167" lon="14.1217456"><ele>34.0</ele><time>2026-05-01T14:23:22.353Z</time></trkpt><trkpt lat="42.3409886" lon="14.1216449"><ele>34.0</ele><time>2026-05-01T14:23:23.352Z</time></trkpt><trkpt lat="42.3410829" lon="14.1215831"><ele>34.0</ele><time>2026-05-01T14:23:24.352Z</time></trkpt><trkpt lat="42.3411462" lon="14.1215081"><ele>34.0</ele><time>2026-05-01T14:23:25.352Z</time></trkpt><trkpt lat="42.3411843" lon="14.121409"><ele>34.0</ele><time>2026-05-01T14:23:26.352Z</time></trkpt><trkpt lat="42.3412024" lon="14.1212678"><ele>34.0</ele><time>2026-05-01T14:23:27.352Z</time></trkpt><trkpt lat="42.3412187" lon="14.121103"><ele>33.75</ele><time>2026-05-01T14:23:28.353Z</time></trkpt><trkpt lat="42.3412655" lon="14.1209637"><ele>33.5</ele><time>2026-05-01T14:23:29.352Z</time></trkpt><trkpt lat="42.3413464" lon="14.1207958"><ele>33.25</ele><time>2026-05-01T14:23:30.354Z</time></trkpt><trkpt lat="42.3414484" lon="14.1206007"><ele>33.0</ele><time>2026-05-01T14:23:31.353Z</time></trkpt><trkpt lat="42.3415653" lon="14.1203837"><ele>33.0</ele><time>2026-05-01T14:23:32.353Z</time></trkpt><trkpt lat="42.3416997" lon="14.12014"><ele>33.0</ele><time>2026-05-01T14:23:33.352Z</time></trkpt><trkpt lat="42.3418435" lon="14.1198731"><ele>32.0</ele><time>2026-05-01T14:23:34.353Z</time></trkpt><trkpt lat="42.3419931" lon="14.1195921"><ele>31.0</ele><time>2026-05-01T14:23:35.353Z</time></trkpt><trkpt lat="42.3421359" lon="14.119327"><ele>31.333333333333336</ele><time>2026-05-01T14:23:36.353Z</time></trkpt><trkpt lat="42.3422613" lon="14.1190784"><ele>31.666666666666664</ele><time>2026-05-01T14:23:37.353Z</time></trkpt><trkpt lat="42.3423684" lon="14.1188331"><ele>32.0</ele><time>2026-05-01T14:23:38.354Z</time></trkpt><trkpt lat="42.3424582" lon="14.1185722"><ele>32.5</ele><time>2026-05-01T14:23:39.353Z</time></trkpt><trkpt lat="42.3425397" lon="14.118295"><ele>33.0</ele><time>2026-05-01T14:23:40.352Z</time></trkpt><trkpt lat="42.3425851" lon="14.1179809"><ele>36.0</ele><time>2026-05-01T14:23:41.353Z</time></trkpt><trkpt lat="42.3426447" lon="14.1176315"><ele>39.0</ele><time>2026-05-01T14:23:42.352Z</time></trkpt><trkpt lat="42.342716" lon="14.1172644"><ele>42.0</ele><time>2026-05-01T14:23:43.352Z</time></trkpt><trkpt lat="42.3428005" lon="14.1168774"><ele>45.0</ele><time>2026-05-01T14:23:44.352Z</time></trkpt><trkpt lat="42.3428689" lon="14.1164985"><ele>45.5</ele><time>2026-05-01T14:23:45.352Z</time></trkpt><trkpt lat="42.3429318" lon="14.1161399"><ele>46.0</ele><time>2026-05-01T14:23:46.354Z</time></trkpt><trkpt lat="42.3429904" lon="14.1158048"><ele>47.0</ele><time>2026-05-01T14:23:47.353Z</time></trkpt><trkpt lat="42.3430451" lon="14.1154931"><ele>48.0</ele><time>2026-05-01T14:23:48.352Z</time></trkpt><trkpt lat="42.3430937" lon="14.1151889"><ele>48.0</ele><time>2026-05-01T14:23:49.352Z</time></trkpt><trkpt lat="42.3431324" lon="14.1148983"><ele>48.0</ele><time>2026-05-01T14:23:50.352Z</time></trkpt><trkpt lat="42.3431704" lon="14.1146243"><ele>48.0</ele><time>2026-05-01T14:23:51.353Z</time></trkpt><trkpt lat="42.3432037" lon="14.1143646"><ele>48.0</ele><time>2026-05-01T14:23:52.353Z</time></trkpt><trkpt lat="42.3432388" lon="14.114111"><ele>48.0</ele><time>2026-05-01T14:23:53.353Z</time></trkpt><trkpt lat="42.3432719" lon="14.1138586"><ele>48.0</ele><time>2026-05-01T14:23:54.352Z</time></trkpt><trkpt lat="42.3433056" lon="14.1136092"><ele>47.666666666666664</ele><time>2026-05-01T14:23:55.353Z</time></trkpt><trkpt lat="42.3433392" lon="14.1133515"><ele>47.33333333333333</ele><time>2026-05-01T14:23:56.353Z</time></trkpt><trkpt lat="42.3433657" lon="14.1130625"><ele>47.0</ele><time>2026-05-01T14:23:57.354Z</time></trkpt><trkpt lat="42.3434044" lon="14.1127643"><ele>47.0</ele><time>2026-05-01T14:23:58.352Z</time></trkpt><trkpt lat="42.3434468" lon="14.1124841"><ele>47.0</ele><time>2026-05-01T14:23:59.352Z</time></trkpt><trkpt lat="42.343486" lon="14.1122293"><ele>47.0</ele><time>2026-05-01T14:24:00.352Z</time></trkpt><trkpt lat="42.3435187" lon="14.1120057"><ele>47.0</ele><time>2026-05-01T14:24:01.354Z</time></trkpt><trkpt lat="42.3435449" lon="14.1118246"><ele>47.0</ele><time>2026-05-01T14:24:02.353Z</time></trkpt><trkpt lat="42.3435667" lon="14.1116829"><ele>47.0</ele><time>2026-05-01T14:24:03.353Z</time></trkpt><trkpt lat="42.3435947" lon="14.1115768"><ele>47.0</ele><time>2026-05-01T14:24:04.352Z</time></trkpt><trkpt lat="42.3436388" lon="14.1115029"><ele>47.0</ele><time>2026-05-01T14:24:05.353Z</time></trkpt><trkpt lat="42.3437011" lon="14.1114767"><ele>47.25</ele><time>2026-05-01T14:24:06.352Z</time></trkpt><trkpt lat="42.343782" lon="14.1114874"><ele>47.5</ele><time>2026-05-01T14:24:07.353Z</time></trkpt><trkpt lat="42.343878" lon="14.1115364"><ele>47.75</ele><time>2026-05-01T14:24:08.353Z</time></trkpt><trkpt lat="42.3439931" lon="14.1116103"><ele>48.0</ele><time>2026-05-01T14:24:09.353Z</time></trkpt><trkpt lat="42.3441276" lon="14.1116902"><ele>48.0</ele><time>2026-05-01T14:24:10.353Z</time></trkpt><trkpt lat="42.3442867" lon="14.1117899"><ele>48.0</ele><time>2026-05-01T14:24:11.353Z</time></trkpt><trkpt lat="42.3444525" lon="14.1118978"><ele>48.0</ele><time>2026-05-01T14:24:12.352Z</time></trkpt><trkpt lat="42.3446142" lon="14.1120104"><ele>47.0</ele><time>2026-05-01T14:24:13.353Z</time></trkpt><trkpt lat="42.3447664" lon="14.1121114"><ele>46.0</ele><time>2026-05-01T14:24:14.352Z</time></trkpt><trkpt lat="42.3449042" lon="14.1122041"><ele>45.0</ele><time>2026-05-01T14:24:15.353Z</time></trkpt><trkpt lat="42.3450393" lon="14.1122871"><ele>45.0</ele><time>2026-05-01T14:24:16.353Z</time></trkpt><trkpt lat="42.3451808" lon="14.1123612"><ele>45.0</ele><time>2026-05-01T14:24:17.353Z</time></trkpt><trkpt lat="42.3453229" lon="14.1124198"><ele>45.0</ele><time>2026-05-01T14:24:18.352Z</time></trkpt><trkpt lat="42.34549" lon="14.1124636"><ele>45.333333333333336</ele><time>2026-05-01T14:24:19.354Z</time></trkpt><trkpt lat="42.345688" lon="14.1125111"><ele>45.66666666666667</ele><time>2026-05-01T14:24:20.352Z</time></trkpt><trkpt lat="42.3459104" lon="14.1125854"><ele>46.0</ele><time>2026-05-01T14:24:21.354Z</time></trkpt><trkpt lat="42.3461446" lon="14.1126751"><ele>45.0</ele><time>2026-05-01T14:24:22.352Z</time></trkpt><trkpt lat="42.3463885" lon="14.1127847"><ele>44.0</ele><time>2026-05-01T14:24:23.353Z</time></trkpt><trkpt lat="42.3466398" lon="14.1129051"><ele>44.0</ele><time>2026-05-01T14:24:24.353Z</time></trkpt><trkpt lat="42.3468926" lon="14.1130255"><ele>44.0</ele><time>2026-05-01T14:24:25.353Z</time></trkpt><trkpt lat="42.3471288" lon="14.1131411"><ele>44.5</ele><time>2026-05-01T14:24:26.353Z</time></trkpt><trkpt lat="42.3473545" lon="14.1132504"><ele>45.0</ele><time>2026-05-01T14:24:27.353Z</time></trkpt><trkpt lat="42.3475613" lon="14.1133553"><ele>45.0</ele><time>2026-05-01T14:24:28.354Z</time></trkpt><trkpt lat="42.3477515" lon="14.1134454"><ele>45.0</ele><time>2026-05-01T14:24:29.353Z</time></trkpt><trkpt lat="42.3479219" lon="14.1135297"><ele>45.0</ele><time>2026-05-01T14:24:30.353Z</time></trkpt><trkpt lat="42.3480709" lon="14.1135945"><ele>45.0</ele><time>2026-05-01T14:24:31.353Z</time></trkpt><trkpt lat="42.348205" lon="14.1136346"><ele>45.0</ele><time>2026-05-01T14:24:32.353Z</time></trkpt><trkpt lat="42.3483335" lon="14.113645"><ele>45.0</ele><time>2026-05-01T14:24:33.353Z</time></trkpt><trkpt lat="42.3484709" lon="14.1136237"><ele>45.0</ele><time>2026-05-01T14:24:34.352Z</time></trkpt><trkpt lat="42.3486306" lon="14.1135555"><ele>45.0</ele><time>2026-05-01T14:24:35.352Z</time></trkpt><trkpt lat="42.3488065" lon="14.1134512"><ele>45.0</ele><time>2026-05-01T14:24:36.352Z</time></trkpt><trkpt lat="42.3489959" lon="14.1133285"><ele>45.0</ele><time>2026-05-01T14:24:37.352Z</time></trkpt><trkpt lat="42.3491836" lon="14.1132054"><ele>43.666666666666664</ele><time>2026-05-01T14:24:38.352Z</time></trkpt><trkpt lat="42.3493537" lon="14.1130864"><ele>42.33333333333333</ele><time>2026-05-01T14:24:39.353Z</time></trkpt><trkpt lat="42.3495136" lon="14.1129746"><ele>41.0</ele><time>2026-05-01T14:24:40.352Z</time></trkpt><trkpt lat="42.3496646" lon="14.1128682"><ele>42.0</ele><time>2026-05-01T14:24:41.352Z</time></trkpt><trkpt lat="42.3498016" lon="14.1127735"><ele>43.0</ele><time>2026-05-01T14:24:42.352Z</time></trkpt><trkpt lat="42.349941" lon="14.1126903"><ele>44.0</ele><time>2026-05-01T14:24:43.353Z</time></trkpt><trkpt lat="42.3500902" lon="14.1126209"><ele>44.0</ele><time>2026-05-01T14:24:44.353Z</time></trkpt><trkpt lat="42.3502473" lon="14.112571"><ele>44.0</ele><time>2026-05-01T14:24:45.353Z</time></trkpt><trkpt lat="42.3504108" lon="14.1125373"><ele>44.0</ele><time>2026-05-01T14:24:46.352Z</time></trkpt><trkpt lat="42.3505907" lon="14.1125254"><ele>44.0</ele><time>2026-05-01T14:24:47.352Z</time></trkpt><trkpt lat="42.3507868" lon="14.1125423"><ele>44.0</ele><time>2026-05-01T14:24:48.352Z</time></trkpt><trkpt lat="42.3510035" lon="14.1125867"><ele>44.0</ele><time>2026-05-01T14:24:49.352Z</time></trkpt><trkpt lat="42.3512321" lon="14.1126555"><ele>42.0</ele><time>2026-05-01T14:24:50.352Z</time></trkpt><trkpt lat="42.3514805" lon="14.1127411"><ele>40.0</ele><time>2026-05-01T14:24:51.352Z</time></trkpt><trkpt lat="42.3517619" lon="14.112853"><ele>40.0</ele><time>2026-05-01T14:24:52.353Z</time></trkpt><trkpt lat="42.3520636" lon="14.1129784"><ele>40.0</ele><time>2026-05-01T14:24:53.351Z</time></trkpt><trkpt lat="42.3523831" lon="14.1131079"><ele>38.0</ele><time>2026-05-01T14:24:54.351Z</time></trkpt><trkpt lat="42.352717" lon="14.1132457"><ele>36.0</ele><time>2026-05-01T14:24:55.352Z</time></trkpt><trkpt lat="42.3530648" lon="14.1133889"><ele>35.5</ele><time>2026-05-01T14:24:56.352Z</time></trkpt><trkpt lat="42.3534104" lon="14.1135299"><ele>35.0</ele><time>2026-05-01T14:24:57.351Z</time></trkpt><trkpt lat="42.353734" lon="14.1136631"><ele>35.5</ele><time>2026-05-01T14:24:58.352Z</time></trkpt><trkpt lat="42.3540398" lon="14.1137876"><ele>36.0</ele><time>2026-05-01T14:24:59.351Z</time></trkpt><trkpt lat="42.3543263" lon="14.1139037"><ele>36.0</ele><time>2026-05-01T14:25:00.352Z</time></trkpt><trkpt lat="42.3546015" lon="14.1140118"><ele>36.0</ele><time>2026-05-01T14:25:01.351Z</time></trkpt><trkpt lat="42.3548568" lon="14.1141164"><ele>36.333333333333336</ele><time>2026-05-01T14:25:02.352Z</time></trkpt><trkpt lat="42.3550735" lon="14.1142116"><ele>36.66666666666667</ele><time>2026-05-01T14:25:03.352Z</time></trkpt><trkpt lat="42.3552769" lon="14.1142951"><ele>37.0</ele><time>2026-05-01T14:25:04.352Z</time></trkpt><trkpt lat="42.3554801" lon="14.114378"><ele>42.0</ele><time>2026-05-01T14:25:05.353Z</time></trkpt><trkpt lat="42.3556917" lon="14.1144622"><ele>47.0</ele><time>2026-05-01T14:25:06.353Z</time></trkpt><trkpt lat="42.3559204" lon="14.1145475"><ele>47.0</ele><time>2026-05-01T14:25:07.352Z</time></trkpt><trkpt lat="42.3561357" lon="14.1146309"><ele>47.0</ele><time>2026-05-01T14:25:08.351Z</time></trkpt><trkpt lat="42.3563454" lon="14.1147115"><ele>47.0</ele><time>2026-05-01T14:25:09.351Z</time></trkpt><trkpt lat="42.3565515" lon="14.1147924"><ele>47.666666666666664</ele><time>2026-05-01T14:25:10.352Z</time></trkpt><trkpt lat="42.3567582" lon="14.1148776"><ele>48.33333333333333</ele><time>2026-05-01T14:25:11.352Z</time></trkpt><trkpt lat="42.3569623" lon="14.1149614"><ele>49.0</ele><time>2026-05-01T14:25:12.352Z</time></trkpt><trkpt lat="42.357155" lon="14.1150411"><ele>46.33333333333333</ele><time>2026-05-01T14:25:13.351Z</time></trkpt><trkpt lat="42.3573468" lon="14.1151193"><ele>43.666666666666664</ele><time>2026-05-01T14:25:14.352Z</time></trkpt><trkpt lat="42.3575309" lon="14.1151887"><ele>41.0</ele><time>2026-05-01T14:25:15.351Z</time></trkpt><trkpt lat="42.3577136" lon="14.1152599"><ele>41.0</ele><time>2026-05-01T14:25:16.352Z</time></trkpt><trkpt lat="42.357895" lon="14.1153394"><ele>41.0</ele><time>2026-05-01T14:25:17.352Z</time></trkpt><trkpt lat="42.358084" lon="14.115418"><ele>41.0</ele><time>2026-05-01T14:25:18.352Z</time></trkpt><trkpt lat="42.3582697" lon="14.115495"><ele>41.0</ele><time>2026-05-01T14:25:19.353Z</time></trkpt><trkpt lat="42.3584601" lon="14.1155738"><ele>41.0</ele><time>2026-05-01T14:25:20.352Z</time></trkpt><trkpt lat="42.3586528" lon="14.1156587"><ele>41.0</ele><time>2026-05-01T14:25:21.352Z</time></trkpt><trkpt lat="42.3588717" lon="14.1157421"><ele>38.5</ele><time>2026-05-01T14:25:22.352Z</time></trkpt><trkpt lat="42.3591014" lon="14.115832"><ele>36.0</ele><time>2026-05-01T14:25:23.352Z</time></trkpt><trkpt lat="42.3593429" lon="14.1159263"><ele>36.0</ele><time>2026-05-01T14:25:24.352Z</time></trkpt><trkpt lat="42.3595878" lon="14.1160337"><ele>36.0</ele><time>2026-05-01T14:25:25.353Z</time></trkpt><trkpt lat="42.3598501" lon="14.1161512"><ele>36.5</ele><time>2026-05-01T14:25:26.352Z</time></trkpt><trkpt lat="42.360117" lon="14.1162738"><ele>37.0</ele><time>2026-05-01T14:25:27.352Z</time></trkpt><trkpt lat="42.3603724" lon="14.1163899"><ele>39.5</ele><time>2026-05-01T14:25:28.351Z</time></trkpt><trkpt lat="42.3606075" lon="14.116496"><ele>42.0</ele><time>2026-05-01T14:25:29.352Z</time></trkpt><trkpt lat="42.3608324" lon="14.1165988"><ele>40.0</ele><time>2026-05-01T14:25:30.352Z</time></trkpt><trkpt lat="42.3610443" lon="14.1166912"><ele>38.0</ele><time>2026-05-01T14:25:31.352Z</time></trkpt><trkpt lat="42.3612415" lon="14.1167825"><ele>36.0</ele><time>2026-05-01T14:25:32.351Z</time></trkpt><trkpt lat="42.3614275" lon="14.1168662"><ele>36.0</ele><time>2026-05-01T14:25:33.351Z</time></trkpt><trkpt lat="42.3616018" lon="14.1169381"><ele>36.0</ele><time>2026-05-01T14:25:34.351Z</time></trkpt><trkpt lat="42.3617687" lon="14.117008"><ele>36.0</ele><time>2026-05-01T14:25:35.352Z</time></trkpt><trkpt lat="42.3619208" lon="14.1170761"><ele>36.0</ele><time>2026-05-01T14:25:36.352Z</time></trkpt><trkpt lat="42.3620657" lon="14.1171471"><ele>36.0</ele><time>2026-05-01T14:25:37.352Z</time></trkpt><trkpt lat="42.3622061" lon="14.1172126"><ele>36.0</ele><time>2026-05-01T14:25:38.352Z</time></trkpt><trkpt lat="42.3623709" lon="14.1172819"><ele>33.666666666666664</ele><time>2026-05-01T14:25:39.352Z</time></trkpt><trkpt lat="42.3625581" lon="14.1173536"><ele>31.333333333333332</ele><time>2026-05-01T14:25:40.351Z</time></trkpt><trkpt lat="42.3627532" lon="14.1174064"><ele>29.0</ele><time>2026-05-01T14:25:41.353Z</time></trkpt><trkpt lat="42.3629868" lon="14.1174377"><ele>30.0</ele><time>2026-05-01T14:25:42.351Z</time></trkpt><trkpt lat="42.3632221" lon="14.1174521"><ele>31.0</ele><time>2026-05-01T14:25:43.353Z</time></trkpt><trkpt lat="42.3634707" lon="14.117457"><ele>31.0</ele><time>2026-05-01T14:25:44.351Z</time></trkpt><trkpt lat="42.3637047" lon="14.1174592"><ele>31.0</ele><time>2026-05-01T14:25:45.352Z</time></trkpt><trkpt lat="42.3639195" lon="14.1174648"><ele>31.0</ele><time>2026-05-01T14:25:46.352Z</time></trkpt><trkpt lat="42.3641346" lon="14.1174857"><ele>31.333333333333336</ele><time>2026-05-01T14:25:47.352Z</time></trkpt><trkpt lat="42.3643416" lon="14.1175366"><ele>31.666666666666664</ele><time>2026-05-01T14:25:48.353Z</time></trkpt><trkpt lat="42.364546" lon="14.1176287"><ele>32.0</ele><time>2026-05-01T14:25:49.352Z</time></trkpt><trkpt lat="42.3647628" lon="14.1177587"><ele>32.0</ele><time>2026-05-01T14:25:50.352Z</time></trkpt><trkpt lat="42.3649939" lon="14.1179064"><ele>32.0</ele><time>2026-05-01T14:25:51.352Z</time></trkpt><trkpt lat="42.3652342" lon="14.1180758"><ele>30.5</ele><time>2026-05-01T14:25:52.351Z</time></trkpt><trkpt lat="42.3654896" lon="14.1182525"><ele>29.0</ele><time>2026-05-01T14:25:53.353Z</time></trkpt><trkpt lat="42.3657589" lon="14.1184292"><ele>28.5</ele><time>2026-05-01T14:25:54.353Z</time></trkpt><trkpt lat="42.366031" lon="14.1186158"><ele>28.0</ele><time>2026-05-01T14:25:55.351Z</time></trkpt><trkpt lat="42.3663101" lon="14.1188065"><ele>28.0</ele><time>2026-05-01T14:25:56.352Z</time></trkpt><trkpt lat="42.3665919" lon="14.1190038"><ele>28.0</ele><time>2026-05-01T14:25:57.352Z</time></trkpt><trkpt lat="42.366854" lon="14.1191916"><ele>28.0</ele><time>2026-05-01T14:25:58.352Z</time></trkpt><trkpt lat="42.367099" lon="14.1193714"><ele>28.0</ele><time>2026-05-01T14:25:59.351Z</time></trkpt><trkpt lat="42.3673351" lon="14.1195442"><ele>28.0</ele><time>2026-05-01T14:26:00.353Z</time></trkpt><trkpt lat="42.3675656" lon="14.1197006"><ele>28.0</ele><time>2026-05-01T14:26:01.352Z</time></trkpt><trkpt lat="42.367779" lon="14.1198559"><ele>28.0</ele><time>2026-05-01T14:26:02.352Z</time></trkpt><trkpt lat="42.3679812" lon="14.1199947"><ele>28.0</ele><time>2026-05-01T14:26:03.352Z</time></trkpt><trkpt lat="42.3681764" lon="14.1201121"><ele>28.0</ele><time>2026-05-01T14:26:04.351Z</time></trkpt><trkpt lat="42.3683849" lon="14.1202038"><ele>28.5</ele><time>2026-05-01T14:26:05.353Z</time></trkpt><trkpt lat="42.3686159" lon="14.1202638"><ele>29.0</ele><time>2026-05-01T14:26:06.352Z</time></trkpt><trkpt lat="42.3688744" lon="14.120305"><ele>33.0</ele><time>2026-05-01T14:26:07.351Z</time></trkpt><trkpt lat="42.3691449" lon="14.1203405"><ele>37.0</ele><time>2026-05-01T14:26:08.352Z</time></trkpt><trkpt lat="42.3694307" lon="14.1203737"><ele>37.0</ele><time>2026-05-01T14:26:09.352Z</time></trkpt><trkpt lat="42.3697166" lon="14.1204102"><ele>37.0</ele><time>2026-05-01T14:26:10.353Z</time></trkpt><trkpt lat="42.3699848" lon="14.1204409"><ele>37.0</ele><time>2026-05-01T14:26:11.352Z</time></trkpt><trkpt lat="42.3702375" lon="14.1204724"><ele>37.0</ele><time>2026-05-01T14:26:12.353Z</time></trkpt><trkpt lat="42.3704769" lon="14.1205057"><ele>37.5</ele><time>2026-05-01T14:26:13.351Z</time></trkpt><trkpt lat="42.3707177" lon="14.1205557"><ele>38.0</ele><time>2026-05-01T14:26:14.351Z</time></trkpt><trkpt lat="42.3709658" lon="14.120635"><ele>38.0</ele><time>2026-05-01T14:26:15.352Z</time></trkpt><trkpt lat="42.3712164" lon="14.1207304"><ele>38.0</ele><time>2026-05-01T14:26:16.352Z</time></trkpt><trkpt lat="42.3714471" lon="14.1208293"><ele>36.33333333333333</ele><time>2026-05-01T14:26:17.352Z</time></trkpt><trkpt lat="42.3716639" lon="14.1209238"><ele>34.666666666666664</ele><time>2026-05-01T14:26:18.352Z</time></trkpt><trkpt lat="42.3718718" lon="14.121023"><ele>33.0</ele><time>2026-05-01T14:26:19.352Z</time></trkpt><trkpt lat="42.3720663" lon="14.1211308"><ele>33.333333333333336</ele><time>2026-05-01T14:26:20.352Z</time></trkpt><trkpt lat="42.3722574" lon="14.1212618"><ele>33.66666666666667</ele><time>2026-05-01T14:26:21.352Z</time></trkpt><trkpt lat="42.372452" lon="14.1214073"><ele>34.0</ele><time>2026-05-01T14:26:22.352Z</time></trkpt><trkpt lat="42.3726845" lon="14.1215857"><ele>34.0</ele><time>2026-05-01T14:26:23.352Z</time></trkpt><trkpt lat="42.3729107" lon="14.1217678"><ele>34.0</ele><time>2026-05-01T14:26:24.352Z</time></trkpt><trkpt lat="42.3731151" lon="14.1219278"><ele>36.333333333333336</ele><time>2026-05-01T14:26:25.352Z</time></trkpt><trkpt lat="42.3733066" lon="14.122078"><ele>38.666666666666664</ele><time>2026-05-01T14:26:26.353Z</time></trkpt><trkpt lat="42.3734795" lon="14.1222146"><ele>41.0</ele><time>2026-05-01T14:26:27.352Z</time></trkpt><trkpt lat="42.3736291" lon="14.1223313"><ele>41.0</ele><time>2026-05-01T14:26:28.352Z</time></trkpt><trkpt lat="42.3737582" lon="14.1224321"><ele>41.0</ele><time>2026-05-01T14:26:29.352Z</time></trkpt><trkpt lat="42.3738627" lon="14.1225167"><ele>41.0</ele><time>2026-05-01T14:26:30.352Z</time></trkpt><trkpt lat="42.373949" lon="14.1225781"><ele>41.0</ele><time>2026-05-01T14:26:31.352Z</time></trkpt><trkpt lat="42.3740134" lon="14.1226242"><ele>41.0</ele><time>2026-05-01T14:26:32.352Z</time></trkpt><trkpt lat="42.3740702" lon="14.1226612"><ele>41.0</ele><time>2026-05-01T14:26:35.352Z</time></trkpt><trkpt lat="42.3741192" lon="14.1227163"><ele>41.0</ele><time>2026-05-01T14:26:46.351Z</time></trkpt><trkpt lat="42.3741782" lon="14.1227586"><ele>41.0</ele><time>2026-05-01T14:26:47.351Z</time></trkpt><trkpt lat="42.3742514" lon="14.1228188"><ele>41.0</ele><time>2026-05-01T14:26:48.35Z</time></trkpt><trkpt lat="42.3743338" lon="14.1228917"><ele>41.0</ele><time>2026-05-01T14:26:49.351Z</time></trkpt><trkpt lat="42.3744277" lon="14.122969"><ele>41.0</ele><time>2026-05-01T14:26:50.351Z</time></trkpt><trkpt lat="42.3745301" lon="14.1230471"><ele>41.0</ele><time>2026-05-01T14:26:51.351Z</time></trkpt><trkpt lat="42.3746465" lon="14.1231371"><ele>41.0</ele><time>2026-05-01T14:26:52.351Z</time></trkpt><trkpt lat="42.3747715" lon="14.1232382"><ele>41.0</ele><time>2026-05-01T14:26:53.351Z</time></trkpt><trkpt lat="42.3748998" lon="14.1233429"><ele>41.0</ele><time>2026-05-01T14:26:54.352Z</time></trkpt><trkpt lat="42.3750337" lon="14.1234528"><ele>40.33333333333333</ele><time>2026-05-01T14:26:55.351Z</time></trkpt><trkpt lat="42.3751687" lon="14.1235683"><ele>39.666666666666664</ele><time>2026-05-01T14:26:56.351Z</time></trkpt><trkpt lat="42.3753149" lon="14.1236639"><ele>39.0</ele><time>2026-05-01T14:26:57.35Z</time></trkpt><trkpt lat="42.3754534" lon="14.1237634"><ele>40.0</ele><time>2026-05-01T14:26:58.351Z</time></trkpt><trkpt lat="42.3755876" lon="14.1238583"><ele>41.0</ele><time>2026-05-01T14:26:59.351Z</time></trkpt><trkpt lat="42.3757196" lon="14.1239377"><ele>42.0</ele><time>2026-05-01T14:27:00.352Z</time></trkpt><trkpt lat="42.3758579" lon="14.1239949"><ele>43.0</ele><time>2026-05-01T14:27:01.35Z</time></trkpt><trkpt lat="42.3759876" lon="14.1240273"><ele>43.0</ele><time>2026-05-01T14:27:02.35Z</time></trkpt><trkpt lat="42.3761082" lon="14.1240573"><ele>43.0</ele><time>2026-05-01T14:27:03.351Z</time></trkpt><trkpt lat="42.376202" lon="14.1240978"><ele>43.0</ele><time>2026-05-01T14:27:04.351Z</time></trkpt><trkpt lat="42.3762781" lon="14.1241654"><ele>43.0</ele><time>2026-05-01T14:27:05.351Z</time></trkpt><trkpt lat="42.376338" lon="14.12425"><ele>43.0</ele><time>2026-05-01T14:27:06.35Z</time></trkpt><trkpt lat="42.3763778" lon="14.1243453"><ele>41.8</ele><time>2026-05-01T14:27:07.35Z</time></trkpt><trkpt lat="42.3764209" lon="14.1244404"><ele>40.599999999999994</ele><time>2026-05-01T14:27:08.35Z</time></trkpt><trkpt lat="42.3764731" lon="14.1244931"><ele>39.400000000000006</ele><time>2026-05-01T14:27:09.35Z</time></trkpt><trkpt lat="42.3765855" lon="14.1244769"><ele>38.2</ele><time>2026-05-01T14:27:11.35Z</time></trkpt><trkpt lat="42.3766382" lon="14.1243946"><ele>37.0</ele><time>2026-05-01T14:27:12.351Z</time></trkpt><trkpt lat="42.3766905" lon="14.1242638"><ele>37.0</ele><time>2026-05-01T14:27:13.352Z</time></trkpt><trkpt lat="42.3767726" lon="14.1241333"><ele>37.0</ele><time>2026-05-01T14:27:14.351Z</time></trkpt><trkpt lat="42.376886" lon="14.1239614"><ele>37.0</ele><time>2026-05-01T14:27:15.352Z</time></trkpt><trkpt lat="42.3770212" lon="14.1237541"><ele>39.333333333333336</ele><time>2026-05-01T14:27:16.351Z</time></trkpt><trkpt lat="42.3771481" lon="14.1235668"><ele>41.666666666666664</ele><time>2026-05-01T14:27:17.351Z</time></trkpt><trkpt lat="42.3772857" lon="14.1234732"><ele>44.0</ele><time>2026-05-01T14:27:18.351Z</time></trkpt><trkpt lat="42.3774531" lon="14.1234194"><ele>44.666666666666664</ele><time>2026-05-01T14:27:19.351Z</time></trkpt><trkpt lat="42.3776425" lon="14.1234194"><ele>45.333333333333336</ele><time>2026-05-01T14:27:20.351Z</time></trkpt><trkpt lat="42.3778448" lon="14.1234423"><ele>46.0</ele><time>2026-05-01T14:27:21.352Z</time></trkpt><trkpt lat="42.3780793" lon="14.123478"><ele>50.5</ele><time>2026-05-01T14:27:22.351Z</time></trkpt><trkpt lat="42.3783388" lon="14.123518"><ele>55.0</ele><time>2026-05-01T14:27:23.351Z</time></trkpt><trkpt lat="42.3786102" lon="14.1235664"><ele>55.0</ele><time>2026-05-01T14:27:24.351Z</time></trkpt><trkpt lat="42.3788466" lon="14.1236108"><ele>55.0</ele><time>2026-05-01T14:27:25.351Z</time></trkpt><trkpt lat="42.3790642" lon="14.123663"><ele>56.33333333333333</ele><time>2026-05-01T14:27:26.352Z</time></trkpt><trkpt lat="42.3792541" lon="14.1237326"><ele>57.66666666666667</ele><time>2026-05-01T14:27:27.351Z</time></trkpt><trkpt lat="42.3794053" lon="14.12382"><ele>59.0</ele><time>2026-05-01T14:27:28.351Z</time></trkpt><trkpt lat="42.379531" lon="14.123923"><ele>59.0</ele><time>2026-05-01T14:27:29.352Z</time></trkpt><trkpt lat="42.379654" lon="14.1240473"><ele>59.0</ele><time>2026-05-01T14:27:30.35Z</time></trkpt><trkpt lat="42.3798219" lon="14.1242007"><ele>59.0</ele><time>2026-05-01T14:27:31.35Z</time></trkpt><trkpt lat="42.3800238" lon="14.1243633"><ele>55.5</ele><time>2026-05-01T14:27:32.35Z</time></trkpt><trkpt lat="42.3802536" lon="14.1245353"><ele>52.0</ele><time>2026-05-01T14:27:33.35Z</time></trkpt><trkpt lat="42.3804707" lon="14.124695"><ele>50.0</ele><time>2026-05-01T14:27:34.35Z</time></trkpt><trkpt lat="42.3806755" lon="14.1248499"><ele>48.0</ele><time>2026-05-01T14:27:35.35Z</time></trkpt><trkpt lat="42.380877" lon="14.1249946"><ele>48.0</ele><time>2026-05-01T14:27:36.35Z</time></trkpt><trkpt lat="42.3810752" lon="14.125139"><ele>48.0</ele><time>2026-05-01T14:27:37.351Z</time></trkpt><trkpt lat="42.3812725" lon="14.1252771"><ele>48.0</ele><time>2026-05-01T14:27:38.35Z</time></trkpt><trkpt lat="42.3814601" lon="14.1254115"><ele>46.666666666666664</ele><time>2026-05-01T14:27:39.35Z</time></trkpt><trkpt lat="42.3816417" lon="14.1255476"><ele>45.33333333333333</ele><time>2026-05-01T14:27:40.35Z</time></trkpt><trkpt lat="42.3818213" lon="14.1256875"><ele>44.0</ele><time>2026-05-01T14:27:41.351Z</time></trkpt><trkpt lat="42.3819955" lon="14.125835"><ele>44.0</ele><time>2026-05-01T14:27:42.35Z</time></trkpt><trkpt lat="42.3821543" lon="14.1259811"><ele>44.0</ele><time>2026-05-01T14:27:43.351Z</time></trkpt><trkpt lat="42.382302" lon="14.1261165"><ele>44.0</ele><time>2026-05-01T14:27:44.351Z</time></trkpt><trkpt lat="42.3824527" lon="14.1262375"><ele>47.0</ele><time>2026-05-01T14:27:45.351Z</time></trkpt><trkpt lat="42.3826127" lon="14.1263211"><ele>50.0</ele><time>2026-05-01T14:27:46.35Z</time></trkpt><trkpt lat="42.3827858" lon="14.1263778"><ele>53.0</ele><time>2026-05-01T14:27:47.35Z</time></trkpt><trkpt lat="42.382969" lon="14.1264011"><ele>53.0</ele><time>2026-05-01T14:27:48.35Z</time></trkpt><trkpt lat="42.3831443" lon="14.1264074"><ele>53.0</ele><time>2026-05-01T14:27:49.35Z</time></trkpt><trkpt lat="42.3832947" lon="14.1264176"><ele>53.0</ele><time>2026-05-01T14:27:50.351Z</time></trkpt><trkpt lat="42.3834319" lon="14.126454"><ele>53.0</ele><time>2026-05-01T14:27:51.351Z</time></trkpt><trkpt lat="42.3835856" lon="14.1264979"><ele>53.0</ele><time>2026-05-01T14:27:52.351Z</time></trkpt><trkpt lat="42.3837634" lon="14.1265995"><ele>53.0</ele><time>2026-05-01T14:27:53.352Z</time></trkpt><trkpt lat="42.3839581" lon="14.1267404"><ele>49.333333333333336</ele><time>2026-05-01T14:27:54.35Z</time></trkpt><trkpt lat="42.3841492" lon="14.1268399"><ele>45.66666666666667</ele><time>2026-05-01T14:27:55.35Z</time></trkpt><trkpt lat="42.3843342" lon="14.1269224"><ele>42.0</ele><time>2026-05-01T14:27:56.35Z</time></trkpt><trkpt lat="42.3845113" lon="14.1269917"><ele>43.0</ele><time>2026-05-01T14:27:57.352Z</time></trkpt><trkpt lat="42.384684" lon="14.1270617"><ele>44.0</ele><time>2026-05-01T14:27:58.351Z</time></trkpt><trkpt lat="42.3848515" lon="14.1271364"><ele>45.0</ele><time>2026-05-01T14:27:59.351Z</time></trkpt><trkpt lat="42.3850135" lon="14.1272532"><ele>45.0</ele><time>2026-05-01T14:28:00.351Z</time></trkpt><trkpt lat="42.3851834" lon="14.127391"><ele>45.0</ele><time>2026-05-01T14:28:01.35Z</time></trkpt><trkpt lat="42.385352" lon="14.1275534"><ele>45.0</ele><time>2026-05-01T14:28:02.35Z</time></trkpt><trkpt lat="42.3855136" lon="14.1277242"><ele>42.0</ele><time>2026-05-01T14:28:03.351Z</time></trkpt><trkpt lat="42.3856887" lon="14.1278976"><ele>39.0</ele><time>2026-05-01T14:28:04.351Z</time></trkpt><trkpt lat="42.3858549" lon="14.1280566"><ele>36.0</ele><time>2026-05-01T14:28:05.35Z</time></trkpt><trkpt lat="42.3860235" lon="14.1282181"><ele>35.666666666666664</ele><time>2026-05-01T14:28:06.35Z</time></trkpt><trkpt lat="42.3861747" lon="14.1283833"><ele>35.33333333333333</ele><time>2026-05-01T14:28:07.35Z</time></trkpt><trkpt lat="42.3863087" lon="14.1285489"><ele>35.0</ele><time>2026-05-01T14:28:08.35Z</time></trkpt><trkpt lat="42.3864221" lon="14.1287227"><ele>35.666666666666664</ele><time>2026-05-01T14:28:09.35Z</time></trkpt><trkpt lat="42.3865302" lon="14.1289027"><ele>36.333333333333336</ele><time>2026-05-01T14:28:10.351Z</time></trkpt><trkpt lat="42.3866399" lon="14.1290777"><ele>37.0</ele><time>2026-05-01T14:28:11.351Z</time></trkpt><trkpt lat="42.3867524" lon="14.1292461"><ele>35.66666666666667</ele><time>2026-05-01T14:28:12.352Z</time></trkpt><trkpt lat="42.3868677" lon="14.1293995"><ele>34.333333333333336</ele><time>2026-05-01T14:28:13.351Z</time></trkpt><trkpt lat="42.3869908" lon="14.1295391"><ele>33.0</ele><time>2026-05-01T14:28:14.35Z</time></trkpt><trkpt lat="42.38711" lon="14.1296801"><ele>32.666666666666664</ele><time>2026-05-01T14:28:15.35Z</time></trkpt><trkpt lat="42.3872445" lon="14.129815"><ele>32.33333333333333</ele><time>2026-05-01T14:28:16.35Z</time></trkpt><trkpt lat="42.3873858" lon="14.1299472"><ele>32.0</ele><time>2026-05-01T14:28:17.351Z</time></trkpt><trkpt lat="42.387519" lon="14.1300729"><ele>32.0</ele><time>2026-05-01T14:28:18.352Z</time></trkpt><trkpt lat="42.3876391" lon="14.1301875"><ele>32.0</ele><time>2026-05-01T14:28:19.351Z</time></trkpt><trkpt lat="42.3877485" lon="14.1302909"><ele>32.0</ele><time>2026-05-01T14:28:20.35Z</time></trkpt><trkpt lat="42.3878437" lon="14.1303777"><ele>32.0</ele><time>2026-05-01T14:28:21.351Z</time></trkpt><trkpt lat="42.3879294" lon="14.1304476"><ele>31.5</ele><time>2026-05-01T14:28:22.351Z</time></trkpt><trkpt lat="42.3880122" lon="14.1305055"><ele>31.0</ele><time>2026-05-01T14:28:23.35Z</time></trkpt><trkpt lat="42.3881214" lon="14.1305583"><ele>30.5</ele><time>2026-05-01T14:28:24.351Z</time></trkpt><trkpt lat="42.3882574" lon="14.1306165"><ele>30.0</ele><time>2026-05-01T14:28:25.351Z</time></trkpt><trkpt lat="42.3884063" lon="14.1306955"><ele>30.666666666666664</ele><time>2026-05-01T14:28:26.352Z</time></trkpt><trkpt lat="42.3885536" lon="14.1307826"><ele>31.333333333333332</ele><time>2026-05-01T14:28:27.351Z</time></trkpt><trkpt lat="42.3887044" lon="14.1308745"><ele>32.0</ele><time>2026-05-01T14:28:28.35Z</time></trkpt><trkpt lat="42.3888579" lon="14.1309719"><ele>32.33333333333333</ele><time>2026-05-01T14:28:29.35Z</time></trkpt><trkpt lat="42.3890122" lon="14.1310704"><ele>32.666666666666664</ele><time>2026-05-01T14:28:30.351Z</time></trkpt><trkpt lat="42.3891623" lon="14.1311724"><ele>33.0</ele><time>2026-05-01T14:28:31.351Z</time></trkpt><trkpt lat="42.389307" lon="14.1312836"><ele>33.0</ele><time>2026-05-01T14:28:32.35Z</time></trkpt><trkpt lat="42.38944" lon="14.1313922"><ele>33.0</ele><time>2026-05-01T14:28:33.35Z</time></trkpt><trkpt lat="42.3895567" lon="14.1314999"><ele>33.0</ele><time>2026-05-01T14:28:34.35Z</time></trkpt><trkpt lat="42.3896714" lon="14.1316033"><ele>33.0</ele><time>2026-05-01T14:28:35.35Z</time></trkpt><trkpt lat="42.3897919" lon="14.1317037"><ele>32.5</ele><time>2026-05-01T14:28:36.351Z</time></trkpt><trkpt lat="42.389905" lon="14.1318041"><ele>32.0</ele><time>2026-05-01T14:28:37.351Z</time></trkpt><trkpt lat="42.3900238" lon="14.1319041"><ele>31.5</ele><time>2026-05-01T14:28:38.352Z</time></trkpt><trkpt lat="42.3901369" lon="14.1320019"><ele>31.0</ele><time>2026-05-01T14:28:39.35Z</time></trkpt><trkpt lat="42.3902541" lon="14.1320999"><ele>31.0</ele><time>2026-05-01T14:28:40.351Z</time></trkpt><trkpt lat="42.3903982" lon="14.1322219"><ele>31.0</ele><time>2026-05-01T14:28:41.351Z</time></trkpt><trkpt lat="42.3905673" lon="14.1323676"><ele>31.0</ele><time>2026-05-01T14:28:42.351Z</time></trkpt><trkpt lat="42.3907567" lon="14.1325327"><ele>30.5</ele><time>2026-05-01T14:28:43.351Z</time></trkpt><trkpt lat="42.390957" lon="14.1327112"><ele>30.0</ele><time>2026-05-01T14:28:44.351Z</time></trkpt><trkpt lat="42.3911553" lon="14.1328978"><ele>30.0</ele><time>2026-05-01T14:28:45.35Z</time></trkpt><trkpt lat="42.391344" lon="14.133072"><ele>30.0</ele><time>2026-05-01T14:28:46.351Z</time></trkpt><trkpt lat="42.3915223" lon="14.1332274"><ele>30.0</ele><time>2026-05-01T14:28:47.352Z</time></trkpt><trkpt lat="42.3916905" lon="14.1333773"><ele>30.0</ele><time>2026-05-01T14:28:48.351Z</time></trkpt><trkpt lat="42.3918465" lon="14.1335189"><ele>30.0</ele><time>2026-05-01T14:28:49.352Z</time></trkpt><trkpt lat="42.3919979" lon="14.1336604"><ele>30.0</ele><time>2026-05-01T14:28:50.351Z</time></trkpt><trkpt lat="42.3921449" lon="14.1337835"><ele>29.666666666666664</ele><time>2026-05-01T14:28:51.35Z</time></trkpt><trkpt lat="42.3922801" lon="14.1339001"><ele>29.333333333333332</ele><time>2026-05-01T14:28:52.352Z</time></trkpt><trkpt lat="42.392424" lon="14.1340216"><ele>29.0</ele><time>2026-05-01T14:28:53.351Z</time></trkpt><trkpt lat="42.3925812" lon="14.134142"><ele>29.0</ele><time>2026-05-01T14:28:54.351Z</time></trkpt><trkpt lat="42.3927281" lon="14.1342697"><ele>29.0</ele><time>2026-05-01T14:28:55.351Z</time></trkpt><trkpt lat="42.3929263" lon="14.1344225"><ele>29.0</ele><time>2026-05-01T14:28:56.351Z</time></trkpt><trkpt lat="42.393156" lon="14.1346177"><ele>29.5</ele><time>2026-05-01T14:28:57.35Z</time></trkpt><trkpt lat="42.39341" lon="14.134874"><ele>30.0</ele><time>2026-05-01T14:28:58.35Z</time></trkpt><trkpt lat="42.39363" lon="14.1350837"><ele>30.0</ele><time>2026-05-01T14:28:59.35Z</time></trkpt><trkpt lat="42.3938308" lon="14.1352829"><ele>30.0</ele><time>2026-05-01T14:29:00.35Z</time></trkpt><trkpt lat="42.3940381" lon="14.1354771"><ele>30.0</ele><time>2026-05-01T14:29:01.35Z</time></trkpt><trkpt lat="42.3942337" lon="14.1356624"><ele>30.0</ele><time>2026-05-01T14:29:02.349Z</time></trkpt><trkpt lat="42.3944207" lon="14.1358348"><ele>29.666666666666664</ele><time>2026-05-01T14:29:03.349Z</time></trkpt><trkpt lat="42.3946043" lon="14.1360066"><ele>29.333333333333332</ele><time>2026-05-01T14:29:04.35Z</time></trkpt><trkpt lat="42.394783" lon="14.1361638"><ele>29.0</ele><time>2026-05-01T14:29:05.35Z</time></trkpt><trkpt lat="42.3949642" lon="14.1363226"><ele>29.0</ele><time>2026-05-01T14:29:06.35Z</time></trkpt><trkpt lat="42.395158" lon="14.1364846"><ele>29.0</ele><time>2026-05-01T14:29:07.35Z</time></trkpt><trkpt lat="42.3953617" lon="14.1366623"><ele>27.5</ele><time>2026-05-01T14:29:08.349Z</time></trkpt><trkpt lat="42.3955655" lon="14.1368571"><ele>26.0</ele><time>2026-05-01T14:29:09.349Z</time></trkpt><trkpt lat="42.3957619" lon="14.1370459"><ele>26.0</ele><time>2026-05-01T14:29:10.351Z</time></trkpt><trkpt lat="42.3959587" lon="14.1372233"><ele>26.0</ele><time>2026-05-01T14:29:11.35Z</time></trkpt><trkpt lat="42.3961575" lon="14.1373954"><ele>26.5</ele><time>2026-05-01T14:29:12.349Z</time></trkpt><trkpt lat="42.396351" lon="14.1375733"><ele>27.0</ele><time>2026-05-01T14:29:13.35Z</time></trkpt><trkpt lat="42.3965501" lon="14.1377494"><ele>27.0</ele><time>2026-05-01T14:29:14.35Z</time></trkpt><trkpt lat="42.3967425" lon="14.1379182"><ele>27.0</ele><time>2026-05-01T14:29:15.351Z</time></trkpt><trkpt lat="42.3969242" lon="14.1380756"><ele>27.0</ele><time>2026-05-01T14:29:16.351Z</time></trkpt><trkpt lat="42.3970948" lon="14.1382215"><ele>26.666666666666664</ele><time>2026-05-01T14:29:17.35Z</time></trkpt><trkpt lat="42.3972458" lon="14.1383584"><ele>26.333333333333332</ele><time>2026-05-01T14:29:18.349Z</time></trkpt><trkpt lat="42.3974058" lon="14.1384933"><ele>26.0</ele><time>2026-05-01T14:29:19.349Z</time></trkpt><trkpt lat="42.3975743" lon="14.1386336"><ele>26.0</ele><time>2026-05-01T14:29:20.35Z</time></trkpt><trkpt lat="42.3977512" lon="14.1387993"><ele>26.0</ele><time>2026-05-01T14:29:21.351Z</time></trkpt><trkpt lat="42.3979378" lon="14.1389773"><ele>26.0</ele><time>2026-05-01T14:29:22.35Z</time></trkpt><trkpt lat="42.39813" lon="14.1391545"><ele>26.0</ele><time>2026-05-01T14:29:23.35Z</time></trkpt><trkpt lat="42.3983224" lon="14.1393302"><ele>26.0</ele><time>2026-05-01T14:29:24.35Z</time></trkpt><trkpt lat="42.3985149" lon="14.139498"><ele>26.0</ele><time>2026-05-01T14:29:25.349Z</time></trkpt><trkpt lat="42.3987124" lon="14.1396775"><ele>26.0</ele><time>2026-05-01T14:29:26.351Z</time></trkpt><trkpt lat="42.3989265" lon="14.1398718"><ele>25.5</ele><time>2026-05-01T14:29:27.35Z</time></trkpt><trkpt lat="42.3991547" lon="14.140077"><ele>25.0</ele><time>2026-05-01T14:29:28.349Z</time></trkpt><trkpt lat="42.3993897" lon="14.1402843"><ele>25.0</ele><time>2026-05-01T14:29:29.349Z</time></trkpt><trkpt lat="42.3996333" lon="14.1405008"><ele>25.0</ele><time>2026-05-01T14:29:30.351Z</time></trkpt><trkpt lat="42.3998779" lon="14.1407185"><ele>25.5</ele><time>2026-05-01T14:29:31.351Z</time></trkpt><trkpt lat="42.4001221" lon="14.1409303"><ele>26.0</ele><time>2026-05-01T14:29:32.349Z</time></trkpt><trkpt lat="42.4003667" lon="14.1411472"><ele>25.5</ele><time>2026-05-01T14:29:33.349Z</time></trkpt><trkpt lat="42.4006068" lon="14.1413673"><ele>25.0</ele><time>2026-05-01T14:29:34.351Z</time></trkpt><trkpt lat="42.4008336" lon="14.1415751"><ele>25.0</ele><time>2026-05-01T14:29:35.35Z</time></trkpt><trkpt lat="42.401055" lon="14.1417705"><ele>25.0</ele><time>2026-05-01T14:29:36.35Z</time></trkpt><trkpt lat="42.4012654" lon="14.1419655"><ele>25.0</ele><time>2026-05-01T14:29:37.349Z</time></trkpt><trkpt lat="42.401475" lon="14.1421599"><ele>25.0</ele><time>2026-05-01T14:29:38.35Z</time></trkpt><trkpt lat="42.401688" lon="14.142351"><ele>24.0</ele><time>2026-05-01T14:29:39.349Z</time></trkpt><trkpt lat="42.4019033" lon="14.1425461"><ele>23.0</ele><time>2026-05-01T14:29:40.35Z</time></trkpt><trkpt lat="42.4021218" lon="14.1427385"><ele>23.5</ele><time>2026-05-01T14:29:41.35Z</time></trkpt><trkpt lat="42.4023452" lon="14.1429336"><ele>24.0</ele><time>2026-05-01T14:29:42.349Z</time></trkpt><trkpt lat="42.4025776" lon="14.1431295"><ele>24.0</ele><time>2026-05-01T14:29:43.351Z</time></trkpt><trkpt lat="42.402816" lon="14.1433275"><ele>24.0</ele><time>2026-05-01T14:29:44.351Z</time></trkpt><trkpt lat="42.4030579" lon="14.1435378"><ele>24.0</ele><time>2026-05-01T14:29:45.351Z</time></trkpt><trkpt lat="42.4033009" lon="14.1437509"><ele>24.0</ele><time>2026-05-01T14:29:46.351Z</time></trkpt><trkpt lat="42.4035407" lon="14.1439694"><ele>24.5</ele><time>2026-05-01T14:29:47.35Z</time></trkpt><trkpt lat="42.4037711" lon="14.1441768"><ele>25.0</ele><time>2026-05-01T14:29:48.35Z</time></trkpt><trkpt lat="42.4039881" lon="14.1443746"><ele>25.0</ele><time>2026-05-01T14:29:49.35Z</time></trkpt><trkpt lat="42.4041956" lon="14.1445661"><ele>25.0</ele><time>2026-05-01T14:29:50.351Z</time></trkpt><trkpt lat="42.4044045" lon="14.1447577"><ele>25.5</ele><time>2026-05-01T14:29:51.349Z</time></trkpt><trkpt lat="42.4046148" lon="14.1449444"><ele>26.0</ele><time>2026-05-01T14:29:52.349Z</time></trkpt><trkpt lat="42.4048075" lon="14.1451206"><ele>25.0</ele><time>2026-05-01T14:29:53.35Z</time></trkpt><trkpt lat="42.4049821" lon="14.1452828"><ele>24.0</ele><time>2026-05-01T14:29:54.35Z</time></trkpt><trkpt lat="42.4051299" lon="14.1454178"><ele>23.0</ele><time>2026-05-01T14:29:55.35Z</time></trkpt><trkpt lat="42.4052618" lon="14.1455428"><ele>23.0</ele><time>2026-05-01T14:29:56.35Z</time></trkpt><trkpt lat="42.4053821" lon="14.1456461"><ele>23.0</ele><time>2026-05-01T14:29:57.35Z</time></trkpt><trkpt lat="42.4055156" lon="14.1457553"><ele>23.0</ele><time>2026-05-01T14:29:58.349Z</time></trkpt><trkpt lat="42.4056668" lon="14.1458885"><ele>22.666666666666668</ele><time>2026-05-01T14:29:59.349Z</time></trkpt><trkpt lat="42.4058395" lon="14.1460466"><ele>22.333333333333332</ele><time>2026-05-01T14:30:00.35Z</time></trkpt><trkpt lat="42.4060307" lon="14.1462168"><ele>22.0</ele><time>2026-05-01T14:30:01.35Z</time></trkpt><trkpt lat="42.4062257" lon="14.1463939"><ele>22.0</ele><time>2026-05-01T14:30:02.349Z</time></trkpt><trkpt lat="42.4064184" lon="14.1465594"><ele>22.0</ele><time>2026-05-01T14:30:03.351Z</time></trkpt><trkpt lat="42.4066095" lon="14.1467118"><ele>22.0</ele><time>2026-05-01T14:30:04.35Z</time></trkpt><trkpt lat="42.4068069" lon="14.1468413"><ele>22.0</ele><time>2026-05-01T14:30:05.35Z</time></trkpt><trkpt lat="42.4070213" lon="14.1469403"><ele>22.0</ele><time>2026-05-01T14:30:06.349Z</time></trkpt><trkpt lat="42.4072576" lon="14.14702"><ele>20.0</ele><time>2026-05-01T14:30:07.349Z</time></trkpt><trkpt lat="42.4075079" lon="14.147081"><ele>18.0</ele><time>2026-05-01T14:30:08.351Z</time></trkpt><trkpt lat="42.4077731" lon="14.1471341"><ele>17.5</ele><time>2026-05-01T14:30:09.35Z</time></trkpt><trkpt lat="42.4080358" lon="14.1472018"><ele>17.0</ele><time>2026-05-01T14:30:10.35Z</time></trkpt><trkpt lat="42.4082931" lon="14.1472899"><ele>15.5</ele><time>2026-05-01T14:30:11.35Z</time></trkpt><trkpt lat="42.4085351" lon="14.1473995"><ele>14.0</ele><time>2026-05-01T14:30:12.349Z</time></trkpt><trkpt lat="42.408764" lon="14.1475342"><ele>15.5</ele><time>2026-05-01T14:30:13.349Z</time></trkpt><trkpt lat="42.4089932" lon="14.1476944"><ele>17.0</ele><time>2026-05-01T14:30:14.35Z</time></trkpt><trkpt lat="42.4092244" lon="14.1478701"><ele>17.0</ele><time>2026-05-01T14:30:15.35Z</time></trkpt><trkpt lat="42.4094516" lon="14.1480452"><ele>17.0</ele><time>2026-05-01T14:30:16.35Z</time></trkpt><trkpt lat="42.4096701" lon="14.1482189"><ele>18.0</ele><time>2026-05-01T14:30:17.35Z</time></trkpt><trkpt lat="42.4098806" lon="14.1483819"><ele>19.0</ele><time>2026-05-01T14:30:18.35Z</time></trkpt><trkpt lat="42.4100979" lon="14.1485491"><ele>19.0</ele><time>2026-05-01T14:30:19.35Z</time></trkpt><trkpt lat="42.4103146" lon="14.1487191"><ele>19.0</ele><time>2026-05-01T14:30:20.35Z</time></trkpt><trkpt lat="42.4105299" lon="14.1488855"><ele>20.0</ele><time>2026-05-01T14:30:21.35Z</time></trkpt><trkpt lat="42.4107455" lon="14.1490538"><ele>21.0</ele><time>2026-05-01T14:30:22.349Z</time></trkpt><trkpt lat="42.4109604" lon="14.1492215"><ele>21.0</ele><time>2026-05-01T14:30:23.351Z</time></trkpt><trkpt lat="42.4111717" lon="14.1493929"><ele>21.0</ele><time>2026-05-01T14:30:24.35Z</time></trkpt><trkpt lat="42.4113788" lon="14.149561"><ele>21.0</ele><time>2026-05-01T14:30:25.35Z</time></trkpt><trkpt lat="42.4115805" lon="14.1497242"><ele>21.0</ele><time>2026-05-01T14:30:26.35Z</time></trkpt><trkpt lat="42.4117709" lon="14.1498828"><ele>19.5</ele><time>2026-05-01T14:30:27.35Z</time></trkpt><trkpt lat="42.4119644" lon="14.1500428"><ele>18.0</ele><time>2026-05-01T14:30:28.35Z</time></trkpt><trkpt lat="42.412165" lon="14.1502022"><ele>16.5</ele><time>2026-05-01T14:30:29.35Z</time></trkpt><trkpt lat="42.4123627" lon="14.15036"><ele>15.0</ele><time>2026-05-01T14:30:30.35Z</time></trkpt><trkpt lat="42.4125564" lon="14.1505085"><ele>15.0</ele><time>2026-05-01T14:30:31.35Z</time></trkpt><trkpt lat="42.4127473" lon="14.1506694"><ele>15.0</ele><time>2026-05-01T14:30:32.349Z</time></trkpt><trkpt lat="42.412937" lon="14.1508402"><ele>15.0</ele><time>2026-05-01T14:30:33.35Z</time></trkpt><trkpt lat="42.4131126" lon="14.1510247"><ele>15.0</ele><time>2026-05-01T14:30:34.35Z</time></trkpt><trkpt lat="42.4132795" lon="14.1512026"><ele>15.0</ele><time>2026-05-01T14:30:35.35Z</time></trkpt><trkpt lat="42.4134475" lon="14.1513704"><ele>15.0</ele><time>2026-05-01T14:30:36.35Z</time></trkpt><trkpt lat="42.4136169" lon="14.1515271"><ele>15.0</ele><time>2026-05-01T14:30:37.35Z</time></trkpt><trkpt lat="42.4137849" lon="14.1516604"><ele>15.0</ele><time>2026-05-01T14:30:38.349Z</time></trkpt><trkpt lat="42.4139513" lon="14.1517756"><ele>15.333333333333332</ele><time>2026-05-01T14:30:39.351Z</time></trkpt><trkpt lat="42.4141174" lon="14.1518635"><ele>15.666666666666666</ele><time>2026-05-01T14:30:40.35Z</time></trkpt><trkpt lat="42.4142896" lon="14.1519351"><ele>16.0</ele><time>2026-05-01T14:30:41.35Z</time></trkpt><trkpt lat="42.4144708" lon="14.1519902"><ele>15.666666666666666</ele><time>2026-05-01T14:30:42.35Z</time></trkpt><trkpt lat="42.4146612" lon="14.1520362"><ele>15.333333333333332</ele><time>2026-05-01T14:30:43.35Z</time></trkpt><trkpt lat="42.4148556" lon="14.1520648"><ele>15.0</ele><time>2026-05-01T14:30:44.35Z</time></trkpt><trkpt lat="42.4150382" lon="14.1520797"><ele>15.0</ele><time>2026-05-01T14:30:45.349Z</time></trkpt><trkpt lat="42.4152167" lon="14.1520905"><ele>15.0</ele><time>2026-05-01T14:30:46.35Z</time></trkpt><trkpt lat="42.4153885" lon="14.1520986"><ele>15.0</ele><time>2026-05-01T14:30:47.35Z</time></trkpt><trkpt lat="42.4155619" lon="14.152103"><ele>15.333333333333332</ele><time>2026-05-01T14:30:48.349Z</time></trkpt><trkpt lat="42.4157354" lon="14.1521315"><ele>15.666666666666666</ele><time>2026-05-01T14:30:49.351Z</time></trkpt><trkpt lat="42.4159094" lon="14.1521741"><ele>16.0</ele><time>2026-05-01T14:30:50.349Z</time></trkpt><trkpt lat="42.4160738" lon="14.1522541"><ele>16.0</ele><time>2026-05-01T14:30:51.35Z</time></trkpt><trkpt lat="42.4162314" lon="14.1523643"><ele>16.0</ele><time>2026-05-01T14:30:52.35Z</time></trkpt><trkpt lat="42.416376" lon="14.1525109"><ele>16.0</ele><time>2026-05-01T14:30:53.35Z</time></trkpt><trkpt lat="42.4165181" lon="14.1526881"><ele>17.0</ele><time>2026-05-01T14:30:54.35Z</time></trkpt><trkpt lat="42.4166517" lon="14.1528647"><ele>18.0</ele><time>2026-05-01T14:30:55.35Z</time></trkpt><trkpt lat="42.41678" lon="14.153043"><ele>19.0</ele><time>2026-05-01T14:30:56.349Z</time></trkpt><trkpt lat="42.4169095" lon="14.1532218"><ele>19.0</ele><time>2026-05-01T14:30:57.35Z</time></trkpt><trkpt lat="42.4170461" lon="14.1533978"><ele>19.0</ele><time>2026-05-01T14:30:58.35Z</time></trkpt><trkpt lat="42.417179" lon="14.1535781"><ele>19.0</ele><time>2026-05-01T14:30:59.35Z</time></trkpt><trkpt lat="42.4173111" lon="14.1537552"><ele>19.0</ele><time>2026-05-01T14:31:00.35Z</time></trkpt><trkpt lat="42.4174417" lon="14.1539324"><ele>19.0</ele><time>2026-05-01T14:31:01.349Z</time></trkpt><trkpt lat="42.4175727" lon="14.1541154"><ele>19.0</ele><time>2026-05-01T14:31:02.349Z</time></trkpt><trkpt lat="42.4177216" lon="14.1543114"><ele>19.0</ele><time>2026-05-01T14:31:03.35Z</time></trkpt><trkpt lat="42.4178776" lon="14.1545161"><ele>19.0</ele><time>2026-05-01T14:31:04.35Z</time></trkpt><trkpt lat="42.4180347" lon="14.1547253"><ele>19.0</ele><time>2026-05-01T14:31:05.35Z</time></trkpt><trkpt lat="42.4181841" lon="14.1549313"><ele>18.333333333333332</ele><time>2026-05-01T14:31:06.349Z</time></trkpt><trkpt lat="42.4183353" lon="14.1551305"><ele>17.666666666666668</ele><time>2026-05-01T14:31:07.349Z</time></trkpt><trkpt lat="42.4184829" lon="14.1553327"><ele>17.0</ele><time>2026-05-01T14:31:08.35Z</time></trkpt><trkpt lat="42.4186284" lon="14.1555308"><ele>17.333333333333336</ele><time>2026-05-01T14:31:09.35Z</time></trkpt><trkpt lat="42.4187688" lon="14.1557269"><ele>17.666666666666668</ele><time>2026-05-01T14:31:10.35Z</time></trkpt><trkpt lat="42.4189068" lon="14.1559209"><ele>18.0</ele><time>2026-05-01T14:31:11.35Z</time></trkpt><trkpt lat="42.4190379" lon="14.1561025"><ele>19.666666666666668</ele><time>2026-05-01T14:31:12.35Z</time></trkpt><trkpt lat="42.4191752" lon="14.1562544"><ele>21.333333333333336</ele><time>2026-05-01T14:31:13.35Z</time></trkpt><trkpt lat="42.4193257" lon="14.1564"><ele>23.0</ele><time>2026-05-01T14:31:14.349Z</time></trkpt><trkpt lat="42.4195239" lon="14.1564882"><ele>22.0</ele><time>2026-05-01T14:31:15.35Z</time></trkpt><trkpt lat="42.4197181" lon="14.1565894"><ele>21.0</ele><time>2026-05-01T14:31:16.35Z</time></trkpt><trkpt lat="42.4199053" lon="14.1566681"><ele>20.0</ele><time>2026-05-01T14:31:17.349Z</time></trkpt><trkpt lat="42.4200846" lon="14.1567347"><ele>20.0</ele><time>2026-05-01T14:31:18.35Z</time></trkpt><trkpt lat="42.4202627" lon="14.1568063"><ele>20.0</ele><time>2026-05-01T14:31:19.348Z</time></trkpt><trkpt lat="42.4204344" lon="14.1568757"><ele>20.0</ele><time>2026-05-01T14:31:20.348Z</time></trkpt><trkpt lat="42.4206028" lon="14.1569377"><ele>20.333333333333336</ele><time>2026-05-01T14:31:21.349Z</time></trkpt><trkpt lat="42.4207619" lon="14.1569965"><ele>20.666666666666668</ele><time>2026-05-01T14:31:22.35Z</time></trkpt><trkpt lat="42.420906" lon="14.1570519"><ele>21.0</ele><time>2026-05-01T14:31:23.348Z</time></trkpt><trkpt lat="42.4210406" lon="14.1571065"><ele>21.0</ele><time>2026-05-01T14:31:24.348Z</time></trkpt><trkpt lat="42.4211631" lon="14.1571597"><ele>21.0</ele><time>2026-05-01T14:31:25.349Z</time></trkpt><trkpt lat="42.4212791" lon="14.1572108"><ele>21.0</ele><time>2026-05-01T14:31:26.349Z</time></trkpt><trkpt lat="42.4213879" lon="14.1572604"><ele>21.0</ele><time>2026-05-01T14:31:27.35Z</time></trkpt><trkpt lat="42.421495" lon="14.1573081"><ele>21.4</ele><time>2026-05-01T14:31:28.35Z</time></trkpt><trkpt lat="42.4215996" lon="14.157356"><ele>21.8</ele><time>2026-05-01T14:31:29.349Z</time></trkpt><trkpt lat="42.4216947" lon="14.1573931"><ele>22.2</ele><time>2026-05-01T14:31:30.349Z</time></trkpt><trkpt lat="42.4217864" lon="14.1574217"><ele>22.599999999999998</ele><time>2026-05-01T14:31:31.349Z</time></trkpt><trkpt lat="42.4218679" lon="14.1574335"><ele>23.0</ele><time>2026-05-01T14:31:32.349Z</time></trkpt><trkpt lat="42.4219453" lon="14.1574317"><ele>22.5</ele><time>2026-05-01T14:31:33.35Z</time></trkpt><trkpt lat="42.4220611" lon="14.157414"><ele>22.0</ele><time>2026-05-01T14:31:35.349Z</time></trkpt><trkpt lat="42.4221683" lon="14.1574156"><ele>21.5</ele><time>2026-05-01T14:31:37.348Z</time></trkpt><trkpt lat="42.4222312" lon="14.1574358"><ele>21.0</ele><time>2026-05-01T14:31:38.35Z</time></trkpt><trkpt lat="42.4222993" lon="14.1574742"><ele>20.5</ele><time>2026-05-01T14:31:39.35Z</time></trkpt><trkpt lat="42.4223665" lon="14.1575095"><ele>20.0</ele><time>2026-05-01T14:31:40.349Z</time></trkpt><trkpt lat="42.4224432" lon="14.1575395"><ele>20.0</ele><time>2026-05-01T14:31:41.349Z</time></trkpt><trkpt lat="42.4225213" lon="14.1575783"><ele>20.0</ele><time>2026-05-01T14:31:42.349Z</time></trkpt><trkpt lat="42.4225982" lon="14.1576383"><ele>20.0</ele><time>2026-05-01T14:31:43.349Z</time></trkpt><trkpt lat="42.422676" lon="14.1577009"><ele>20.0</ele><time>2026-05-01T14:31:44.348Z</time></trkpt><trkpt lat="42.4227547" lon="14.1577664"><ele>20.0</ele><time>2026-05-01T14:31:45.349Z</time></trkpt><trkpt lat="42.4228466" lon="14.1578233"><ele>20.0</ele><time>2026-05-01T14:31:46.349Z</time></trkpt><trkpt lat="42.4229449" lon="14.1578691"><ele>20.0</ele><time>2026-05-01T14:31:47.349Z</time></trkpt><trkpt lat="42.4230445" lon="14.1579073"><ele>20.0</ele><time>2026-05-01T14:31:48.348Z</time></trkpt><trkpt lat="42.4231473" lon="14.1579497"><ele>20.0</ele><time>2026-05-01T14:31:49.349Z</time></trkpt><trkpt lat="42.4232584" lon="14.1579932"><ele>20.0</ele><time>2026-05-01T14:31:50.349Z</time></trkpt><trkpt lat="42.4233872" lon="14.1580407"><ele>19.333333333333336</ele><time>2026-05-01T14:31:51.349Z</time></trkpt><trkpt lat="42.4235364" lon="14.1581019"><ele>18.666666666666668</ele><time>2026-05-01T14:31:52.348Z</time></trkpt><trkpt lat="42.423688" lon="14.1581658"><ele>18.0</ele><time>2026-05-01T14:31:53.35Z</time></trkpt><trkpt lat="42.4238251" lon="14.1582285"><ele>17.75</ele><time>2026-05-01T14:31:54.349Z</time></trkpt><trkpt lat="42.4239532" lon="14.1582794"><ele>17.5</ele><time>2026-05-01T14:31:55.349Z</time></trkpt><trkpt lat="42.4240663" lon="14.1583307"><ele>17.25</ele><time>2026-05-01T14:31:56.349Z</time></trkpt><trkpt lat="42.4241705" lon="14.1583731"><ele>17.0</ele><time>2026-05-01T14:31:57.349Z</time></trkpt><trkpt lat="42.4242634" lon="14.158408"><ele>17.0</ele><time>2026-05-01T14:31:58.349Z</time></trkpt><trkpt lat="42.4243334" lon="14.1584299"><ele>17.0</ele><time>2026-05-01T14:31:59.349Z</time></trkpt><trkpt lat="42.4244151" lon="14.1584501"><ele>17.0</ele><time>2026-05-01T14:32:00.348Z</time></trkpt><trkpt lat="42.4245127" lon="14.1584915"><ele>17.0</ele><time>2026-05-01T14:32:01.348Z</time></trkpt><trkpt lat="42.4246227" lon="14.1585397"><ele>17.0</ele><time>2026-05-01T14:32:02.35Z</time></trkpt><trkpt lat="42.4247395" lon="14.1585932"><ele>17.333333333333336</ele><time>2026-05-01T14:32:03.349Z</time></trkpt><trkpt lat="42.4248782" lon="14.158656"><ele>17.666666666666668</ele><time>2026-05-01T14:32:04.349Z</time></trkpt><trkpt lat="42.4250262" lon="14.1587176"><ele>18.0</ele><time>2026-05-01T14:32:05.348Z</time></trkpt><trkpt lat="42.4251757" lon="14.1587884"><ele>18.0</ele><time>2026-05-01T14:32:06.349Z</time></trkpt><trkpt lat="42.4253131" lon="14.1588587"><ele>18.0</ele><time>2026-05-01T14:32:07.349Z</time></trkpt><trkpt lat="42.42544" lon="14.1589275"><ele>18.0</ele><time>2026-05-01T14:32:08.349Z</time></trkpt><trkpt lat="42.4255615" lon="14.1589905"><ele>18.0</ele><time>2026-05-01T14:32:09.348Z</time></trkpt><trkpt lat="42.4256851" lon="14.1590482"><ele>18.25</ele><time>2026-05-01T14:32:10.349Z</time></trkpt><trkpt lat="42.4258094" lon="14.1591084"><ele>18.5</ele><time>2026-05-01T14:32:11.35Z</time></trkpt><trkpt lat="42.4259331" lon="14.1591694"><ele>18.75</ele><time>2026-05-01T14:32:12.35Z</time></trkpt><trkpt lat="42.4260594" lon="14.159245"><ele>19.0</ele><time>2026-05-01T14:32:13.35Z</time></trkpt><trkpt lat="42.4261972" lon="14.1593336"><ele>19.333333333333332</ele><time>2026-05-01T14:32:14.35Z</time></trkpt><trkpt lat="42.4263472" lon="14.159433"><ele>19.666666666666668</ele><time>2026-05-01T14:32:15.349Z</time></trkpt><trkpt lat="42.4265062" lon="14.1595432"><ele>20.0</ele><time>2026-05-01T14:32:16.349Z</time></trkpt><trkpt lat="42.4266688" lon="14.1596651"><ele>20.0</ele><time>2026-05-01T14:32:17.349Z</time></trkpt><trkpt lat="42.4268335" lon="14.1597952"><ele>20.0</ele><time>2026-05-01T14:32:18.349Z</time></trkpt><trkpt lat="42.4269951" lon="14.1599252"><ele>20.0</ele><time>2026-05-01T14:32:19.348Z</time></trkpt><trkpt lat="42.4271567" lon="14.1600583"><ele>19.333333333333336</ele><time>2026-05-01T14:32:20.35Z</time></trkpt><trkpt lat="42.4273064" lon="14.1601826"><ele>18.666666666666668</ele><time>2026-05-01T14:32:21.349Z</time></trkpt><trkpt lat="42.4274452" lon="14.1603045"><ele>18.0</ele><time>2026-05-01T14:32:22.35Z</time></trkpt><trkpt lat="42.427589" lon="14.1604231"><ele>18.0</ele><time>2026-05-01T14:32:23.35Z</time></trkpt><trkpt lat="42.4277528" lon="14.1605773"><ele>18.0</ele><time>2026-05-01T14:32:24.348Z</time></trkpt><trkpt lat="42.427919" lon="14.1607449"><ele>18.0</ele><time>2026-05-01T14:32:25.349Z</time></trkpt><trkpt lat="42.428095" lon="14.1609223"><ele>17.5</ele><time>2026-05-01T14:32:26.349Z</time></trkpt><trkpt lat="42.4282755" lon="14.1611016"><ele>17.0</ele><time>2026-05-01T14:32:27.349Z</time></trkpt><trkpt lat="42.4284604" lon="14.1612861"><ele>17.0</ele><time>2026-05-01T14:32:28.349Z</time></trkpt><trkpt lat="42.4286533" lon="14.16148"><ele>17.0</ele><time>2026-05-01T14:32:29.349Z</time></trkpt><trkpt lat="42.4288453" lon="14.1616833"><ele>20.333333333333336</ele><time>2026-05-01T14:32:30.349Z</time></trkpt><trkpt lat="42.4290266" lon="14.1618649"><ele>23.666666666666668</ele><time>2026-05-01T14:32:31.349Z</time></trkpt><trkpt lat="42.4291913" lon="14.1620338"><ele>27.0</ele><time>2026-05-01T14:32:32.349Z</time></trkpt><trkpt lat="42.429354" lon="14.1621922"><ele>27.0</ele><time>2026-05-01T14:32:33.35Z</time></trkpt><trkpt lat="42.4295071" lon="14.1623436"><ele>27.0</ele><time>2026-05-01T14:32:34.349Z</time></trkpt><trkpt lat="42.4296566" lon="14.1624765"><ele>27.0</ele><time>2026-05-01T14:32:35.349Z</time></trkpt><trkpt lat="42.4298" lon="14.1625899"><ele>25.0</ele><time>2026-05-01T14:32:36.349Z</time></trkpt><trkpt lat="42.4299453" lon="14.1626773"><ele>23.0</ele><time>2026-05-01T14:32:37.349Z</time></trkpt><trkpt lat="42.4301034" lon="14.1627367"><ele>21.0</ele><time>2026-05-01T14:32:38.349Z</time></trkpt><trkpt lat="42.4302696" lon="14.1627772"><ele>21.0</ele><time>2026-05-01T14:32:39.35Z</time></trkpt><trkpt lat="42.430433" lon="14.1628049"><ele>21.0</ele><time>2026-05-01T14:32:40.349Z</time></trkpt><trkpt lat="42.4305913" lon="14.1628196"><ele>21.0</ele><time>2026-05-01T14:32:41.349Z</time></trkpt><trkpt lat="42.430726" lon="14.1628353"><ele>21.25</ele><time>2026-05-01T14:32:42.349Z</time></trkpt><trkpt lat="42.4308438" lon="14.162856"><ele>21.5</ele><time>2026-05-01T14:32:43.35Z</time></trkpt><trkpt lat="42.4309551" lon="14.162878"><ele>21.75</ele><time>2026-05-01T14:32:44.348Z</time></trkpt><trkpt lat="42.4310777" lon="14.1628976"><ele>22.0</ele><time>2026-05-01T14:32:45.35Z</time></trkpt><trkpt lat="42.431213" lon="14.1629239"><ele>21.0</ele><time>2026-05-01T14:32:46.349Z</time></trkpt><trkpt lat="42.4313441" lon="14.1629396"><ele>20.0</ele><time>2026-05-01T14:32:47.35Z</time></trkpt><trkpt lat="42.4314538" lon="14.1629555"><ele>19.0</ele><time>2026-05-01T14:32:48.349Z</time></trkpt><trkpt lat="42.431553" lon="14.162977"><ele>18.0</ele><time>2026-05-01T14:32:49.349Z</time></trkpt><trkpt lat="42.4316412" lon="14.1630007"><ele>17.0</ele><time>2026-05-01T14:32:50.349Z</time></trkpt><trkpt lat="42.4317248" lon="14.1630234"><ele>17.0</ele><time>2026-05-01T14:32:51.35Z</time></trkpt><trkpt lat="42.4318018" lon="14.1630454"><ele>17.0</ele><time>2026-05-01T14:32:52.35Z</time></trkpt><trkpt lat="42.4318704" lon="14.1630606"><ele>17.0</ele><time>2026-05-01T14:32:53.35Z</time></trkpt><trkpt lat="42.4319329" lon="14.1630786"><ele>17.0</ele><time>2026-05-01T14:32:54.349Z</time></trkpt><trkpt lat="42.4320132" lon="14.1630512"><ele>17.0</ele><time>2026-05-01T14:32:56.349Z</time></trkpt><trkpt lat="42.431907" lon="14.1629921"><ele>17.0</ele><time>2026-05-01T14:32:59.348Z</time></trkpt><trkpt lat="42.4318179" lon="14.1629723"><ele>17.0</ele><time>2026-05-01T14:33:00.349Z</time></trkpt><trkpt lat="42.4317243" lon="14.1629514"><ele>17.0</ele><time>2026-05-01T14:33:01.348Z</time></trkpt><trkpt lat="42.431613" lon="14.1629327"><ele>17.0</ele><time>2026-05-01T14:33:02.348Z</time></trkpt><trkpt lat="42.4314838" lon="14.1629057"><ele>17.0</ele><time>2026-05-01T14:33:03.349Z</time></trkpt><trkpt lat="42.4313129" lon="14.162877"><ele>18.666666666666668</ele><time>2026-05-01T14:33:04.349Z</time></trkpt><trkpt lat="42.4311165" lon="14.1628526"><ele>20.333333333333332</ele><time>2026-05-01T14:33:05.348Z</time></trkpt><trkpt lat="42.4309261" lon="14.1628288"><ele>22.0</ele><time>2026-05-01T14:33:06.348Z</time></trkpt><trkpt lat="42.4307099" lon="14.1628014"><ele>22.0</ele><time>2026-05-01T14:33:07.349Z</time></trkpt><trkpt lat="42.4305282" lon="14.1627774"><ele>22.0</ele><time>2026-05-01T14:33:08.348Z</time></trkpt><trkpt lat="42.4303809" lon="14.1627569"><ele>22.0</ele><time>2026-05-01T14:33:09.348Z</time></trkpt><trkpt lat="42.4302646" lon="14.1627372"><ele>22.0</ele><time>2026-05-01T14:33:10.348Z</time></trkpt><trkpt lat="42.4301748" lon="14.1627111"><ele>21.8</ele><time>2026-05-01T14:33:11.348Z</time></trkpt><trkpt lat="42.4300995" lon="14.1626873"><ele>21.6</ele><time>2026-05-01T14:33:12.348Z</time></trkpt><trkpt lat="42.4300334" lon="14.1626598"><ele>21.400000000000002</ele><time>2026-05-01T14:33:13.348Z</time></trkpt><trkpt lat="42.4299167" lon="14.162604"><ele>21.200000000000003</ele><time>2026-05-01T14:33:15.349Z</time></trkpt><trkpt lat="42.4298111" lon="14.1625528"><ele>21.0</ele><time>2026-05-01T14:33:17.348Z</time></trkpt><trkpt lat="42.4297221" lon="14.1625277"><ele>21.0</ele><time>2026-05-01T14:33:19.349Z</time></trkpt><trkpt lat="42.4297553" lon="14.1626287"><ele>21.0</ele><time>2026-05-01T14:33:22.349Z</time></trkpt><trkpt lat="42.429822" lon="14.1626575"><ele>21.0</ele><time>2026-05-01T14:33:23.349Z</time></trkpt><trkpt lat="42.4299112" lon="14.1626939"><ele>21.0</ele><time>2026-05-01T14:33:24.348Z</time></trkpt><trkpt lat="42.4300524" lon="14.1627293"><ele>21.0</ele><time>2026-05-01T14:33:25.349Z</time></trkpt><trkpt lat="42.4301826" lon="14.1627628"><ele>21.0</ele><time>2026-05-01T14:33:26.349Z</time></trkpt><trkpt lat="42.4302889" lon="14.1627891"><ele>21.0</ele><time>2026-05-01T14:33:27.349Z</time></trkpt><trkpt lat="42.4303761" lon="14.1627936"><ele>21.0</ele><time>2026-05-01T14:33:28.349Z</time></trkpt><trkpt lat="42.4304418" lon="14.1627861"><ele>21.0</ele><time>2026-05-01T14:33:29.349Z</time></trkpt><trkpt lat="42.4304972" lon="14.16271"><ele>21.0</ele><time>2026-05-01T14:33:31.348Z</time></trkpt><trkpt lat="42.4304408" lon="14.1625858"><ele>21.0</ele><time>2026-05-01T14:33:33.348Z</time></trkpt><trkpt lat="42.4303785" lon="14.1625203"><ele>21.0</ele><time>2026-05-01T14:33:34.347Z</time></trkpt><trkpt lat="42.4303523" lon="14.1624333"><ele>21.0</ele><time>2026-05-01T14:33:35.347Z</time></trkpt><trkpt lat="42.4303573" lon="14.1623419"><ele>21.0</ele><time>2026-05-01T14:33:36.348Z</time></trkpt><trkpt lat="42.4303893" lon="14.1622405"><ele>21.0</ele><time>2026-05-01T14:33:37.348Z</time></trkpt><trkpt lat="42.4304417" lon="14.1621085"><ele>21.0</ele><time>2026-05-01T14:33:38.347Z</time></trkpt><trkpt lat="42.4304989" lon="14.1619576"><ele>21.5</ele><time>2026-05-01T14:33:39.348Z</time></trkpt><trkpt lat="42.4305657" lon="14.1617887"><ele>22.0</ele><time>2026-05-01T14:33:40.348Z</time></trkpt><trkpt lat="42.4306287" lon="14.1616292"><ele>22.5</ele><time>2026-05-01T14:33:41.348Z</time></trkpt><trkpt lat="42.4306852" lon="14.1614872"><ele>23.0</ele><time>2026-05-01T14:33:42.349Z</time></trkpt><trkpt lat="42.4307377" lon="14.1613649"><ele>23.799999999999997</ele><time>2026-05-01T14:33:43.348Z</time></trkpt><trkpt lat="42.4307782" lon="14.1612653"><ele>24.6</ele><time>2026-05-01T14:33:44.348Z</time></trkpt><trkpt lat="42.4308176" lon="14.1611942"><ele>25.400000000000002</ele><time>2026-05-01T14:33:45.349Z</time></trkpt><trkpt lat="42.430887" lon="14.1610256"><ele>26.200000000000003</ele><time>2026-05-01T14:33:47.348Z</time></trkpt><trkpt lat="42.4309455" lon="14.1608972"><ele>27.0</ele><time>2026-05-01T14:33:48.347Z</time></trkpt><trkpt lat="42.4310117" lon="14.16074"><ele>27.0</ele><time>2026-05-01T14:33:49.347Z</time></trkpt><trkpt lat="42.4310756" lon="14.1605874"><ele>27.0</ele><time>2026-05-01T14:33:50.348Z</time></trkpt><trkpt lat="42.4311373" lon="14.1604442"><ele>27.0</ele><time>2026-05-01T14:33:51.348Z</time></trkpt><trkpt lat="42.4312002" lon="14.1602978"><ele>27.0</ele><time>2026-05-01T14:33:52.348Z</time></trkpt><trkpt lat="42.431261" lon="14.1601525"><ele>27.75</ele><time>2026-05-01T14:33:53.348Z</time></trkpt><trkpt lat="42.4313252" lon="14.1599916"><ele>28.5</ele><time>2026-05-01T14:33:54.348Z</time></trkpt><trkpt lat="42.4313907" lon="14.15981"><ele>29.25</ele><time>2026-05-01T14:33:55.348Z</time></trkpt><trkpt lat="42.4314623" lon="14.1596195"><ele>30.0</ele><time>2026-05-01T14:33:56.347Z</time></trkpt><trkpt lat="42.431547" lon="14.1594169"><ele>30.666666666666664</ele><time>2026-05-01T14:33:57.347Z</time></trkpt><trkpt lat="42.4316416" lon="14.1592048"><ele>31.333333333333332</ele><time>2026-05-01T14:33:58.348Z</time></trkpt><trkpt lat="42.4317388" lon="14.1589801"><ele>32.0</ele><time>2026-05-01T14:33:59.348Z</time></trkpt><trkpt lat="42.4318353" lon="14.1587449"><ele>32.33333333333333</ele><time>2026-05-01T14:34:00.348Z</time></trkpt><trkpt lat="42.4319268" lon="14.158517"><ele>32.666666666666664</ele><time>2026-05-01T14:34:01.348Z</time></trkpt><trkpt lat="42.4320184" lon="14.1582892"><ele>33.0</ele><time>2026-05-01T14:34:02.348Z</time></trkpt><trkpt lat="42.4321129" lon="14.1580657"><ele>35.666666666666664</ele><time>2026-05-01T14:34:03.348Z</time></trkpt><trkpt lat="42.432207" lon="14.1578486"><ele>38.33333333333333</ele><time>2026-05-01T14:34:04.348Z</time></trkpt><trkpt lat="42.4323022" lon="14.1576529"><ele>41.0</ele><time>2026-05-01T14:34:05.348Z</time></trkpt><trkpt lat="42.4323997" lon="14.1574785"><ele>42.33333333333333</ele><time>2026-05-01T14:34:06.347Z</time></trkpt><trkpt lat="42.4325151" lon="14.1573182"><ele>43.666666666666664</ele><time>2026-05-01T14:34:07.347Z</time></trkpt><trkpt lat="42.4326521" lon="14.1571645"><ele>45.0</ele><time>2026-05-01T14:34:08.348Z</time></trkpt><trkpt lat="42.4328055" lon="14.1570171"><ele>45.0</ele><time>2026-05-01T14:34:09.347Z</time></trkpt><trkpt lat="42.4329637" lon="14.1568749"><ele>45.0</ele><time>2026-05-01T14:34:10.349Z</time></trkpt><trkpt lat="42.4331331" lon="14.1567308"><ele>45.0</ele><time>2026-05-01T14:34:11.348Z</time></trkpt><trkpt lat="42.4333022" lon="14.1565937"><ele>47.33333333333333</ele><time>2026-05-01T14:34:12.348Z</time></trkpt><trkpt lat="42.4334703" lon="14.1564576"><ele>49.666666666666664</ele><time>2026-05-01T14:34:13.348Z</time></trkpt><trkpt lat="42.4336317" lon="14.1563364"><ele>52.0</ele><time>2026-05-01T14:34:14.348Z</time></trkpt><trkpt lat="42.4337845" lon="14.1562197"><ele>52.666666666666664</ele><time>2026-05-01T14:34:15.348Z</time></trkpt><trkpt lat="42.4339327" lon="14.1561038"><ele>53.33333333333333</ele><time>2026-05-01T14:34:16.348Z</time></trkpt><trkpt lat="42.4340868" lon="14.1559856"><ele>54.0</ele><time>2026-05-01T14:34:17.348Z</time></trkpt><trkpt lat="42.4342386" lon="14.1558696"><ele>54.0</ele><time>2026-05-01T14:34:18.349Z</time></trkpt><trkpt lat="42.4343911" lon="14.1557571"><ele>54.0</ele><time>2026-05-01T14:34:19.349Z</time></trkpt><trkpt lat="42.4345434" lon="14.1556291"><ele>54.0</ele><time>2026-05-01T14:34:20.348Z</time></trkpt><trkpt lat="42.4347042" lon="14.1555104"><ele>55.66666666666667</ele><time>2026-05-01T14:34:21.347Z</time></trkpt><trkpt lat="42.4348543" lon="14.1553984"><ele>57.333333333333336</ele><time>2026-05-01T14:34:22.348Z</time></trkpt><trkpt lat="42.435003" lon="14.1552865"><ele>59.0</ele><time>2026-05-01T14:34:23.348Z</time></trkpt><trkpt lat="42.4351442" lon="14.1551828"><ele>59.0</ele><time>2026-05-01T14:34:24.347Z</time></trkpt><trkpt lat="42.4352801" lon="14.1550826"><ele>59.0</ele><time>2026-05-01T14:34:25.348Z</time></trkpt><trkpt lat="42.4354128" lon="14.1549798"><ele>59.0</ele><time>2026-05-01T14:34:26.348Z</time></trkpt><trkpt lat="42.4355457" lon="14.154879"><ele>60.333333333333336</ele><time>2026-05-01T14:34:27.348Z</time></trkpt><trkpt lat="42.4356793" lon="14.1547756"><ele>61.66666666666667</ele><time>2026-05-01T14:34:28.347Z</time></trkpt><trkpt lat="42.4358176" lon="14.1546638"><ele>63.0</ele><time>2026-05-01T14:34:29.348Z</time></trkpt><trkpt lat="42.435967" lon="14.1545404"><ele>63.0</ele><time>2026-05-01T14:34:30.348Z</time></trkpt><trkpt lat="42.4361289" lon="14.1544086"><ele>63.0</ele><time>2026-05-01T14:34:31.348Z</time></trkpt><trkpt lat="42.4363024" lon="14.1542702"><ele>63.0</ele><time>2026-05-01T14:34:32.348Z</time></trkpt><trkpt lat="42.4364849" lon="14.1541282"><ele>65.33333333333333</ele><time>2026-05-01T14:34:33.347Z</time></trkpt><trkpt lat="42.436673" lon="14.1539732"><ele>67.66666666666666</ele><time>2026-05-01T14:34:34.348Z</time></trkpt><trkpt lat="42.4368608" lon="14.1538107"><ele>70.0</ele><time>2026-05-01T14:34:35.348Z</time></trkpt><trkpt lat="42.4370429" lon="14.1536534"><ele>69.66666666666666</ele><time>2026-05-01T14:34:36.348Z</time></trkpt><trkpt lat="42.4372151" lon="14.1535129"><ele>69.33333333333333</ele><time>2026-05-01T14:34:37.348Z</time></trkpt><trkpt lat="42.4373861" lon="14.1533927"><ele>69.0</ele><time>2026-05-01T14:34:38.348Z</time></trkpt><trkpt lat="42.4375704" lon="14.1533021"><ele>69.0</ele><time>2026-05-01T14:34:39.347Z</time></trkpt><trkpt lat="42.4377732" lon="14.1532438"><ele>69.0</ele><time>2026-05-01T14:34:40.347Z</time></trkpt><trkpt lat="42.4379789" lon="14.153184"><ele>69.0</ele><time>2026-05-01T14:34:41.347Z</time></trkpt><trkpt lat="42.4381735" lon="14.153102"><ele>67.0</ele><time>2026-05-01T14:34:42.349Z</time></trkpt><trkpt lat="42.4383548" lon="14.152987"><ele>65.0</ele><time>2026-05-01T14:34:43.349Z</time></trkpt><trkpt lat="42.4385274" lon="14.1528505"><ele>63.0</ele><time>2026-05-01T14:34:44.348Z</time></trkpt><trkpt lat="42.4386874" lon="14.1526806"><ele>65.0</ele><time>2026-05-01T14:34:45.349Z</time></trkpt><trkpt lat="42.4388415" lon="14.1524899"><ele>67.0</ele><time>2026-05-01T14:34:46.348Z</time></trkpt><trkpt lat="42.4389911" lon="14.1522879"><ele>69.0</ele><time>2026-05-01T14:34:47.348Z</time></trkpt><trkpt lat="42.4391287" lon="14.1520883"><ele>70.33333333333333</ele><time>2026-05-01T14:34:48.347Z</time></trkpt><trkpt lat="42.4392652" lon="14.1519122"><ele>71.66666666666666</ele><time>2026-05-01T14:34:49.348Z</time></trkpt><trkpt lat="42.4394141" lon="14.1517583"><ele>73.0</ele><time>2026-05-01T14:34:50.348Z</time></trkpt><trkpt lat="42.439584" lon="14.1516243"><ele>74.0</ele><time>2026-05-01T14:34:51.348Z</time></trkpt><trkpt lat="42.4397737" lon="14.1515086"><ele>75.0</ele><time>2026-05-01T14:34:52.347Z</time></trkpt><trkpt lat="42.4399735" lon="14.1514061"><ele>76.0</ele><time>2026-05-01T14:34:53.347Z</time></trkpt><trkpt lat="42.4401786" lon="14.1512865"><ele>76.0</ele><time>2026-05-01T14:34:54.347Z</time></trkpt><trkpt lat="42.4403646" lon="14.1511594"><ele>76.0</ele><time>2026-05-01T14:34:55.348Z</time></trkpt><trkpt lat="42.4405347" lon="14.151043"><ele>76.0</ele><time>2026-05-01T14:34:56.348Z</time></trkpt><trkpt lat="42.4406979" lon="14.1509418"><ele>80.0</ele><time>2026-05-01T14:34:57.348Z</time></trkpt><trkpt lat="42.4408488" lon="14.1508762"><ele>84.0</ele><time>2026-05-01T14:34:58.348Z</time></trkpt><trkpt lat="42.4409966" lon="14.1508402"><ele>88.0</ele><time>2026-05-01T14:34:59.347Z</time></trkpt><trkpt lat="42.4411426" lon="14.1508365"><ele>89.0</ele><time>2026-05-01T14:35:00.348Z</time></trkpt><trkpt lat="42.441303" lon="14.1508718"><ele>90.0</ele><time>2026-05-01T14:35:01.348Z</time></trkpt><trkpt lat="42.441475" lon="14.1509414"><ele>91.0</ele><time>2026-05-01T14:35:02.348Z</time></trkpt><trkpt lat="42.4416349" lon="14.1509746"><ele>91.0</ele><time>2026-05-01T14:35:03.347Z</time></trkpt><trkpt lat="42.4418015" lon="14.1509828"><ele>91.0</ele><time>2026-05-01T14:35:04.348Z</time></trkpt><trkpt lat="42.4419653" lon="14.1509405"><ele>91.0</ele><time>2026-05-01T14:35:05.347Z</time></trkpt><trkpt lat="42.4421088" lon="14.1508714"><ele>91.75</ele><time>2026-05-01T14:35:06.347Z</time></trkpt><trkpt lat="42.4422294" lon="14.1507665"><ele>92.5</ele><time>2026-05-01T14:35:07.347Z</time></trkpt><trkpt lat="42.4423133" lon="14.1506192"><ele>93.25</ele><time>2026-05-01T14:35:08.347Z</time></trkpt><trkpt lat="42.4423767" lon="14.1504343"><ele>94.0</ele><time>2026-05-01T14:35:09.348Z</time></trkpt><trkpt lat="42.4424268" lon="14.1502072"><ele>94.0</ele><time>2026-05-01T14:35:10.348Z</time></trkpt><trkpt lat="42.442477" lon="14.1499561"><ele>94.0</ele><time>2026-05-01T14:35:11.348Z</time></trkpt><trkpt lat="42.4425407" lon="14.1496932"><ele>94.0</ele><time>2026-05-01T14:35:12.347Z</time></trkpt><trkpt lat="42.4426206" lon="14.1494196"><ele>95.33333333333333</ele><time>2026-05-01T14:35:13.347Z</time></trkpt><trkpt lat="42.4427115" lon="14.1491633"><ele>96.66666666666666</ele><time>2026-05-01T14:35:14.348Z</time></trkpt><trkpt lat="42.4428054" lon="14.1489331"><ele>98.0</ele><time>2026-05-01T14:35:15.348Z</time></trkpt><trkpt lat="42.4429125" lon="14.148716"><ele>100.0</ele><time>2026-05-01T14:35:16.348Z</time></trkpt><trkpt lat="42.4430424" lon="14.1485075"><ele>102.0</ele><time>2026-05-01T14:35:17.348Z</time></trkpt><trkpt lat="42.4431874" lon="14.1482945"><ele>104.0</ele><time>2026-05-01T14:35:18.347Z</time></trkpt><trkpt lat="42.4433373" lon="14.1480797"><ele>109.0</ele><time>2026-05-01T14:35:19.347Z</time></trkpt><trkpt lat="42.4434781" lon="14.1478846"><ele>114.0</ele><time>2026-05-01T14:35:20.347Z</time></trkpt><trkpt lat="42.4436158" lon="14.1477259"><ele>119.0</ele><time>2026-05-01T14:35:21.347Z</time></trkpt><trkpt lat="42.4437663" lon="14.1476023"><ele>117.33333333333333</ele><time>2026-05-01T14:35:22.349Z</time></trkpt><trkpt lat="42.4439399" lon="14.1475164"><ele>115.66666666666666</ele><time>2026-05-01T14:35:23.349Z</time></trkpt><trkpt lat="42.4441211" lon="14.1474533"><ele>114.0</ele><time>2026-05-01T14:35:24.347Z</time></trkpt><trkpt lat="42.4442762" lon="14.1473997"><ele>115.4</ele><time>2026-05-01T14:35:25.347Z</time></trkpt><trkpt lat="42.4443846" lon="14.147321"><ele>116.80000000000001</ele><time>2026-05-01T14:35:26.347Z</time></trkpt><trkpt lat="42.4444699" lon="14.1472095"><ele>118.19999999999999</ele><time>2026-05-01T14:35:27.348Z</time></trkpt><trkpt lat="42.4445321" lon="14.147084"><ele>119.6</ele><time>2026-05-01T14:35:28.349Z</time></trkpt><trkpt lat="42.4445757" lon="14.1469844"><ele>121.0</ele><time>2026-05-01T14:35:29.348Z</time></trkpt><trkpt lat="42.4446298" lon="14.1468757"><ele>121.0</ele><time>2026-05-01T14:35:30.348Z</time></trkpt><trkpt lat="42.4447072" lon="14.1467551"><ele>121.0</ele><time>2026-05-01T14:35:31.347Z</time></trkpt><trkpt lat="42.4448036" lon="14.1466135"><ele>121.0</ele><time>2026-05-01T14:35:32.348Z</time></trkpt><trkpt lat="42.4449062" lon="14.1464431"><ele>121.0</ele><time>2026-05-01T14:35:33.348Z</time></trkpt><trkpt lat="42.4450213" lon="14.1462403"><ele>122.66666666666667</ele><time>2026-05-01T14:35:34.348Z</time></trkpt><trkpt lat="42.4451409" lon="14.1460125"><ele>124.33333333333334</ele><time>2026-05-01T14:35:35.347Z</time></trkpt><trkpt lat="42.445268" lon="14.1457807"><ele>126.0</ele><time>2026-05-01T14:35:36.348Z</time></trkpt><trkpt lat="42.4453954" lon="14.1455764"><ele>124.0</ele><time>2026-05-01T14:35:37.348Z</time></trkpt><trkpt lat="42.4455297" lon="14.1453883"><ele>122.0</ele><time>2026-05-01T14:35:38.348Z</time></trkpt><trkpt lat="42.4456785" lon="14.1452203"><ele>120.0</ele><time>2026-05-01T14:35:39.349Z</time></trkpt><trkpt lat="42.4458315" lon="14.1450802"><ele>120.0</ele><time>2026-05-01T14:35:40.349Z</time></trkpt><trkpt lat="42.4460056" lon="14.1449503"><ele>120.0</ele><time>2026-05-01T14:35:41.347Z</time></trkpt><trkpt lat="42.4461971" lon="14.1448407"><ele>120.0</ele><time>2026-05-01T14:35:42.347Z</time></trkpt><trkpt lat="42.4464062" lon="14.1447469"><ele>120.33333333333334</ele><time>2026-05-01T14:35:43.348Z</time></trkpt><trkpt lat="42.4466261" lon="14.144674"><ele>120.66666666666667</ele><time>2026-05-01T14:35:44.347Z</time></trkpt><trkpt lat="42.4468332" lon="14.1446102"><ele>121.0</ele><time>2026-05-01T14:35:45.347Z</time></trkpt><trkpt lat="42.4470226" lon="14.1445652"><ele>122.25</ele><time>2026-05-01T14:35:46.347Z</time></trkpt><trkpt lat="42.4471813" lon="14.1445338"><ele>123.5</ele><time>2026-05-01T14:35:47.348Z</time></trkpt><trkpt lat="42.4473126" lon="14.1445424"><ele>124.75</ele><time>2026-05-01T14:35:48.347Z</time></trkpt><trkpt lat="42.4474199" lon="14.1445885"><ele>126.0</ele><time>2026-05-01T14:35:49.347Z</time></trkpt><trkpt lat="42.447492" lon="14.1446724"><ele>126.0</ele><time>2026-05-01T14:35:50.348Z</time></trkpt><trkpt lat="42.4475396" lon="14.1447846"><ele>126.0</ele><time>2026-05-01T14:35:51.347Z</time></trkpt><trkpt lat="42.4475663" lon="14.1449261"><ele>126.0</ele><time>2026-05-01T14:35:52.347Z</time></trkpt><trkpt lat="42.4475746" lon="14.1450952"><ele>126.0</ele><time>2026-05-01T14:35:53.347Z</time></trkpt><trkpt lat="42.4475819" lon="14.1452665"><ele>126.19999999999999</ele><time>2026-05-01T14:35:54.348Z</time></trkpt><trkpt lat="42.4475902" lon="14.1454277"><ele>126.39999999999999</ele><time>2026-05-01T14:35:55.346Z</time></trkpt><trkpt lat="42.4476032" lon="14.1455705"><ele>126.6</ele><time>2026-05-01T14:35:56.347Z</time></trkpt><trkpt lat="42.4476266" lon="14.1457112"><ele>126.8</ele><time>2026-05-01T14:35:57.347Z</time></trkpt><trkpt lat="42.4476769" lon="14.1458394"><ele>127.0</ele><time>2026-05-01T14:35:58.347Z</time></trkpt><trkpt lat="42.4477479" lon="14.1459554"><ele>127.5</ele><time>2026-05-01T14:35:59.348Z</time></trkpt><trkpt lat="42.4478361" lon="14.1460603"><ele>128.0</ele><time>2026-05-01T14:36:00.347Z</time></trkpt><trkpt lat="42.4479389" lon="14.1461613"><ele>128.5</ele><time>2026-05-01T14:36:01.347Z</time></trkpt><trkpt lat="42.4480539" lon="14.1462466"><ele>129.0</ele><time>2026-05-01T14:36:02.346Z</time></trkpt><trkpt lat="42.4481815" lon="14.14632"><ele>132.25</ele><time>2026-05-01T14:36:03.348Z</time></trkpt><trkpt lat="42.4483173" lon="14.1463732"><ele>135.5</ele><time>2026-05-01T14:36:04.347Z</time></trkpt><trkpt lat="42.4484555" lon="14.1464173"><ele>138.75</ele><time>2026-05-01T14:36:05.347Z</time></trkpt><trkpt lat="42.4485916" lon="14.1464376"><ele>142.0</ele><time>2026-05-01T14:36:06.347Z</time></trkpt><trkpt lat="42.4487236" lon="14.1464407"><ele>142.5</ele><time>2026-05-01T14:36:07.347Z</time></trkpt><trkpt lat="42.4488478" lon="14.1464012"><ele>143.0</ele><time>2026-05-01T14:36:08.347Z</time></trkpt><trkpt lat="42.4489602" lon="14.1463375"><ele>143.5</ele><time>2026-05-01T14:36:09.347Z</time></trkpt><trkpt lat="42.44906" lon="14.1462513"><ele>144.0</ele><time>2026-05-01T14:36:10.347Z</time></trkpt><trkpt lat="42.4491579" lon="14.1461307"><ele>144.0</ele><time>2026-05-01T14:36:11.348Z</time></trkpt><trkpt lat="42.4492505" lon="14.1459854"><ele>144.0</ele><time>2026-05-01T14:36:12.347Z</time></trkpt><trkpt lat="42.4493327" lon="14.1458336"><ele>144.0</ele><time>2026-05-01T14:36:13.348Z</time></trkpt><trkpt lat="42.4494175" lon="14.145684"><ele>144.0</ele><time>2026-05-01T14:36:14.347Z</time></trkpt><trkpt lat="42.4494992" lon="14.1455365"><ele>142.0</ele><time>2026-05-01T14:36:15.347Z</time></trkpt><trkpt lat="42.449579" lon="14.1453821"><ele>140.0</ele><time>2026-05-01T14:36:16.346Z</time></trkpt><trkpt lat="42.4496539" lon="14.1452205"><ele>138.0</ele><time>2026-05-01T14:36:17.346Z</time></trkpt><trkpt lat="42.4497217" lon="14.145052"><ele>136.0</ele><time>2026-05-01T14:36:18.347Z</time></trkpt><trkpt lat="42.4497818" lon="14.1448801"><ele>137.5</ele><time>2026-05-01T14:36:19.347Z</time></trkpt><trkpt lat="42.4498391" lon="14.1447019"><ele>139.0</ele><time>2026-05-01T14:36:20.348Z</time></trkpt><trkpt lat="42.4498873" lon="14.144516"><ele>140.5</ele><time>2026-05-01T14:36:21.347Z</time></trkpt><trkpt lat="42.4499252" lon="14.1443114"><ele>142.0</ele><time>2026-05-01T14:36:22.347Z</time></trkpt><trkpt lat="42.4499445" lon="14.1440983"><ele>140.66666666666669</ele><time>2026-05-01T14:36:23.347Z</time></trkpt><trkpt lat="42.449945" lon="14.1438888"><ele>139.33333333333334</ele><time>2026-05-01T14:36:24.347Z</time></trkpt><trkpt lat="42.4499291" lon="14.1436813"><ele>138.0</ele><time>2026-05-01T14:36:25.347Z</time></trkpt><trkpt lat="42.4499158" lon="14.1434758"><ele>138.0</ele><time>2026-05-01T14:36:26.347Z</time></trkpt><trkpt lat="42.4498976" lon="14.1432702"><ele>138.0</ele><time>2026-05-01T14:36:27.347Z</time></trkpt><trkpt lat="42.4498642" lon="14.1430673"><ele>138.0</ele><time>2026-05-01T14:36:28.347Z</time></trkpt><trkpt lat="42.4498194" lon="14.1428693"><ele>137.75</ele><time>2026-05-01T14:36:29.346Z</time></trkpt><trkpt lat="42.4497574" lon="14.1426811"><ele>137.5</ele><time>2026-05-01T14:36:30.347Z</time></trkpt><trkpt lat="42.449689" lon="14.1425059"><ele>137.25</ele><time>2026-05-01T14:36:31.347Z</time></trkpt><trkpt lat="42.4496282" lon="14.1423463"><ele>137.0</ele><time>2026-05-01T14:36:32.346Z</time></trkpt><trkpt lat="42.4495799" lon="14.1422032"><ele>137.6</ele><time>2026-05-01T14:36:33.346Z</time></trkpt><trkpt lat="42.4495597" lon="14.1420692"><ele>138.2</ele><time>2026-05-01T14:36:34.347Z</time></trkpt><trkpt lat="42.4495653" lon="14.1419358"><ele>138.8</ele><time>2026-05-01T14:36:35.347Z</time></trkpt><trkpt lat="42.4496047" lon="14.1418197"><ele>139.4</ele><time>2026-05-01T14:36:36.348Z</time></trkpt><trkpt lat="42.4496733" lon="14.1417251"><ele>140.0</ele><time>2026-05-01T14:36:37.346Z</time></trkpt><trkpt lat="42.4497407" lon="14.1416195"><ele>140.0</ele><time>2026-05-01T14:36:38.346Z</time></trkpt><trkpt lat="42.449865" lon="14.1415617"><ele>140.0</ele><time>2026-05-01T14:36:39.346Z</time></trkpt><trkpt lat="42.4499726" lon="14.1414753"><ele>140.0</ele><time>2026-05-01T14:36:40.347Z</time></trkpt><trkpt lat="42.4501001" lon="14.1413981"><ele>140.0</ele><time>2026-05-01T14:36:41.348Z</time></trkpt><trkpt lat="42.4502476" lon="14.1413285"><ele>141.66666666666666</ele><time>2026-05-01T14:36:42.347Z</time></trkpt><trkpt lat="42.4504129" lon="14.1412593"><ele>143.33333333333334</ele><time>2026-05-01T14:36:43.347Z</time></trkpt><trkpt lat="42.4505841" lon="14.1411886"><ele>145.0</ele><time>2026-05-01T14:36:44.347Z</time></trkpt><trkpt lat="42.4507727" lon="14.1411278"><ele>146.66666666666669</ele><time>2026-05-01T14:36:45.347Z</time></trkpt><trkpt lat="42.4509681" lon="14.1410666"><ele>148.33333333333334</ele><time>2026-05-01T14:36:46.347Z</time></trkpt><trkpt lat="42.451169" lon="14.1410092"><ele>150.0</ele><time>2026-05-01T14:36:47.348Z</time></trkpt><trkpt lat="42.451365" lon="14.1409514"><ele>150.66666666666666</ele><time>2026-05-01T14:36:48.347Z</time></trkpt><trkpt lat="42.4515485" lon="14.1409098"><ele>151.33333333333331</ele><time>2026-05-01T14:36:49.348Z</time></trkpt><trkpt lat="42.4517234" lon="14.1408764"><ele>152.0</ele><time>2026-05-01T14:36:50.347Z</time></trkpt><trkpt lat="42.451898" lon="14.1408457"><ele>152.0</ele><time>2026-05-01T14:36:51.347Z</time></trkpt><trkpt lat="42.4520749" lon="14.140816"><ele>152.0</ele><time>2026-05-01T14:36:52.346Z</time></trkpt><trkpt lat="42.4522516" lon="14.1407838"><ele>152.0</ele><time>2026-05-01T14:36:53.346Z</time></trkpt><trkpt lat="42.452425" lon="14.1407527"><ele>152.0</ele><time>2026-05-01T14:36:54.347Z</time></trkpt><trkpt lat="42.452576" lon="14.1407216"><ele>152.0</ele><time>2026-05-01T14:36:55.347Z</time></trkpt><trkpt lat="42.452706" lon="14.140691"><ele>152.0</ele><time>2026-05-01T14:36:56.347Z</time></trkpt><trkpt lat="42.4528125" lon="14.1406644"><ele>152.0</ele><time>2026-05-01T14:36:57.346Z</time></trkpt><trkpt lat="42.4528901" lon="14.1406417"><ele>152.0</ele><time>2026-05-01T14:36:58.346Z</time></trkpt><trkpt lat="42.4529534" lon="14.1406158"><ele>152.0</ele><time>2026-05-01T14:36:59.346Z</time></trkpt><trkpt lat="42.4530306" lon="14.1405876"><ele>152.0</ele><time>2026-05-01T14:37:01.347Z</time></trkpt><trkpt lat="42.4530948" lon="14.1405567"><ele>152.0</ele><time>2026-05-01T14:37:02.347Z</time></trkpt><trkpt lat="42.453188" lon="14.1405042"><ele>152.0</ele><time>2026-05-01T14:37:03.347Z</time></trkpt><trkpt lat="42.4533058" lon="14.1404337"><ele>152.0</ele><time>2026-05-01T14:37:04.346Z</time></trkpt><trkpt lat="42.4534458" lon="14.1403499"><ele>156.25</ele><time>2026-05-01T14:37:05.347Z</time></trkpt><trkpt lat="42.4535852" lon="14.1402733"><ele>160.5</ele><time>2026-05-01T14:37:06.346Z</time></trkpt><trkpt lat="42.4537115" lon="14.1401896"><ele>164.75</ele><time>2026-05-01T14:37:07.346Z</time></trkpt><trkpt lat="42.4538212" lon="14.1400924"><ele>169.0</ele><time>2026-05-01T14:37:08.346Z</time></trkpt><trkpt lat="42.4539237" lon="14.1399506"><ele>170.66666666666669</ele><time>2026-05-01T14:37:09.346Z</time></trkpt><trkpt lat="42.454024" lon="14.1397804"><ele>172.33333333333334</ele><time>2026-05-01T14:37:10.347Z</time></trkpt><trkpt lat="42.4541248" lon="14.1395711"><ele>174.0</ele><time>2026-05-01T14:37:11.347Z</time></trkpt><trkpt lat="42.4542364" lon="14.1393491"><ele>174.0</ele><time>2026-05-01T14:37:12.347Z</time></trkpt><trkpt lat="42.4543537" lon="14.1391369"><ele>174.0</ele><time>2026-05-01T14:37:13.347Z</time></trkpt><trkpt lat="42.454466" lon="14.1389337"><ele>174.0</ele><time>2026-05-01T14:37:14.346Z</time></trkpt><trkpt lat="42.4545734" lon="14.1387496"><ele>173.66666666666666</ele><time>2026-05-01T14:37:15.347Z</time></trkpt><trkpt lat="42.4546746" lon="14.1385792"><ele>173.33333333333331</ele><time>2026-05-01T14:37:16.346Z</time></trkpt><trkpt lat="42.4547711" lon="14.1384203"><ele>173.0</ele><time>2026-05-01T14:37:17.347Z</time></trkpt><trkpt lat="42.4548645" lon="14.1382644"><ele>172.25</ele><time>2026-05-01T14:37:18.347Z</time></trkpt><trkpt lat="42.4549475" lon="14.1381145"><ele>171.5</ele><time>2026-05-01T14:37:19.347Z</time></trkpt><trkpt lat="42.4550092" lon="14.1379432"><ele>170.75</ele><time>2026-05-01T14:37:20.347Z</time></trkpt><trkpt lat="42.4550382" lon="14.1377658"><ele>170.0</ele><time>2026-05-01T14:37:21.347Z</time></trkpt><trkpt lat="42.4550627" lon="14.1375832"><ele>170.0</ele><time>2026-05-01T14:37:22.348Z</time></trkpt><trkpt lat="42.455063" lon="14.1373949"><ele>170.0</ele><time>2026-05-01T14:37:23.347Z</time></trkpt><trkpt lat="42.4550528" lon="14.1372061"><ele>170.0</ele><time>2026-05-01T14:37:24.347Z</time></trkpt><trkpt lat="42.455046" lon="14.1370223"><ele>170.0</ele><time>2026-05-01T14:37:25.348Z</time></trkpt><trkpt lat="42.4550378" lon="14.136871"><ele>170.5</ele><time>2026-05-01T14:37:26.347Z</time></trkpt><trkpt lat="42.455033" lon="14.1367299"><ele>171.0</ele><time>2026-05-01T14:37:27.347Z</time></trkpt><trkpt lat="42.4550367" lon="14.1366175"><ele>171.5</ele><time>2026-05-01T14:37:28.347Z</time></trkpt><trkpt lat="42.4550632" lon="14.1365191"><ele>172.0</ele><time>2026-05-01T14:37:29.347Z</time></trkpt><trkpt lat="42.455111" lon="14.1364544"><ele>172.5</ele><time>2026-05-01T14:37:30.347Z</time></trkpt><trkpt lat="42.4551787" lon="14.136421"><ele>173.0</ele><time>2026-05-01T14:37:31.346Z</time></trkpt><trkpt lat="42.4552646" lon="14.1363883"><ele>174.4</ele><time>2026-05-01T14:37:32.347Z</time></trkpt><trkpt lat="42.4553589" lon="14.1363428"><ele>175.8</ele><time>2026-05-01T14:37:33.348Z</time></trkpt><trkpt lat="42.4554604" lon="14.1362846"><ele>177.2</ele><time>2026-05-01T14:37:34.348Z</time></trkpt><trkpt lat="42.4555557" lon="14.1362168"><ele>178.6</ele><time>2026-05-01T14:37:35.346Z</time></trkpt><trkpt lat="42.4556562" lon="14.1361512"><ele>180.0</ele><time>2026-05-01T14:37:36.347Z</time></trkpt><trkpt lat="42.4557578" lon="14.1360822"><ele>180.0</ele><time>2026-05-01T14:37:37.347Z</time></trkpt><trkpt lat="42.4558653" lon="14.1360097"><ele>180.0</ele><time>2026-05-01T14:37:38.347Z</time></trkpt><trkpt lat="42.4559591" lon="14.1358994"><ele>180.0</ele><time>2026-05-01T14:37:39.347Z</time></trkpt><trkpt lat="42.4560383" lon="14.1357897"><ele>180.0</ele><time>2026-05-01T14:37:40.347Z</time></trkpt><trkpt lat="42.4561085" lon="14.135656"><ele>184.66666666666669</ele><time>2026-05-01T14:37:41.347Z</time></trkpt><trkpt lat="42.4561762" lon="14.135492"><ele>189.33333333333334</ele><time>2026-05-01T14:37:42.347Z</time></trkpt><trkpt lat="42.456239" lon="14.1353034"><ele>194.0</ele><time>2026-05-01T14:37:43.347Z</time></trkpt><trkpt lat="42.4563135" lon="14.1350805"><ele>185.33333333333334</ele><time>2026-05-01T14:37:44.348Z</time></trkpt><trkpt lat="42.4563907" lon="14.1348415"><ele>176.66666666666669</ele><time>2026-05-01T14:37:45.347Z</time></trkpt><trkpt lat="42.4564742" lon="14.1345875"><ele>168.0</ele><time>2026-05-01T14:37:46.346Z</time></trkpt><trkpt lat="42.4565579" lon="14.1343215"><ele>168.0</ele><time>2026-05-01T14:37:47.347Z</time></trkpt><trkpt lat="42.4566372" lon="14.1340466"><ele>168.0</ele><time>2026-05-01T14:37:48.347Z</time></trkpt><trkpt lat="42.4567057" lon="14.1337678"><ele>168.0</ele><time>2026-05-01T14:37:49.347Z</time></trkpt><trkpt lat="42.456755" lon="14.133488"><ele>167.33333333333334</ele><time>2026-05-01T14:37:50.348Z</time></trkpt><trkpt lat="42.4567899" lon="14.1332143"><ele>166.66666666666669</ele><time>2026-05-01T14:37:51.346Z</time></trkpt><trkpt lat="42.4568287" lon="14.1329517"><ele>166.0</ele><time>2026-05-01T14:37:52.347Z</time></trkpt><trkpt lat="42.4568777" lon="14.1327005"><ele>166.0</ele><time>2026-05-01T14:37:53.347Z</time></trkpt><trkpt lat="42.4569434" lon="14.1324552"><ele>166.0</ele><time>2026-05-01T14:37:54.347Z</time></trkpt><trkpt lat="42.4570275" lon="14.1322048"><ele>166.0</ele><time>2026-05-01T14:37:55.347Z</time></trkpt><trkpt lat="42.457126" lon="14.1319587"><ele>164.0</ele><time>2026-05-01T14:37:56.347Z</time></trkpt><trkpt lat="42.4572339" lon="14.1317064"><ele>162.0</ele><time>2026-05-01T14:37:57.346Z</time></trkpt><trkpt lat="42.4573447" lon="14.1314493"><ele>160.0</ele><time>2026-05-01T14:37:58.346Z</time></trkpt><trkpt lat="42.4574486" lon="14.1312066"><ele>160.0</ele><time>2026-05-01T14:37:59.347Z</time></trkpt><trkpt lat="42.45755" lon="14.1309768"><ele>160.0</ele><time>2026-05-01T14:38:00.347Z</time></trkpt><trkpt lat="42.4576679" lon="14.1307641"><ele>160.0</ele><time>2026-05-01T14:38:01.347Z</time></trkpt><trkpt lat="42.4578055" lon="14.1305684"><ele>159.33333333333334</ele><time>2026-05-01T14:38:02.346Z</time></trkpt><trkpt lat="42.4579666" lon="14.1303908"><ele>158.66666666666666</ele><time>2026-05-01T14:38:03.347Z</time></trkpt><trkpt lat="42.4581296" lon="14.1302175"><ele>158.0</ele><time>2026-05-01T14:38:04.347Z</time></trkpt><trkpt lat="42.4582753" lon="14.1300408"><ele>158.66666666666666</ele><time>2026-05-01T14:38:05.347Z</time></trkpt><trkpt lat="42.4583994" lon="14.129859"><ele>159.33333333333334</ele><time>2026-05-01T14:38:06.346Z</time></trkpt><trkpt lat="42.458502" lon="14.1296679"><ele>160.0</ele><time>2026-05-01T14:38:07.346Z</time></trkpt><trkpt lat="42.4585905" lon="14.1294614"><ele>160.0</ele><time>2026-05-01T14:38:08.346Z</time></trkpt><trkpt lat="42.4586569" lon="14.1292437"><ele>160.0</ele><time>2026-05-01T14:38:09.345Z</time></trkpt><trkpt lat="42.4587004" lon="14.1290308"><ele>160.0</ele><time>2026-05-01T14:38:10.346Z</time></trkpt><trkpt lat="42.4587127" lon="14.1288047"><ele>161.0</ele><time>2026-05-01T14:38:11.347Z</time></trkpt><trkpt lat="42.4586989" lon="14.128567"><ele>162.0</ele><time>2026-05-01T14:38:12.346Z</time></trkpt><trkpt lat="42.4586477" lon="14.1283179"><ele>163.0</ele><time>2026-05-01T14:38:13.346Z</time></trkpt><trkpt lat="42.4585703" lon="14.1280628"><ele>163.0</ele><time>2026-05-01T14:38:14.346Z</time></trkpt><trkpt lat="42.4584782" lon="14.1278094"><ele>163.0</ele><time>2026-05-01T14:38:15.346Z</time></trkpt><trkpt lat="42.4583892" lon="14.1275801"><ele>163.0</ele><time>2026-05-01T14:38:16.346Z</time></trkpt><trkpt lat="42.458295" lon="14.1273925"><ele>160.66666666666669</ele><time>2026-05-01T14:38:17.345Z</time></trkpt><trkpt lat="42.4581999" lon="14.1272112"><ele>158.33333333333334</ele><time>2026-05-01T14:38:18.346Z</time></trkpt><trkpt lat="42.4580385" lon="14.1270828"><ele>156.0</ele><time>2026-05-01T14:38:19.346Z</time></trkpt><trkpt lat="42.4579152" lon="14.126907"><ele>156.0</ele><time>2026-05-01T14:38:20.346Z</time></trkpt><trkpt lat="42.4578012" lon="14.1266965"><ele>156.0</ele><time>2026-05-01T14:38:21.346Z</time></trkpt><trkpt lat="42.4576776" lon="14.1264965"><ele>156.0</ele><time>2026-05-01T14:38:22.346Z</time></trkpt><trkpt lat="42.4575733" lon="14.1262505"><ele>159.66666666666666</ele><time>2026-05-01T14:38:23.346Z</time></trkpt><trkpt lat="42.4574721" lon="14.1260274"><ele>163.33333333333331</ele><time>2026-05-01T14:38:24.346Z</time></trkpt><trkpt lat="42.4573878" lon="14.1258171"><ele>167.0</ele><time>2026-05-01T14:38:25.346Z</time></trkpt><trkpt lat="42.4573272" lon="14.1256119"><ele>168.0</ele><time>2026-05-01T14:38:26.347Z</time></trkpt><trkpt lat="42.4572876" lon="14.1254214"><ele>169.0</ele><time>2026-05-01T14:38:27.346Z</time></trkpt><trkpt lat="42.4572624" lon="14.1252272"><ele>170.0</ele><time>2026-05-01T14:38:28.346Z</time></trkpt><trkpt lat="42.4572481" lon="14.1250237"><ele>171.0</ele><time>2026-05-01T14:38:29.346Z</time></trkpt><trkpt lat="42.4572519" lon="14.1248162"><ele>171.0</ele><time>2026-05-01T14:38:30.346Z</time></trkpt><trkpt lat="42.4572708" lon="14.1245916"><ele>171.0</ele><time>2026-05-01T14:38:31.346Z</time></trkpt><trkpt lat="42.4576679" lon="14.1307641"><ele>167.66666666666666</ele><time>2026-05-01T14:38:01.347Z</time></trkpt><trkpt lat="42.4578055" lon="14.1305684"><ele>164.33333333333331</ele><time>2026-05-01T14:38:02.346Z</time></trkpt><trkpt lat="42.4579666" lon="14.1303908"><ele>161.0</ele><time>2026-05-01T14:38:03.347Z</time></trkpt><trkpt lat="42.4581296" lon="14.1302175"><ele>160.66666666666666</ele><time>2026-05-01T14:38:04.347Z</time></trkpt><trkpt lat="42.4582753" lon="14.1300408"><ele>160.33333333333334</ele><time>2026-05-01T14:38:05.347Z</time></trkpt><trkpt lat="42.4583994" lon="14.129859"><ele>160.0</ele><time>2026-05-01T14:38:06.346Z</time></trkpt><trkpt lat="42.458502" lon="14.1296679"><ele>160.0</ele><time>2026-05-01T14:38:07.346Z</time></trkpt><trkpt lat="42.4585905" lon="14.1294614"><ele>160.0</ele><time>2026-05-01T14:38:08.346Z</time></trkpt><trkpt lat="42.4586569" lon="14.1292437"><ele>160.0</ele><time>2026-05-01T14:38:09.345Z</time></trkpt><trkpt lat="42.4587004" lon="14.1290308"><ele>158.33333333333334</ele><time>2026-05-01T14:38:10.346Z</time></trkpt><trkpt lat="42.4587127" lon="14.1288047"><ele>156.66666666666666</ele><time>2026-05-01T14:38:11.347Z</time></trkpt><trkpt lat="42.4586989" lon="14.128567"><ele>155.0</ele><time>2026-05-01T14:38:12.346Z</time></trkpt><trkpt lat="42.4586477" lon="14.1283179"><ele>157.66666666666666</ele><time>2026-05-01T14:38:13.346Z</time></trkpt><trkpt lat="42.4585703" lon="14.1280628"><ele>160.33333333333334</ele><time>2026-05-01T14:38:14.346Z</time></trkpt><trkpt lat="42.4584782" lon="14.1278094"><ele>163.0</ele><time>2026-05-01T14:38:15.346Z</time></trkpt><trkpt lat="42.4583892" lon="14.1275801"><ele>165.66666666666669</ele><time>2026-05-01T14:38:16.346Z</time></trkpt><trkpt lat="42.458295" lon="14.1273925"><ele>168.33333333333334</ele><time>2026-05-01T14:38:17.345Z</time></trkpt><trkpt lat="42.4581999" lon="14.1272112"><ele>171.0</ele><time>2026-05-01T14:38:18.346Z</time></trkpt><trkpt lat="42.4580385" lon="14.1270828"><ele>169.66666666666666</ele><time>2026-05-01T14:38:19.346Z</time></trkpt><trkpt lat="42.4579152" lon="14.126907"><ele>168.33333333333331</ele><time>2026-05-01T14:38:20.346Z</time></trkpt><trkpt lat="42.4578012" lon="14.1266965"><ele>167.0</ele><time>2026-05-01T14:38:21.346Z</time></trkpt><trkpt lat="42.4576776" lon="14.1264965"><ele>167.0</ele><time>2026-05-01T14:38:22.346Z</time></trkpt><trkpt lat="42.4575733" lon="14.1262505"><ele>167.0</ele><time>2026-05-01T14:38:23.346Z</time></trkpt><trkpt lat="42.4574721" lon="14.1260274"><ele>167.0</ele><time>2026-05-01T14:38:24.346Z</time></trkpt><trkpt lat="42.4573878" lon="14.1258171"><ele>169.33333333333331</ele><time>2026-05-01T14:38:25.346Z</time></trkpt><trkpt lat="42.4573272" lon="14.1256119"><ele>171.66666666666666</ele><time>2026-05-01T14:38:26.347Z</time></trkpt><trkpt lat="42.4572876" lon="14.1254214"><ele>174.0</ele><time>2026-05-01T14:38:27.346Z</time></trkpt><trkpt lat="42.4572624" lon="14.1252272"><ele>174.0</ele><time>2026-05-01T14:38:28.346Z</time></trkpt><trkpt lat="42.4572481" lon="14.1250237"><ele>174.0</ele><time>2026-05-01T14:38:29.346Z</time></trkpt><trkpt lat="42.4572519" lon="14.1248162"><ele>174.0</ele><time>2026-05-01T14:38:30.346Z</time></trkpt><trkpt lat="42.4572708" lon="14.1245916"><ele>173.0</ele><time>2026-05-01T14:38:31.346Z</time></trkpt><trkpt lat="42.4572984" lon="14.1243632"><ele>172.0</ele><time>2026-05-01T14:38:32.346Z</time></trkpt><trkpt lat="42.4573428" lon="14.124124"><ele>171.0</ele><time>2026-05-01T14:38:33.346Z</time></trkpt><trkpt lat="42.4574071" lon="14.1238711"><ele>168.66666666666666</ele><time>2026-05-01T14:38:34.346Z</time></trkpt><trkpt lat="42.4574815" lon="14.1236102"><ele>166.33333333333331</ele><time>2026-05-01T14:38:35.346Z</time></trkpt><trkpt lat="42.4575511" lon="14.1233639"><ele>164.0</ele><time>2026-05-01T14:38:36.346Z</time></trkpt><trkpt lat="42.4576228" lon="14.1231334"><ele>163.33333333333331</ele><time>2026-05-01T14:38:37.347Z</time></trkpt><trkpt lat="42.4576898" lon="14.1229153"><ele>162.66666666666666</ele><time>2026-05-01T14:38:38.347Z</time></trkpt><trkpt lat="42.457756" lon="14.1227103"><ele>162.0</ele><time>2026-05-01T14:38:39.345Z</time></trkpt><trkpt lat="42.4578212" lon="14.1225067"><ele>161.33333333333334</ele><time>2026-05-01T14:38:40.345Z</time></trkpt><trkpt lat="42.4578998" lon="14.1223102"><ele>160.66666666666669</ele><time>2026-05-01T14:38:41.345Z</time></trkpt><trkpt lat="42.4579969" lon="14.1221184"><ele>160.0</ele><time>2026-05-01T14:38:42.345Z</time></trkpt><trkpt lat="42.4581121" lon="14.1219373"><ele>160.0</ele><time>2026-05-01T14:38:43.346Z</time></trkpt><trkpt lat="42.4582499" lon="14.1217645"><ele>160.0</ele><time>2026-05-01T14:38:44.346Z</time></trkpt><trkpt lat="42.4584081" lon="14.121589"><ele>160.0</ele><time>2026-05-01T14:38:45.346Z</time></trkpt><trkpt lat="42.4585804" lon="14.121408"><ele>160.0</ele><time>2026-05-01T14:38:46.346Z</time></trkpt><trkpt lat="42.4587647" lon="14.1212127"><ele>160.0</ele><time>2026-05-01T14:38:47.346Z</time></trkpt><trkpt lat="42.4589508" lon="14.121011"><ele>160.0</ele><time>2026-05-01T14:38:48.346Z</time></trkpt><trkpt lat="42.4591233" lon="14.120825"><ele>160.0</ele><time>2026-05-01T14:38:49.346Z</time></trkpt><trkpt lat="42.4592804" lon="14.1206582"><ele>160.0</ele><time>2026-05-01T14:38:50.346Z</time></trkpt><trkpt lat="42.4594221" lon="14.1205113"><ele>160.0</ele><time>2026-05-01T14:38:51.345Z</time></trkpt><trkpt lat="42.4595463" lon="14.1203842"><ele>160.0</ele><time>2026-05-01T14:38:52.345Z</time></trkpt><trkpt lat="42.4596526" lon="14.1202856"><ele>160.0</ele><time>2026-05-01T14:38:53.346Z</time></trkpt><trkpt lat="42.4597353" lon="14.12021"><ele>160.0</ele><time>2026-05-01T14:38:54.345Z</time></trkpt><trkpt lat="42.4597963" lon="14.1201576"><ele>160.0</ele><time>2026-05-01T14:38:55.346Z</time></trkpt><trkpt lat="42.4598823" lon="14.1200948"><ele>160.0</ele><time>2026-05-01T14:38:57.346Z</time></trkpt><trkpt lat="42.4599795" lon="14.1200709"><ele>160.0</ele><time>2026-05-01T14:38:59.345Z</time></trkpt><trkpt lat="42.4600647" lon="14.1200526"><ele>160.0</ele><time>2026-05-01T14:39:00.346Z</time></trkpt><trkpt lat="42.4601683" lon="14.1200238"><ele>160.0</ele><time>2026-05-01T14:39:01.346Z</time></trkpt><trkpt lat="42.4602684" lon="14.1200265"><ele>160.0</ele><time>2026-05-01T14:39:02.345Z</time></trkpt><trkpt lat="42.4603922" lon="14.1200606"><ele>160.0</ele><time>2026-05-01T14:39:03.345Z</time></trkpt><trkpt lat="42.4605351" lon="14.1201194"><ele>160.0</ele><time>2026-05-01T14:39:04.347Z</time></trkpt><trkpt lat="42.4607061" lon="14.1201856"><ele>160.66666666666669</ele><time>2026-05-01T14:39:05.346Z</time></trkpt><trkpt lat="42.4608785" lon="14.1202369"><ele>161.33333333333334</ele><time>2026-05-01T14:39:06.345Z</time></trkpt><trkpt lat="42.4610383" lon="14.1202917"><ele>162.0</ele><time>2026-05-01T14:39:07.346Z</time></trkpt><trkpt lat="42.4612068" lon="14.1203386"><ele>164.33333333333334</ele><time>2026-05-01T14:39:08.345Z</time></trkpt><trkpt lat="42.4613687" lon="14.1204284"><ele>166.66666666666669</ele><time>2026-05-01T14:39:09.345Z</time></trkpt><trkpt lat="42.4615368" lon="14.1205325"><ele>169.0</ele><time>2026-05-01T14:39:10.346Z</time></trkpt><trkpt lat="42.4617063" lon="14.1206579"><ele>168.0</ele><time>2026-05-01T14:39:11.346Z</time></trkpt><trkpt lat="42.4618918" lon="14.1207953"><ele>167.0</ele><time>2026-05-01T14:39:12.346Z</time></trkpt><trkpt lat="42.4620714" lon="14.1209327"><ele>166.0</ele><time>2026-05-01T14:39:13.346Z</time></trkpt><trkpt lat="42.4622672" lon="14.1210772"><ele>166.0</ele><time>2026-05-01T14:39:14.346Z</time></trkpt><trkpt lat="42.4624561" lon="14.1212127"><ele>166.0</ele><time>2026-05-01T14:39:15.347Z</time></trkpt><trkpt lat="42.4626423" lon="14.1213448"><ele>166.0</ele><time>2026-05-01T14:39:16.346Z</time></trkpt><trkpt lat="42.4628298" lon="14.1214772"><ele>162.33333333333334</ele><time>2026-05-01T14:39:17.346Z</time></trkpt><trkpt lat="42.4630124" lon="14.1216154"><ele>158.66666666666666</ele><time>2026-05-01T14:39:18.346Z</time></trkpt><trkpt lat="42.4631834" lon="14.121738"><ele>155.0</ele><time>2026-05-01T14:39:19.346Z</time></trkpt><trkpt lat="42.4633452" lon="14.1218616"><ele>155.0</ele><time>2026-05-01T14:39:20.346Z</time></trkpt><trkpt lat="42.4635016" lon="14.1219817"><ele>155.0</ele><time>2026-05-01T14:39:21.347Z</time></trkpt><trkpt lat="42.4636423" lon="14.1220982"><ele>155.0</ele><time>2026-05-01T14:39:22.345Z</time></trkpt><trkpt lat="42.463771" lon="14.1222209"><ele>153.66666666666666</ele><time>2026-05-01T14:39:23.347Z</time></trkpt><trkpt lat="42.4638802" lon="14.1223542"><ele>152.33333333333334</ele><time>2026-05-01T14:39:24.347Z</time></trkpt><trkpt lat="42.4639785" lon="14.1225102"><ele>151.0</ele><time>2026-05-01T14:39:25.346Z</time></trkpt><trkpt lat="42.4640752" lon="14.1226809"><ele>150.33333333333334</ele><time>2026-05-01T14:39:26.346Z</time></trkpt><trkpt lat="42.4641639" lon="14.1228678"><ele>149.66666666666666</ele><time>2026-05-01T14:39:27.345Z</time></trkpt><trkpt lat="42.4642372" lon="14.1230717"><ele>149.0</ele><time>2026-05-01T14:39:28.347Z</time></trkpt><trkpt lat="42.4643049" lon="14.1232974"><ele>149.0</ele><time>2026-05-01T14:39:29.345Z</time></trkpt><trkpt lat="42.4643635" lon="14.1235353"><ele>149.0</ele><time>2026-05-01T14:39:30.346Z</time></trkpt><trkpt lat="42.4644289" lon="14.1237689"><ele>149.0</ele><time>2026-05-01T14:39:31.346Z</time></trkpt><trkpt lat="42.4645097" lon="14.1239862"><ele>147.33333333333331</ele><time>2026-05-01T14:39:32.345Z</time></trkpt><trkpt lat="42.4646027" lon="14.1241771"><ele>145.66666666666666</ele><time>2026-05-01T14:39:33.346Z</time></trkpt><trkpt lat="42.4647194" lon="14.1243588"><ele>144.0</ele><time>2026-05-01T14:39:34.346Z</time></trkpt><trkpt lat="42.4648584" lon="14.1245307"><ele>143.0</ele><time>2026-05-01T14:39:35.346Z</time></trkpt><trkpt lat="42.4649934" lon="14.1247107"><ele>142.0</ele><time>2026-05-01T14:39:36.345Z</time></trkpt><trkpt lat="42.4651119" lon="14.1249299"><ele>141.0</ele><time>2026-05-01T14:39:37.346Z</time></trkpt><trkpt lat="42.465237" lon="14.1251405"><ele>139.33333333333334</ele><time>2026-05-01T14:39:38.346Z</time></trkpt><trkpt lat="42.465356" lon="14.1253417"><ele>137.66666666666669</ele><time>2026-05-01T14:39:39.346Z</time></trkpt><trkpt lat="42.465485" lon="14.1255367"><ele>136.0</ele><time>2026-05-01T14:39:40.345Z</time></trkpt><trkpt lat="42.4656223" lon="14.1257178"><ele>138.33333333333334</ele><time>2026-05-01T14:39:41.345Z</time></trkpt><trkpt lat="42.4657618" lon="14.1258728"><ele>140.66666666666666</ele><time>2026-05-01T14:39:42.346Z</time></trkpt><trkpt lat="42.4659088" lon="14.1259992"><ele>143.0</ele><time>2026-05-01T14:39:43.346Z</time></trkpt><trkpt lat="42.4660648" lon="14.1260816"><ele>143.0</ele><time>2026-05-01T14:39:44.346Z</time></trkpt><trkpt lat="42.4662407" lon="14.1261266"><ele>143.0</ele><time>2026-05-01T14:39:45.346Z</time></trkpt><trkpt lat="42.4664023" lon="14.1261577"><ele>143.0</ele><time>2026-05-01T14:39:46.346Z</time></trkpt><trkpt lat="42.4665462" lon="14.1262014"><ele>142.0</ele><time>2026-05-01T14:39:47.346Z</time></trkpt><trkpt lat="42.4666703" lon="14.1262717"><ele>141.0</ele><time>2026-05-01T14:39:48.345Z</time></trkpt><trkpt lat="42.4667748" lon="14.1263931"><ele>140.0</ele><time>2026-05-01T14:39:49.346Z</time></trkpt><trkpt lat="42.4668688" lon="14.1265585"><ele>139.0</ele><time>2026-05-01T14:39:50.346Z</time></trkpt><trkpt lat="42.4669662" lon="14.1267544"><ele>139.0</ele><time>2026-05-01T14:39:51.346Z</time></trkpt><trkpt lat="42.4670704" lon="14.1269541"><ele>139.0</ele><time>2026-05-01T14:39:52.347Z</time></trkpt><trkpt lat="42.4671793" lon="14.1271843"><ele>139.0</ele><time>2026-05-01T14:39:53.346Z</time></trkpt><trkpt lat="42.4672885" lon="14.1274311"><ele>141.0</ele><time>2026-05-01T14:39:54.346Z</time></trkpt><trkpt lat="42.4673895" lon="14.1276854"><ele>143.0</ele><time>2026-05-01T14:39:55.345Z</time></trkpt><trkpt lat="42.4674797" lon="14.1279319"><ele>145.0</ele><time>2026-05-01T14:39:56.347Z</time></trkpt><trkpt lat="42.4675678" lon="14.1281586"><ele>145.66666666666669</ele><time>2026-05-01T14:39:57.346Z</time></trkpt><trkpt lat="42.4676473" lon="14.1283668"><ele>146.33333333333334</ele><time>2026-05-01T14:39:58.346Z</time></trkpt><trkpt lat="42.4677265" lon="14.1285363"><ele>147.0</ele><time>2026-05-01T14:39:59.346Z</time></trkpt><trkpt lat="42.4678282" lon="14.1286581"><ele>150.33333333333334</ele><time>2026-05-01T14:40:00.347Z</time></trkpt><trkpt lat="42.4679567" lon="14.1287533"><ele>153.66666666666669</ele><time>2026-05-01T14:40:01.347Z</time></trkpt><trkpt lat="42.4681177" lon="14.1288282"><ele>157.0</ele><time>2026-05-01T14:40:02.347Z</time></trkpt><trkpt lat="42.4683022" lon="14.1288963"><ele>157.0</ele><time>2026-05-01T14:40:03.346Z</time></trkpt><trkpt lat="42.4685058" lon="14.1289703"><ele>157.0</ele><time>2026-05-01T14:40:04.347Z</time></trkpt><trkpt lat="42.4687001" lon="14.1290362"><ele>157.0</ele><time>2026-05-01T14:40:05.347Z</time></trkpt><trkpt lat="42.4688846" lon="14.1291044"><ele>154.66666666666669</ele><time>2026-05-01T14:40:06.346Z</time></trkpt><trkpt lat="42.4690629" lon="14.1291735"><ele>152.33333333333334</ele><time>2026-05-01T14:40:07.345Z</time></trkpt><trkpt lat="42.4692315" lon="14.1292627"><ele>150.0</ele><time>2026-05-01T14:40:08.345Z</time></trkpt><trkpt lat="42.4693951" lon="14.1293842"><ele>150.0</ele><time>2026-05-01T14:40:09.345Z</time></trkpt><trkpt lat="42.4695609" lon="14.1295427"><ele>150.0</ele><time>2026-05-01T14:40:10.345Z</time></trkpt><trkpt lat="42.4697314" lon="14.1297264"><ele>150.0</ele><time>2026-05-01T14:40:11.347Z</time></trkpt><trkpt lat="42.46991" lon="14.1299299"><ele>150.0</ele><time>2026-05-01T14:40:12.346Z</time></trkpt><trkpt lat="42.4700894" lon="14.1301453"><ele>150.0</ele><time>2026-05-01T14:40:13.345Z</time></trkpt><trkpt lat="42.4702795" lon="14.1303723"><ele>147.0</ele><time>2026-05-01T14:40:14.345Z</time></trkpt><trkpt lat="42.470473" lon="14.1306035"><ele>144.0</ele><time>2026-05-01T14:40:15.345Z</time></trkpt><trkpt lat="42.4706597" lon="14.1308279"><ele>144.0</ele><time>2026-05-01T14:40:16.347Z</time></trkpt><trkpt lat="42.4708378" lon="14.1310418"><ele>144.0</ele><time>2026-05-01T14:40:17.346Z</time></trkpt><trkpt lat="42.4710054" lon="14.1312482"><ele>144.0</ele><time>2026-05-01T14:40:18.346Z</time></trkpt><trkpt lat="42.4711473" lon="14.1314424"><ele>144.0</ele><time>2026-05-01T14:40:19.346Z</time></trkpt><trkpt lat="42.4712787" lon="14.1316189"><ele>144.0</ele><time>2026-05-01T14:40:20.346Z</time></trkpt><trkpt lat="42.471387" lon="14.1317765"><ele>143.33333333333334</ele><time>2026-05-01T14:40:21.346Z</time></trkpt><trkpt lat="42.4714715" lon="14.1319509"><ele>142.66666666666669</ele><time>2026-05-01T14:40:22.345Z</time></trkpt><trkpt lat="42.4715187" lon="14.1321479"><ele>142.0</ele><time>2026-05-01T14:40:23.346Z</time></trkpt><trkpt lat="42.4715392" lon="14.1323713"><ele>144.0</ele><time>2026-05-01T14:40:24.346Z</time></trkpt><trkpt lat="42.4715552" lon="14.1326141"><ele>146.0</ele><time>2026-05-01T14:40:25.346Z</time></trkpt><trkpt lat="42.471592" lon="14.1328325"><ele>148.0</ele><time>2026-05-01T14:40:26.346Z</time></trkpt><trkpt lat="42.4716481" lon="14.133016"><ele>148.0</ele><time>2026-05-01T14:40:27.346Z</time></trkpt><trkpt lat="42.4717281" lon="14.1331705"><ele>148.0</ele><time>2026-05-01T14:40:28.345Z</time></trkpt><trkpt lat="42.4718349" lon="14.1332846"><ele>148.0</ele><time>2026-05-01T14:40:29.345Z</time></trkpt><trkpt lat="42.4719612" lon="14.1333484"><ele>148.0</ele><time>2026-05-01T14:40:30.344Z</time></trkpt><trkpt lat="42.4721058" lon="14.1333672"><ele>150.5</ele><time>2026-05-01T14:40:31.345Z</time></trkpt><trkpt lat="42.472261" lon="14.1333736"><ele>153.0</ele><time>2026-05-01T14:40:32.345Z</time></trkpt><trkpt lat="42.472397" lon="14.1334034"><ele>155.5</ele><time>2026-05-01T14:40:33.344Z</time></trkpt><trkpt lat="42.4725234" lon="14.1334723"><ele>158.0</ele><time>2026-05-01T14:40:34.345Z</time></trkpt><trkpt lat="42.4726445" lon="14.1335871"><ele>158.0</ele><time>2026-05-01T14:40:35.346Z</time></trkpt><trkpt lat="42.4727702" lon="14.1337223"><ele>158.0</ele><time>2026-05-01T14:40:36.345Z</time></trkpt><trkpt lat="42.4729137" lon="14.13384"><ele>158.0</ele><time>2026-05-01T14:40:37.345Z</time></trkpt><trkpt lat="42.4730617" lon="14.133953"><ele>160.66666666666666</ele><time>2026-05-01T14:40:38.346Z</time></trkpt><trkpt lat="42.4732062" lon="14.1340772"><ele>163.33333333333334</ele><time>2026-05-01T14:40:39.344Z</time></trkpt><trkpt lat="42.4733395" lon="14.1342256"><ele>166.0</ele><time>2026-05-01T14:40:40.345Z</time></trkpt><trkpt lat="42.4734498" lon="14.1343804"><ele>166.0</ele><time>2026-05-01T14:40:41.345Z</time></trkpt><trkpt lat="42.4735308" lon="14.134539"><ele>166.0</ele><time>2026-05-01T14:40:42.345Z</time></trkpt><trkpt lat="42.4735696" lon="14.1346928"><ele>166.0</ele><time>2026-05-01T14:40:43.345Z</time></trkpt><trkpt lat="42.473599" lon="14.1348731"><ele>166.0</ele><time>2026-05-01T14:40:44.345Z</time></trkpt><trkpt lat="42.4736303" lon="14.1350312"><ele>164.0</ele><time>2026-05-01T14:40:45.344Z</time></trkpt><trkpt lat="42.4736683" lon="14.135179"><ele>162.0</ele><time>2026-05-01T14:40:46.345Z</time></trkpt><trkpt lat="42.4737228" lon="14.1353111"><ele>160.0</ele><time>2026-05-01T14:40:47.344Z</time></trkpt><trkpt lat="42.4737912" lon="14.1354255"><ele>158.0</ele><time>2026-05-01T14:40:48.345Z</time></trkpt><trkpt lat="42.4738861" lon="14.1355118"><ele>160.0</ele><time>2026-05-01T14:40:49.345Z</time></trkpt><trkpt lat="42.4740077" lon="14.1355719"><ele>162.0</ele><time>2026-05-01T14:40:50.344Z</time></trkpt><trkpt lat="42.4741421" lon="14.1356286"><ele>164.0</ele><time>2026-05-01T14:40:51.344Z</time></trkpt><trkpt lat="42.4742706" lon="14.1357004"><ele>166.0</ele><time>2026-05-01T14:40:52.344Z</time></trkpt><trkpt lat="42.4743893" lon="14.1358003"><ele>166.0</ele><time>2026-05-01T14:40:53.345Z</time></trkpt><trkpt lat="42.4744943" lon="14.1359033"><ele>166.0</ele><time>2026-05-01T14:40:54.345Z</time></trkpt><trkpt lat="42.4745919" lon="14.1359823"><ele>166.0</ele><time>2026-05-01T14:40:55.345Z</time></trkpt><trkpt lat="42.4746963" lon="14.1360525"><ele>166.0</ele><time>2026-05-01T14:40:56.345Z</time></trkpt><trkpt lat="42.4748006" lon="14.1361046"><ele>169.4</ele><time>2026-05-01T14:40:57.345Z</time></trkpt><trkpt lat="42.4748993" lon="14.1361406"><ele>172.8</ele><time>2026-05-01T14:40:58.346Z</time></trkpt><trkpt lat="42.4749962" lon="14.1361721"><ele>176.20000000000002</ele><time>2026-05-01T14:40:59.345Z</time></trkpt><trkpt lat="42.475092" lon="14.1362161"><ele>179.60000000000002</ele><time>2026-05-01T14:41:00.345Z</time></trkpt><trkpt lat="42.4751746" lon="14.1362917"><ele>183.0</ele><time>2026-05-01T14:41:01.344Z</time></trkpt><trkpt lat="42.4752506" lon="14.1363888"><ele>183.0</ele><time>2026-05-01T14:41:02.345Z</time></trkpt><trkpt lat="42.4753134" lon="14.1365057"><ele>183.0</ele><time>2026-05-01T14:41:03.344Z</time></trkpt><trkpt lat="42.475392" lon="14.136614"><ele>183.0</ele><time>2026-05-01T14:41:04.345Z</time></trkpt><trkpt lat="42.4754828" lon="14.1367312"><ele>183.0</ele><time>2026-05-01T14:41:05.345Z</time></trkpt><trkpt lat="42.4756085" lon="14.1368002"><ele>183.0</ele><time>2026-05-01T14:41:06.345Z</time></trkpt><trkpt lat="42.4757652" lon="14.1368994"><ele>183.0</ele><time>2026-05-01T14:41:07.346Z</time></trkpt><trkpt lat="42.475946" lon="14.1370121"><ele>183.0</ele><time>2026-05-01T14:41:08.344Z</time></trkpt><trkpt lat="42.4761313" lon="14.1371375"><ele>181.66666666666666</ele><time>2026-05-01T14:41:09.345Z</time></trkpt><trkpt lat="42.4763057" lon="14.1372496"><ele>180.33333333333331</ele><time>2026-05-01T14:41:10.345Z</time></trkpt><trkpt lat="42.476471" lon="14.1373366"><ele>179.0</ele><time>2026-05-01T14:41:11.345Z</time></trkpt><trkpt lat="42.4766453" lon="14.1373971"><ele>179.0</ele><time>2026-05-01T14:41:12.346Z</time></trkpt><trkpt lat="42.4768274" lon="14.1374384"><ele>179.0</ele><time>2026-05-01T14:41:13.345Z</time></trkpt><trkpt lat="42.4770124" lon="14.1374628"><ele>179.0</ele><time>2026-05-01T14:41:14.344Z</time></trkpt><trkpt lat="42.4771954" lon="14.1374664"><ele>180.0</ele><time>2026-05-01T14:41:15.346Z</time></trkpt><trkpt lat="42.4773843" lon="14.1374446"><ele>181.0</ele><time>2026-05-01T14:41:16.346Z</time></trkpt><trkpt lat="42.4775886" lon="14.1373901"><ele>182.0</ele><time>2026-05-01T14:41:17.345Z</time></trkpt><trkpt lat="42.4777793" lon="14.1373133"><ele>177.33333333333331</ele><time>2026-05-01T14:41:18.345Z</time></trkpt><trkpt lat="42.4779371" lon="14.1372548"><ele>172.66666666666666</ele><time>2026-05-01T14:41:19.345Z</time></trkpt><trkpt lat="42.4780897" lon="14.1372212"><ele>168.0</ele><time>2026-05-01T14:41:20.345Z</time></trkpt><trkpt lat="42.4782244" lon="14.1372126"><ele>168.0</ele><time>2026-05-01T14:41:21.344Z</time></trkpt><trkpt lat="42.4783655" lon="14.1372482"><ele>168.0</ele><time>2026-05-01T14:41:22.345Z</time></trkpt><trkpt lat="42.4785044" lon="14.137305"><ele>168.0</ele><time>2026-05-01T14:41:23.345Z</time></trkpt><trkpt lat="42.4786459" lon="14.1373249"><ele>168.0</ele><time>2026-05-01T14:41:24.345Z</time></trkpt><trkpt lat="42.4787875" lon="14.1373027"><ele>167.66666666666666</ele><time>2026-05-01T14:41:25.344Z</time></trkpt><trkpt lat="42.4789439" lon="14.1372376"><ele>167.33333333333331</ele><time>2026-05-01T14:41:26.345Z</time></trkpt><trkpt lat="42.4790875" lon="14.1371545"><ele>167.0</ele><time>2026-05-01T14:41:27.345Z</time></trkpt><trkpt lat="42.4792096" lon="14.1370386"><ele>167.0</ele><time>2026-05-01T14:41:28.346Z</time></trkpt><trkpt lat="42.479319" lon="14.1368785"><ele>167.0</ele><time>2026-05-01T14:41:29.345Z</time></trkpt><trkpt lat="42.4794304" lon="14.1367009"><ele>167.0</ele><time>2026-05-01T14:41:30.345Z</time></trkpt><trkpt lat="42.4795446" lon="14.1365096"><ele>166.33333333333331</ele><time>2026-05-01T14:41:31.345Z</time></trkpt><trkpt lat="42.4796744" lon="14.1363418"><ele>165.66666666666666</ele><time>2026-05-01T14:41:32.344Z</time></trkpt><trkpt lat="42.4797857" lon="14.1361595"><ele>165.0</ele><time>2026-05-01T14:41:33.344Z</time></trkpt><trkpt lat="42.4798717" lon="14.1359491"><ele>165.0</ele><time>2026-05-01T14:41:34.345Z</time></trkpt><trkpt lat="42.4799434" lon="14.1357208"><ele>165.0</ele><time>2026-05-01T14:41:35.345Z</time></trkpt><trkpt lat="42.4800089" lon="14.1355118"><ele>165.0</ele><time>2026-05-01T14:41:36.345Z</time></trkpt><trkpt lat="42.4800897" lon="14.1353261"><ele>162.33333333333334</ele><time>2026-05-01T14:41:37.345Z</time></trkpt><trkpt lat="42.4801857" lon="14.1351702"><ele>159.66666666666669</ele><time>2026-05-01T14:41:38.346Z</time></trkpt><trkpt lat="42.4802876" lon="14.1350131"><ele>157.0</ele><time>2026-05-01T14:41:39.345Z</time></trkpt><trkpt lat="42.4804301" lon="14.1349241"><ele>157.25</ele><time>2026-05-01T14:41:40.345Z</time></trkpt><trkpt lat="42.4805472" lon="14.1348408"><ele>157.5</ele><time>2026-05-01T14:41:41.345Z</time></trkpt><trkpt lat="42.480658" lon="14.1347998"><ele>157.75</ele><time>2026-05-01T14:41:42.345Z</time></trkpt><trkpt lat="42.4807715" lon="14.1347826"><ele>158.0</ele><time>2026-05-01T14:41:43.345Z</time></trkpt><trkpt lat="42.480874" lon="14.1348889"><ele>158.0</ele><time>2026-05-01T14:41:44.345Z</time></trkpt><trkpt lat="42.4809826" lon="14.1350115"><ele>158.0</ele><time>2026-05-01T14:41:45.345Z</time></trkpt><trkpt lat="42.4810695" lon="14.1351484"><ele>158.0</ele><time>2026-05-01T14:41:46.345Z</time></trkpt><trkpt lat="42.4811497" lon="14.1353181"><ele>158.0</ele><time>2026-05-01T14:41:47.345Z</time></trkpt><trkpt lat="42.4812205" lon="14.1355222"><ele>154.33333333333331</ele><time>2026-05-01T14:41:48.344Z</time></trkpt><trkpt lat="42.4813133" lon="14.1357598"><ele>150.66666666666666</ele><time>2026-05-01T14:41:49.345Z</time></trkpt><trkpt lat="42.4813896" lon="14.1359954"><ele>147.0</ele><time>2026-05-01T14:41:50.344Z</time></trkpt><trkpt lat="42.4814539" lon="14.1361933"><ele>147.0</ele><time>2026-05-01T14:41:51.345Z</time></trkpt><trkpt lat="42.4815249" lon="14.1363559"><ele>147.0</ele><time>2026-05-01T14:41:52.344Z</time></trkpt><trkpt lat="42.4816053" lon="14.1364729"><ele>147.0</ele><time>2026-05-01T14:41:53.345Z</time></trkpt><trkpt lat="42.4817103" lon="14.1365349"><ele>147.0</ele><time>2026-05-01T14:41:54.345Z</time></trkpt><trkpt lat="42.4818316" lon="14.1365462"><ele>147.0</ele><time>2026-05-01T14:41:55.345Z</time></trkpt><trkpt lat="42.4819459" lon="14.1364983"><ele>147.0</ele><time>2026-05-01T14:41:56.345Z</time></trkpt><trkpt lat="42.4820391" lon="14.1363954"><ele>147.0</ele><time>2026-05-01T14:41:57.345Z</time></trkpt><trkpt lat="42.4821112" lon="14.1362357"><ele>147.0</ele><time>2026-05-01T14:41:58.344Z</time></trkpt><trkpt lat="42.482168" lon="14.1360259"><ele>145.33333333333334</ele><time>2026-05-01T14:41:59.345Z</time></trkpt><trkpt lat="42.4822225" lon="14.1357797"><ele>143.66666666666669</ele><time>2026-05-01T14:42:00.345Z</time></trkpt><trkpt lat="42.4822844" lon="14.1354979"><ele>142.0</ele><time>2026-05-01T14:42:01.345Z</time></trkpt><trkpt lat="42.4823483" lon="14.1351997"><ele>139.5</ele><time>2026-05-01T14:42:02.344Z</time></trkpt><trkpt lat="42.4824149" lon="14.1348873"><ele>137.0</ele><time>2026-05-01T14:42:03.344Z</time></trkpt><trkpt lat="42.4824772" lon="14.1345967"><ele>137.0</ele><time>2026-05-01T14:42:04.344Z</time></trkpt><trkpt lat="42.4825341" lon="14.1343188"><ele>137.0</ele><time>2026-05-01T14:42:05.345Z</time></trkpt><trkpt lat="42.4825891" lon="14.1340661"><ele>137.0</ele><time>2026-05-01T14:42:06.344Z</time></trkpt><trkpt lat="42.4826397" lon="14.1338439"><ele>136.0</ele><time>2026-05-01T14:42:07.344Z</time></trkpt><trkpt lat="42.4826984" lon="14.133633"><ele>135.0</ele><time>2026-05-01T14:42:08.344Z</time></trkpt><trkpt lat="42.4827653" lon="14.1334655"><ele>134.0</ele><time>2026-05-01T14:42:09.344Z</time></trkpt><trkpt lat="42.4828467" lon="14.1333385"><ele>133.0</ele><time>2026-05-01T14:42:10.345Z</time></trkpt><trkpt lat="42.482966" lon="14.1332421"><ele>131.66666666666669</ele><time>2026-05-01T14:42:11.344Z</time></trkpt><trkpt lat="42.4831194" lon="14.1331575"><ele>130.33333333333334</ele><time>2026-05-01T14:42:12.344Z</time></trkpt><trkpt lat="42.4832952" lon="14.1330741"><ele>129.0</ele><time>2026-05-01T14:42:13.344Z</time></trkpt><trkpt lat="42.4834869" lon="14.13298"><ele>129.0</ele><time>2026-05-01T14:42:14.344Z</time></trkpt><trkpt lat="42.4836921" lon="14.1328817"><ele>129.0</ele><time>2026-05-01T14:42:15.345Z</time></trkpt><trkpt lat="42.4839048" lon="14.1327798"><ele>129.0</ele><time>2026-05-01T14:42:16.344Z</time></trkpt><trkpt lat="42.4841103" lon="14.1326814"><ele>127.66666666666666</ele><time>2026-05-01T14:42:17.344Z</time></trkpt><trkpt lat="42.4843069" lon="14.1325872"><ele>126.33333333333333</ele><time>2026-05-01T14:42:18.346Z</time></trkpt><trkpt lat="42.4844887" lon="14.1324977"><ele>125.0</ele><time>2026-05-01T14:42:19.346Z</time></trkpt><trkpt lat="42.4846582" lon="14.1324191"><ele>123.5</ele><time>2026-05-01T14:42:20.344Z</time></trkpt><trkpt lat="42.4848056" lon="14.132359"><ele>122.0</ele><time>2026-05-01T14:42:21.345Z</time></trkpt><trkpt lat="42.4849484" lon="14.1323214"><ele>120.5</ele><time>2026-05-01T14:42:22.344Z</time></trkpt><trkpt lat="42.485093" lon="14.1323281"><ele>119.0</ele><time>2026-05-01T14:42:23.344Z</time></trkpt><trkpt lat="42.485232" lon="14.1323828"><ele>119.33333333333333</ele><time>2026-05-01T14:42:24.345Z</time></trkpt><trkpt lat="42.4853626" lon="14.1324786"><ele>119.66666666666666</ele><time>2026-05-01T14:42:25.345Z</time></trkpt><trkpt lat="42.4854974" lon="14.1326154"><ele>120.0</ele><time>2026-05-01T14:42:26.344Z</time></trkpt><trkpt lat="42.4856368" lon="14.132779"><ele>119.33333333333334</ele><time>2026-05-01T14:42:27.344Z</time></trkpt><trkpt lat="42.4857864" lon="14.1329583"><ele>118.66666666666667</ele><time>2026-05-01T14:42:28.344Z</time></trkpt><trkpt lat="42.4859424" lon="14.1331434"><ele>118.0</ele><time>2026-05-01T14:42:29.344Z</time></trkpt><trkpt lat="42.4860897" lon="14.1333154"><ele>117.66666666666667</ele><time>2026-05-01T14:42:30.345Z</time></trkpt><trkpt lat="42.4862179" lon="14.1334706"><ele>117.33333333333334</ele><time>2026-05-01T14:42:31.345Z</time></trkpt><trkpt lat="42.4863346" lon="14.1336074"><ele>117.0</ele><time>2026-05-01T14:42:32.345Z</time></trkpt><trkpt lat="42.4864373" lon="14.133732"><ele>117.0</ele><time>2026-05-01T14:42:33.345Z</time></trkpt><trkpt lat="42.4865234" lon="14.1338432"><ele>117.0</ele><time>2026-05-01T14:42:34.344Z</time></trkpt><trkpt lat="42.4865886" lon="14.1339594"><ele>117.0</ele><time>2026-05-01T14:42:35.344Z</time></trkpt><trkpt lat="42.4866374" lon="14.1340967"><ele>117.0</ele><time>2026-05-01T14:42:36.345Z</time></trkpt><trkpt lat="42.4866746" lon="14.1342699"><ele>117.0</ele><time>2026-05-01T14:42:37.344Z</time></trkpt><trkpt lat="42.4867141" lon="14.1344792"><ele>117.0</ele><time>2026-05-01T14:42:38.344Z</time></trkpt><trkpt lat="42.4867572" lon="14.1347112"><ele>117.0</ele><time>2026-05-01T14:42:39.344Z</time></trkpt><trkpt lat="42.4867995" lon="14.1349715"><ele>117.0</ele><time>2026-05-01T14:42:40.345Z</time></trkpt><trkpt lat="42.486847" lon="14.135233"><ele>117.0</ele><time>2026-05-01T14:42:41.344Z</time></trkpt><trkpt lat="42.4868965" lon="14.1354847"><ele>117.0</ele><time>2026-05-01T14:42:42.344Z</time></trkpt><trkpt lat="42.4869561" lon="14.1357322"><ele>116.66666666666666</ele><time>2026-05-01T14:42:43.344Z</time></trkpt><trkpt lat="42.4870338" lon="14.1359865"><ele>116.33333333333333</ele><time>2026-05-01T14:42:44.345Z</time></trkpt><trkpt lat="42.4871276" lon="14.1362352"><ele>116.0</ele><time>2026-05-01T14:42:45.345Z</time></trkpt><trkpt lat="42.4872202" lon="14.1364711"><ele>118.66666666666666</ele><time>2026-05-01T14:42:46.344Z</time></trkpt><trkpt lat="42.4873098" lon="14.1367137"><ele>121.33333333333334</ele><time>2026-05-01T14:42:47.344Z</time></trkpt><trkpt lat="42.4873959" lon="14.1369438"><ele>124.0</ele><time>2026-05-01T14:42:48.346Z</time></trkpt><trkpt lat="42.4874717" lon="14.1371792"><ele>124.0</ele><time>2026-05-01T14:42:49.346Z</time></trkpt><trkpt lat="42.4875449" lon="14.1374188"><ele>124.0</ele><time>2026-05-01T14:42:50.345Z</time></trkpt><trkpt lat="42.4876099" lon="14.13766"><ele>124.0</ele><time>2026-05-01T14:42:51.344Z</time></trkpt><trkpt lat="42.4876405" lon="14.1378974"><ele>124.0</ele><time>2026-05-01T14:42:52.344Z</time></trkpt><trkpt lat="42.4876409" lon="14.1381217"><ele>124.0</ele><time>2026-05-01T14:42:53.344Z</time></trkpt><trkpt lat="42.4876286" lon="14.1383127"><ele>124.0</ele><time>2026-05-01T14:42:54.343Z</time></trkpt><trkpt lat="42.4876296" lon="14.1384679"><ele>124.0</ele><time>2026-05-01T14:42:55.343Z</time></trkpt><trkpt lat="42.4876532" lon="14.1386339"><ele>124.25</ele><time>2026-05-01T14:42:56.343Z</time></trkpt><trkpt lat="42.4877089" lon="14.1388079"><ele>124.5</ele><time>2026-05-01T14:42:57.344Z</time></trkpt><trkpt lat="42.4877899" lon="14.138979"><ele>124.75</ele><time>2026-05-01T14:42:58.345Z</time></trkpt><trkpt lat="42.4878918" lon="14.1391271"><ele>125.0</ele><time>2026-05-01T14:42:59.345Z</time></trkpt><trkpt lat="42.4880127" lon="14.1392393"><ele>128.0</ele><time>2026-05-01T14:43:00.344Z</time></trkpt><trkpt lat="42.4881535" lon="14.1393134"><ele>131.0</ele><time>2026-05-01T14:43:01.344Z</time></trkpt><trkpt lat="42.4883093" lon="14.139372"><ele>134.0</ele><time>2026-05-01T14:43:02.343Z</time></trkpt><trkpt lat="42.4884611" lon="14.1393924"><ele>134.0</ele><time>2026-05-01T14:43:03.344Z</time></trkpt><trkpt lat="42.4885969" lon="14.139375"><ele>134.0</ele><time>2026-05-01T14:43:04.344Z</time></trkpt><trkpt lat="42.4887181" lon="14.1393758"><ele>134.0</ele><time>2026-05-01T14:43:05.344Z</time></trkpt><trkpt lat="42.4888261" lon="14.1393884"><ele>134.0</ele><time>2026-05-01T14:43:06.345Z</time></trkpt><trkpt lat="42.4889183" lon="14.1394205"><ele>134.5</ele><time>2026-05-01T14:43:07.343Z</time></trkpt><trkpt lat="42.4890019" lon="14.1394665"><ele>135.0</ele><time>2026-05-01T14:43:08.343Z</time></trkpt><trkpt lat="42.4890807" lon="14.1395291"><ele>135.5</ele><time>2026-05-01T14:43:09.344Z</time></trkpt><trkpt lat="42.4891514" lon="14.1395878"><ele>136.0</ele><time>2026-05-01T14:43:10.344Z</time></trkpt><trkpt lat="42.4892207" lon="14.1396219"><ele>136.5</ele><time>2026-05-01T14:43:11.344Z</time></trkpt><trkpt lat="42.4892945" lon="14.1396216"><ele>137.0</ele><time>2026-05-01T14:43:12.344Z</time></trkpt><trkpt lat="42.489367" lon="14.1395772"><ele>137.0</ele><time>2026-05-01T14:43:13.344Z</time></trkpt><trkpt lat="42.4894425" lon="14.1395092"><ele>137.0</ele><time>2026-05-01T14:43:14.344Z</time></trkpt><trkpt lat="42.4895479" lon="14.1394786"><ele>137.0</ele><time>2026-05-01T14:43:15.344Z</time></trkpt><trkpt lat="42.4896624" lon="14.1394692"><ele>137.0</ele><time>2026-05-01T14:43:16.343Z</time></trkpt><trkpt lat="42.4897982" lon="14.1394712"><ele>137.0</ele><time>2026-05-01T14:43:17.343Z</time></trkpt><trkpt lat="42.4899433" lon="14.139473"><ele>138.33333333333331</ele><time>2026-05-01T14:43:18.343Z</time></trkpt><trkpt lat="42.4901044" lon="14.1394795"><ele>139.66666666666666</ele><time>2026-05-01T14:43:19.344Z</time></trkpt><trkpt lat="42.4902705" lon="14.1394873"><ele>141.0</ele><time>2026-05-01T14:43:20.344Z</time></trkpt><trkpt lat="42.4904134" lon="14.1394928"><ele>143.0</ele><time>2026-05-01T14:43:21.344Z</time></trkpt><trkpt lat="42.4905443" lon="14.1395083"><ele>145.0</ele><time>2026-05-01T14:43:22.344Z</time></trkpt><trkpt lat="42.4906526" lon="14.1395231"><ele>147.0</ele><time>2026-05-01T14:43:23.344Z</time></trkpt><trkpt lat="42.4907456" lon="14.1395595"><ele>149.0</ele><time>2026-05-01T14:43:24.345Z</time></trkpt><trkpt lat="42.490813" lon="14.1396139"><ele>151.0</ele><time>2026-05-01T14:43:25.344Z</time></trkpt><trkpt lat="42.4908613" lon="14.1396965"><ele>151.0</ele><time>2026-05-01T14:43:26.344Z</time></trkpt><trkpt lat="42.4908811" lon="14.1398069"><ele>151.0</ele><time>2026-05-01T14:43:27.345Z</time></trkpt><trkpt lat="42.4908854" lon="14.1399514"><ele>151.0</ele><time>2026-05-01T14:43:28.343Z</time></trkpt><trkpt lat="42.4908859" lon="14.1401212"><ele>151.0</ele><time>2026-05-01T14:43:29.344Z</time></trkpt><trkpt lat="42.4908838" lon="14.1403124"><ele>152.0</ele><time>2026-05-01T14:43:30.344Z</time></trkpt><trkpt lat="42.4908858" lon="14.1404946"><ele>153.0</ele><time>2026-05-01T14:43:31.344Z</time></trkpt><trkpt lat="42.4908902" lon="14.1406501"><ele>154.0</ele><time>2026-05-01T14:43:32.344Z</time></trkpt><trkpt lat="42.490919" lon="14.1407704"><ele>155.0</ele><time>2026-05-01T14:43:33.345Z</time></trkpt><trkpt lat="42.4910208" lon="14.1408691"><ele>155.8</ele><time>2026-05-01T14:43:35.343Z</time></trkpt><trkpt lat="42.4910889" lon="14.1408502"><ele>156.6</ele><time>2026-05-01T14:43:36.343Z</time></trkpt><trkpt lat="42.49116" lon="14.1408228"><ele>157.4</ele><time>2026-05-01T14:43:37.344Z</time></trkpt><trkpt lat="42.4912254" lon="14.1407177"><ele>158.2</ele><time>2026-05-01T14:43:38.344Z</time></trkpt><trkpt lat="42.4912793" lon="14.1406063"><ele>159.0</ele><time>2026-05-01T14:43:39.344Z</time></trkpt><trkpt lat="42.4913505" lon="14.1404689"><ele>159.4</ele><time>2026-05-01T14:43:41.344Z</time></trkpt><trkpt lat="42.4914209" lon="14.1403472"><ele>159.8</ele><time>2026-05-01T14:43:43.343Z</time></trkpt><trkpt lat="42.4915274" lon="14.1403745"><ele>160.20000000000002</ele><time>2026-05-01T14:43:45.344Z</time></trkpt><trkpt lat="42.4915823" lon="14.140448"><ele>160.60000000000002</ele><time>2026-05-01T14:43:46.344Z</time></trkpt><trkpt lat="42.4916275" lon="14.1405575"><ele>161.0</ele><time>2026-05-01T14:43:47.344Z</time></trkpt><trkpt lat="42.4916678" lon="14.140705"><ele>161.0</ele><time>2026-05-01T14:43:48.345Z</time></trkpt><trkpt lat="42.4917133" lon="14.1408746"><ele>161.0</ele><time>2026-05-01T14:43:49.343Z</time></trkpt><trkpt lat="42.4917418" lon="14.1410341"><ele>161.0</ele><time>2026-05-01T14:43:50.343Z</time></trkpt><trkpt lat="42.4917716" lon="14.1411935"><ele>161.0</ele><time>2026-05-01T14:43:51.343Z</time></trkpt><trkpt lat="42.4917764" lon="14.1413629"><ele>161.0</ele><time>2026-05-01T14:43:52.343Z</time></trkpt><trkpt lat="42.491752" lon="14.1415407"><ele>161.0</ele><time>2026-05-01T14:43:53.344Z</time></trkpt><trkpt lat="42.4917264" lon="14.1417242"><ele>161.0</ele><time>2026-05-01T14:43:54.343Z</time></trkpt><trkpt lat="42.4916834" lon="14.1419007"><ele>161.0</ele><time>2026-05-01T14:43:55.345Z</time></trkpt><trkpt lat="42.4916287" lon="14.1420532"><ele>161.0</ele><time>2026-05-01T14:43:56.344Z</time></trkpt><trkpt lat="42.4916247" lon="14.1421712"><ele>161.0</ele><time>2026-05-01T14:43:57.344Z</time></trkpt><trkpt lat="42.4915963" lon="14.1423296"><ele>161.0</ele><time>2026-05-01T14:43:58.344Z</time></trkpt><trkpt lat="42.491607" lon="14.1424588"><ele>161.0</ele><time>2026-05-01T14:43:59.344Z</time></trkpt><trkpt lat="42.4916482" lon="14.1426187"><ele>161.0</ele><time>2026-05-01T14:44:00.343Z</time></trkpt><trkpt lat="42.491759" lon="14.142736"><ele>160.20000000000002</ele><time>2026-05-01T14:44:01.343Z</time></trkpt><trkpt lat="42.4917948" lon="14.1428679"><ele>159.4</ele><time>2026-05-01T14:44:02.345Z</time></trkpt><trkpt lat="42.4917354" lon="14.143001"><ele>158.6</ele><time>2026-05-01T14:44:03.344Z</time></trkpt><trkpt lat="42.4916803" lon="14.1431205"><ele>157.8</ele><time>2026-05-01T14:44:04.343Z</time></trkpt><trkpt lat="42.4916229" lon="14.1432363"><ele>157.0</ele><time>2026-05-01T14:44:05.344Z</time></trkpt><trkpt lat="42.49157" lon="14.1433384"><ele>156.0</ele><time>2026-05-01T14:44:06.344Z</time></trkpt><trkpt lat="42.4915475" lon="14.1434697"><ele>155.0</ele><time>2026-05-01T14:44:07.343Z</time></trkpt><trkpt lat="42.491533" lon="14.1435807"><ele>154.0</ele><time>2026-05-01T14:44:08.344Z</time></trkpt><trkpt lat="42.491533" lon="14.1437241"><ele>153.0</ele><time>2026-05-01T14:44:09.345Z</time></trkpt><trkpt lat="42.4916734" lon="14.1438585"><ele>154.33333333333334</ele><time>2026-05-01T14:44:10.344Z</time></trkpt><trkpt lat="42.4917869" lon="14.1440496"><ele>155.66666666666669</ele><time>2026-05-01T14:44:11.344Z</time></trkpt><trkpt lat="42.4918815" lon="14.1441723"><ele>157.0</ele><time>2026-05-01T14:44:12.344Z</time></trkpt><trkpt lat="42.4920517" lon="14.1442403"><ele>148.66666666666669</ele><time>2026-05-01T14:44:13.344Z</time></trkpt><trkpt lat="42.4922451" lon="14.1443374"><ele>140.33333333333334</ele><time>2026-05-01T14:44:14.343Z</time></trkpt><trkpt lat="42.492431" lon="14.1444055"><ele>132.0</ele><time>2026-05-01T14:44:15.344Z</time></trkpt><trkpt lat="42.4925939" lon="14.1445142"><ele>132.0</ele><time>2026-05-01T14:44:16.343Z</time></trkpt><trkpt lat="42.4927188" lon="14.1445775"><ele>132.0</ele><time>2026-05-01T14:44:17.345Z</time></trkpt><trkpt lat="42.4928348" lon="14.1446502"><ele>132.0</ele><time>2026-05-01T14:44:18.345Z</time></trkpt><trkpt lat="42.4929439" lon="14.1447407"><ele>132.0</ele><time>2026-05-01T14:44:19.344Z</time></trkpt><trkpt lat="42.493035" lon="14.1448832"><ele>133.25</ele><time>2026-05-01T14:44:20.344Z</time></trkpt><trkpt lat="42.4931316" lon="14.1450281"><ele>134.5</ele><time>2026-05-01T14:44:21.344Z</time></trkpt><trkpt lat="42.4932273" lon="14.1451423"><ele>135.75</ele><time>2026-05-01T14:44:22.344Z</time></trkpt><trkpt lat="42.4933228" lon="14.1452328"><ele>137.0</ele><time>2026-05-01T14:44:23.344Z</time></trkpt><trkpt lat="42.4934244" lon="14.1452889"><ele>137.0</ele><time>2026-05-01T14:44:24.344Z</time></trkpt><trkpt lat="42.4935251" lon="14.1453263"><ele>137.0</ele><time>2026-05-01T14:44:25.343Z</time></trkpt><trkpt lat="42.493609" lon="14.1453136"><ele>137.0</ele><time>2026-05-01T14:44:26.343Z</time></trkpt><trkpt lat="42.4937004" lon="14.1453232"><ele>137.0</ele><time>2026-05-01T14:44:27.344Z</time></trkpt><trkpt lat="42.493781" lon="14.1451569"><ele>137.0</ele><time>2026-05-01T14:44:28.343Z</time></trkpt><trkpt lat="42.4938532" lon="14.1450389"><ele>132.25</ele><time>2026-05-01T14:44:29.343Z</time></trkpt><trkpt lat="42.4938943" lon="14.1448628"><ele>127.5</ele><time>2026-05-01T14:44:30.345Z</time></trkpt><trkpt lat="42.4939536" lon="14.1446788"><ele>122.75</ele><time>2026-05-01T14:44:31.343Z</time></trkpt><trkpt lat="42.4939991" lon="14.1445047"><ele>118.0</ele><time>2026-05-01T14:44:32.343Z</time></trkpt><trkpt lat="42.4940449" lon="14.1443287"><ele>118.0</ele><time>2026-05-01T14:44:33.343Z</time></trkpt><trkpt lat="42.4940794" lon="14.1441752"><ele>118.0</ele><time>2026-05-01T14:44:34.344Z</time></trkpt><trkpt lat="42.4941944" lon="14.1440989"><ele>118.0</ele><time>2026-05-01T14:44:35.344Z</time></trkpt><trkpt lat="42.4942832" lon="14.1439828"><ele>118.0</ele><time>2026-05-01T14:44:36.343Z</time></trkpt><trkpt lat="42.4943961" lon="14.1438924"><ele>114.5</ele><time>2026-05-01T14:44:37.345Z</time></trkpt><trkpt lat="42.4945081" lon="14.1438222"><ele>111.0</ele><time>2026-05-01T14:44:38.343Z</time></trkpt><trkpt lat="42.4946453" lon="14.1438551"><ele>107.5</ele><time>2026-05-01T14:44:39.343Z</time></trkpt><trkpt lat="42.4948088" lon="14.1438587"><ele>104.0</ele><time>2026-05-01T14:44:40.344Z</time></trkpt><trkpt lat="42.4949599" lon="14.1438611"><ele>104.0</ele><time>2026-05-01T14:44:41.344Z</time></trkpt><trkpt lat="42.495153" lon="14.1438248"><ele>104.0</ele><time>2026-05-01T14:44:42.344Z</time></trkpt><trkpt lat="42.495335" lon="14.143746"><ele>104.0</ele><time>2026-05-01T14:44:43.344Z</time></trkpt><trkpt lat="42.4954912" lon="14.1436854"><ele>106.33333333333333</ele><time>2026-05-01T14:44:44.344Z</time></trkpt><trkpt lat="42.4956454" lon="14.1436021"><ele>108.66666666666666</ele><time>2026-05-01T14:44:45.343Z</time></trkpt><trkpt lat="42.4958049" lon="14.143507"><ele>111.0</ele><time>2026-05-01T14:44:46.344Z</time></trkpt><trkpt lat="42.4959761" lon="14.1433624"><ele>106.5</ele><time>2026-05-01T14:44:47.343Z</time></trkpt><trkpt lat="42.4961761" lon="14.1431443"><ele>102.0</ele><time>2026-05-01T14:44:48.345Z</time></trkpt><trkpt lat="42.4963511" lon="14.1430034"><ele>101.33333333333334</ele><time>2026-05-01T14:44:49.345Z</time></trkpt><trkpt lat="42.4965259" lon="14.1428546"><ele>100.66666666666667</ele><time>2026-05-01T14:44:50.343Z</time></trkpt><trkpt lat="42.4966933" lon="14.1427138"><ele>100.0</ele><time>2026-05-01T14:44:51.343Z</time></trkpt><trkpt lat="42.4968459" lon="14.1425673"><ele>100.0</ele><time>2026-05-01T14:44:52.343Z</time></trkpt><trkpt lat="42.4969868" lon="14.1424247"><ele>100.0</ele><time>2026-05-01T14:44:53.344Z</time></trkpt><trkpt lat="42.4971158" lon="14.1422826"><ele>100.0</ele><time>2026-05-01T14:44:54.344Z</time></trkpt><trkpt lat="42.4972283" lon="14.142151"><ele>97.0</ele><time>2026-05-01T14:44:55.344Z</time></trkpt><trkpt lat="42.4973408" lon="14.1420154"><ele>94.0</ele><time>2026-05-01T14:44:56.345Z</time></trkpt><trkpt lat="42.4974793" lon="14.1419863"><ele>91.0</ele><time>2026-05-01T14:44:58.343Z</time></trkpt><trkpt lat="42.4975474" lon="14.1420078"><ele>88.0</ele><time>2026-05-01T14:44:59.344Z</time></trkpt><trkpt lat="42.4975888" lon="14.1420765"><ele>85.0</ele><time>2026-05-01T14:45:00.344Z</time></trkpt><trkpt lat="42.4976001" lon="14.1421701"><ele>85.0</ele><time>2026-05-01T14:45:01.344Z</time></trkpt><trkpt lat="42.4975785" lon="14.1422827"><ele>85.0</ele><time>2026-05-01T14:45:02.343Z</time></trkpt><trkpt lat="42.4975176" lon="14.1424185"><ele>85.0</ele><time>2026-05-01T14:45:03.344Z</time></trkpt><trkpt lat="42.4974323" lon="14.1425706"><ele>85.0</ele><time>2026-05-01T14:45:04.344Z</time></trkpt><trkpt lat="42.4973226" lon="14.1427483"><ele>85.33333333333333</ele><time>2026-05-01T14:45:05.344Z</time></trkpt><trkpt lat="42.4972091" lon="14.1429293"><ele>85.66666666666667</ele><time>2026-05-01T14:45:06.345Z</time></trkpt><trkpt lat="42.4970782" lon="14.1431551"><ele>86.0</ele><time>2026-05-01T14:45:07.344Z</time></trkpt><trkpt lat="42.4969485" lon="14.143376"><ele>89.33333333333334</ele><time>2026-05-01T14:45:08.344Z</time></trkpt><trkpt lat="42.4968359" lon="14.1435845"><ele>92.66666666666667</ele><time>2026-05-01T14:45:09.344Z</time></trkpt><trkpt lat="42.4967118" lon="14.1437739"><ele>96.0</ele><time>2026-05-01T14:45:10.344Z</time></trkpt><trkpt lat="42.4965941" lon="14.1439305"><ele>92.5</ele><time>2026-05-01T14:45:11.344Z</time></trkpt><trkpt lat="42.4965188" lon="14.1440838"><ele>89.0</ele><time>2026-05-01T14:45:12.344Z</time></trkpt><trkpt lat="42.4964422" lon="14.1442392"><ele>85.5</ele><time>2026-05-01T14:45:13.344Z</time></trkpt><trkpt lat="42.4964232" lon="14.1444497"><ele>82.0</ele><time>2026-05-01T14:45:14.342Z</time></trkpt><trkpt lat="42.4964248" lon="14.1446598"><ele>82.0</ele><time>2026-05-01T14:45:15.343Z</time></trkpt><trkpt lat="42.4964237" lon="14.1448613"><ele>82.0</ele><time>2026-05-01T14:45:16.343Z</time></trkpt><trkpt lat="42.4963986" lon="14.1450075"><ele>82.0</ele><time>2026-05-01T14:45:17.343Z</time></trkpt><trkpt lat="42.4963683" lon="14.1451833"><ele>82.0</ele><time>2026-05-01T14:45:18.343Z</time></trkpt><trkpt lat="42.4962763" lon="14.1453378"><ele>82.0</ele><time>2026-05-01T14:45:19.343Z</time></trkpt><trkpt lat="42.4962082" lon="14.1454903"><ele>82.0</ele><time>2026-05-01T14:45:20.343Z</time></trkpt><trkpt lat="42.4961674" lon="14.1456474"><ele>82.0</ele><time>2026-05-01T14:45:21.342Z</time></trkpt><trkpt lat="42.4962108" lon="14.1457768"><ele>82.0</ele><time>2026-05-01T14:45:22.342Z</time></trkpt><trkpt lat="42.4962253" lon="14.1458938"><ele>82.0</ele><time>2026-05-01T14:45:23.343Z</time></trkpt><trkpt lat="42.4962991" lon="14.1460127"><ele>80.0</ele><time>2026-05-01T14:45:24.343Z</time></trkpt><trkpt lat="42.4964022" lon="14.1460241"><ele>78.0</ele><time>2026-05-01T14:45:25.343Z</time></trkpt><trkpt lat="42.4964735" lon="14.1460243"><ele>76.0</ele><time>2026-05-01T14:45:26.342Z</time></trkpt><trkpt lat="42.4965657" lon="14.1460049"><ele>74.0</ele><time>2026-05-01T14:45:27.342Z</time></trkpt><trkpt lat="42.4966762" lon="14.1458805"><ele>72.0</ele><time>2026-05-01T14:45:28.344Z</time></trkpt><trkpt lat="42.4967387" lon="14.1457178"><ele>71.33333333333333</ele><time>2026-05-01T14:45:29.343Z</time></trkpt><trkpt lat="42.4966993" lon="14.1453929"><ele>70.66666666666666</ele><time>2026-05-01T14:45:30.343Z</time></trkpt><trkpt lat="42.4967505" lon="14.1452225"><ele>70.0</ele><time>2026-05-01T14:45:31.342Z</time></trkpt><trkpt lat="42.4968324" lon="14.1450269"><ele>66.66666666666666</ele><time>2026-05-01T14:45:32.342Z</time></trkpt><trkpt lat="42.4969293" lon="14.1448401"><ele>63.33333333333333</ele><time>2026-05-01T14:45:33.343Z</time></trkpt><trkpt lat="42.4970395" lon="14.1447002"><ele>60.0</ele><time>2026-05-01T14:45:34.343Z</time></trkpt><trkpt lat="42.4971567" lon="14.1445778"><ele>60.0</ele><time>2026-05-01T14:45:35.344Z</time></trkpt><trkpt lat="42.4972832" lon="14.1444924"><ele>60.0</ele><time>2026-05-01T14:45:36.342Z</time></trkpt><trkpt lat="42.4974076" lon="14.1444079"><ele>60.0</ele><time>2026-05-01T14:45:37.344Z</time></trkpt><trkpt lat="42.4975127" lon="14.1443171"><ele>60.0</ele><time>2026-05-01T14:45:38.342Z</time></trkpt><trkpt lat="42.4976097" lon="14.1441793"><ele>57.0</ele><time>2026-05-01T14:45:39.342Z</time></trkpt><trkpt lat="42.4977213" lon="14.1440364"><ele>54.0</ele><time>2026-05-01T14:45:40.343Z</time></trkpt><trkpt lat="42.4978376" lon="14.1438812"><ele>51.0</ele><time>2026-05-01T14:45:41.343Z</time></trkpt><trkpt lat="42.4979715" lon="14.1436867"><ele>51.0</ele><time>2026-05-01T14:45:42.343Z</time></trkpt><trkpt lat="42.4980923" lon="14.1435174"><ele>51.0</ele><time>2026-05-01T14:45:43.343Z</time></trkpt><trkpt lat="42.4982014" lon="14.1433531"><ele>51.0</ele><time>2026-05-01T14:45:44.343Z</time></trkpt><trkpt lat="42.4983033" lon="14.1431994"><ele>54.25</ele><time>2026-05-01T14:45:45.343Z</time></trkpt><trkpt lat="42.498392" lon="14.1430622"><ele>57.5</ele><time>2026-05-01T14:45:46.343Z</time></trkpt><trkpt lat="42.4984757" lon="14.1429393"><ele>60.75</ele><time>2026-05-01T14:45:47.342Z</time></trkpt><trkpt lat="42.4985484" lon="14.1428316"><ele>64.0</ele><time>2026-05-01T14:45:48.343Z</time></trkpt><trkpt lat="42.4986115" lon="14.1427536"><ele>64.0</ele><time>2026-05-01T14:45:49.344Z</time></trkpt><trkpt lat="42.4986691" lon="14.1427008"><ele>64.0</ele><time>2026-05-01T14:45:51.342Z</time></trkpt><trkpt lat="42.4987413" lon="14.1425973"><ele>64.0</ele><time>2026-05-01T14:46:03.343Z</time></trkpt><trkpt lat="42.4987764" lon="14.1424725"><ele>64.0</ele><time>2026-05-01T14:46:04.343Z</time></trkpt><trkpt lat="42.4988213" lon="14.142305"><ele>64.0</ele><time>2026-05-01T14:46:05.343Z</time></trkpt><trkpt lat="42.49889" lon="14.1421125"><ele>60.0</ele><time>2026-05-01T14:46:06.343Z</time></trkpt><trkpt lat="42.4989796" lon="14.1419042"><ele>56.0</ele><time>2026-05-01T14:46:07.343Z</time></trkpt><trkpt lat="42.4990884" lon="14.1416947"><ele>52.0</ele><time>2026-05-01T14:46:08.343Z</time></trkpt><trkpt lat="42.499209" lon="14.1414832"><ele>52.0</ele><time>2026-05-01T14:46:09.342Z</time></trkpt><trkpt lat="42.499349" lon="14.1413045"><ele>52.0</ele><time>2026-05-01T14:46:10.344Z</time></trkpt><trkpt lat="42.4994924" lon="14.1411352"><ele>52.0</ele><time>2026-05-01T14:46:11.343Z</time></trkpt><trkpt lat="42.4996406" lon="14.1409777"><ele>47.666666666666664</ele><time>2026-05-01T14:46:12.344Z</time></trkpt><trkpt lat="42.4997695" lon="14.1408335"><ele>43.33333333333333</ele><time>2026-05-01T14:46:13.342Z</time></trkpt><trkpt lat="42.4998986" lon="14.1406692"><ele>39.0</ele><time>2026-05-01T14:46:14.343Z</time></trkpt><trkpt lat="42.5000179" lon="14.1404894"><ele>39.0</ele><time>2026-05-01T14:46:15.342Z</time></trkpt><trkpt lat="42.5001286" lon="14.1403243"><ele>39.0</ele><time>2026-05-01T14:46:16.343Z</time></trkpt><trkpt lat="42.5002341" lon="14.1401722"><ele>39.0</ele><time>2026-05-01T14:46:17.343Z</time></trkpt><trkpt lat="42.50033" lon="14.1400129"><ele>35.75</ele><time>2026-05-01T14:46:18.344Z</time></trkpt><trkpt lat="42.5004244" lon="14.1398611"><ele>32.5</ele><time>2026-05-01T14:46:19.343Z</time></trkpt><trkpt lat="42.5005227" lon="14.139717"><ele>29.25</ele><time>2026-05-01T14:46:20.343Z</time></trkpt><trkpt lat="42.5006102" lon="14.1395732"><ele>26.0</ele><time>2026-05-01T14:46:21.343Z</time></trkpt><trkpt lat="42.5006948" lon="14.139424"><ele>26.0</ele><time>2026-05-01T14:46:22.343Z</time></trkpt><trkpt lat="42.500773" lon="14.1392721"><ele>26.0</ele><time>2026-05-01T14:46:23.343Z</time></trkpt><trkpt lat="42.5008449" lon="14.1391262"><ele>26.0</ele><time>2026-05-01T14:46:24.342Z</time></trkpt><trkpt lat="42.5009082" lon="14.1389928"><ele>26.0</ele><time>2026-05-01T14:46:25.343Z</time></trkpt><trkpt lat="42.5009643" lon="14.1388693"><ele>25.0</ele><time>2026-05-01T14:46:26.343Z</time></trkpt><trkpt lat="42.5010122" lon="14.1387616"><ele>24.0</ele><time>2026-05-01T14:46:27.342Z</time></trkpt><trkpt lat="42.5010588" lon="14.1386618"><ele>23.0</ele><time>2026-05-01T14:46:28.344Z</time></trkpt><trkpt lat="42.5011005" lon="14.138575"><ele>22.0</ele><time>2026-05-01T14:46:29.343Z</time></trkpt><trkpt lat="42.5011665" lon="14.1384547"><ele>21.0</ele><time>2026-05-01T14:46:31.343Z</time></trkpt><trkpt lat="42.5012113" lon="14.1383456"><ele>21.0</ele><time>2026-05-01T14:46:33.342Z</time></trkpt><trkpt lat="42.5012306" lon="14.1382458"><ele>21.0</ele><time>2026-05-01T14:46:34.343Z</time></trkpt><trkpt lat="42.5012535" lon="14.1381107"><ele>21.0</ele><time>2026-05-01T14:46:35.343Z</time></trkpt><trkpt lat="42.5012829" lon="14.1379568"><ele>21.0</ele><time>2026-05-01T14:46:36.344Z</time></trkpt><trkpt lat="42.5013266" lon="14.1377659"><ele>21.0</ele><time>2026-05-01T14:46:37.342Z</time></trkpt><trkpt lat="42.5013859" lon="14.1375383"><ele>18.666666666666668</ele><time>2026-05-01T14:46:38.343Z</time></trkpt><trkpt lat="42.5014494" lon="14.1372887"><ele>16.333333333333336</ele><time>2026-05-01T14:46:39.343Z</time></trkpt><trkpt lat="42.5015063" lon="14.1370616"><ele>14.0</ele><time>2026-05-01T14:46:40.343Z</time></trkpt><trkpt lat="42.5015587" lon="14.1368616"><ele>14.0</ele><time>2026-05-01T14:46:41.342Z</time></trkpt><trkpt lat="42.5016041" lon="14.1366911"><ele>14.0</ele><time>2026-05-01T14:46:42.342Z</time></trkpt><trkpt lat="42.5016449" lon="14.1365353"><ele>14.0</ele><time>2026-05-01T14:46:43.343Z</time></trkpt><trkpt lat="42.501682" lon="14.1363942"><ele>14.0</ele><time>2026-05-01T14:46:44.343Z</time></trkpt><trkpt lat="42.5017198" lon="14.1362583"><ele>14.000000000000002</ele><time>2026-05-01T14:46:45.343Z</time></trkpt><trkpt lat="42.5017438" lon="14.1361609"><ele>14.0</ele><time>2026-05-01T14:46:46.343Z</time></trkpt><trkpt lat="42.5017698" lon="14.136058"><ele>14.0</ele><time>2026-05-01T14:46:47.342Z</time></trkpt><trkpt lat="42.5018016" lon="14.1359595"><ele>14.0</ele><time>2026-05-01T14:46:48.343Z</time></trkpt><trkpt lat="42.5018265" lon="14.1358601"><ele>14.000000000000002</ele><time>2026-05-01T14:46:49.343Z</time></trkpt><trkpt lat="42.5018508" lon="14.1357616"><ele>14.0</ele><time>2026-05-01T14:46:50.342Z</time></trkpt><trkpt lat="42.5018783" lon="14.1356637"><ele>14.2</ele><time>2026-05-01T14:46:51.343Z</time></trkpt><trkpt lat="42.5019035" lon="14.1355549"><ele>14.399999999999999</ele><time>2026-05-01T14:46:52.343Z</time></trkpt><trkpt lat="42.5019395" lon="14.1354008"><ele>14.6</ele><time>2026-05-01T14:46:53.343Z</time></trkpt><trkpt lat="42.5019842" lon="14.1352283"><ele>14.8</ele><time>2026-05-01T14:46:54.342Z</time></trkpt><trkpt lat="42.5020295" lon="14.1350914"><ele>15.0</ele><time>2026-05-01T14:46:55.343Z</time></trkpt><trkpt lat="42.5020683" lon="14.1349866"><ele>14.8</ele><time>2026-05-01T14:46:56.343Z</time></trkpt><trkpt lat="42.5021047" lon="14.1349149"><ele>14.6</ele><time>2026-05-01T14:46:57.343Z</time></trkpt><trkpt lat="42.5021587" lon="14.1348362"><ele>14.399999999999999</ele><time>2026-05-01T14:46:59.342Z</time></trkpt><trkpt lat="42.5022557" lon="14.1347587"><ele>14.2</ele><time>2026-05-01T14:47:01.343Z</time></trkpt><trkpt lat="42.502368" lon="14.1347251"><ele>14.0</ele><time>2026-05-01T14:47:03.343Z</time></trkpt><trkpt lat="42.5024852" lon="14.1347422"><ele>14.000000000000002</ele><time>2026-05-01T14:47:05.343Z</time></trkpt><trkpt lat="42.5025434" lon="14.1347824"><ele>14.0</ele><time>2026-05-01T14:47:06.342Z</time></trkpt><trkpt lat="42.5026137" lon="14.1348489"><ele>14.0</ele><time>2026-05-01T14:47:07.343Z</time></trkpt><trkpt lat="42.5026945" lon="14.1349347"><ele>14.0</ele><time>2026-05-01T14:47:08.342Z</time></trkpt><trkpt lat="42.5027658" lon="14.1350153"><ele>14.000000000000002</ele><time>2026-05-01T14:47:09.344Z</time></trkpt><trkpt lat="42.5028201" lon="14.1350755"><ele>14.0</ele><time>2026-05-01T14:47:10.343Z</time></trkpt><trkpt lat="42.5029131" lon="14.135186"><ele>13.6</ele><time>2026-05-01T14:47:12.343Z</time></trkpt><trkpt lat="42.5029898" lon="14.1352774"><ele>13.2</ele><time>2026-05-01T14:47:14.343Z</time></trkpt><trkpt lat="42.5030514" lon="14.1353107"><ele>12.799999999999999</ele><time>2026-05-01T14:47:16.343Z</time></trkpt><trkpt lat="42.5031221" lon="14.1352118"><ele>12.399999999999999</ele><time>2026-05-01T14:47:18.343Z</time></trkpt><trkpt lat="42.5031565" lon="14.1350842"><ele>12.0</ele><time>2026-05-01T14:47:19.343Z</time></trkpt><trkpt lat="42.503192" lon="14.1349367"><ele>12.25</ele><time>2026-05-01T14:47:20.343Z</time></trkpt><trkpt lat="42.5032418" lon="14.134747"><ele>12.5</ele><time>2026-05-01T14:47:21.344Z</time></trkpt><trkpt lat="42.5032858" lon="14.1345759"><ele>12.75</ele><time>2026-05-01T14:47:22.343Z</time></trkpt><trkpt lat="42.5033234" lon="14.1344026"><ele>13.0</ele><time>2026-05-01T14:47:23.342Z</time></trkpt><trkpt lat="42.5033658" lon="14.134238"><ele>13.0</ele><time>2026-05-01T14:47:24.342Z</time></trkpt><trkpt lat="42.5034055" lon="14.1340829"><ele>13.0</ele><time>2026-05-01T14:47:25.343Z</time></trkpt><trkpt lat="42.5034489" lon="14.1339408"><ele>13.0</ele><time>2026-05-01T14:47:26.342Z</time></trkpt><trkpt lat="42.5034952" lon="14.1338225"><ele>13.0</ele><time>2026-05-01T14:47:27.342Z</time></trkpt><trkpt lat="42.5035519" lon="14.133723"><ele>13.0</ele><time>2026-05-01T14:47:28.342Z</time></trkpt><trkpt lat="42.5036277" lon="14.1336304"><ele>13.0</ele><time>2026-05-01T14:47:29.343Z</time></trkpt><trkpt lat="42.5037191" lon="14.1335268"><ele>13.0</ele><time>2026-05-01T14:47:30.342Z</time></trkpt><trkpt lat="42.5038113" lon="14.1334241"><ele>13.0</ele><time>2026-05-01T14:47:31.343Z</time></trkpt><trkpt lat="42.5039138" lon="14.1333208"><ele>13.0</ele><time>2026-05-01T14:47:32.342Z</time></trkpt><trkpt lat="42.5040068" lon="14.1332236"><ele>13.0</ele><time>2026-05-01T14:47:33.343Z</time></trkpt><trkpt lat="42.5041089" lon="14.1331338"><ele>13.0</ele><time>2026-05-01T14:47:34.343Z</time></trkpt><trkpt lat="42.5042174" lon="14.1330399"><ele>13.0</ele><time>2026-05-01T14:47:35.341Z</time></trkpt><trkpt lat="42.5043222" lon="14.1329409"><ele>13.0</ele><time>2026-05-01T14:47:36.341Z</time></trkpt><trkpt lat="42.5044205" lon="14.1328577"><ele>13.0</ele><time>2026-05-01T14:47:37.341Z</time></trkpt><trkpt lat="42.5045112" lon="14.1327769"><ele>13.0</ele><time>2026-05-01T14:47:38.343Z</time></trkpt><trkpt lat="42.5046179" lon="14.1326811"><ele>13.0</ele><time>2026-05-01T14:47:39.342Z</time></trkpt><trkpt lat="42.5047335" lon="14.132575"><ele>13.0</ele><time>2026-05-01T14:47:40.341Z</time></trkpt><trkpt lat="42.5048544" lon="14.1324595"><ele>11.666666666666666</ele><time>2026-05-01T14:47:41.343Z</time></trkpt><trkpt lat="42.5049852" lon="14.1323435"><ele>10.333333333333332</ele><time>2026-05-01T14:47:42.342Z</time></trkpt><trkpt lat="42.5051206" lon="14.1322196"><ele>9.0</ele><time>2026-05-01T14:47:43.341Z</time></trkpt><trkpt lat="42.505246" lon="14.1321009"><ele>9.0</ele><time>2026-05-01T14:47:44.342Z</time></trkpt><trkpt lat="42.5053648" lon="14.1319892"><ele>9.0</ele><time>2026-05-01T14:47:45.342Z</time></trkpt><trkpt lat="42.5054728" lon="14.1318857"><ele>9.0</ele><time>2026-05-01T14:47:46.342Z</time></trkpt><trkpt lat="42.5055752" lon="14.1317954"><ele>9.0</ele><time>2026-05-01T14:47:47.342Z</time></trkpt><trkpt lat="42.5056687" lon="14.1317094"><ele>9.0</ele><time>2026-05-01T14:47:48.342Z</time></trkpt><trkpt lat="42.5057593" lon="14.1316274"><ele>9.0</ele><time>2026-05-01T14:47:49.343Z</time></trkpt><trkpt lat="42.5058511" lon="14.1315455"><ele>9.0</ele><time>2026-05-01T14:47:50.342Z</time></trkpt><trkpt lat="42.5059454" lon="14.1314606"><ele>9.0</ele><time>2026-05-01T14:47:51.341Z</time></trkpt><trkpt lat="42.5060324" lon="14.1313779"><ele>9.0</ele><time>2026-05-01T14:47:52.343Z</time></trkpt><trkpt lat="42.5061206" lon="14.1313002"><ele>9.0</ele><time>2026-05-01T14:47:53.341Z</time></trkpt><trkpt lat="42.5062122" lon="14.1312227"><ele>9.0</ele><time>2026-05-01T14:47:54.342Z</time></trkpt><trkpt lat="42.5063004" lon="14.1311538"><ele>9.0</ele><time>2026-05-01T14:47:55.342Z</time></trkpt><trkpt lat="42.5063935" lon="14.1310922"><ele>9.0</ele><time>2026-05-01T14:47:56.342Z</time></trkpt><trkpt lat="42.5064841" lon="14.1310351"><ele>9.0</ele><time>2026-05-01T14:47:57.342Z</time></trkpt><trkpt lat="42.506575" lon="14.1309798"><ele>9.0</ele><time>2026-05-01T14:47:58.343Z</time></trkpt><trkpt lat="42.5066723" lon="14.1309263"><ele>9.0</ele><time>2026-05-01T14:47:59.343Z</time></trkpt><trkpt lat="42.5067762" lon="14.1308715"><ele>9.0</ele><time>2026-05-01T14:48:00.343Z</time></trkpt><trkpt lat="42.5068894" lon="14.1308188"><ele>9.0</ele><time>2026-05-01T14:48:01.342Z</time></trkpt><trkpt lat="42.5070042" lon="14.1307707"><ele>9.75</ele><time>2026-05-01T14:48:02.343Z</time></trkpt><trkpt lat="42.5071366" lon="14.1307223"><ele>10.5</ele><time>2026-05-01T14:48:03.343Z</time></trkpt><trkpt lat="42.5072723" lon="14.130681"><ele>11.25</ele><time>2026-05-01T14:48:04.341Z</time></trkpt><trkpt lat="42.5074014" lon="14.1306433"><ele>12.0</ele><time>2026-05-01T14:48:05.343Z</time></trkpt><trkpt lat="42.5075224" lon="14.1306033"><ele>12.0</ele><time>2026-05-01T14:48:06.342Z</time></trkpt><trkpt lat="42.5076443" lon="14.1305565"><ele>12.0</ele><time>2026-05-01T14:48:07.343Z</time></trkpt><trkpt lat="42.5077672" lon="14.1304839"><ele>12.0</ele><time>2026-05-01T14:48:08.342Z</time></trkpt><trkpt lat="42.5078945" lon="14.1303952"><ele>12.0</ele><time>2026-05-01T14:48:09.341Z</time></trkpt><trkpt lat="42.5080267" lon="14.1302923"><ele>12.0</ele><time>2026-05-01T14:48:10.342Z</time></trkpt><trkpt lat="42.5081453" lon="14.1302027"><ele>12.0</ele><time>2026-05-01T14:48:11.341Z</time></trkpt><trkpt lat="42.508255" lon="14.130122"><ele>12.0</ele><time>2026-05-01T14:48:12.341Z</time></trkpt><trkpt lat="42.5083506" lon="14.1300447"><ele>12.0</ele><time>2026-05-01T14:48:13.341Z</time></trkpt><trkpt lat="42.5084395" lon="14.1299794"><ele>12.0</ele><time>2026-05-01T14:48:14.343Z</time></trkpt><trkpt lat="42.5085226" lon="14.1299159"><ele>12.0</ele><time>2026-05-01T14:48:15.342Z</time></trkpt><trkpt lat="42.508595" lon="14.1298586"><ele>12.0</ele><time>2026-05-01T14:48:16.341Z</time></trkpt><trkpt lat="42.5086599" lon="14.1298146"><ele>12.0</ele><time>2026-05-01T14:48:17.343Z</time></trkpt><trkpt lat="42.5087178" lon="14.1297798"><ele>12.0</ele><time>2026-05-01T14:48:18.342Z</time></trkpt><trkpt lat="42.5087829" lon="14.1297692"><ele>12.0</ele><time>2026-05-01T14:48:19.342Z</time></trkpt><trkpt lat="42.5088625" lon="14.1297812"><ele>11.0</ele><time>2026-05-01T14:48:20.341Z</time></trkpt><trkpt lat="42.5089489" lon="14.1298109"><ele>10.0</ele><time>2026-05-01T14:48:21.342Z</time></trkpt><trkpt lat="42.5090366" lon="14.1298635"><ele>9.0</ele><time>2026-05-01T14:48:22.343Z</time></trkpt><trkpt lat="42.5091238" lon="14.129948"><ele>8.0</ele><time>2026-05-01T14:48:23.343Z</time></trkpt><trkpt lat="42.5092165" lon="14.1300628"><ele>7.0</ele><time>2026-05-01T14:48:24.342Z</time></trkpt><trkpt lat="42.5093246" lon="14.1302027"><ele>7.0</ele><time>2026-05-01T14:48:25.343Z</time></trkpt><trkpt lat="42.5094538" lon="14.130377"><ele>7.0</ele><time>2026-05-01T14:48:26.341Z</time></trkpt><trkpt lat="42.5095924" lon="14.1305817"><ele>7.0</ele><time>2026-05-01T14:48:27.343Z</time></trkpt><trkpt lat="42.5097393" lon="14.1307995"><ele>6.333333333333334</ele><time>2026-05-01T14:48:28.343Z</time></trkpt><trkpt lat="42.509873" lon="14.1310076"><ele>5.666666666666667</ele><time>2026-05-01T14:48:29.342Z</time></trkpt><trkpt lat="42.5099938" lon="14.1312026"><ele>5.0</ele><time>2026-05-01T14:48:30.342Z</time></trkpt><trkpt lat="42.5101048" lon="14.1313883"><ele>5.333333333333334</ele><time>2026-05-01T14:48:31.341Z</time></trkpt><trkpt lat="42.5102044" lon="14.1315688"><ele>5.666666666666667</ele><time>2026-05-01T14:48:32.342Z</time></trkpt><trkpt lat="42.5103003" lon="14.1317453"><ele>6.0</ele><time>2026-05-01T14:48:33.342Z</time></trkpt><trkpt lat="42.5103967" lon="14.1319238"><ele>6.0</ele><time>2026-05-01T14:48:34.341Z</time></trkpt><trkpt lat="42.5104939" lon="14.1321024"><ele>6.0</ele><time>2026-05-01T14:48:35.343Z</time></trkpt><trkpt lat="42.5105895" lon="14.1322791"><ele>6.0</ele><time>2026-05-01T14:48:36.342Z</time></trkpt><trkpt lat="42.5106816" lon="14.1324558"><ele>6.0</ele><time>2026-05-01T14:48:37.342Z</time></trkpt><trkpt lat="42.5107738" lon="14.1326309"><ele>6.0</ele><time>2026-05-01T14:48:38.341Z</time></trkpt><trkpt lat="42.5108637" lon="14.1327997"><ele>6.0</ele><time>2026-05-01T14:48:39.341Z</time></trkpt><trkpt lat="42.5109508" lon="14.1329681"><ele>6.0</ele><time>2026-05-01T14:48:40.342Z</time></trkpt><trkpt lat="42.5110435" lon="14.1331149"><ele>6.0</ele><time>2026-05-01T14:48:41.341Z</time></trkpt><trkpt lat="42.5111378" lon="14.1332603"><ele>6.0</ele><time>2026-05-01T14:48:42.342Z</time></trkpt><trkpt lat="42.511234" lon="14.1334088"><ele>6.0</ele><time>2026-05-01T14:48:43.342Z</time></trkpt><trkpt lat="42.511327" lon="14.1335654"><ele>5.75</ele><time>2026-05-01T14:48:44.342Z</time></trkpt><trkpt lat="42.5114086" lon="14.1337259"><ele>5.5</ele><time>2026-05-01T14:48:45.342Z</time></trkpt><trkpt lat="42.5114864" lon="14.1338809"><ele>5.25</ele><time>2026-05-01T14:48:46.343Z</time></trkpt><trkpt lat="42.5115577" lon="14.1340249"><ele>5.0</ele><time>2026-05-01T14:48:47.343Z</time></trkpt><trkpt lat="42.511627" lon="14.1341655"><ele>5.0</ele><time>2026-05-01T14:48:48.341Z</time></trkpt><trkpt lat="42.5117138" lon="14.1342944"><ele>5.0</ele><time>2026-05-01T14:48:49.341Z</time></trkpt><trkpt lat="42.5118184" lon="14.1344165"><ele>5.0</ele><time>2026-05-01T14:48:50.341Z</time></trkpt><trkpt lat="42.5119516" lon="14.134532"><ele>5.0</ele><time>2026-05-01T14:48:51.341Z</time></trkpt><trkpt lat="42.5121178" lon="14.1346462"><ele>4.333333333333334</ele><time>2026-05-01T14:48:52.342Z</time></trkpt><trkpt lat="42.5123033" lon="14.1347667"><ele>3.666666666666667</ele><time>2026-05-01T14:48:53.343Z</time></trkpt><trkpt lat="42.5124804" lon="14.1348898"><ele>3.0</ele><time>2026-05-01T14:48:54.342Z</time></trkpt><trkpt lat="42.5126493" lon="14.135012"><ele>3.0</ele><time>2026-05-01T14:48:55.342Z</time></trkpt><trkpt lat="42.5128042" lon="14.1351428"><ele>3.0</ele><time>2026-05-01T14:48:56.342Z</time></trkpt><trkpt lat="42.512938" lon="14.1352883"><ele>3.0</ele><time>2026-05-01T14:48:57.343Z</time></trkpt><trkpt lat="42.5130541" lon="14.1354547"><ele>3.0</ele><time>2026-05-01T14:48:58.341Z</time></trkpt><trkpt lat="42.5131584" lon="14.1356514"><ele>3.0</ele><time>2026-05-01T14:48:59.341Z</time></trkpt><trkpt lat="42.5132514" lon="14.135867"><ele>3.0</ele><time>2026-05-01T14:49:00.342Z</time></trkpt><trkpt lat="42.513324" lon="14.1361028"><ele>3.0</ele><time>2026-05-01T14:49:01.342Z</time></trkpt><trkpt lat="42.5133853" lon="14.1363449"><ele>3.0</ele><time>2026-05-01T14:49:02.342Z</time></trkpt><trkpt lat="42.513438" lon="14.136573"><ele>3.0</ele><time>2026-05-01T14:49:03.342Z</time></trkpt><trkpt lat="42.5134917" lon="14.1367784"><ele>3.2</ele><time>2026-05-01T14:49:04.342Z</time></trkpt><trkpt lat="42.5135424" lon="14.1369423"><ele>3.4</ele><time>2026-05-01T14:49:05.342Z</time></trkpt><trkpt lat="42.5135899" lon="14.1370749"><ele>3.6000000000000005</ele><time>2026-05-01T14:49:06.342Z</time></trkpt><trkpt lat="42.5136268" lon="14.1371827"><ele>3.8000000000000003</ele><time>2026-05-01T14:49:07.342Z</time></trkpt><trkpt lat="42.5136656" lon="14.1372834"><ele>4.0</ele><time>2026-05-01T14:49:09.342Z</time></trkpt><trkpt lat="42.5137025" lon="14.1373881"><ele>4.4</ele><time>2026-05-01T14:49:16.342Z</time></trkpt><trkpt lat="42.5137298" lon="14.1374844"><ele>4.800000000000001</ele><time>2026-05-01T14:49:17.342Z</time></trkpt><trkpt lat="42.5137484" lon="14.1375924"><ele>5.199999999999999</ele><time>2026-05-01T14:49:18.342Z</time></trkpt><trkpt lat="42.5137499" lon="14.137716"><ele>5.6</ele><time>2026-05-01T14:49:19.341Z</time></trkpt><trkpt lat="42.5137292" lon="14.1378537"><ele>6.0</ele><time>2026-05-01T14:49:20.342Z</time></trkpt><trkpt lat="42.5136804" lon="14.1380015"><ele>6.0</ele><time>2026-05-01T14:49:21.343Z</time></trkpt><trkpt lat="42.5136154" lon="14.1381667"><ele>6.0</ele><time>2026-05-01T14:49:22.343Z</time></trkpt><trkpt lat="42.5135429" lon="14.1383543"><ele>6.0</ele><time>2026-05-01T14:49:23.342Z</time></trkpt><trkpt lat="42.513461" lon="14.1385524"><ele>5.666666666666667</ele><time>2026-05-01T14:49:24.342Z</time></trkpt><trkpt lat="42.5133804" lon="14.1387594"><ele>5.333333333333334</ele><time>2026-05-01T14:49:25.342Z</time></trkpt><trkpt lat="42.5132973" lon="14.1389643"><ele>5.0</ele><time>2026-05-01T14:49:26.342Z</time></trkpt><trkpt lat="42.5132147" lon="14.139178"><ele>5.666666666666667</ele><time>2026-05-01T14:49:27.341Z</time></trkpt><trkpt lat="42.5131353" lon="14.1393812"><ele>6.333333333333334</ele><time>2026-05-01T14:49:28.341Z</time></trkpt><trkpt lat="42.5130645" lon="14.139575"><ele>7.0</ele><time>2026-05-01T14:49:29.342Z</time></trkpt><trkpt lat="42.5129991" lon="14.1397565"><ele>6.75</ele><time>2026-05-01T14:49:30.342Z</time></trkpt><trkpt lat="42.5129378" lon="14.1399253"><ele>6.5</ele><time>2026-05-01T14:49:31.343Z</time></trkpt><trkpt lat="42.5128834" lon="14.1400822"><ele>6.25</ele><time>2026-05-01T14:49:32.342Z</time></trkpt><trkpt lat="42.5128333" lon="14.1402276"><ele>6.0</ele><time>2026-05-01T14:49:33.341Z</time></trkpt><trkpt lat="42.5127861" lon="14.140363"><ele>6.0</ele><time>2026-05-01T14:49:34.341Z</time></trkpt><trkpt lat="42.5127368" lon="14.1404951"><ele>6.0</ele><time>2026-05-01T14:49:35.342Z</time></trkpt><trkpt lat="42.5126859" lon="14.1406288"><ele>6.0</ele><time>2026-05-01T14:49:36.342Z</time></trkpt><trkpt lat="42.5126354" lon="14.1407572"><ele>6.0</ele><time>2026-05-01T14:49:37.342Z</time></trkpt><trkpt lat="42.5125865" lon="14.1408744"><ele>6.0</ele><time>2026-05-01T14:49:38.341Z</time></trkpt><trkpt lat="42.5125395" lon="14.1409946"><ele>6.4</ele><time>2026-05-01T14:49:39.341Z</time></trkpt><trkpt lat="42.5124966" lon="14.1411013"><ele>6.8</ele><time>2026-05-01T14:49:40.341Z</time></trkpt><trkpt lat="42.5124624" lon="14.1412014"><ele>7.200000000000001</ele><time>2026-05-01T14:49:41.342Z</time></trkpt><trkpt lat="42.5124288" lon="14.1413039"><ele>7.6000000000000005</ele><time>2026-05-01T14:49:42.342Z</time></trkpt><trkpt lat="42.512477" lon="14.1414482"><ele>8.0</ele><time>2026-05-01T14:49:44.342Z</time></trkpt><trkpt lat="42.5125969" lon="14.1415177"><ele>8.0</ele><time>2026-05-01T14:49:46.341Z</time></trkpt><trkpt lat="42.5126754" lon="14.141507"><ele>8.0</ele><time>2026-05-01T14:49:47.343Z</time></trkpt><trkpt lat="42.5127722" lon="14.1414769"><ele>8.0</ele><time>2026-05-01T14:49:48.343Z</time></trkpt><trkpt lat="42.5128807" lon="14.1414546"><ele>8.0</ele><time>2026-05-01T14:49:49.342Z</time></trkpt><trkpt lat="42.5129951" lon="14.1414406"><ele>8.0</ele><time>2026-05-01T14:49:50.342Z</time></trkpt><trkpt lat="42.5130994" lon="14.141438"><ele>7.5</ele><time>2026-05-01T14:49:51.341Z</time></trkpt><trkpt lat="42.5132128" lon="14.1414456"><ele>7.0</ele><time>2026-05-01T14:49:52.342Z</time></trkpt><trkpt lat="42.5133292" lon="14.141474"><ele>6.5</ele><time>2026-05-01T14:49:53.341Z</time></trkpt><trkpt lat="42.5134412" lon="14.1415162"><ele>6.0</ele><time>2026-05-01T14:49:54.342Z</time></trkpt><trkpt lat="42.513545" lon="14.1415697"><ele>6.0</ele><time>2026-05-01T14:49:55.341Z</time></trkpt><trkpt lat="42.5136556" lon="14.1416438"><ele>6.0</ele><time>2026-05-01T14:49:56.342Z</time></trkpt><trkpt lat="42.5137641" lon="14.1417224"><ele>6.0</ele><time>2026-05-01T14:49:57.34Z</time></trkpt><trkpt lat="42.5138607" lon="14.1417926"><ele>6.0</ele><time>2026-05-01T14:49:58.34Z</time></trkpt><trkpt lat="42.5139476" lon="14.1418566"><ele>5.571428571428571</ele><time>2026-05-01T14:49:59.341Z</time></trkpt><trkpt lat="42.514028" lon="14.1419134"><ele>5.142857142857142</ele><time>2026-05-01T14:50:00.342Z</time></trkpt><trkpt lat="42.5140994" lon="14.1419648"><ele>4.7142857142857135</ele><time>2026-05-01T14:50:01.341Z</time></trkpt><trkpt lat="42.5141578" lon="14.1420194"><ele>4.285714285714286</ele><time>2026-05-01T14:50:02.34Z</time></trkpt><trkpt lat="42.5142081" lon="14.1420794"><ele>3.8571428571428568</ele><time>2026-05-01T14:50:03.34Z</time></trkpt><trkpt lat="42.5142508" lon="14.1421522"><ele>3.4285714285714284</ele><time>2026-05-01T14:50:04.341Z</time></trkpt><trkpt lat="42.5142777" lon="14.1422326"><ele>3.0</ele><time>2026-05-01T14:50:05.341Z</time></trkpt><trkpt lat="42.5142957" lon="14.1423165"><ele>2.8333333333333335</ele><time>2026-05-01T14:50:06.341Z</time></trkpt><trkpt lat="42.5143171" lon="14.142402"><ele>2.6666666666666665</ele><time>2026-05-01T14:50:07.341Z</time></trkpt><trkpt lat="42.5144173" lon="14.1424839"><ele>2.5</ele><time>2026-05-01T14:50:09.342Z</time></trkpt><trkpt lat="42.5144887" lon="14.1424644"><ele>2.333333333333333</ele><time>2026-05-01T14:50:10.342Z</time></trkpt><trkpt lat="42.5145741" lon="14.1424326"><ele>2.1666666666666665</ele><time>2026-05-01T14:50:11.341Z</time></trkpt><trkpt lat="42.5146634" lon="14.1424336"><ele>2.0</ele><time>2026-05-01T14:50:12.341Z</time></trkpt><trkpt lat="42.514756" lon="14.1424684"><ele>2.0</ele><time>2026-05-01T14:50:13.341Z</time></trkpt><trkpt lat="42.5148519" lon="14.1425289"><ele>2.0</ele><time>2026-05-01T14:50:14.342Z</time></trkpt><trkpt lat="42.5149518" lon="14.1425997"><ele>2.0</ele><time>2026-05-01T14:50:15.342Z</time></trkpt><trkpt lat="42.5150566" lon="14.1426837"><ele>2.0</ele><time>2026-05-01T14:50:16.341Z</time></trkpt><trkpt lat="42.5151738" lon="14.142769"><ele>2.0</ele><time>2026-05-01T14:50:17.342Z</time></trkpt><trkpt lat="42.515296" lon="14.1428574"><ele>2.0</ele><time>2026-05-01T14:50:18.342Z</time></trkpt><trkpt lat="42.5154227" lon="14.1429486"><ele>2.0</ele><time>2026-05-01T14:50:19.341Z</time></trkpt><trkpt lat="42.5155554" lon="14.1430434"><ele>2.0</ele><time>2026-05-01T14:50:20.34Z</time></trkpt><trkpt lat="42.5156939" lon="14.1431416"><ele>2.5</ele><time>2026-05-01T14:50:21.341Z</time></trkpt><trkpt lat="42.5158307" lon="14.1432352"><ele>3.0</ele><time>2026-05-01T14:50:22.34Z</time></trkpt><trkpt lat="42.5159588" lon="14.1433253"><ele>3.5</ele><time>2026-05-01T14:50:23.34Z</time></trkpt><trkpt lat="42.5160842" lon="14.1434175"><ele>4.0</ele><time>2026-05-01T14:50:24.342Z</time></trkpt><trkpt lat="42.5162077" lon="14.1435074"><ele>4.5</ele><time>2026-05-01T14:50:25.34Z</time></trkpt><trkpt lat="42.5163319" lon="14.1435956"><ele>5.0</ele><time>2026-05-01T14:50:26.342Z</time></trkpt><trkpt lat="42.5164567" lon="14.1436835"><ele>5.5</ele><time>2026-05-01T14:50:27.34Z</time></trkpt><trkpt lat="42.5165858" lon="14.1437721"><ele>6.0</ele><time>2026-05-01T14:50:28.34Z</time></trkpt><trkpt lat="42.5167116" lon="14.1438627"><ele>6.0</ele><time>2026-05-01T14:50:29.34Z</time></trkpt><trkpt lat="42.5168367" lon="14.1439507"><ele>6.0</ele><time>2026-05-01T14:50:30.34Z</time></trkpt><trkpt lat="42.516962" lon="14.1440423"><ele>6.0</ele><time>2026-05-01T14:50:31.341Z</time></trkpt><trkpt lat="42.5170911" lon="14.1441342"><ele>6.0</ele><time>2026-05-01T14:50:32.341Z</time></trkpt><trkpt lat="42.5172218" lon="14.1442282"><ele>5.25</ele><time>2026-05-01T14:50:33.341Z</time></trkpt><trkpt lat="42.5173489" lon="14.1443182"><ele>4.5</ele><time>2026-05-01T14:50:34.34Z</time></trkpt><trkpt lat="42.5174763" lon="14.1444077"><ele>3.75</ele><time>2026-05-01T14:50:35.341Z</time></trkpt><trkpt lat="42.5176012" lon="14.1444956"><ele>3.0</ele><time>2026-05-01T14:50:36.342Z</time></trkpt><trkpt lat="42.5177264" lon="14.1445848"><ele>3.0</ele><time>2026-05-01T14:50:37.341Z</time></trkpt><trkpt lat="42.5178626" lon="14.1446805"><ele>3.0</ele><time>2026-05-01T14:50:38.342Z</time></trkpt><trkpt lat="42.518025" lon="14.1447912"><ele>3.0</ele><time>2026-05-01T14:50:39.34Z</time></trkpt><trkpt lat="42.5182097" lon="14.1449148"><ele>3.0</ele><time>2026-05-01T14:50:40.341Z</time></trkpt><trkpt lat="42.5183735" lon="14.1450429"><ele>3.0</ele><time>2026-05-01T14:50:41.341Z</time></trkpt><trkpt lat="42.5185214" lon="14.1451619"><ele>3.0</ele><time>2026-05-01T14:50:42.341Z</time></trkpt><trkpt lat="42.5186612" lon="14.1452649"><ele>3.0</ele><time>2026-05-01T14:50:43.342Z</time></trkpt><trkpt lat="42.5187893" lon="14.1453561"><ele>3.0</ele><time>2026-05-01T14:50:44.341Z</time></trkpt><trkpt lat="42.5189051" lon="14.1454369"><ele>3.0</ele><time>2026-05-01T14:50:45.341Z</time></trkpt><trkpt lat="42.5190121" lon="14.1455092"><ele>3.0</ele><time>2026-05-01T14:50:46.341Z</time></trkpt><trkpt lat="42.5191108" lon="14.1455763"><ele>3.0</ele><time>2026-05-01T14:50:47.341Z</time></trkpt><trkpt lat="42.5191984" lon="14.1456367"><ele>3.0</ele><time>2026-05-01T14:50:48.341Z</time></trkpt><trkpt lat="42.5192812" lon="14.1456976"><ele>3.0</ele><time>2026-05-01T14:50:49.341Z</time></trkpt><trkpt lat="42.5193507" lon="14.1457569"><ele>3.0</ele><time>2026-05-01T14:50:50.341Z</time></trkpt><trkpt lat="42.5194324" lon="14.1458481"><ele>3.0</ele><time>2026-05-01T14:50:52.341Z</time></trkpt><trkpt lat="42.5194877" lon="14.1459336"><ele>3.3333333333333335</ele><time>2026-05-01T14:50:55.341Z</time></trkpt><trkpt lat="42.5195339" lon="14.1460024"><ele>3.666666666666667</ele><time>2026-05-01T14:50:57.34Z</time></trkpt><trkpt lat="42.5195555" lon="14.1460855"><ele>4.0</ele><time>2026-05-01T14:50:59.34Z</time></trkpt><trkpt lat="42.5195141" lon="14.1461695"><ele>4.333333333333334</ele><time>2026-05-01T14:51:01.34Z</time></trkpt><trkpt lat="42.5194253" lon="14.1462916"><ele>4.666666666666667</ele><time>2026-05-01T14:51:03.34Z</time></trkpt><trkpt lat="42.5193798" lon="14.146368"><ele>5.0</ele><time>2026-05-01T14:51:04.34Z</time></trkpt><trkpt lat="42.5193317" lon="14.1464446"><ele>5.0</ele><time>2026-05-01T14:51:05.341Z</time></trkpt><trkpt lat="42.5192867" lon="14.1465191"><ele>5.0</ele><time>2026-05-01T14:51:06.341Z</time></trkpt><trkpt lat="42.5192375" lon="14.1466015"><ele>5.0</ele><time>2026-05-01T14:51:07.342Z</time></trkpt><trkpt lat="42.5191924" lon="14.1466638"><ele>5.0</ele><time>2026-05-01T14:51:08.342Z</time></trkpt><trkpt lat="42.5191159" lon="14.1467671"><ele>5.0</ele><time>2026-05-01T14:51:10.341Z</time></trkpt><trkpt lat="42.5190581" lon="14.1468902"><ele>5.0</ele><time>2026-05-01T14:51:12.342Z</time></trkpt><trkpt lat="42.5190521" lon="14.1470221"><ele>4.666666666666667</ele><time>2026-05-01T14:51:14.341Z</time></trkpt><trkpt lat="42.5191047" lon="14.1471624"><ele>4.333333333333334</ele><time>2026-05-01T14:51:16.341Z</time></trkpt><trkpt lat="42.5191606" lon="14.1472218"><ele>4.0</ele><time>2026-05-01T14:51:17.341Z</time></trkpt><trkpt lat="42.5192146" lon="14.1472755"><ele>3.666666666666667</ele><time>2026-05-01T14:51:18.341Z</time></trkpt><trkpt lat="42.5192937" lon="14.1473172"><ele>3.3333333333333335</ele><time>2026-05-01T14:51:19.341Z</time></trkpt><trkpt lat="42.5193678" lon="14.1473607"><ele>3.0</ele><time>2026-05-01T14:51:20.341Z</time></trkpt><trkpt lat="42.5194528" lon="14.1474277"><ele>3.0</ele><time>2026-05-01T14:51:21.341Z</time></trkpt><trkpt lat="42.519528" lon="14.1475051"><ele>3.0</ele><time>2026-05-01T14:51:22.34Z</time></trkpt><trkpt lat="42.5196019" lon="14.1476017"><ele>3.0</ele><time>2026-05-01T14:51:23.341Z</time></trkpt><trkpt lat="42.519683" lon="14.1477177"><ele>3.0</ele><time>2026-05-01T14:51:24.34Z</time></trkpt><trkpt lat="42.5197696" lon="14.1478471"><ele>3.0</ele><time>2026-05-01T14:51:25.34Z</time></trkpt><trkpt lat="42.5198535" lon="14.147975"><ele>2.75</ele><time>2026-05-01T14:51:26.342Z</time></trkpt><trkpt lat="42.519927" lon="14.1481154"><ele>2.5</ele><time>2026-05-01T14:51:27.342Z</time></trkpt><trkpt lat="42.5199907" lon="14.1482689"><ele>2.25</ele><time>2026-05-01T14:51:28.341Z</time></trkpt><trkpt lat="42.5200473" lon="14.1484269"><ele>2.0</ele><time>2026-05-01T14:51:29.341Z</time></trkpt><trkpt lat="42.5201069" lon="14.1485925"><ele>2.0</ele><time>2026-05-01T14:51:30.341Z</time></trkpt><trkpt lat="42.5201718" lon="14.1487714"><ele>2.0</ele><time>2026-05-01T14:51:31.341Z</time></trkpt><trkpt lat="42.5202355" lon="14.1489603"><ele>2.0</ele><time>2026-05-01T14:51:32.341Z</time></trkpt><trkpt lat="42.5202977" lon="14.1491516"><ele>2.0</ele><time>2026-05-01T14:51:33.34Z</time></trkpt><trkpt lat="42.5203613" lon="14.1493445"><ele>2.0</ele><time>2026-05-01T14:51:34.34Z</time></trkpt><trkpt lat="42.5204218" lon="14.1495225"><ele>2.0</ele><time>2026-05-01T14:51:35.34Z</time></trkpt><trkpt lat="42.520479" lon="14.149689"><ele>2.0</ele><time>2026-05-01T14:51:36.34Z</time></trkpt><trkpt lat="42.5205315" lon="14.1498383"><ele>2.2</ele><time>2026-05-01T14:51:37.34Z</time></trkpt><trkpt lat="42.5205771" lon="14.1499705"><ele>2.4000000000000004</ele><time>2026-05-01T14:51:38.341Z</time></trkpt><trkpt lat="42.5206211" lon="14.1501029"><ele>2.5999999999999996</ele><time>2026-05-01T14:51:39.341Z</time></trkpt><trkpt lat="42.5206662" lon="14.1502457"><ele>2.8</ele><time>2026-05-01T14:51:40.342Z</time></trkpt><trkpt lat="42.5207141" lon="14.1503916"><ele>3.0</ele><time>2026-05-01T14:51:41.341Z</time></trkpt><trkpt lat="42.5207646" lon="14.1505356"><ele>3.0</ele><time>2026-05-01T14:51:42.341Z</time></trkpt><trkpt lat="42.5208123" lon="14.1506708"><ele>3.0</ele><time>2026-05-01T14:51:43.341Z</time></trkpt><trkpt lat="42.5208547" lon="14.1507909"><ele>3.0</ele><time>2026-05-01T14:51:44.34Z</time></trkpt><trkpt lat="42.5208957" lon="14.1509048"><ele>3.0</ele><time>2026-05-01T14:51:45.34Z</time></trkpt><trkpt lat="42.5209378" lon="14.1510149"><ele>3.0</ele><time>2026-05-01T14:51:46.342Z</time></trkpt><trkpt lat="42.5209702" lon="14.1511163"><ele>2.8333333333333335</ele><time>2026-05-01T14:51:47.342Z</time></trkpt><trkpt lat="42.5210004" lon="14.1512047"><ele>2.6666666666666665</ele><time>2026-05-01T14:51:48.341Z</time></trkpt><trkpt lat="42.5210331" lon="14.1512893"><ele>2.5</ele><time>2026-05-01T14:51:49.341Z</time></trkpt><trkpt lat="42.5210625" lon="14.1513703"><ele>2.333333333333333</ele><time>2026-05-01T14:51:50.341Z</time></trkpt><trkpt lat="42.5210898" lon="14.1514508"><ele>2.1666666666666665</ele><time>2026-05-01T14:51:51.341Z</time></trkpt><trkpt lat="42.5211334" lon="14.1515712"><ele>2.0</ele><time>2026-05-01T14:51:53.341Z</time></trkpt><trkpt lat="42.5211822" lon="14.151707"><ele>2.0</ele><time>2026-05-01T14:51:55.342Z</time></trkpt><trkpt lat="42.521216" lon="14.1518007"><ele>2.0</ele><time>2026-05-01T14:51:56.342Z</time></trkpt><trkpt lat="42.5212554" lon="14.1519134"><ele>2.0</ele><time>2026-05-01T14:51:57.341Z</time></trkpt><trkpt lat="42.5212997" lon="14.1520411"><ele>2.0</ele><time>2026-05-01T14:51:58.34Z</time></trkpt><trkpt lat="42.5213457" lon="14.1521746"><ele>2.0</ele><time>2026-05-01T14:51:59.34Z</time></trkpt><trkpt lat="42.5213957" lon="14.1523197"><ele>1.25</ele><time>2026-05-01T14:52:00.341Z</time></trkpt><trkpt lat="42.521445" lon="14.1524659"><ele>0.5</ele><time>2026-05-01T14:52:01.341Z</time></trkpt><trkpt lat="42.5214954" lon="14.1526197"><ele>-0.25</ele><time>2026-05-01T14:52:02.34Z</time></trkpt><trkpt lat="42.5215465" lon="14.1527703"><ele>-1.0</ele><time>2026-05-01T14:52:03.341Z</time></trkpt><trkpt lat="42.5215967" lon="14.1529193"><ele>-1.0</ele><time>2026-05-01T14:52:04.34Z</time></trkpt><trkpt lat="42.521645" lon="14.1530693"><ele>-1.0</ele><time>2026-05-01T14:52:05.341Z</time></trkpt><trkpt lat="42.52169" lon="14.1532093"><ele>-1.0</ele><time>2026-05-01T14:52:06.34Z</time></trkpt><trkpt lat="42.5217363" lon="14.1533312"><ele>-1.0</ele><time>2026-05-01T14:52:07.339Z</time></trkpt><trkpt lat="42.5217732" lon="14.1534392"><ele>-1.0</ele><time>2026-05-01T14:52:08.341Z</time></trkpt><trkpt lat="42.5218038" lon="14.1535308"><ele>-0.8333333333333333</ele><time>2026-05-01T14:52:09.341Z</time></trkpt><trkpt lat="42.5218489" lon="14.1536472"><ele>-0.6666666666666666</ele><time>2026-05-01T14:52:11.34Z</time></trkpt><trkpt lat="42.5219293" lon="14.1536747"><ele>-0.5</ele><time>2026-05-01T14:52:14.339Z</time></trkpt><trkpt lat="42.522001" lon="14.1536425"><ele>-0.3333333333333333</ele><time>2026-05-01T14:52:16.34Z</time></trkpt><trkpt lat="42.5220556" lon="14.1535919"><ele>-0.16666666666666666</ele><time>2026-05-01T14:52:17.341Z</time></trkpt><trkpt lat="42.5221268" lon="14.1535319"><ele>0.0</ele><time>2026-05-01T14:52:18.339Z</time></trkpt><trkpt lat="42.5221994" lon="14.1534654"><ele>0.2857142857142857</ele><time>2026-05-01T14:52:19.341Z</time></trkpt><trkpt lat="42.5222689" lon="14.153401"><ele>0.5714285714285714</ele><time>2026-05-01T14:52:20.341Z</time></trkpt><trkpt lat="42.522326" lon="14.153357"><ele>0.8571428571428571</ele><time>2026-05-01T14:52:21.339Z</time></trkpt><trkpt lat="42.522385" lon="14.1533085"><ele>1.1428571428571428</ele><time>2026-05-01T14:52:22.339Z</time></trkpt><trkpt lat="42.5224449" lon="14.1532587"><ele>1.4285714285714284</ele><time>2026-05-01T14:52:23.34Z</time></trkpt><trkpt lat="42.5225038" lon="14.153206"><ele>1.7142857142857142</ele><time>2026-05-01T14:52:24.34Z</time></trkpt><trkpt lat="42.5225601" lon="14.1531543"><ele>2.0</ele><time>2026-05-01T14:52:25.34Z</time></trkpt><trkpt lat="42.5226175" lon="14.1531014"><ele>1.9999999999999998</ele><time>2026-05-01T14:52:26.339Z</time></trkpt><trkpt lat="42.5226987" lon="14.1530101"><ele>2.0</ele><time>2026-05-01T14:52:28.34Z</time></trkpt><trkpt lat="42.5227098" lon="14.1529146"><ele>2.0</ele><time>2026-05-01T14:52:30.34Z</time></trkpt><trkpt lat="42.5226348" lon="14.1528726"><ele>2.0</ele><time>2026-05-01T14:52:33.34Z</time></trkpt><trkpt lat="42.5225676" lon="14.1529123"><ele>1.9999999999999998</ele><time>2026-05-01T14:52:39.34Z</time></trkpt><trkpt lat="42.5224864" lon="14.1529834"><ele>2.0</ele><time>2026-05-01T14:52:41.339Z</time></trkpt><trkpt lat="42.5224137" lon="14.1530166"><ele>2.0</ele><time>2026-05-01T14:52:44.339Z</time></trkpt><trkpt lat="42.5223579" lon="14.152935"><ele>2.0</ele><time>2026-05-01T14:52:47.34Z</time></trkpt><trkpt lat="42.5223121" lon="14.1528487"><ele>2.0</ele><time>2026-05-01T14:52:49.341Z</time></trkpt><trkpt lat="42.5222783" lon="14.1527738"><ele>2.0</ele><time>2026-05-01T14:52:51.34Z</time></trkpt><trkpt lat="42.5222402" lon="14.1526912"><ele>2.0</ele><time>2026-05-01T14:52:55.34Z</time></trkpt></trkseg></trk></gpx>